# Wetter Temperatur Luftdruck Luftfeuchtigkeit Sichtweite Windgeschwindigkeit Windrichtung Zeit
1 Clouds 24 1011 53 8000 0.5 0 06:18 11.07.2020
2 Clouds 27 1011 44 8000 1 0 05:20 11.07.2020
3 Clouds 25 1011 50 8000 1 0 04:53 11.07.2020
4 Clouds 25 1011 50 8000 1.5 250 04:31 11.07.2020
5 Clouds 27 1011 44 8000 1.5 250 02:57 11.07.2020
6 Clouds 27 1012 44 8000 3.1 260 02:35 11.07.2020
7 Clouds 29 1012 39 8000 1.5 290 01:27 11.07.2020
8 Clouds 29 1012 39 8000 2.1 280 00:58 11.07.2020
9 Clouds 30 1012 35 8000 1 0 00:38 11.07.2020
10 Clouds 30 1012 35 8000 1 0 00:19 11.07.2020
11 Clouds 31 1011 35 8000 3.1 30 23:46 10.07.2020
12 Clouds 31 1011 35 8000 3.1 30 23:27 10.07.2020
13 Clouds 32 1011 31 10000 4.6 20 22:59 10.07.2020
14 Clouds 33 1011 29 10000 4.6 350 22:41 10.07.2020
15 Clouds 34 1010 28 10000 5.7 350 22:19 10.07.2020
16 Clouds 36 1010 23 10000 5.7 350 21:40 10.07.2020
17 Clouds 36 1010 23 10000 5.7 350 21:21 10.07.2020
18 Clouds 39 1009 14 10000 4.1 360 20:58 10.07.2020
19 Clouds 40 1009 13 10000 2.6 20 20:40 10.07.2020
20 Clouds 40 1009 13 10000 2.6 20 20:20 10.07.2020
21 Clouds 40 1009 14 10000 3.1 350 19:57 10.07.2020
22 Clouds 40 1009 16 10000 3.1 330 19:38 10.07.2020
23 Clouds 40 1009 16 10000 3.1 320 19:19 10.07.2020
24 Clouds 39 1009 18 10000 3.6 350 18:41 10.07.2020
25 Clouds 39 1009 18 10000 3.6 350 18:19 10.07.2020
26 Clouds 40 1009 17 10000 3.1 10 17:56 10.07.2020
27 Clouds 39 1009 18 10000 2.1 0 17:38 10.07.2020
28 Clouds 39 1009 18 10000 2.1 0 17:19 10.07.2020
29 Clear 39 1010 21 10000 1.5 0 16:42 10.07.2020
30 Clear 39 1010 21 10000 1.5 0 16:20 10.07.2020
31 Clear 36 1011 25 10000 2.6 0 15:45 10.07.2020
32 Clear 36 1011 25 10000 2.6 0 15:23 10.07.2020
33 Clear 34 1011 28 10000 3.6 340 14:55 10.07.2020
34 Clear 34 1012 28 10000 2.1 0 14:37 10.07.2020
35 Clear 33 1012 27 10000 2.1 0 14:19 10.07.2020
36 Clear 33 1012 27 10000 2.1 0 13:56 10.07.2020
37 Clear 31 1012 29 10000 2.1 30 13:37 10.07.2020
38 Clear 31 1012 29 10000 2.1 30 13:37 10.07.2020
39 Clear 31 1012 29 10000 2.1 30 13:37 10.07.2020
40 Clear 31 1012 29 10000 2.1 30 13:19 10.07.2020
41 Clear 29 1013 39 10000 1.5 0 12:44 10.07.2020
42 Clear 29 1013 39 10000 1.5 0 12:24 10.07.2020
43 Clear 28 1013 45 10000 1 0 11:59 10.07.2020
44 Clear 27 1013 47 10000 1 0 11:38 10.07.2020
45 Clear 26 1013 50 10000 0.5 0 11:19 10.07.2020
46 Clear 23 1014 60 10000 1.5 270 10:55 10.07.2020
47 Clear 23 1014 60 10000 1.5 270 10:36 10.07.2020
48 Clear 22 1014 64 10000 2.1 270 10:18 10.07.2020
49 Clear 21 1014 64 10000 2.6 240 09:38 10.07.2020
50 Clear 21 1014 64 10000 2.6 240 09:20 10.07.2020
51 Clear 20 1014 68 10000 2.6 240 08:58 10.07.2020
52 Clear 20 1014 64 10000 2.6 250 08:39 10.07.2020
53 Clear 20 1013 64 10000 2.6 260 08:21 10.07.2020
54 Clear 21 1013 60 10000 2.6 250 07:42 10.07.2020
55 Clear 21 1013 60 10000 2.6 250 07:22 10.07.2020
56 Clear 21 1013 60 10000 2.1 250 06:51 10.07.2020
57 Clear 21 1013 60 10000 2.6 250 06:24 10.07.2020
58 Clear 25 1014 47 10000 1 0 04:43 10.07.2020
59 Clear 25 1014 47 10000 1.5 80 03:38 10.07.2020
60 Clear 26 1015 47 10000 1.5 40 02:52 10.07.2020
61 Clear 27 1015 44 10000 3.1 30 01:50 10.07.2020
62 Clear 28 1015 39 10000 3.6 40 00:48 10.07.2020
63 Clear 28 1015 39 10000 4.6 40 00:20 10.07.2020
64 Clear 29 1015 37 10000 4.6 40 23:46 09.07.2020
65 Clear 29 1015 37 10000 4.6 40 23:23 09.07.2020
66 Clear 30 1014 33 10000 5.1 30 22:59 09.07.2020
67 Clear 32 1014 29 10000 5.7 360 22:41 09.07.2020
68 Clear 32 1014 29 10000 5.7 360 22:21 09.07.2020
69 Clear 33 1014 27 10000 5.1 360 21:56 09.07.2020
70 Clear 34 1013 26 10000 5.1 360 21:38 09.07.2020
71 Clear 34 1013 26 10000 5.1 360 21:38 09.07.2020
72 Clear 34 1013 26 10000 5.1 360 21:19 09.07.2020
73 Clear 36 1013 20 10000 4.1 20 20:45 09.07.2020
74 Clear 36 1013 20 10000 4.1 20 20:26 09.07.2020
75 Clear 37 1013 19 10000 3.6 10 19:58 09.07.2020
76 Clear 37 1013 18 10000 3.6 350 19:40 09.07.2020
77 Clear 37 1013 18 10000 3.6 350 19:21 09.07.2020
78 Clear 37 1014 17 10000 4.1 360 18:43 09.07.2020
79 Clear 37 1014 17 10000 4.1 360 18:22 09.07.2020
80 Clear 37 1014 17 10000 4.6 10 17:56 09.07.2020
81 Clear 37 1014 17 10000 3.1 330 17:38 09.07.2020
82 Clear 37 1014 17 10000 3.1 330 17:19 09.07.2020
83 Clear 37 1014 17 10000 2.6 340 16:55 09.07.2020
84 Clear 36 1015 16 10000 3.6 330 16:37 09.07.2020
85 Clear 36 1015 16 10000 3.6 330 16:19 09.07.2020
86 Clear 35 1015 19 10000 3.6 320 15:54 09.07.2020
87 Clear 34 1015 23 10000 2.6 0 15:36 09.07.2020
88 Clear 34 1015 23 10000 2.6 0 15:18 09.07.2020
89 Clear 34 1015 28 10000 2.1 0 14:54 09.07.2020
90 Clear 32 1016 33 10000 2.1 0 14:36 09.07.2020
91 Clear 32 1016 33 10000 2.1 0 14:18 09.07.2020
92 Clear 30 1016 40 10000 2.1 0 13:41 09.07.2020
93 Clear 30 1016 40 10000 2.1 0 13:21 09.07.2020
94 Clear 30 1016 42 10000 1.5 0 12:58 09.07.2020
95 Clear 29 1017 39 10000 1 320 12:39 09.07.2020
96 Clear 29 1017 39 10000 1 320 12:20 09.07.2020
97 Clear 27 1016 51 10000 1.5 0 11:55 09.07.2020
98 Clear 25 1016 57 10000 2.1 270 11:36 09.07.2020
99 Clear 25 1016 57 10000 2.1 270 11:18 09.07.2020
100 Clear 23 1016 64 10000 2.1 280 10:42 09.07.2020
101 Clear 23 1016 64 10000 2.1 280 10:23 09.07.2020
102 Clear 22 1016 68 10000 2.6 270 09:58 09.07.2020
103 Clear 21 1016 73 10000 2.6 250 09:40 09.07.2020
104 Clear 21 1016 73 10000 2.6 250 09:40 09.07.2020
105 Clear 21 1016 73 10000 2.6 250 09:21 09.07.2020
106 Clear 20 1016 72 10000 2.6 250 08:44 09.07.2020
107 Clear 20 1016 72 10000 2.6 250 08:25 09.07.2020
108 Clear 21 1016 68 10000 3.1 240 07:47 09.07.2020
109 Clear 21 1016 68 10000 3.1 240 07:22 09.07.2020
110 Clear 21 1016 68 10000 2.6 250 06:53 09.07.2020
111 Clear 22 1016 64 10000 2.6 250 06:20 09.07.2020
112 Clear 24 1016 53 10000 3.1 250 04:29 09.07.2020
113 Clear 25 1016 50 10000 2.1 260 03:48 09.07.2020
114 Clear 28 1017 42 10000 2.1 10 02:21 09.07.2020
115 Clear 29 1017 39 10000 2.6 40 01:37 09.07.2020
116 Clear 30 1017 35 10000 3.1 30 00:49 09.07.2020
117 Clear 31 1017 31 10000 3.6 30 00:24 09.07.2020
118 Clear 32 1017 29 10000 3.6 350 23:46 08.07.2020
119 Clear 32 1017 29 10000 3.6 350 23:28 08.07.2020
120 Clear 33 1016 26 10000 3.1 10 22:58 08.07.2020
121 Clouds 33 1016 24 8000 3.1 360 22:40 08.07.2020
122 Clouds 33 1016 24 8000 3.1 360 22:22 08.07.2020
123 Clouds 34 1016 24 8000 3.6 350 21:58 08.07.2020
124 Clouds 35 1016 23 8000 4.1 340 21:38 08.07.2020
125 Clouds 35 1016 23 8000 4.1 340 21:20 08.07.2020
126 Clouds 36 1015 25 8000 5.1 360 20:54 08.07.2020
127 Clouds 36 1015 25 8000 5.1 360 20:54 08.07.2020
128 Clouds 38 1015 22 8000 4.6 330 20:36 08.07.2020
129 Clouds 38 1015 22 8000 4.6 330 20:18 08.07.2020
130 Clouds 39 1014 21 8000 5.1 340 19:42 08.07.2020
131 Clouds 39 1014 21 8000 5.1 340 19:22 08.07.2020
132 Clouds 39 1014 21 8000 5.1 340 19:22 08.07.2020
133 Clouds 40 1014 21 8000 5.1 350 18:57 08.07.2020
134 Clouds 41 1014 19 8000 5.1 330 18:39 08.07.2020
135 Clouds 41 1014 19 8000 5.1 330 18:19 08.07.2020
136 Clouds 41 1014 19 8000 4.6 350 17:55 08.07.2020
137 Clouds 43 1014 13 8000 3.6 350 17:37 08.07.2020
138 Clouds 43 1014 13 8000 3.6 350 17:19 08.07.2020
139 Clouds 42 1015 13 8000 3.6 350 16:40 08.07.2020
140 Clouds 42 1015 13 8000 3.6 350 16:22 08.07.2020
141 Clouds 41 1015 13 8000 2.1 0 15:59 08.07.2020
142 Clouds 41 1015 18 8000 2.6 0 15:41 08.07.2020
143 Clouds 41 1015 18 8000 2.6 0 15:20 08.07.2020
144 Clouds 40 1016 20 8000 2.1 310 14:57 08.07.2020
145 Clouds 39 1016 22 8000 2.1 300 14:39 08.07.2020
146 Clouds 39 1016 22 8000 2.1 300 14:18 08.07.2020
147 Clouds 36 1016 28 8000 2.1 0 13:42 08.07.2020
148 Clouds 36 1016 28 8000 2.1 0 13:23 08.07.2020
149 Clouds 33 1016 36 8000 2.1 280 12:46 08.07.2020
150 Clouds 32 1016 40 10000 2.6 290 12:21 08.07.2020
151 Clouds 32 1016 40 10000 2.6 290 11:59 08.07.2020
152 Clouds 30 1016 42 10000 3.1 280 11:38 08.07.2020
153 Clouds 34 1016 15 0 2.56 304 11:20 08.07.2020
154 Clouds 34 1016 15 0 2.56 304 10:45 08.07.2020
155 Clouds 32 1016 18 0 1.94 331 10:26 08.07.2020
156 Clouds 32 1016 18 0 1.94 331 09:59 08.07.2020
157 Clouds 32 1016 18 0 1.94 331 09:40 08.07.2020
158 Clouds 27 1015 30 10000 2.1 40 09:20 08.07.2020
159 Clear 30 1016 21 0 2.19 350 08:42 08.07.2020
160 Clouds 28 1014 32 10000 3.1 250 08:24 08.07.2020
161 Clouds 28 1014 32 10000 3.1 250 07:46 08.07.2020
162 Clouds 28 1014 32 10000 3.1 250 07:23 08.07.2020
163 Clouds 27 1014 32 10000 2.1 250 06:54 08.07.2020
164 Clouds 27 1014 30 10000 2.1 250 06:35 08.07.2020
165 Clouds 28 1014 30 10000 1.5 240 05:55 08.07.2020
166 Clouds 29 1014 28 10000 2.1 270 05:20 08.07.2020
167 Clouds 31 1014 25 10000 3.1 240 04:27 08.07.2020
168 Clouds 33 1015 24 10000 3.6 240 02:22 08.07.2020
169 Clouds 35 1014 20 10000 5.1 230 01:45 08.07.2020
170 Clouds 35 1014 23 10000 4.1 230 01:19 08.07.2020
171 Clouds 35 1014 23 10000 4.6 260 00:25 08.07.2020
172 Clouds 36 1014 22 10000 5.7 290 23:55 07.07.2020
173 Clouds 39 1013 17 10000 4.6 300 23:37 07.07.2020
174 Clouds 41 1013 12 10000 2.1 320 23:18 07.07.2020
175 Clouds 42 1012 11 10000 2.1 330 22:41 07.07.2020
176 Clouds 42 1012 11 10000 2.1 330 22:21 07.07.2020
177 Clouds 43 1012 10 10000 3.6 0 21:59 07.07.2020
178 Clouds 43 1012 10 10000 6.7 260 21:39 07.07.2020
179 Clouds 43 1012 10 10000 6.7 260 21:21 07.07.2020
180 Clouds 43 1012 10 10000 2.6 350 20:57 07.07.2020
181 Clouds 44 1011 8 10000 3.6 20 20:38 07.07.2020
182 Clouds 44 1011 8 10000 3.6 20 20:20 07.07.2020
183 Clouds 44 1011 8 10000 3.6 20 20:20 07.07.2020
184 Clouds 45 1011 9 10000 3.6 10 19:40 07.07.2020
185 Clouds 45 1011 7 10000 4.1 350 19:21 07.07.2020
186 Clouds 45 1011 7 10000 4.1 350 19:21 07.07.2020
187 Clouds 45 1011 7 10000 4.1 350 18:56 07.07.2020
188 Clouds 45 1011 7 10000 4.1 360 18:38 07.07.2020
189 Clouds 47 1011 7 10000 2.1 0 18:20 07.07.2020
190 Clouds 47 1011 7 10000 2.1 0 17:57 07.07.2020
191 Clouds 47 1012 8 10000 2.1 0 17:38 07.07.2020
192 Clouds 47 1012 8 10000 2.1 0 17:20 07.07.2020
193 Clouds 46 1012 9 10000 3.1 0 16:43 07.07.2020
194 Clouds 46 1012 9 10000 3.1 0 16:24 07.07.2020
195 Clouds 46 1013 8 10000 4.1 80 15:58 07.07.2020
196 Clouds 46 1013 8 10000 4.1 80 15:58 07.07.2020
197 Clouds 45 1013 9 10000 4.1 50 15:39 07.07.2020
198 Clouds 45 1013 9 10000 4.1 50 15:20 07.07.2020
199 Clouds 44 1013 10 10000 3.1 80 14:46 07.07.2020
200 Clouds 44 1013 10 10000 3.1 80 14:25 07.07.2020
201 Clouds 45 1013 10 10000 3.6 90 13:57 07.07.2020
202 Clouds 43 1014 14 10000 2.6 70 13:38 07.07.2020
203 Clouds 42 1014 14 10000 2.6 70 13:18 07.07.2020
204 Clouds 40 1014 16 10000 2.6 50 12:40 07.07.2020
205 Clouds 39 1014 17 10000 2.1 60 12:22 07.07.2020
206 Clouds 39 1014 17 10000 2.1 60 11:50 07.07.2020
207 Clouds 36 1014 20 10000 1.5 70 11:26 07.07.2020
208 Clouds 36 1014 20 10000 1.5 70 10:59 07.07.2020
209 Clouds 36 1014 20 10000 1 0 10:41 07.07.2020
210 Clouds 36 1014 20 10000 1 0 10:22 07.07.2020
211 Clouds 35 1014 20 10000 0.5 0 09:56 07.07.2020
212 Clouds 32 1014 22 10000 1.93 82 09:38 07.07.2020
213 Clouds 32 1014 22 10000 2.18 93 09:19 07.07.2020
214 Clouds 28 1014 28 10000 1 60 08:42 07.07.2020
215 Clouds 28 1014 28 10000 1 60 08:23 07.07.2020
216 Clouds 30 1014 16 0 1.77 98 07:43 07.07.2020
217 Clouds 29 1013 16 0 1.34 86 07:22 07.07.2020
218 Clouds 30 1013 27 10000 1 0 06:49 07.07.2020
219 Clouds 30 1013 27 10000 1 0 06:29 07.07.2020
220 Clouds 32 1013 22 8000 1 0 05:53 07.07.2020
221 Clouds 32 1013 22 8000 2.1 100 05:22 07.07.2020
222 Clouds 32 1014 24 8000 2.6 110 04:38 07.07.2020
223 Clouds 32 1014 24 8000 2.1 90 03:35 07.07.2020
224 Clouds 35 1015 19 8000 3.1 130 02:21 07.07.2020
225 Clouds 36 1015 18 8000 2.1 90 01:22 07.07.2020
226 Clouds 38 1014 16 8000 1.5 30 00:43 07.07.2020
227 Clouds 38 1014 16 8000 1.5 30 00:24 07.07.2020
228 Clouds 38 1015 17 8000 2.1 60 23:55 06.07.2020
229 Clouds 39 1014 15 8000 0.5 0 23:36 06.07.2020
230 Clouds 39 1014 15 8000 0.5 0 23:18 06.07.2020
231 Clouds 41 1014 13 8000 3.1 0 22:41 06.07.2020
232 Clouds 41 1014 13 8000 3.1 0 22:20 06.07.2020
233 Clouds 41 1014 12 8000 6.7 300 21:57 06.07.2020
234 Clouds 41 1014 13 6000 2.1 270 21:38 06.07.2020
235 Clouds 41 1014 13 6000 2.1 270 21:19 06.07.2020
236 Clouds 41 1014 13 6000 4.1 0 20:59 06.07.2020
237 Thunderstorm 40 1015 15 3000 6.7 0 20:37 06.07.2020
238 Thunderstorm 40 1015 15 3000 6.7 0 20:19 06.07.2020
239 Thunderstorm 42 1013 13 6000 3.1 350 19:56 06.07.2020
240 Clouds 43 1013 12 6000 6.7 50 19:38 06.07.2020
241 Clouds 43 1013 12 6000 6.7 50 19:20 06.07.2020
242 Dust 44 1013 13 4000 7.2 40 18:41 06.07.2020
243 Dust 44 1013 13 4000 7.2 40 18:23 06.07.2020
244 Clouds 45 1013 12 5000 8.2 360 17:59 06.07.2020
245 Clouds 47 1012 10 8000 2.6 0 17:41 06.07.2020
246 Clouds 47 1012 10 8000 2.6 0 17:21 06.07.2020
247 Clouds 46 1013 9 8000 5.7 260 16:55 06.07.2020
248 Clouds 46 1013 9 8000 4.1 290 16:37 06.07.2020
249 Clouds 46 1013 10 8000 3.1 0 16:18 06.07.2020
250 Clouds 46 1013 10 8000 3.1 310 15:42 06.07.2020
251 Clouds 46 1013 10 8000 3.1 310 15:24 06.07.2020
252 Clouds 45 1014 11 8000 3.1 10 14:56 06.07.2020
253 Clouds 45 1014 12 8000 2.6 0 14:37 06.07.2020
254 Clouds 45 1014 12 8000 2.6 0 14:19 06.07.2020
255 Clouds 44 1014 12 8000 2.1 30 13:46 06.07.2020
256 Clouds 44 1014 12 8000 2.1 30 13:27 06.07.2020
257 Clouds 42 1014 14 8000 2.6 60 12:56 06.07.2020
258 Clouds 41 1014 18 8000 2.1 80 12:38 06.07.2020
259 Clouds 39 1014 21 8000 2.1 60 12:18 06.07.2020
260 Clouds 39 1014 21 8000 2.1 60 11:57 06.07.2020
261 Clouds 37 1014 22 8000 2.1 50 11:36 06.07.2020
262 Clouds 37 1014 22 8000 2.1 50 11:18 06.07.2020
263 Clouds 34 1014 26 8000 2.1 60 10:41 06.07.2020
264 Clouds 34 1014 26 8000 2.1 60 10:21 06.07.2020
265 Clouds 32 1015 24 8000 2.1 60 09:55 06.07.2020
266 Clouds 31 1014 25 8000 2.6 60 09:37 06.07.2020
267 Clouds 31 1014 25 8000 2.6 60 09:37 06.07.2020
268 Clouds 31 1014 25 8000 2.6 60 09:19 06.07.2020
269 Clouds 31 1014 25 8000 2.6 60 09:19 06.07.2020
270 Clouds 29 1014 26 8000 2.1 60 08:41 06.07.2020
271 Clouds 29 1014 26 8000 2.1 60 08:22 06.07.2020
272 Clouds 29 1014 26 8000 1 60 07:54 06.07.2020
273 Clouds 30 1015 19 0 2.44 95 07:35 06.07.2020
274 Clouds 30 1014 27 8000 3.1 90 06:57 06.07.2020
275 Clouds 30 1014 28 8000 2.6 80 06:38 06.07.2020
276 Clouds 31 1014 27 8000 4.1 90 05:56 06.07.2020
277 Clouds 31 1014 27 8000 3.1 90 05:29 06.07.2020
278 Clouds 32 1015 25 8000 2.6 80 04:33 06.07.2020
279 Clouds 34 1016 23 8000 1.5 10 02:44 06.07.2020
280 Clouds 36 1016 20 8000 3.6 150 02:19 06.07.2020
281 Clouds 36 1016 20 0 5.7 130 00:52 06.07.2020
282 Clouds 37 1016 18 8000 5.1 130 00:28 06.07.2020
283 Clouds 38 1016 17 8000 6.2 130 23:58 05.07.2020
284 Clouds 37 1016 19 8000 3.1 110 23:40 05.07.2020
285 Clouds 37 1016 19 8000 3.1 110 23:21 05.07.2020
286 Clouds 39 1016 16 8000 6.7 140 22:58 05.07.2020
287 Clouds 39 1015 16 6000 2.6 0 22:37 05.07.2020
288 Clouds 39 1015 16 6000 2.6 0 22:19 05.07.2020
289 Clouds 41 1015 12 6000 1.5 180 21:55 05.07.2020
290 Clouds 40 1015 17 10000 5.1 140 21:37 05.07.2020
291 Clouds 40 1015 17 10000 5.1 140 21:18 05.07.2020
292 Clouds 40 1015 16 10000 6.2 150 20:41 05.07.2020
293 Clouds 40 1015 16 10000 6.2 150 20:23 05.07.2020
294 Clouds 41 1014 14 10000 5.1 200 19:58 05.07.2020
295 Clouds 41 1014 13 10000 5.1 200 19:40 05.07.2020
296 Clouds 41 1014 13 10000 5.1 200 19:19 05.07.2020
297 Clouds 42 1015 13 6000 8.2 0 18:42 05.07.2020
298 Clouds 42 1015 13 6000 8.2 0 18:24 05.07.2020
299 Dust 42 1014 13 1500 11.3 220 17:59 05.07.2020
300 Dust 43 1014 13 3000 8.2 230 17:41 05.07.2020
301 Clouds 44 1015 7 0 6.06 255 17:19 05.07.2020
302 Clouds 44 1015 7 0 6.06 255 16:45 05.07.2020
303 Clouds 43 1014 15 10000 2.1 350 16:25 05.07.2020
304 Clouds 43 1014 15 10000 2.1 350 15:58 05.07.2020
305 Clouds 43 1014 15 10000 2.1 350 15:38 05.07.2020
306 Clouds 43 1014 15 10000 2.1 350 15:19 05.07.2020
307 Clouds 42 1015 18 10000 2.1 0 14:42 05.07.2020
308 Clouds 42 1015 18 10000 2.1 0 14:42 05.07.2020
309 Clouds 40 1015 19 10000 2.6 60 14:23 05.07.2020
310 Clouds 40 1015 19 10000 2.6 60 13:58 05.07.2020
311 Clouds 40 1015 19 10000 2.6 60 13:58 05.07.2020
312 Clouds 39 1016 22 10000 2.6 60 13:39 05.07.2020
313 Clouds 39 1016 22 10000 2.6 60 13:20 05.07.2020
314 Clouds 35 1016 28 10000 2.6 40 12:42 05.07.2020
315 Clouds 34 1016 30 10000 2.6 60 12:20 05.07.2020
316 Clouds 34 1016 30 10000 2.6 60 11:55 05.07.2020
317 Clouds 32 1016 33 10000 2.6 60 11:37 05.07.2020
318 Clouds 31 1016 35 8000 2.1 50 11:18 05.07.2020
319 Clouds 29 1016 39 8000 1.5 100 10:42 05.07.2020
320 Clouds 29 1016 39 8000 1.5 100 10:20 05.07.2020
321 Clouds 29 1016 39 8000 1.5 100 10:20 05.07.2020
322 Clouds 28 1016 42 8000 1.5 0 09:59 05.07.2020
323 Clouds 26 1016 47 8000 2.6 50 09:41 05.07.2020
324 Clouds 26 1016 47 8000 2.6 50 09:20 05.07.2020
325 Clouds 27 1016 44 8000 0.5 0 08:55 05.07.2020
326 Clouds 25 1016 47 8000 1 0 08:36 05.07.2020
327 Clouds 24 1016 47 8000 1 0 07:51 05.07.2020
328 Clouds 24 1015 47 8000 2.1 280 07:30 05.07.2020
329 Clouds 26 1015 41 8000 2.1 50 06:55 05.07.2020
330 Clouds 25 1015 44 8000 0.5 0 06:25 05.07.2020
331 Clouds 26 1016 41 8000 1 0 03:55 05.07.2020
332 Clouds 27 1017 39 8000 1.5 280 02:57 05.07.2020
333 Clouds 28 1017 39 8000 0.5 0 02:33 05.07.2020
334 Clouds 29 1017 37 8000 1.5 250 01:43 05.07.2020
335 Clouds 29 1017 37 8000 1.5 250 01:22 05.07.2020
336 Clouds 30 1017 35 8000 1 0 00:50 05.07.2020
337 Clouds 31 1017 33 8000 2.1 50 00:28 05.07.2020
338 Clouds 32 1017 31 8000 3.6 40 23:55 04.07.2020
339 Clouds 32 1016 31 8000 3.1 30 23:32 04.07.2020
340 Clouds 33 1016 29 8000 2.6 40 22:59 04.07.2020
341 Clouds 34 1016 28 8000 3.6 350 22:40 04.07.2020
342 Clouds 34 1016 28 8000 3.6 350 22:22 04.07.2020
343 Clouds 35 1015 26 8000 4.6 350 21:58 04.07.2020
344 Clouds 37 1015 23 8000 3.6 340 21:40 04.07.2020
345 Clouds 37 1015 23 8000 3.6 340 21:21 04.07.2020
346 Clouds 39 1015 21 8000 3.1 330 20:42 04.07.2020
347 Clouds 39 1015 21 8000 3.1 330 20:21 04.07.2020
348 Clouds 39 1015 21 8000 2.6 320 19:56 04.07.2020
349 Clouds 40 1015 21 8000 2.1 360 19:38 04.07.2020
350 Clouds 40 1015 21 8000 2.1 360 19:20 04.07.2020
351 Clouds 39 1015 22 8000 2.1 0 18:43 04.07.2020
352 Clouds 39 1015 22 8000 3.1 360 18:23 04.07.2020
353 Clouds 39 1015 24 8000 2.6 0 17:46 04.07.2020
354 Clouds 39 1015 24 8000 2.6 0 17:28 04.07.2020
355 Clouds 38 1016 25 8000 2.1 0 16:59 04.07.2020
356 Clear 38 1016 25 10000 2.6 0 16:40 04.07.2020
357 Clear 38 1016 25 10000 2.6 0 16:21 04.07.2020
358 Clear 36 1016 28 10000 2.6 310 15:58 04.07.2020
359 Clear 35 1016 32 10000 2.6 300 15:40 04.07.2020
360 Clear 35 1016 32 10000 2.6 300 15:21 04.07.2020
361 Clear 34 1016 34 10000 2.1 330 14:57 04.07.2020
362 Clear 34 1017 34 10000 2.1 0 14:37 04.07.2020
363 Clear 34 1017 34 10000 2.1 0 14:18 04.07.2020
364 Clear 31 1017 40 10000 2.1 0 13:41 04.07.2020
365 Clear 29 1017 45 10000 2.1 0 13:19 04.07.2020
366 Clear 29 1017 45 10000 2.1 0 12:56 04.07.2020
367 Clear 28 1018 48 10000 1.5 0 12:38 04.07.2020
368 Clear 28 1018 48 10000 1.5 0 12:18 04.07.2020
369 Clear 25 1018 57 10000 1 0 11:43 04.07.2020
370 Clear 25 1018 57 10000 1 0 11:23 04.07.2020
371 Clear 24 1018 60 10000 1 0 10:56 04.07.2020
372 Clear 22 1018 68 10000 2.1 290 10:37 04.07.2020
373 Clear 21 1018 73 10000 2.6 280 10:18 04.07.2020
374 Clear 20 1018 72 10000 2.6 240 09:41 04.07.2020
375 Clear 20 1018 72 10000 2.6 240 09:22 04.07.2020
376 Clear 20 1018 72 10000 2.6 240 08:58 04.07.2020
377 Clear 19 1018 77 10000 3.1 240 08:39 04.07.2020
378 Clear 20 1018 72 10000 3.1 240 08:20 04.07.2020
379 Clear 19 1017 77 10000 2.6 240 07:40 04.07.2020
380 Clear 20 1018 72 10000 2.6 250 07:18 04.07.2020
381 Clear 20 1017 72 10000 2.1 250 06:38 04.07.2020
382 Clear 21 1017 68 10000 3.1 240 06:18 04.07.2020
383 Clear 21 1017 68 10000 3.1 240 05:28 04.07.2020
384 Clear 22 1018 64 10000 2.6 250 03:56 04.07.2020
385 Clear 25 1019 53 10000 1.5 70 02:41 04.07.2020
386 Clear 26 1019 50 10000 2.6 40 01:40 04.07.2020
387 Clouds 27 1019 47 10000 3.1 40 00:49 04.07.2020
388 Clouds 27 1019 47 10000 3.1 40 00:30 04.07.2020
389 Clouds 28 1019 45 10000 1.5 40 23:59 03.07.2020
390 Clouds 28 1019 45 10000 3.1 60 23:39 03.07.2020
391 Clouds 28 1019 45 10000 3.1 60 23:18 03.07.2020
392 Clouds 30 1018 40 10000 4.6 10 22:41 03.07.2020
393 Clouds 30 1018 40 10000 4.6 10 22:23 03.07.2020
394 Clouds 31 1017 38 10000 6.2 360 21:59 03.07.2020
395 Clouds 34 1017 32 10000 5.1 360 21:38 03.07.2020
396 Clouds 34 1017 32 10000 5.1 360 21:19 03.07.2020
397 Clouds 38 1016 21 10000 4.1 340 20:43 03.07.2020
398 Clouds 38 1016 21 10000 4.1 340 20:25 03.07.2020
399 Clouds 38 1016 21 10000 3.6 350 19:56 03.07.2020
400 Clouds 38 1016 22 10000 2.6 340 19:38 03.07.2020
401 Clouds 39 1016 21 10000 3.1 20 19:18 03.07.2020
402 Clouds 39 1016 22 10000 3.1 350 18:42 03.07.2020
403 Clouds 39 1016 22 10000 3.1 350 18:23 03.07.2020
404 Clouds 38 1016 24 10000 3.1 310 17:56 03.07.2020
405 Clouds 37 1016 25 10000 2.6 0 17:37 03.07.2020
406 Clouds 37 1017 25 10000 2.6 0 17:19 03.07.2020
407 Clouds 37 1017 27 10000 2.6 270 16:40 03.07.2020
408 Clear 37 1017 27 10000 2.6 270 16:20 03.07.2020
409 Clear 35 1017 26 10000 3.6 300 15:44 03.07.2020
410 Clear 35 1017 26 10000 3.6 300 15:23 03.07.2020
411 Clear 35 1017 28 10000 2.6 360 14:56 03.07.2020
412 Clear 34 1018 34 10000 2.6 330 14:37 03.07.2020
413 Clear 34 1018 34 10000 2.6 330 14:19 03.07.2020
414 Clear 31 1018 40 10000 2.1 330 13:43 03.07.2020
415 Clear 31 1018 40 10000 2.1 330 13:24 03.07.2020
416 Clear 28 1019 51 10000 2.1 310 12:45 03.07.2020
417 Clear 28 1019 51 10000 2.1 310 12:24 03.07.2020
418 Clear 28 1019 51 10000 2.1 340 11:58 03.07.2020
419 Clear 31 1018 27 0 2.5 3 11:40 03.07.2020
420 Clear 29 1018 34 0 2.19 355 11:21 03.07.2020
421 Clear 27 1019 54 10000 1 0 10:55 03.07.2020
422 Clear 24 1019 64 10000 1 0 10:36 03.07.2020
423 Clear 24 1019 64 10000 1 0 10:18 03.07.2020
424 Clear 22 1019 73 10000 1.5 250 09:40 03.07.2020
425 Clear 22 1019 73 10000 1.5 250 09:22 03.07.2020
426 Clear 21 1018 77 10000 1.5 270 08:58 03.07.2020
427 Clear 24 1018 47 0 1.99 15 08:38 03.07.2020
428 Clear 21 1018 57 0 1.64 9 08:18 03.07.2020
429 Clear 22 1018 68 10000 1.64 9 07:47 03.07.2020
430 Clear 22 1018 68 10000 1.33 26 07:23 03.07.2020
431 Clear 22 1018 68 10000 2.6 230 06:40 03.07.2020
432 Clear 23 1018 64 10000 2.6 230 05:55 03.07.2020
433 Clouds 24 1019 57 10000 3.1 240 04:28 03.07.2020
434 Clouds 25 1019 53 10000 1 0 02:57 03.07.2020
435 Clouds 26 1019 47 10000 2.1 250 02:32 03.07.2020
436 Clouds 27 1020 47 10000 1 0 01:51 03.07.2020
437 Clouds 28 1020 42 10000 2.1 80 01:22 03.07.2020
438 Clouds 29 1019 39 8000 2.6 50 00:42 03.07.2020
439 Clouds 29 1019 39 8000 2.6 50 00:18 03.07.2020
440 Clouds 30 1019 37 8000 3.6 20 23:43 02.07.2020
441 Clouds 30 1019 37 8000 3.6 20 23:20 02.07.2020
442 Clouds 31 1018 35 8000 5.1 30 22:57 02.07.2020
443 Clouds 33 1017 29 8000 4.1 20 22:38 02.07.2020
444 Clouds 34 1016 28 8000 5.1 30 22:20 02.07.2020
445 Clouds 34 1016 28 8000 5.1 30 21:54 02.07.2020
446 Clouds 35 1017 28 8000 3.6 20 21:36 02.07.2020
447 Clouds 35 1017 28 8000 3.6 20 21:18 02.07.2020
448 Clouds 36 1017 26 8000 3.1 350 20:42 02.07.2020
449 Clouds 36 1017 25 8000 1.5 330 20:20 02.07.2020
450 Clouds 36 1017 25 8000 1.5 330 19:56 02.07.2020
451 Clouds 36 1017 25 8000 3.1 340 19:38 02.07.2020
452 Clouds 37 1016 23 8000 4.6 50 19:20 02.07.2020
453 Clouds 37 1016 23 8000 4.6 50 18:57 02.07.2020
454 Clouds 37 1017 23 8000 2.6 350 18:38 02.07.2020
455 Clouds 37 1016 23 8000 5.1 10 18:20 02.07.2020
456 Clouds 38 1017 24 8000 6.2 310 17:39 02.07.2020
457 Clouds 38 1017 24 8000 6.2 310 17:20 02.07.2020
458 Clouds 39 1017 22 8000 1.5 0 16:56 02.07.2020
459 Clouds 40 1016 21 8000 2.1 0 16:38 02.07.2020
460 Clouds 38 1016 22 8000 3.1 340 16:19 02.07.2020
461 Clouds 37 1017 25 8000 2.6 30 15:41 02.07.2020
462 Clouds 37 1017 25 8000 2.6 30 15:21 02.07.2020
463 Clouds 37 1017 27 8000 2.6 70 14:54 02.07.2020
464 Clouds 35 1018 34 8000 3.1 70 14:36 02.07.2020
465 Clouds 35 1018 34 8000 3.1 70 14:18 02.07.2020
466 Clouds 32 1018 40 8000 2.1 50 13:40 02.07.2020
467 Clouds 32 1018 40 8000 2.1 50 13:21 02.07.2020
468 Clouds 29 1019 51 8000 2.6 0 12:59 02.07.2020
469 Clouds 29 1019 51 8000 2.6 0 12:39 02.07.2020
470 Clouds 29 1019 51 8000 2.6 0 12:21 02.07.2020
471 Clouds 27 1018 54 8000 2.6 250 11:44 02.07.2020
472 Clouds 27 1018 54 8000 2.6 250 11:26 02.07.2020
473 Clouds 26 1018 57 8000 3.6 240 10:55 02.07.2020
474 Clouds 31 1018 28 0 1.77 56 10:37 02.07.2020
475 Clouds 28 1018 35 0 1.1 0 10:19 02.07.2020
476 Clouds 28 1018 35 0 1.1 0 09:42 02.07.2020
477 Clouds 27 1017 35 0 0.55 27 09:21 02.07.2020
478 Clouds 26 1017 50 8000 1.5 60 08:57 02.07.2020
479 Clouds 26 1017 50 8000 1.5 60 08:38 02.07.2020
480 Clouds 26 1016 54 8000 2.1 30 08:18 02.07.2020
481 Clouds 26 1016 54 8000 2.1 360 07:41 02.07.2020
482 Clouds 27 1016 51 8000 1 0 07:20 02.07.2020
483 Clouds 26 1016 54 8000 2.6 80 06:41 02.07.2020
484 Clouds 26 1016 54 8000 2.6 80 06:20 02.07.2020
485 Clouds 28 1016 48 8000 2.6 120 05:46 02.07.2020
486 Clouds 28 1017 48 8000 2.6 110 04:40 02.07.2020
487 Clouds 27 1018 54 8000 3.1 190 03:33 02.07.2020
488 Clouds 28 1018 48 8000 2.6 240 01:44 02.07.2020
489 Clouds 29 1018 48 0 2.6 250 00:26 02.07.2020
490 Clouds 30 1017 42 8000 1.5 260 23:51 01.07.2020
491 Clouds 31 1017 40 8000 2.1 350 23:31 01.07.2020
492 Clouds 32 1016 38 8000 3.1 330 22:57 01.07.2020
493 Clouds 34 1016 34 8000 4.1 10 22:38 01.07.2020
494 Clouds 34 1016 34 8000 4.1 10 22:20 01.07.2020
495 Clouds 36 1015 32 8000 4.1 360 21:59 01.07.2020
496 Clouds 37 1015 30 8000 4.6 330 21:41 01.07.2020
497 Clouds 37 1015 30 8000 4.6 330 21:22 01.07.2020
498 Clouds 38 1014 29 8000 5.7 320 20:59 01.07.2020
499 Clouds 40 1014 21 8000 5.7 330 20:41 01.07.2020
500 Clouds 40 1014 21 8000 5.7 330 20:23 01.07.2020
501 Clouds 42 1013 18 8000 5.1 330 19:56 01.07.2020
502 Clouds 44 1013 13 8000 3.1 290 19:38 01.07.2020
503 Clouds 44 1013 13 8000 3.1 290 19:19 01.07.2020
504 Clouds 44 1013 13 8000 3.1 290 18:42 01.07.2020
505 Clouds 44 1013 13 8000 3.1 290 18:21 01.07.2020
506 Clouds 45 1013 11 8000 3.6 270 17:59 01.07.2020
507 Clouds 44 1014 11 10000 3.1 0 17:39 01.07.2020
508 Clouds 44 1014 11 10000 2.6 330 17:19 01.07.2020
509 Clouds 44 1014 11 10000 2.6 330 17:19 01.07.2020
510 Clouds 43 1014 10 10000 2.1 310 16:46 01.07.2020
511 Clouds 43 1014 10 10000 2.1 310 16:27 01.07.2020
512 Clouds 44 1014 12 10000 2.6 320 15:56 01.07.2020
513 Clouds 43 1014 16 10000 3.1 340 15:37 01.07.2020
514 Clouds 43 1014 16 10000 3.1 340 15:19 01.07.2020
515 Clear 43 1014 6 0 4.99 325 14:44 01.07.2020
516 Clouds 39 1015 22 10000 1.5 0 14:21 01.07.2020
517 Clouds 39 1015 22 10000 1.5 0 13:57 01.07.2020
518 Clouds 39 1015 22 10000 1.5 0 13:38 01.07.2020
519 Clouds 39 1015 22 10000 1.5 0 13:20 01.07.2020
520 Clouds 37 1015 27 10000 2.1 360 12:57 01.07.2020
521 Clouds 34 1015 34 10000 2.6 40 12:38 01.07.2020
522 Clouds 33 1015 38 10000 1.5 70 12:20 01.07.2020
523 Clouds 33 1015 38 10000 1.5 70 12:20 01.07.2020
524 Clouds 31 1015 40 10000 1.5 350 11:40 01.07.2020
525 Clouds 31 1015 40 10000 1.5 350 11:22 01.07.2020
526 Clouds 30 1015 42 10000 3.1 70 10:58 01.07.2020
527 Clouds 28 1015 45 10000 3.6 80 10:40 01.07.2020
528 Clouds 28 1015 45 10000 3.6 80 10:21 01.07.2020
529 Clouds 25 1015 53 10000 1.5 90 09:40 01.07.2020
530 Clouds 25 1015 53 10000 1.5 90 09:21 01.07.2020
531 Clouds 25 1015 57 10000 3.6 70 08:59 01.07.2020
532 Clouds 24 1015 60 10000 2.1 60 08:40 01.07.2020
533 Clouds 24 1015 60 10000 2.1 60 08:21 01.07.2020
534 Clouds 24 1015 60 10000 2.1 60 08:21 01.07.2020
535 Clear 23 1015 64 10000 2.1 60 07:54 01.07.2020
536 Clear 23 1015 64 10000 2.1 60 07:36 01.07.2020
537 Clear 23 1015 64 10000 1.5 50 07:18 01.07.2020
538 Clear 25 1014 57 10000 1.5 150 06:48 01.07.2020
539 Clear 25 1014 57 10000 1.5 150 06:25 01.07.2020
540 Clear 23 1015 64 10000 2.1 260 04:30 01.07.2020
541 Clear 25 1015 57 10000 3.1 260 03:45 01.07.2020
542 Clear 25 1015 57 10000 3.1 260 03:26 01.07.2020
543 Clear 27 1015 47 10000 2.1 260 02:35 01.07.2020
544 Clear 30 1016 40 10000 1 0 01:26 01.07.2020
545 Clear 31 1016 38 10000 1.5 30 00:40 01.07.2020
546 Clear 31 1016 38 10000 1.5 30 00:21 01.07.2020
547 Clear 32 1016 35 10000 3.6 40 23:40 30.06.2020
548 Clear 33 1015 33 10000 3.1 360 23:21 30.06.2020
549 Clear 34 1015 32 10000 3.1 360 22:43 30.06.2020
550 Clear 35 1014 28 10000 3.6 340 22:20 30.06.2020
551 Clear 35 1014 28 10000 3.6 340 21:55 30.06.2020
552 Clear 37 1014 23 10000 3.1 330 21:37 30.06.2020
553 Clear 37 1014 23 10000 3.1 330 21:19 30.06.2020
554 Clear 38 1013 21 10000 4.1 340 20:43 30.06.2020
555 Clear 38 1013 21 10000 4.1 340 20:21 30.06.2020
556 Clear 40 1013 20 10000 2.6 320 19:46 30.06.2020
557 Clear 40 1013 20 10000 2.6 320 19:22 30.06.2020
558 Clear 39 1013 21 10000 3.6 340 18:59 30.06.2020
559 Clear 39 1013 24 10000 3.1 320 18:41 30.06.2020
560 Clear 39 1013 24 10000 3.1 320 18:20 30.06.2020
561 Clear 39 1013 26 10000 2.6 330 17:40 30.06.2020
562 Clear 39 1013 26 10000 2.6 330 17:21 30.06.2020
563 Clear 39 1013 26 10000 2.1 0 16:59 30.06.2020
564 Clear 37 1013 32 10000 2.1 0 16:40 30.06.2020
565 Clear 37 1013 32 10000 2.1 0 16:21 30.06.2020
566 Clear 37 1013 32 10000 2.1 0 16:21 30.06.2020
567 Clear 36 1014 34 10000 2.1 0 15:56 30.06.2020
568 Clear 36 1014 37 10000 1.5 0 15:38 30.06.2020
569 Clear 36 1014 37 10000 1.5 0 15:19 30.06.2020
570 Clear 33 1014 41 10000 2.6 0 14:43 30.06.2020
571 Clear 33 1014 41 10000 2.6 0 14:22 30.06.2020
572 Clear 32 1015 43 10000 2.1 0 13:58 30.06.2020
573 Clear 31 1014 48 10000 2.1 290 13:37 30.06.2020
574 Clear 31 1014 48 10000 2.1 290 13:19 30.06.2020
575 Clear 29 1015 51 10000 2.1 330 12:56 30.06.2020
576 Clear 28 1015 58 10000 2.1 280 12:38 30.06.2020
577 Clear 28 1015 58 10000 2.1 280 12:19 30.06.2020
578 Clear 27 1015 57 10000 1.5 0 11:56 30.06.2020
579 Clear 26 1015 61 10000 2.1 300 11:37 30.06.2020
580 Clear 26 1015 61 10000 2.1 300 11:18 30.06.2020
581 Clear 35 1015 28 10000 2.6 0 16:48 28.06.2020
582 Clear 34 1016 30 10000 3.1 40 16:28 28.06.2020
583 Clear 34 1016 32 10000 2.6 330 15:59 28.06.2020
584 Clear 34 1016 32 10000 2.6 330 15:59 28.06.2020
585 Clear 32 1016 35 10000 2.6 0 15:40 28.06.2020
586 Clear 32 1016 35 10000 2.6 0 15:20 28.06.2020
587 Clear 31 1017 38 10000 2.1 0 14:58 28.06.2020
588 Clear 30 1017 40 10000 2.6 330 14:39 28.06.2020
589 Clear 30 1017 40 10000 2.6 330 14:21 28.06.2020
590 Clear 28 1017 48 10000 2.1 0 13:40 28.06.2020
591 Clear 28 1017 48 10000 2.1 0 13:21 28.06.2020
592 Clear 27 1018 47 10000 2.1 310 12:58 28.06.2020
593 Clear 26 1018 54 10000 2.1 0 12:38 28.06.2020
594 Clear 26 1018 54 10000 2.1 0 12:38 28.06.2020
595 Clear 26 1018 54 10000 2.1 0 12:19 28.06.2020
596 Clear 25 1018 57 10000 2.1 0 11:58 28.06.2020
597 Clear 24 1018 60 10000 1.5 0 11:40 28.06.2020
598 Clear 24 1018 60 10000 1.5 0 11:20 28.06.2020
599 Clear 23 1018 64 10000 1.5 0 10:58 28.06.2020
600 Clear 21 1018 73 10000 1.5 260 10:39 28.06.2020
601 Clear 21 1018 73 10000 1.5 260 10:21 28.06.2020
602 Clear 21 1018 73 10000 1.5 260 10:21 28.06.2020
603 Clear 19 1018 77 10000 3.1 250 09:41 28.06.2020
604 Clear 19 1018 77 10000 3.1 250 09:22 28.06.2020
605 Clear 18 1018 82 10000 2.6 260 08:55 28.06.2020
606 Clear 18 1017 77 10000 3.1 250 08:35 28.06.2020
607 Clear 18 1017 77 10000 2.6 250 07:55 28.06.2020
608 Clear 19 1017 72 10000 3.1 240 07:31 28.06.2020
609 Clear 19 1017 72 10000 3.1 230 06:55 28.06.2020
610 Clear 20 1017 68 10000 2.6 240 06:32 28.06.2020
611 Clear 20 1017 68 10000 2.6 250 05:30 28.06.2020
612 Clear 22 1017 60 10000 1 0 04:24 28.06.2020
613 Clear 24 1017 53 10000 2.1 40 02:56 28.06.2020
614 Clear 24 1017 53 10000 2.1 50 02:19 28.06.2020
615 Clear 25 1018 50 10000 2.6 30 01:27 28.06.2020
616 Clear 26 1018 47 10000 2.6 30 00:53 28.06.2020
617 Clear 26 1018 47 10000 3.1 30 00:29 28.06.2020
618 Clear 27 1017 44 10000 4.1 20 23:45 27.06.2020
619 Clear 27 1017 44 10000 4.1 20 23:24 27.06.2020
620 Clear 28 1016 42 10000 6.2 20 22:59 27.06.2020
621 Clear 28 1016 42 10000 6.2 20 22:59 27.06.2020
622 Clear 29 1016 39 10000 5.7 10 22:41 27.06.2020
623 Clear 29 1016 39 10000 5.7 10 22:23 27.06.2020
624 Clear 31 1015 35 10000 6.2 20 21:57 27.06.2020
625 Clear 33 1015 31 10000 5.1 360 21:38 27.06.2020
626 Clear 33 1015 31 10000 5.1 360 21:20 27.06.2020
627 Clear 33 1015 31 10000 5.1 360 21:20 27.06.2020
628 Clear 35 1015 26 10000 3.1 360 20:45 27.06.2020
629 Clear 35 1015 26 10000 3.1 360 20:45 27.06.2020
630 Clear 35 1015 26 10000 3.1 360 20:19 27.06.2020
631 Clear 35 1015 26 10000 3.1 360 20:19 27.06.2020
632 Clear 36 1015 25 10000 3.1 360 19:57 27.06.2020
633 Clear 35 1015 26 10000 3.1 0 19:37 27.06.2020
634 Clear 35 1015 26 10000 3.1 0 19:18 27.06.2020
635 Clear 35 1015 28 10000 1.5 0 18:47 27.06.2020
636 Clear 35 1015 28 10000 1.5 0 18:28 27.06.2020
637 Clear 36 1015 26 10000 2.1 0 17:59 27.06.2020
638 Clear 36 1015 26 10000 2.1 0 17:59 27.06.2020
639 Clear 34 1016 30 10000 2.1 0 17:39 27.06.2020
640 Clear 34 1016 30 10000 2.1 0 17:19 27.06.2020
641 Clear 34 1016 30 10000 2.1 0 16:48 27.06.2020
642 Clear 33 1016 33 10000 2.1 70 16:30 27.06.2020
643 Clear 33 1016 33 10000 2.6 0 15:59 27.06.2020
644 Clear 31 1017 38 10000 2.6 0 15:41 27.06.2020
645 Clear 31 1017 38 10000 2.6 0 15:21 27.06.2020
646 Clear 30 1018 37 10000 1.5 0 14:43 27.06.2020
647 Clear 30 1018 37 10000 1.5 0 14:25 27.06.2020
648 Clear 29 1018 42 10000 2.1 0 13:59 27.06.2020
649 Clear 28 1018 45 10000 2.1 0 13:38 27.06.2020
650 Clear 28 1018 45 10000 2.1 0 13:38 27.06.2020
651 Clear 26 1018 47 10000 2.6 360 13:19 27.06.2020
652 Clear 26 1018 47 10000 2.6 360 12:57 27.06.2020
653 Clear 26 1018 50 10000 2.1 0 12:39 27.06.2020
654 Clear 24 1018 57 10000 1.5 0 12:21 27.06.2020
655 Clear 24 1018 57 10000 1.5 0 11:54 27.06.2020
656 Clear 24 1018 57 10000 1 0 11:36 27.06.2020
657 Clear 24 1018 57 10000 1 0 11:18 27.06.2020
658 Clear 22 1018 64 10000 1 0 10:38 27.06.2020
659 Clear 22 1018 64 10000 1 0 10:19 27.06.2020
660 Clear 21 1018 68 0 1 0 09:41 27.06.2020
661 Clear 21 1018 68 0 1 0 09:22 27.06.2020
662 Clear 19 1018 72 8000 1.5 90 08:57 27.06.2020
663 Clear 19 1018 72 8000 2.1 50 08:39 27.06.2020
664 Clear 19 1018 72 8000 2.1 50 08:20 27.06.2020
665 Clear 19 1018 72 8000 1.5 30 07:41 27.06.2020
666 Clear 19 1018 72 8000 1.5 30 07:23 27.06.2020
667 Clear 19 1018 72 8000 2.1 50 06:38 27.06.2020
668 Clear 19 1018 72 8000 2.1 50 06:19 27.06.2020
669 Clear 21 1018 64 8000 1 0 04:22 27.06.2020
670 Clear 21 1018 64 8000 1 0 03:51 27.06.2020
671 Clear 22 1018 60 8000 3.1 40 02:49 27.06.2020
672 Clear 22 1018 60 8000 2.6 50 02:29 27.06.2020
673 Clear 23 1018 56 10000 3.1 20 01:41 27.06.2020
674 Clear 23 1018 56 10000 2.6 10 00:56 27.06.2020
675 Clear 24 1018 53 10000 4.1 40 00:27 27.06.2020
676 Clouds 25 1017 50 10000 5.1 20 23:41 26.06.2020
677 Clouds 25 1017 50 10000 5.1 20 23:22 26.06.2020
678 Clouds 26 1016 47 10000 5.7 20 22:56 26.06.2020
679 Clouds 28 1016 42 10000 5.7 20 22:37 26.06.2020
680 Clouds 29 1016 39 10000 4.6 10 22:18 26.06.2020
681 Clouds 29 1016 39 10000 4.6 10 21:56 26.06.2020
682 Clouds 32 1015 33 10000 2.6 30 21:37 26.06.2020
683 Clouds 32 1015 33 10000 2.6 30 21:18 26.06.2020
684 Clouds 33 1015 31 10000 3.6 360 20:42 26.06.2020
685 Clouds 33 1015 31 10000 3.6 360 20:19 26.06.2020
686 Clouds 33 1015 33 10000 3.1 10 19:42 26.06.2020
687 Clouds 33 1015 33 10000 3.1 10 19:23 26.06.2020
688 Clouds 33 1015 33 10000 2.1 0 18:54 26.06.2020
689 Clouds 33 1016 36 10000 2.1 330 18:36 26.06.2020
690 Clouds 33 1016 36 10000 2.6 0 18:18 26.06.2020
691 Clouds 32 1016 38 10000 4.1 20 17:43 26.06.2020
692 Clouds 32 1016 38 10000 4.1 20 17:23 26.06.2020
693 Clouds 31 1017 40 10000 2.6 30 16:47 26.06.2020
694 Clouds 31 1017 40 10000 2.6 30 16:25 26.06.2020
695 Clear 30 1017 45 10000 2.6 0 15:54 26.06.2020
696 Clear 30 1017 45 10000 3.1 50 15:36 26.06.2020
697 Clear 30 1017 45 10000 3.1 50 15:18 26.06.2020
698 Clear 28 1018 51 10000 2.6 0 14:41 26.06.2020
699 Clear 28 1018 51 10000 2.6 0 14:22 26.06.2020
700 Clear 28 1018 51 10000 1.5 0 13:59 26.06.2020
701 Clouds 26 1018 57 10000 1.5 0 13:41 26.06.2020
702 Clouds 25 1018 61 10000 2.6 30 13:18 26.06.2020
703 Clouds 25 1018 61 10000 1.5 0 12:41 26.06.2020
704 Clouds 25 1018 61 10000 1.5 0 12:23 26.06.2020
705 Clouds 24 1019 60 10000 1.5 0 11:59 26.06.2020
706 Clouds 23 1019 64 10000 1 0 11:39 26.06.2020
707 Clouds 23 1019 64 10000 1 0 11:39 26.06.2020
708 Clouds 23 1019 64 10000 1 0 11:21 26.06.2020
709 Clouds 22 1019 68 10000 1.5 0 10:58 26.06.2020
710 Clouds 21 1019 73 10000 1 0 10:38 26.06.2020
711 Clouds 21 1019 73 10000 1 0 10:19 26.06.2020
712 Clouds 21 1017 71 0 1.69 11 09:44 26.06.2020
713 Clear 18 1018 82 10000 2.1 240 09:25 26.06.2020
714 Clear 18 1018 82 10000 2.1 240 08:57 26.06.2020
715 Clouds 18 1018 82 10000 2.1 240 08:29 26.06.2020
716 Clouds 18 1018 82 10000 2.1 230 07:53 26.06.2020
717 Clouds 18 1018 82 10000 2.1 240 07:25 26.06.2020
718 Clouds 18 1018 82 10000 3.1 240 06:59 26.06.2020
719 Clouds 19 1018 77 10000 3.1 240 06:41 26.06.2020
720 Clouds 19 1018 77 10000 3.1 240 06:23 26.06.2020
721 Clouds 19 1017 77 10000 3.1 240 05:48 26.06.2020
722 Clouds 20 1018 77 10000 2.6 260 04:39 26.06.2020
723 Clear 22 1018 68 10000 2.1 50 02:22 26.06.2020
724 Clear 23 1018 64 10000 2.6 30 01:21 26.06.2020
725 Clear 24 1018 60 10000 2.6 40 00:41 26.06.2020
726 Clear 24 1018 60 10000 2.6 40 00:20 26.06.2020
727 Clear 26 1018 54 10000 3.1 350 23:43 25.06.2020
728 Clear 26 1017 54 10000 4.1 350 23:19 25.06.2020
729 Clear 26 1017 54 10000 4.1 350 22:56 25.06.2020
730 Clouds 27 1017 51 8000 5.1 350 22:37 25.06.2020
731 Clouds 27 1017 51 8000 5.1 350 22:19 25.06.2020
732 Clouds 28 1016 48 8000 5.1 10 21:56 25.06.2020
733 Clouds 29 1016 45 8000 5.7 360 21:38 25.06.2020
734 Clouds 29 1016 45 8000 5.7 360 21:19 25.06.2020
735 Clouds 33 1015 33 8000 2.6 290 20:45 25.06.2020
736 Clouds 33 1015 33 8000 2.6 290 20:24 25.06.2020
737 Clouds 33 1015 33 10000 1.5 0 19:58 25.06.2020
738 Clouds 33 1015 36 10000 2.6 0 19:40 25.06.2020
739 Clouds 33 1015 38 10000 1.5 0 19:19 25.06.2020
740 Clouds 32 1015 38 10000 1.5 360 18:57 25.06.2020
741 Clouds 32 1015 38 10000 1.5 360 18:37 25.06.2020
742 Clouds 32 1015 38 10000 1.5 360 18:19 25.06.2020
743 Clouds 32 1015 38 10000 1.5 360 18:19 25.06.2020
744 Clouds 32 1016 40 10000 1.5 0 17:41 25.06.2020
745 Clouds 32 1016 40 10000 1.5 0 17:19 25.06.2020
746 Clouds 31 1016 43 10000 2.1 0 16:57 25.06.2020
747 Clouds 31 1016 43 10000 2.1 0 16:57 25.06.2020
748 Clouds 31 1016 43 10000 2.1 0 16:37 25.06.2020
749 Clouds 31 1016 43 10000 2.1 0 16:18 25.06.2020
750 Clouds 29 1017 48 10000 2.1 270 15:41 25.06.2020
751 Clouds 29 1017 48 10000 2.1 270 15:21 25.06.2020
752 Clouds 28 1017 51 10000 3.1 350 14:44 25.06.2020
753 Clouds 28 1017 51 10000 3.1 350 14:25 25.06.2020
754 Clouds 28 1017 54 10000 2.1 0 13:57 25.06.2020
755 Clouds 26 1018 57 10000 2.1 0 13:38 25.06.2020
756 Clouds 26 1018 57 10000 2.1 0 13:19 25.06.2020
757 Clouds 24 1017 60 10000 1.5 0 12:46 25.06.2020
758 Clouds 24 1017 60 10000 1.5 0 12:21 25.06.2020
759 Clouds 24 1017 60 10000 1.5 0 11:58 25.06.2020
760 Clouds 23 1017 69 10000 1 0 11:40 25.06.2020
761 Clouds 23 1017 69 10000 1 0 11:21 25.06.2020
762 Clouds 23 1017 67 0 1.39 5 10:42 25.06.2020
763 Clouds 19 1017 82 10000 2.1 260 10:24 25.06.2020
764 Clouds 19 1017 82 10000 2.1 260 09:42 25.06.2020
765 Clouds 19 1017 82 10000 2.1 260 09:23 25.06.2020
766 Clouds 19 1017 82 10000 2.1 260 09:23 25.06.2020
767 Clouds 18 1017 82 10000 2.1 250 08:56 25.06.2020
768 Clouds 18 1017 82 10000 2.6 240 08:38 25.06.2020
769 Clear 18 1017 82 10000 2.6 240 08:18 25.06.2020
770 Clear 18 1017 82 10000 3.1 240 07:41 25.06.2020
771 Clear 18 1017 82 10000 3.1 240 07:21 25.06.2020
772 Clear 18 1016 82 10000 3.1 230 06:31 25.06.2020
773 Clear 18 1016 82 10000 2.6 250 05:55 25.06.2020
774 Clear 18 1017 82 10000 2.6 240 05:29 25.06.2020
775 Clear 20 1017 72 10000 3.6 250 03:39 25.06.2020
776 Clear 21 1017 73 10000 3.6 260 02:45 25.06.2020
777 Clear 21 1017 73 10000 3.6 260 02:25 25.06.2020
778 Clear 22 1017 68 10000 3.6 260 01:41 25.06.2020
779 Clear 23 1018 64 10000 3.6 280 00:50 25.06.2020
780 Clear 23 1017 64 10000 4.1 280 00:22 25.06.2020
781 Clear 24 1017 60 10000 4.1 290 23:58 24.06.2020
782 Clear 25 1017 57 10000 3.1 300 23:38 24.06.2020
783 Clear 25 1017 57 10000 3.1 300 23:19 24.06.2020
784 Clear 27 1015 51 10000 5.7 310 22:42 24.06.2020
785 Clear 27 1015 51 10000 5.7 310 22:21 24.06.2020
786 Clear 29 1015 45 10000 5.1 320 21:57 24.06.2020
787 Clear 31 1014 40 10000 4.1 310 21:37 24.06.2020
788 Clear 31 1014 40 10000 4.1 310 21:19 24.06.2020
789 Clear 32 1014 38 10000 3.6 320 20:58 24.06.2020
790 Clear 33 1014 36 10000 5.7 280 20:39 24.06.2020
791 Clear 33 1014 36 10000 5.7 280 20:21 24.06.2020
792 Clear 33 1014 38 10000 5.7 260 19:58 24.06.2020
793 Clear 34 1014 36 10000 4.1 270 19:38 24.06.2020
794 Clear 34 1014 36 10000 2.1 0 19:20 24.06.2020
795 Clear 34 1014 36 10000 2.1 0 18:58 24.06.2020
796 Clear 33 1014 38 10000 3.6 320 18:39 24.06.2020
797 Clear 33 1014 38 10000 3.6 320 18:20 24.06.2020
798 Clear 34 1014 38 10000 3.1 0 17:55 24.06.2020
799 Clear 34 1014 36 10000 2.6 0 17:37 24.06.2020
800 Clear 34 1014 36 10000 2.6 0 17:18 24.06.2020
801 Clear 32 1015 40 10000 2.1 0 16:55 24.06.2020
802 Clear 31 1015 43 10000 2.6 0 16:37 24.06.2020
803 Clear 31 1015 43 10000 2.6 0 16:37 24.06.2020
804 Clear 31 1015 43 10000 2.6 0 16:19 24.06.2020
805 Clear 31 1015 43 10000 2.6 0 16:19 24.06.2020
806 Clear 30 1015 45 10000 2.6 310 15:55 24.06.2020
807 Clear 30 1015 45 10000 3.1 350 15:37 24.06.2020
808 Clear 29 1015 45 10000 1.5 300 15:18 24.06.2020
809 Clear 28 1016 51 10000 2.1 320 14:40 24.06.2020
810 Clouds 28 1016 51 10000 2.1 320 14:22 24.06.2020
811 Clouds 26 1016 54 10000 2.6 0 13:42 24.06.2020
812 Clouds 26 1016 54 10000 2.6 0 13:22 24.06.2020
813 Clouds 24 1016 60 10000 2.6 280 12:46 24.06.2020
814 Clouds 24 1016 60 10000 2.6 280 12:22 24.06.2020
815 Clouds 23 1016 69 10000 1.5 0 11:59 24.06.2020
816 Clouds 22 1016 73 10000 1.5 0 11:41 24.06.2020
817 Clouds 22 1016 73 10000 1.5 0 11:23 24.06.2020
818 Clouds 22 1016 73 10000 1.5 0 10:54 24.06.2020
819 Clouds 21 1016 73 10000 1.5 270 10:36 24.06.2020
820 Clouds 20 1016 77 10000 2.6 250 10:18 24.06.2020
821 Clouds 19 1016 82 10000 3.6 250 09:42 24.06.2020
822 Clear 18 1016 88 10000 3.1 250 09:20 24.06.2020
823 Clear 17 1016 88 10000 2.6 250 08:41 24.06.2020
824 Clear 17 1016 88 10000 2.6 250 08:20 24.06.2020
825 Clear 17 1016 88 10000 2.1 240 07:50 24.06.2020
826 Clear 17 1016 88 10000 2.6 240 07:26 24.06.2020
827 Clear 18 1016 82 10000 3.6 250 06:49 24.06.2020
828 Clear 18 1016 82 10000 3.6 250 06:25 24.06.2020
829 Clear 18 1015 82 10000 3.6 250 05:46 24.06.2020
830 Clear 19 1015 77 10000 3.6 240 04:41 24.06.2020
831 Clear 20 1016 72 10000 3.6 240 03:41 24.06.2020
832 Clear 20 1016 72 10000 3.6 240 03:19 24.06.2020
833 Clear 21 1016 68 10000 3.1 240 02:41 24.06.2020
834 Clear 23 1016 60 10000 3.1 240 01:19 24.06.2020
835 Clear 24 1016 60 10000 3.6 290 00:41 24.06.2020
836 Clear 24 1016 60 10000 3.6 290 00:21 24.06.2020
837 Clear 26 1016 54 10000 3.6 320 23:41 23.06.2020
838 Clear 26 1016 54 10000 3.6 320 23:18 23.06.2020
839 Clear 27 1015 51 10000 4.6 300 22:41 23.06.2020
840 Clear 27 1015 51 10000 4.6 300 22:19 23.06.2020
841 Clear 28 1015 48 10000 4.6 300 21:59 23.06.2020
842 Clear 30 1014 42 10000 4.6 310 21:38 23.06.2020
843 Clear 30 1014 42 10000 4.6 310 21:19 23.06.2020
844 Clear 31 1014 40 10000 5.7 280 20:55 23.06.2020
845 Clear 31 1014 40 10000 5.7 280 20:55 23.06.2020
846 Clouds 31 1014 40 10000 5.1 280 20:37 23.06.2020
847 Clouds 33 1014 36 10000 4.1 290 20:18 23.06.2020
848 Clouds 33 1014 33 10000 3.6 270 19:44 23.06.2020
849 Clouds 33 1014 33 10000 3.6 270 19:24 23.06.2020
850 Clouds 32 1014 35 10000 2.6 0 18:40 23.06.2020
851 Clouds 32 1014 35 10000 2.6 0 18:19 23.06.2020
852 Clouds 32 1014 35 10000 2.6 240 17:56 23.06.2020
853 Clouds 32 1014 35 10000 2.6 240 17:56 23.06.2020
854 Clear 32 1015 35 10000 2.6 300 17:38 23.06.2020
855 Clear 31 1015 38 10000 3.1 250 17:18 23.06.2020
856 Clear 31 1015 38 10000 3.1 250 16:54 23.06.2020
857 Clear 30 1015 42 10000 3.1 270 16:36 23.06.2020
858 Clear 30 1015 42 10000 4.1 270 16:18 23.06.2020
859 Clear 28 1015 48 10000 3.1 270 15:43 23.06.2020
860 Clear 28 1015 48 10000 3.1 270 15:24 23.06.2020
861 Clear 28 1015 48 10000 3.1 0 14:55 23.06.2020
862 Clear 27 1015 51 10000 3.6 300 14:37 23.06.2020
863 Clear 26 1015 54 10000 3.1 280 14:18 23.06.2020
864 Clear 25 1016 57 10000 4.1 260 13:45 23.06.2020
865 Clear 25 1016 57 10000 4.1 260 13:25 23.06.2020
866 Clear 24 1015 60 10000 3.6 270 12:55 23.06.2020
867 Clouds 24 1015 64 10000 3.1 280 12:37 23.06.2020
868 Clouds 22 1015 68 10000 3.6 270 12:18 23.06.2020
869 Clouds 21 1015 73 8000 4.1 270 11:42 23.06.2020
870 Clouds 21 1015 73 8000 4.1 270 11:22 23.06.2020
871 Clouds 20 1015 77 8000 3.6 280 10:58 23.06.2020
872 Clouds 21 1015 73 8000 3.1 250 10:40 23.06.2020
873 Clouds 21 1015 73 8000 3.1 250 10:21 23.06.2020
874 Clouds 20 1015 77 6000 3.1 280 09:56 23.06.2020
875 Clouds 19 1015 82 6000 3.1 260 09:38 23.06.2020
876 Clouds 19 1015 82 6000 3.1 260 09:18 23.06.2020
877 Clouds 18 1015 88 7000 3.6 240 08:44 23.06.2020
878 Clouds 18 1015 88 7000 3.6 240 08:25 23.06.2020
879 Clear 18 1014 88 10000 3.6 250 07:46 23.06.2020
880 Clear 18 1014 88 10000 3.6 250 07:24 23.06.2020
881 Clear 19 1014 82 10000 3.6 260 06:52 23.06.2020
882 Clear 19 1014 82 10000 3.6 260 06:32 23.06.2020
883 Clear 19 1014 82 10000 3.1 250 05:54 23.06.2020
884 Clear 20 1015 77 10000 3.1 260 04:42 23.06.2020
885 Clear 21 1015 73 10000 3.6 260 03:21 23.06.2020
886 Clear 23 1016 64 10000 3.6 260 02:47 23.06.2020
887 Clear 23 1016 64 10000 3.6 260 02:28 23.06.2020
888 Clear 24 1016 57 10000 3.6 270 01:45 23.06.2020
889 Clear 25 1016 53 10000 4.1 270 01:21 23.06.2020
890 Clear 26 1016 47 10000 3.6 270 00:40 23.06.2020
891 Clear 26 1016 47 10000 3.6 270 00:19 23.06.2020
892 Clear 28 1015 42 10000 3.6 300 23:39 22.06.2020
893 Clear 28 1015 42 10000 3.6 300 23:39 22.06.2020
894 Clear 28 1015 42 10000 3.6 300 23:19 22.06.2020
895 Clear 29 1015 39 10000 3.6 320 22:59 22.06.2020
896 Clear 29 1015 39 10000 4.1 310 22:40 22.06.2020
897 Clear 29 1015 39 10000 4.1 310 22:20 22.06.2020
898 Clouds 30 1014 40 10000 4.6 320 21:58 22.06.2020
899 Clouds 30 1014 40 10000 4.6 320 21:58 22.06.2020
900 Clouds 30 1014 40 10000 4.6 320 21:58 22.06.2020
901 Clouds 31 1014 38 10000 4.6 330 21:40 22.06.2020
902 Clouds 31 1014 38 10000 4.6 330 21:21 22.06.2020
903 Clouds 32 1013 38 0 5.7 320 20:55 22.06.2020
904 Clouds 34 1013 36 0 4.6 340 20:36 22.06.2020
905 Clouds 36 1013 30 0 4.1 350 20:18 22.06.2020
906 Clouds 36 1013 30 0 3.6 310 19:43 22.06.2020
907 Clouds 37 1013 27 0 3.1 320 19:19 22.06.2020
908 Clouds 37 1013 27 0 3.1 320 18:56 22.06.2020
909 Clouds 37 1013 25 0 3.1 250 18:36 22.06.2020
910 Clouds 37 1013 25 0 3.1 250 18:18 22.06.2020
911 Clouds 37 1013 25 0 3.1 290 17:55 22.06.2020
912 Clouds 37 1014 25 0 3.6 260 17:36 22.06.2020
913 Clouds 37 1014 25 0 3.6 260 17:18 22.06.2020
914 Clear 35 1014 28 10000 2.6 290 16:41 22.06.2020
915 Clear 35 1014 28 10000 2.6 290 16:18 22.06.2020
916 Clear 35 1015 30 10000 2.1 290 15:55 22.06.2020
917 Clear 34 1015 32 10000 2.1 0 15:37 22.06.2020
918 Clear 34 1015 32 10000 2.1 0 15:19 22.06.2020
919 Clear 32 1016 35 10000 2.1 0 14:39 22.06.2020
920 Clear 32 1016 35 10000 2.1 0 14:20 22.06.2020
921 Clear 31 1016 38 10000 2.6 0 13:56 22.06.2020
922 Clear 30 1016 40 10000 2.6 0 13:37 22.06.2020
923 Clear 30 1016 40 10000 2.6 0 13:19 22.06.2020
924 Clear 30 1016 40 10000 1.5 0 12:42 22.06.2020
925 Clear 28 1016 42 10000 2.1 280 12:23 22.06.2020
926 Clear 27 1016 44 10000 1.5 0 11:39 22.06.2020
927 Clear 27 1016 44 10000 1.5 0 11:20 22.06.2020
928 Clear 25 1016 50 10000 1.5 240 10:57 22.06.2020
929 Clear 25 1016 50 10000 1.5 240 10:57 22.06.2020
930 Clear 24 1016 53 10000 1.5 270 10:39 22.06.2020
931 Clear 24 1016 53 10000 1.5 270 10:19 22.06.2020
932 Clear 22 1016 56 10000 3.1 280 09:59 22.06.2020
933 Clear 21 1016 64 10000 3.1 260 09:41 22.06.2020
934 Clear 21 1016 64 10000 3.1 260 09:20 22.06.2020
935 Clear 21 1016 64 10000 3.1 260 09:20 22.06.2020
936 Clear 20 1016 64 10000 2.6 260 08:58 22.06.2020
937 Clear 20 1016 60 10000 2.6 260 08:38 22.06.2020
938 Clear 20 1016 60 10000 2.6 260 08:20 22.06.2020
939 Clear 20 1016 60 10000 2.6 240 07:50 22.06.2020
940 Clear 21 1016 56 10000 3.1 240 07:31 22.06.2020
941 Clear 21 1016 56 10000 2.1 240 06:44 22.06.2020
942 Clear 21 1017 56 10000 1.5 250 06:26 22.06.2020
943 Clear 22 1017 53 10000 1.5 270 05:53 22.06.2020
944 Clear 24 1017 47 10000 1.5 50 04:22 22.06.2020
945 Clear 26 1019 44 10000 2.6 30 02:35 22.06.2020
946 Clear 27 1019 42 10000 2.6 30 01:25 22.06.2020
947 Clear 27 1019 42 10000 2.6 40 00:41 22.06.2020
948 Clear 28 1019 39 10000 3.6 50 23:58 21.06.2020
949 Clear 29 1019 39 10000 3.6 40 23:39 21.06.2020
950 Clear 29 1019 39 10000 3.6 40 23:21 21.06.2020
951 Clouds 29 1018 39 10000 4.1 30 22:57 21.06.2020
952 Clouds 30 1018 37 10000 5.1 20 22:37 21.06.2020
953 Clouds 30 1018 37 10000 5.1 20 22:19 21.06.2020
954 Clouds 31 1018 35 10000 6.2 10 21:57 21.06.2020
955 Clouds 33 1017 31 10000 5.7 10 21:39 21.06.2020
956 Clouds 33 1017 31 10000 5.7 10 21:20 21.06.2020
957 Clouds 34 1017 30 10000 6.2 360 20:57 21.06.2020
958 Clouds 35 1017 28 10000 6.2 340 20:37 21.06.2020
959 Clouds 35 1017 28 10000 6.2 340 20:18 21.06.2020
960 Clouds 35 1017 28 10000 6.2 340 20:18 21.06.2020
961 Clouds 38 1017 21 10000 3.6 0 19:55 21.06.2020
962 Clouds 38 1017 21 10000 2.6 0 19:37 21.06.2020
963 Clouds 38 1017 21 10000 2.6 0 19:18 21.06.2020
964 Clouds 38 1017 22 10000 2.1 0 18:40 21.06.2020
965 Clouds 38 1017 22 10000 2.1 0 18:22 21.06.2020
966 Clouds 37 1018 23 10000 2.1 40 17:59 21.06.2020
967 Clouds 37 1018 23 10000 2.1 0 17:39 21.06.2020
968 Clouds 37 1018 23 10000 2.1 0 17:20 21.06.2020
969 Clouds 36 1018 25 10000 3.1 20 16:43 21.06.2020
970 Clouds 36 1019 28 10000 4.1 60 16:23 21.06.2020
971 Clear 35 1019 30 10000 3.1 0 15:57 21.06.2020
972 Clear 33 1020 29 10000 3.1 320 15:37 21.06.2020
973 Clear 33 1020 29 10000 3.1 320 15:19 21.06.2020
974 Clear 31 1021 33 10000 2.6 0 14:39 21.06.2020
975 Clear 31 1021 33 10000 2.6 0 14:20 21.06.2020
976 Clear 32 1021 33 10000 1.5 0 13:59 21.06.2020
977 Clear 30 1021 37 10000 1.5 0 13:40 21.06.2020
978 Clear 30 1021 37 10000 1.5 0 13:21 21.06.2020
979 Clear 28 1021 39 10000 2.1 0 12:45 21.06.2020
980 Clear 28 1021 39 10000 1.5 0 12:26 21.06.2020
981 Clear 26 1021 44 10000 2.1 300 11:59 21.06.2020
982 Clear 26 1021 44 10000 1 0 11:41 21.06.2020
983 Clear 26 1021 44 10000 1 0 11:23 21.06.2020
984 Clear 25 1021 47 10000 1 0 10:57 21.06.2020
985 Clear 23 1022 49 10000 1 0 10:38 21.06.2020
986 Clear 23 1022 49 10000 1 0 10:20 21.06.2020
987 Clear 22 1022 53 10000 1 0 09:43 21.06.2020
988 Clear 20 1021 60 10000 1.5 250 09:22 21.06.2020
989 Clear 20 1021 60 10000 1.5 250 08:57 21.06.2020
990 Clear 19 1021 59 10000 2.1 240 08:39 21.06.2020
991 Clear 19 1021 59 10000 2.1 240 08:19 21.06.2020
992 Clear 19 1021 59 10000 1.5 250 07:41 21.06.2020
993 Clear 19 1021 59 10000 1.5 250 07:23 21.06.2020
994 Clear 21 1021 52 10000 1.5 30 06:50 21.06.2020
995 Clear 21 1021 52 10000 0.5 0 06:19 21.06.2020
996 Clear 22 1021 46 10000 1.5 0 05:57 21.06.2020
997 Clear 23 1021 43 10000 1.5 50 04:29 21.06.2020
998 Clear 24 1022 44 10000 2.6 30 03:19 21.06.2020
999 Clear 24 1022 44 10000 2.6 30 02:22 21.06.2020
1000 Clear 26 1022 41 10000 3.1 50 01:36 21.06.2020
1001 Clear 26 1022 41 10000 3.1 50 01:18 21.06.2020
1002 Clear 27 1022 39 10000 4.1 40 00:41 21.06.2020
1003 Clear 27 1022 39 10000 4.1 40 00:23 21.06.2020
1004 Clear 27 1022 39 10000 4.6 40 23:45 20.06.2020
1005 Clear 28 1021 34 10000 3.6 30 23:22 20.06.2020
1006 Clear 30 1020 33 10000 5.1 20 22:57 20.06.2020
1007 Clear 30 1020 33 10000 5.1 20 22:39 20.06.2020
1008 Clear 30 1020 33 10000 5.1 20 22:19 20.06.2020
1009 Clear 31 1020 33 10000 4.6 10 21:58 20.06.2020
1010 Clear 32 1019 31 10000 5.1 360 21:39 20.06.2020
1011 Clear 32 1019 31 10000 5.1 360 21:20 20.06.2020
1012 Clear 33 1019 29 10000 5.1 10 20:58 20.06.2020
1013 Clear 34 1019 26 10000 3.6 0 20:40 20.06.2020
1014 Clear 34 1019 26 10000 3.6 0 20:20 20.06.2020
1015 Clear 35 1019 24 10000 3.6 30 19:55 20.06.2020
1016 Clear 34 1019 26 10000 3.1 360 19:37 20.06.2020
1017 Clear 34 1019 26 10000 3.1 360 19:19 20.06.2020
1018 Clear 35 1019 26 10000 2.6 0 18:42 20.06.2020
1019 Clear 35 1019 28 10000 3.6 350 18:20 20.06.2020
1020 Clear 34 1020 30 10000 2.6 0 17:57 20.06.2020
1021 Clear 34 1020 30 10000 3.6 0 17:39 20.06.2020
1022 Clear 34 1020 30 10000 3.6 0 17:20 20.06.2020
1023 Clear 34 1020 30 10000 1.5 0 16:42 20.06.2020
1024 Clear 33 1020 31 10000 3.1 0 16:19 20.06.2020
1025 Clear 31 1020 38 10000 2.1 0 15:57 20.06.2020
1026 Clear 31 1020 38 10000 1.5 10 15:39 20.06.2020
1027 Clear 31 1020 38 10000 1.5 10 15:18 20.06.2020
1028 Clear 30 1020 40 10000 2.1 0 14:42 20.06.2020
1029 Clear 29 1021 39 10000 2.1 0 14:21 20.06.2020
1030 Clear 26 1021 47 10000 2.1 0 13:42 20.06.2020
1031 Clear 26 1021 47 10000 2.1 0 13:23 20.06.2020
1032 Clear 26 1021 47 10000 1.5 0 12:57 20.06.2020
1033 Clear 25 1021 50 10000 2.1 290 12:38 20.06.2020
1034 Clear 25 1021 50 10000 2.1 290 12:19 20.06.2020
1035 Clear 24 1021 53 10000 1.5 0 11:55 20.06.2020
1036 Clear 26 1020 40 0 2.31 339 11:36 20.06.2020
1037 Clear 23 1020 47 0 1.36 338 11:18 20.06.2020
1038 Clear 23 1020 47 0 1.36 338 10:42 20.06.2020
1039 Clear 21 1020 55 0 1.38 349 10:21 20.06.2020
1040 Clear 21 1020 55 0 1.38 349 09:54 20.06.2020
1041 Clear 21 1020 55 0 1.38 349 09:36 20.06.2020
1042 Clear 19 1019 64 0 1.92 343 09:18 20.06.2020
1043 Clear 18 1019 68 10000 2.1 240 08:44 20.06.2020
1044 Clear 18 1019 68 10000 2.1 240 08:26 20.06.2020
1045 Clear 18 1019 68 10000 2.1 240 07:51 20.06.2020
1046 Clear 17 1019 67 10000 2.1 250 07:27 20.06.2020
1047 Clear 18 1019 68 10000 2.6 240 06:53 20.06.2020
1048 Clear 18 1019 68 10000 1.5 250 06:23 20.06.2020
1049 Clear 19 1019 63 10000 1 0 05:50 20.06.2020
1050 Clear 20 1019 56 10000 1 0 04:50 20.06.2020
1051 Clear 22 1020 49 10000 3.6 20 02:23 20.06.2020
1052 Clear 22 1020 49 10000 3.6 30 01:46 20.06.2020
1053 Clear 23 1020 49 10000 2.1 60 00:52 20.06.2020
1054 Clear 23 1020 49 10000 3.1 60 00:21 20.06.2020
1055 Clear 23 1020 49 10000 3.1 40 23:49 19.06.2020
1056 Clear 24 1019 47 10000 4.6 40 23:22 19.06.2020
1057 Clear 24 1019 47 10000 6.7 20 22:59 19.06.2020
1058 Clouds 26 1018 44 10000 5.1 20 22:40 19.06.2020
1059 Clouds 26 1018 44 10000 5.1 20 22:22 19.06.2020
1060 Clouds 26 1018 44 10000 7.2 20 21:58 19.06.2020
1061 Clouds 30 1017 33 10000 4.1 360 21:38 19.06.2020
1062 Clouds 30 1017 33 10000 4.1 360 21:38 19.06.2020
1063 Clouds 30 1017 33 10000 4.1 360 21:18 19.06.2020
1064 Clouds 30 1017 33 10000 4.1 360 20:58 19.06.2020
1065 Clouds 32 1017 25 10000 3.6 60 20:40 19.06.2020
1066 Clouds 32 1017 25 10000 3.6 60 20:20 19.06.2020
1067 Clouds 32 1017 25 10000 3.6 60 19:55 19.06.2020
1068 Clouds 32 1017 27 10000 3.1 360 19:37 19.06.2020
1069 Clouds 32 1017 27 10000 3.1 360 19:37 19.06.2020
1070 Clouds 32 1017 27 10000 3.1 360 19:18 19.06.2020
1071 Clouds 31 1017 33 10000 2.1 0 18:40 19.06.2020
1072 Clouds 31 1017 33 10000 2.1 0 18:21 19.06.2020
1073 Clouds 31 1017 33 10000 2.1 0 17:55 19.06.2020
1074 Clouds 30 1018 35 10000 2.6 0 17:36 19.06.2020
1075 Clouds 30 1018 35 10000 2.6 0 17:18 19.06.2020
1076 Clouds 30 1018 35 10000 3.6 0 16:41 19.06.2020
1077 Clouds 30 1018 35 10000 3.6 0 16:23 19.06.2020
1078 Clouds 30 1018 37 10000 3.1 0 15:58 19.06.2020
1079 Clouds 30 1018 40 10000 1.5 20 15:40 19.06.2020
1080 Clouds 30 1018 40 10000 1.5 20 15:19 19.06.2020
1081 Clouds 28 1018 39 10000 2.6 20 14:55 19.06.2020
1082 Clouds 27 1019 44 10000 2.6 0 14:37 19.06.2020
1083 Clouds 27 1019 44 10000 2.6 0 14:18 19.06.2020
1084 Clouds 26 1019 47 10000 2.1 70 13:41 19.06.2020
1085 Clouds 26 1019 47 10000 2.1 70 13:23 19.06.2020
1086 Clouds 24 1019 53 10000 2.6 0 12:46 19.06.2020
1087 Clouds 23 1019 56 10000 2.6 40 12:22 19.06.2020
1088 Clouds 22 1019 56 10000 1.5 30 11:57 19.06.2020
1089 Clouds 22 1020 60 10000 1.5 0 11:38 19.06.2020
1090 Clouds 22 1020 60 10000 1.5 0 11:18 19.06.2020
1091 Clouds 22 1020 60 10000 1.5 0 11:18 19.06.2020
1092 Clear 21 1020 64 10000 2.1 40 10:45 19.06.2020
1093 Clear 20 1019 64 10000 2.1 70 10:26 19.06.2020
1094 Clear 19 1019 68 10000 2.6 70 09:58 19.06.2020
1095 Clear 18 1019 68 10000 2.6 50 09:40 19.06.2020
1096 Clear 18 1019 68 10000 2.6 50 09:20 19.06.2020
1097 Clouds 17 1019 72 10000 3.1 40 08:43 19.06.2020
1098 Clouds 17 1019 72 10000 3.1 30 08:24 19.06.2020
1099 Clouds 17 1019 72 10000 3.1 20 07:56 19.06.2020
1100 Clouds 17 1019 72 10000 3.1 30 07:37 19.06.2020
1101 Clouds 17 1019 72 10000 3.1 30 07:18 19.06.2020
1102 Clouds 18 1019 68 10000 3.6 40 06:23 19.06.2020
1103 Clouds 18 1019 68 10000 3.6 50 05:43 19.06.2020
1104 Clouds 19 1019 68 10000 4.6 40 04:23 19.06.2020
1105 Clouds 20 1019 64 10000 4.1 40 02:50 19.06.2020
1106 Clouds 21 1019 60 10000 4.6 40 00:49 19.06.2020
1107 Clouds 22 1019 56 10000 6.2 30 00:22 19.06.2020
1108 Clouds 22 1019 56 10000 5.7 10 23:59 18.06.2020
1109 Clouds 23 1018 53 10000 4.6 10 23:41 18.06.2020
1110 Clouds 23 1018 53 10000 4.6 10 23:23 18.06.2020
1111 Clouds 24 1018 50 10000 5.1 360 22:58 18.06.2020
1112 Clouds 25 1017 44 10000 5.7 360 22:36 18.06.2020
1113 Clouds 25 1017 44 10000 5.7 360 22:18 18.06.2020
1114 Clouds 26 1017 44 10000 4.6 360 21:38 18.06.2020
1115 Clouds 26 1017 44 10000 4.6 360 21:19 18.06.2020
1116 Clouds 26 1016 44 10000 4.1 360 20:56 18.06.2020
1117 Clouds 27 1016 42 10000 3.6 360 20:38 18.06.2020
1118 Clouds 27 1016 42 10000 3.6 360 20:18 18.06.2020
1119 Clouds 27 1015 42 10000 4.1 350 19:42 18.06.2020
1120 Clouds 27 1015 42 10000 4.1 350 19:20 18.06.2020
1121 Clouds 27 1015 42 10000 4.1 330 18:57 18.06.2020
1122 Clouds 28 1015 39 10000 3.6 340 18:37 18.06.2020
1123 Clouds 28 1015 39 10000 3.6 340 18:18 18.06.2020
1124 Clouds 28 1015 42 10000 5.1 330 17:45 18.06.2020
1125 Clouds 28 1015 37 10000 3.6 340 17:25 18.06.2020
1126 Clouds 28 1015 37 10000 2.1 20 16:56 18.06.2020
1127 Clouds 30 1015 35 10000 2.6 0 16:37 18.06.2020
1128 Clouds 30 1015 35 10000 2.6 0 16:18 18.06.2020
1129 Clouds 28 1015 37 10000 3.6 350 15:55 18.06.2020
1130 Clouds 29 1016 37 10000 2.1 0 15:37 18.06.2020
1131 Clouds 29 1016 37 10000 2.1 0 15:18 18.06.2020
1132 Clouds 27 1016 44 10000 2.6 310 14:41 18.06.2020
1133 Clouds 27 1016 44 10000 2.6 310 14:23 18.06.2020
1134 Clouds 26 1016 47 10000 2.1 0 13:58 18.06.2020
1135 Clouds 25 1017 53 10000 2.6 330 13:40 18.06.2020
1136 Clouds 25 1017 53 10000 2.6 330 13:40 18.06.2020
1137 Clouds 25 1017 53 10000 2.6 330 13:20 18.06.2020
1138 Clouds 24 1017 57 10000 2.1 330 12:55 18.06.2020
1139 Clouds 24 1017 57 10000 1.5 0 12:37 18.06.2020
1140 Clouds 24 1017 57 10000 1.5 0 12:19 18.06.2020
1141 Clouds 22 1017 68 10000 2.1 0 11:46 18.06.2020
1142 Clouds 22 1017 68 10000 2.1 0 11:21 18.06.2020
1143 Clouds 19 1017 77 10000 3.1 290 10:41 18.06.2020
1144 Clouds 19 1017 77 10000 3.1 290 10:20 18.06.2020
1145 Clouds 19 1016 77 10000 4.1 290 09:58 18.06.2020
1146 Clouds 17 1016 88 10000 3.6 270 09:40 18.06.2020
1147 Clouds 17 1016 88 10000 3.6 270 09:21 18.06.2020
1148 Clouds 17 1016 82 10000 3.1 240 08:41 18.06.2020
1149 Clouds 17 1016 82 10000 3.1 240 08:22 18.06.2020
1150 Clouds 17 1016 82 10000 2.6 240 07:57 18.06.2020
1151 Clouds 17 1016 82 10000 3.6 250 07:37 18.06.2020
1152 Clouds 17 1016 82 10000 3.6 250 07:37 18.06.2020
1153 Clouds 17 1016 82 10000 3.6 250 07:19 18.06.2020
1154 Clouds 17 1015 82 10000 4.6 250 06:22 18.06.2020
1155 Clear 19 1015 72 10000 4.6 240 04:26 18.06.2020
1156 Clear 20 1015 68 10000 4.1 260 03:18 18.06.2020
1157 Clouds 23 1015 56 10000 3.6 40 01:32 18.06.2020
1158 Clouds 24 1015 53 10000 3.1 10 00:59 18.06.2020
1159 Clouds 25 1014 50 10000 4.6 40 00:39 18.06.2020
1160 Clouds 25 1014 50 10000 4.6 40 00:21 18.06.2020
1161 Clouds 26 1014 47 10000 4.1 30 23:45 17.06.2020
1162 Clouds 27 1014 34 10000 2.1 270 23:21 17.06.2020
1163 Clouds 27 1014 36 10000 2.1 270 22:58 17.06.2020
1164 Clouds 28 1014 34 10000 1.5 260 22:39 17.06.2020
1165 Clouds 28 1014 34 10000 1.5 260 22:20 17.06.2020
1166 Clouds 29 1014 30 10000 2.6 260 21:55 17.06.2020
1167 Clouds 30 1014 30 10000 3.6 260 21:37 17.06.2020
1168 Clear 30 1014 30 10000 3.6 260 21:18 17.06.2020
1169 Clear 31 1014 29 10000 3.6 270 20:38 17.06.2020
1170 Clouds 31 1014 29 10000 3.6 270 20:20 17.06.2020
1171 Clouds 31 1015 29 10000 3.1 300 19:57 17.06.2020
1172 Clouds 32 1015 27 10000 2.1 0 19:38 17.06.2020
1173 Clouds 32 1015 27 10000 2.1 0 19:19 17.06.2020
1174 Clouds 32 1015 29 10000 2.1 0 18:45 17.06.2020
1175 Clouds 31 1015 31 10000 3.6 280 18:27 17.06.2020
1176 Clouds 31 1016 31 10000 3.1 0 17:45 17.06.2020
1177 Clouds 30 1016 33 10000 4.1 260 17:23 17.06.2020
1178 Clouds 30 1016 33 10000 2.6 260 16:58 17.06.2020
1179 Clouds 30 1017 33 10000 1.5 0 16:39 17.06.2020
1180 Clouds 30 1017 33 10000 1.5 0 16:21 17.06.2020
1181 Clouds 30 1017 33 10000 3.1 250 15:57 17.06.2020
1182 Clouds 30 1017 33 10000 2.1 0 15:39 17.06.2020
1183 Clouds 30 1017 33 10000 2.1 0 15:19 17.06.2020
1184 Clouds 29 1017 37 10000 2.6 310 14:57 17.06.2020
1185 Clouds 28 1018 39 10000 2.1 0 14:39 17.06.2020
1186 Clouds 28 1018 39 10000 2.1 0 14:19 17.06.2020
1187 Clouds 27 1018 39 10000 2.6 0 13:56 17.06.2020
1188 Clouds 26 1018 41 10000 2.1 350 13:36 17.06.2020
1189 Clouds 26 1018 41 10000 2.1 350 13:18 17.06.2020
1190 Clouds 25 1018 44 10000 1 0 12:42 17.06.2020
1191 Clouds 25 1018 44 10000 1 0 12:22 17.06.2020
1192 Clouds 24 1018 47 10000 2.1 0 11:45 17.06.2020
1193 Clouds 23 1019 49 10000 3.1 270 11:26 17.06.2020
1194 Clouds 22 1019 53 10000 3.1 270 10:59 17.06.2020
1195 Clouds 21 1019 56 10000 3.6 260 10:38 17.06.2020
1196 Clouds 21 1019 56 10000 3.6 260 10:19 17.06.2020
1197 Clouds 21 1019 56 10000 3.6 260 10:19 17.06.2020
1198 Clouds 21 1019 56 10000 3.6 250 09:56 17.06.2020
1199 Clouds 22 1018 53 10000 1 0 09:37 17.06.2020
1200 Clouds 22 1018 53 10000 1 0 09:19 17.06.2020
1201 Clouds 22 1019 53 10000 2.1 30 08:44 17.06.2020
1202 Clouds 21 1018 56 10000 2.1 70 08:20 17.06.2020
1203 Clouds 20 1018 60 10000 2.1 60 07:55 17.06.2020
1204 Clouds 20 1018 60 10000 2.6 70 07:37 17.06.2020
1205 Clouds 20 1018 60 10000 2.6 70 07:18 17.06.2020
1206 Clouds 20 1019 60 10000 1.5 80 06:41 17.06.2020
1207 Clouds 20 1019 60 10000 1.5 80 06:22 17.06.2020
1208 Clouds 21 1019 56 10000 2.6 80 05:59 17.06.2020
1209 Clouds 21 1020 56 10000 2.6 30 04:39 17.06.2020
1210 Clouds 23 1021 49 10000 2.6 40 02:44 17.06.2020
1211 Clouds 24 1021 50 10000 2.1 50 01:20 17.06.2020
1212 Clouds 25 1022 47 10000 3.6 30 00:37 17.06.2020
1213 Clouds 25 1022 47 10000 3.6 30 00:18 17.06.2020
1214 Clouds 26 1021 44 10000 4.6 360 23:41 16.06.2020
1215 Clouds 26 1021 44 10000 4.6 360 23:23 16.06.2020
1216 Clouds 27 1021 42 10000 5.7 350 22:58 16.06.2020
1217 Clouds 29 1020 32 10000 4.1 350 22:39 16.06.2020
1218 Clouds 29 1020 32 10000 4.1 350 22:19 16.06.2020
1219 Clouds 30 1020 28 10000 4.6 360 21:58 16.06.2020
1220 Clouds 30 1020 28 10000 4.6 360 21:58 16.06.2020
1221 Clouds 31 1020 27 10000 3.6 10 21:40 16.06.2020
1222 Clouds 31 1020 27 10000 3.6 10 21:21 16.06.2020
1223 Clouds 32 1020 24 10000 3.1 310 20:44 16.06.2020
1224 Clouds 33 1020 22 10000 1.5 0 20:25 16.06.2020
1225 Clouds 32 1020 24 10000 2.1 0 19:59 16.06.2020
1226 Clouds 33 1020 22 10000 3.1 310 19:40 16.06.2020
1227 Clouds 33 1020 22 10000 3.1 310 19:22 16.06.2020
1228 -273 0 0 0 0 0 18:59 16.06.2020
1229 Clouds 33 1021 24 10000 2.6 10 18:41 16.06.2020
1230 Clouds 33 1021 24 10000 2.6 10 18:21 16.06.2020
1231 Clouds 32 1021 24 10000 3.6 350 17:57 16.06.2020
1232 Clouds 33 1021 22 10000 2.6 0 17:38 16.06.2020
1233 Clouds 33 1021 22 10000 2.6 0 17:19 16.06.2020
1234 Clouds 32 1022 25 10000 3.1 360 16:56 16.06.2020
1235 Clouds 32 1022 25 10000 3.6 360 16:38 16.06.2020
1236 Clouds 32 1022 25 10000 3.6 360 16:19 16.06.2020
1237 Clouds 32 1022 29 10000 1.5 340 15:56 16.06.2020
1238 Clouds 31 1023 29 10000 3.1 40 15:38 16.06.2020
1239 Clouds 31 1023 29 10000 3.1 40 15:20 16.06.2020
1240 Clouds 31 1023 31 10000 1.5 0 14:43 16.06.2020
1241 Clear 30 1023 35 10000 2.1 350 14:25 16.06.2020
1242 Clear 29 1023 30 10000 2.6 0 13:59 16.06.2020
1243 Clear 28 1023 39 10000 2.1 0 13:41 16.06.2020
1244 Clear 28 1023 39 10000 2.1 0 13:22 16.06.2020
1245 Clear 28 1024 42 10000 2.1 340 12:42 16.06.2020
1246 Clear 27 1024 44 10000 2.1 350 12:21 16.06.2020
1247 Clear 25 1024 50 10000 2.1 340 11:57 16.06.2020
1248 Clear 24 1024 50 10000 3.1 350 11:39 16.06.2020
1249 Clear 24 1024 50 10000 3.1 350 11:20 16.06.2020
1250 Clear 25 1024 50 10000 2.1 340 10:56 16.06.2020
1251 Clear 24 1024 50 10000 1.5 30 10:37 16.06.2020
1252 Clear 24 1024 50 10000 1.5 30 10:18 16.06.2020
1253 Clear 23 1024 53 10000 1 0 09:43 16.06.2020
1254 Clear 22 1024 56 10000 1.5 160 09:22 16.06.2020
1255 Clear 20 1024 64 10000 1 0 08:48 16.06.2020
1256 Clear 19 1024 68 10000 1.5 250 08:30 16.06.2020
1257 Clear 18 1024 68 10000 1.5 290 07:51 16.06.2020
1258 Clear 19 1024 63 10000 1.5 260 07:29 16.06.2020
1259 Clear 19 1024 68 10000 3.1 240 06:56 16.06.2020
1260 Clear 20 1024 64 10000 3.6 230 06:29 16.06.2020
1261 Clear 20 1024 60 10000 4.1 240 05:47 16.06.2020
1262 Clear 20 1023 60 10000 4.1 230 04:54 16.06.2020
1263 Clear 21 1023 56 10000 3.1 270 03:53 16.06.2020
1264 Clouds 24 1023 47 10000 3.1 350 02:28 16.06.2020
1265 Clouds 26 1023 41 10000 2.1 40 01:32 16.06.2020
1266 Clouds 26 1023 44 10000 1.5 60 00:52 16.06.2020
1267 Clouds 26 1022 44 10000 3.6 50 00:22 16.06.2020
1268 Clouds 28 1022 42 10000 3.6 20 23:43 15.06.2020
1269 Clouds 28 1022 42 10000 3.6 20 23:24 15.06.2020
1270 Clouds 28 1022 42 10000 4.1 10 22:59 15.06.2020
1271 Clouds 29 1022 37 10000 4.6 20 22:41 15.06.2020
1272 Clouds 29 1022 37 10000 4.6 20 22:41 15.06.2020
1273 Clouds 29 1022 37 10000 4.6 20 22:21 15.06.2020
1274 Clouds 31 1022 25 10000 3.1 20 21:57 15.06.2020
1275 Clouds 31 1022 27 10000 4.6 340 21:38 15.06.2020
1276 Clouds 31 1022 27 10000 4.6 340 21:19 15.06.2020
1277 Clouds 32 1022 25 10000 5.1 360 20:57 15.06.2020
1278 Clouds 33 1022 24 10000 3.1 330 20:38 15.06.2020
1279 Clouds 33 1022 24 10000 3.1 330 20:19 15.06.2020
1280 Clouds 35 1021 21 10000 2.6 340 19:56 15.06.2020
1281 Clouds 35 1021 19 10000 2.1 0 19:38 15.06.2020
1282 Clouds 35 1021 19 10000 2.1 0 19:20 15.06.2020
1283 Clouds 35 1021 20 10000 2.6 0 18:56 15.06.2020
1284 Clouds 35 1021 21 10000 2.6 0 18:37 15.06.2020
1285 Clouds 35 1021 21 10000 2.6 0 18:19 15.06.2020
1286 Clouds 34 1021 21 10000 2.1 20 17:55 15.06.2020
1287 Clouds 34 1022 23 10000 3.6 290 17:36 15.06.2020
1288 Clouds 34 1022 23 10000 3.6 290 17:18 15.06.2020
1289 Clouds 32 1022 29 10000 1 0 16:41 15.06.2020
1290 Clouds 32 1022 29 10000 1 0 16:19 15.06.2020
1291 Clouds 32 1022 29 10000 1 0 15:56 15.06.2020
1292 Clouds 32 1022 29 10000 1.5 0 15:38 15.06.2020
1293 Clouds 32 1022 29 10000 1.5 0 15:18 15.06.2020
1294 Clouds 29 1023 35 10000 1 0 14:42 15.06.2020
1295 Clouds 29 1023 35 10000 1 0 14:21 15.06.2020
1296 Clouds 28 1023 39 10000 1 0 13:59 15.06.2020
1297 Clouds 27 1023 42 10000 2.1 60 13:41 15.06.2020
1298 Clouds 27 1023 42 10000 2.1 60 13:41 15.06.2020
1299 Clouds 27 1023 42 10000 2.1 60 13:22 15.06.2020
1300 Clouds 27 1023 42 10000 2.6 30 12:58 15.06.2020
1301 Clouds 25 1023 47 10000 3.1 40 12:39 15.06.2020
1302 Clouds 25 1023 47 10000 3.1 40 12:21 15.06.2020
1303 Clouds 25 1023 47 10000 3.1 40 12:21 15.06.2020
1304 Clouds 24 1023 50 10000 3.1 50 11:44 15.06.2020
1305 Clouds 24 1023 50 10000 3.1 50 11:25 15.06.2020
1306 Clear 25 1023 36 0 3.54 52 10:45 15.06.2020
1307 Clouds 22 1023 45 0 2.97 46 10:23 15.06.2020
1308 Clouds 22 1023 45 0 2.97 46 09:57 15.06.2020
1309 Clouds 22 1023 45 0 2.97 46 09:39 15.06.2020
1310 Clouds 20 1023 52 0 2.28 55 09:20 15.06.2020
1311 Clouds 20 1023 52 0 2.28 55 08:41 15.06.2020
1312 Clouds 17 1023 67 10000 1.5 250 08:23 15.06.2020
1313 Clouds 17 1023 67 10000 1.5 250 07:47 15.06.2020
1314 Clouds 17 1023 67 10000 1.5 250 07:28 15.06.2020
1315 Clouds 18 1023 63 10000 2.1 240 06:49 15.06.2020
1316 Clouds 18 1023 63 10000 1.5 270 06:26 15.06.2020
1317 Clouds 20 1023 56 10000 1 0 05:47 15.06.2020
1318 Clouds 20 1023 60 10000 1 0 05:26 15.06.2020
1319 Clouds 21 1023 52 10000 1 0 04:20 15.06.2020
1320 Clouds 21 1024 56 10000 3.1 70 03:42 15.06.2020
1321 Clear 22 1025 53 10000 2.1 360 02:54 15.06.2020
1322 Clear 22 1025 53 10000 2.1 360 01:58 15.06.2020
1323 Clear 22 1025 53 10000 3.6 360 01:35 15.06.2020
1324 Clear 23 1025 49 10000 3.1 360 00:59 15.06.2020
1325 Clear 23 1025 49 10000 3.1 330 00:39 15.06.2020
1326 Clear 23 1025 49 10000 3.1 330 00:20 15.06.2020
1327 Clear 24 1024 47 8000 3.6 320 23:47 14.06.2020
1328 Clear 24 1023 47 8000 3.6 340 23:25 14.06.2020
1329 Clear 25 1023 44 8000 4.6 360 22:58 14.06.2020
1330 Clear 25 1023 44 8000 4.6 360 22:58 14.06.2020
1331 Clear 26 1022 41 8000 6.2 360 22:39 14.06.2020
1332 Clear 26 1022 41 8000 6.2 360 22:20 14.06.2020
1333 Clear 29 1021 28 10000 3.1 250 21:57 14.06.2020
1334 Clear 30 1021 25 10000 4.6 270 21:39 14.06.2020
1335 Clear 30 1021 25 10000 4.6 270 21:19 14.06.2020
1336 Clear 31 1021 23 10000 4.6 270 20:58 14.06.2020
1337 Clear 31 1020 23 10000 4.1 280 20:38 14.06.2020
1338 Clear 31 1020 23 10000 4.1 280 20:20 14.06.2020
1339 Clear 32 1020 22 10000 3.1 0 19:59 14.06.2020
1340 Clear 31 1020 23 10000 2.6 260 19:38 14.06.2020
1341 Clear 31 1020 23 10000 2.6 260 19:19 14.06.2020
1342 Clear 31 1020 23 10000 2.6 260 19:19 14.06.2020
1343 Clear 32 1020 24 10000 3.6 270 18:57 14.06.2020
1344 Clear 32 1020 22 10000 2.1 290 18:38 14.06.2020
1345 Clear 32 1020 22 10000 2.1 290 18:20 14.06.2020
1346 Clear 31 1020 23 10000 2.6 0 17:58 14.06.2020
1347 Clear 31 1021 25 10000 3.1 0 17:38 14.06.2020
1348 Clear 31 1021 25 10000 3.1 0 17:19 14.06.2020
1349 Clear 31 1021 25 10000 2.6 330 16:41 14.06.2020
1350 Clear 31 1021 25 10000 2.6 330 16:21 14.06.2020
1351 Clear 29 1021 30 10000 2.1 10 15:59 14.06.2020
1352 Clear 29 1022 30 10000 2.1 0 15:40 14.06.2020
1353 Clear 29 1022 30 10000 2.1 0 15:18 14.06.2020
1354 Clear 28 1022 32 10000 2.1 300 14:58 14.06.2020
1355 Clear 28 1022 32 10000 1.5 20 14:40 14.06.2020
1356 Clear 28 1022 32 10000 1.5 20 14:21 14.06.2020
1357 Clear 27 1023 36 10000 1.5 0 13:55 14.06.2020
1358 Clear 26 1023 41 10000 1.5 0 13:37 14.06.2020
1359 Clear 26 1023 41 10000 1.5 0 13:19 14.06.2020
1360 Clear 25 1023 50 10000 2.1 360 12:55 14.06.2020
1361 Clear 24 1023 53 10000 2.1 0 12:37 14.06.2020
1362 Clear 24 1023 53 10000 2.1 0 12:18 14.06.2020
1363 Clear 24 1023 53 10000 2.1 0 11:55 14.06.2020
1364 Clear 23 1023 56 10000 1.5 0 11:37 14.06.2020
1365 Clear 23 1023 56 10000 1.5 0 11:18 14.06.2020
1366 Clear 22 1023 60 10000 1.5 310 10:41 14.06.2020
1367 Clear 22 1023 60 10000 1.5 310 10:19 14.06.2020
1368 Clouds 20 1022 68 10000 1.5 260 09:45 14.06.2020
1369 Clouds 20 1022 68 10000 1.5 260 09:24 14.06.2020
1370 Clouds 19 1022 68 10000 1.5 240 08:44 14.06.2020
1371 Clouds 19 1022 68 10000 1.5 250 08:22 14.06.2020
1372 Clouds 19 1022 68 10000 1.5 260 08:00 14.06.2020
1373 Clouds 19 1022 68 10000 2.1 250 07:41 14.06.2020
1374 Clouds 19 1022 68 10000 2.1 250 07:23 14.06.2020
1375 Clouds 19 1021 68 10000 2.1 260 06:25 14.06.2020
1376 Clouds 19 1021 68 10000 2.1 260 05:39 14.06.2020
1377 Clouds 20 1021 64 10000 2.1 250 04:51 14.06.2020
1378 Clouds 20 1021 64 10000 1.5 240 04:25 14.06.2020
1379 Clouds 20 1022 68 10000 3.1 320 02:53 14.06.2020
1380 Clouds 20 1021 68 10000 3.1 310 02:23 14.06.2020
1381 Clouds 21 1021 64 10000 4.1 340 01:36 14.06.2020
1382 Clouds 21 1021 64 10000 4.1 320 00:50 14.06.2020
1383 Clouds 21 1021 64 10000 4.1 310 00:31 14.06.2020
1384 Clouds 22 1020 60 10000 4.6 320 23:59 13.06.2020
1385 Clouds 22 1019 60 10000 4.6 320 23:41 13.06.2020
1386 Clear 22 1019 60 10000 4.6 320 23:22 13.06.2020
1387 Clear 23 1019 56 10000 5.7 320 22:56 13.06.2020
1388 Clear 24 1018 53 10000 5.1 310 22:36 13.06.2020
1389 Clouds 24 1018 53 10000 5.1 310 22:18 13.06.2020
1390 Clouds 26 1017 44 10000 5.1 290 21:43 13.06.2020
1391 Clouds 29 1017 26 10000 4.1 270 21:24 13.06.2020
1392 Clouds 29 1017 26 10000 4.1 270 20:57 13.06.2020
1393 Clouds 29 1017 26 10000 3.6 290 20:39 13.06.2020
1394 Clouds 29 1017 26 10000 3.6 290 20:18 13.06.2020
1395 Clouds 29 1016 26 10000 3.1 280 19:41 13.06.2020
1396 Clouds 29 1016 26 10000 3.1 280 19:20 13.06.2020
1397 Clouds 30 1017 27 10000 4.1 250 18:59 13.06.2020
1398 Clouds 30 1017 27 10000 3.1 280 18:40 13.06.2020
1399 Clouds 30 1017 27 10000 3.1 280 18:20 13.06.2020
1400 Clouds 29 1017 28 10000 2.6 0 17:58 13.06.2020
1401 Clouds 29 1017 26 10000 1.5 0 17:40 13.06.2020
1402 Clouds 29 1017 26 10000 1.5 0 17:22 13.06.2020
1403 Clouds 29 1017 28 10000 2.1 0 16:55 13.06.2020
1404 Clouds 28 1018 28 10000 2.6 350 16:37 13.06.2020
1405 Clouds 28 1018 28 10000 2.6 350 16:37 13.06.2020
1406 Clouds 28 1018 28 10000 2.6 350 16:18 13.06.2020
1407 Clouds 29 1018 30 10000 1.5 350 15:44 13.06.2020
1408 Clouds 28 1018 34 10000 2.1 360 15:25 13.06.2020
1409 Clouds 26 1019 39 10000 1.5 0 14:45 13.06.2020
1410 Clouds 25 1019 41 10000 2.1 0 14:26 13.06.2020
1411 Clouds 25 1019 44 10000 2.1 0 13:59 13.06.2020
1412 Clouds 24 1019 47 10000 1.5 0 13:40 13.06.2020
1413 Clouds 24 1019 47 10000 1.5 0 13:22 13.06.2020
1414 Clouds 23 1019 49 10000 1.5 0 12:44 13.06.2020
1415 Clouds 22 1019 53 10000 1.5 0 12:44 13.06.2020
1416 Clouds 22 1019 53 10000 1.5 0 12:26 13.06.2020
1417 Clouds 22 1019 53 10000 1.5 0 11:59 13.06.2020
1418 Clouds 21 1019 56 10000 2.1 0 11:39 13.06.2020
1419 Clouds 21 1019 56 10000 2.1 0 11:19 13.06.2020
1420 Clouds 20 1018 64 10000 2.6 50 10:56 13.06.2020
1421 Clouds 20 1018 64 10000 1.5 0 10:38 13.06.2020
1422 Clouds 20 1018 64 10000 1.5 0 10:18 13.06.2020
1423 Clouds 19 1018 68 10000 1.5 0 09:44 13.06.2020
1424 Clouds 17 1018 72 10000 2.1 250 09:22 13.06.2020
1425 Clouds 16 1018 77 8000 2.1 250 08:49 13.06.2020
1426 Clouds 16 1018 72 8000 1.5 260 08:30 13.06.2020
1427 Clouds 16 1017 72 8000 1.5 240 07:54 13.06.2020
1428 Clouds 16 1017 72 8000 2.1 230 07:28 13.06.2020
1429 Clouds 15 1017 77 8000 2.1 240 06:50 13.06.2020
1430 Clouds 16 1017 72 8000 2.6 250 06:30 13.06.2020
1431 Clouds 16 1017 72 8000 2.1 250 05:45 13.06.2020
1432 Clouds 15 1017 72 8000 1.5 240 05:24 13.06.2020
1433 Clouds 17 1018 63 8000 2.6 240 03:47 13.06.2020
1434 Clouds 17 1019 67 8000 3.1 250 02:54 13.06.2020
1435 Clouds 18 1019 63 8000 2.6 270 02:34 13.06.2020
1436 Clouds 18 1019 63 8000 2.6 260 01:45 13.06.2020
1437 Clouds 19 1019 59 8000 3.1 290 01:19 13.06.2020
1438 Clouds 19 1019 59 8000 3.6 300 00:42 13.06.2020
1439 Clouds 19 1019 59 8000 3.6 300 00:23 13.06.2020
1440 Clouds 21 1018 49 8000 5.1 300 23:41 12.06.2020
1441 Clouds 21 1018 49 8000 5.1 300 23:19 12.06.2020
1442 Clouds 22 1018 46 8000 4.6 300 22:58 12.06.2020
1443 Clouds 22 1017 49 8000 5.1 300 22:39 12.06.2020
1444 Clouds 22 1017 49 8000 5.1 300 22:19 12.06.2020
1445 Clouds 23 1017 46 8000 4.6 290 21:47 12.06.2020
1446 Clouds 24 1017 44 8000 5.1 300 21:24 12.06.2020
1447 Clouds 25 1016 38 8000 4.6 270 20:58 12.06.2020
1448 Clouds 26 1016 36 8000 3.6 300 20:39 12.06.2020
1449 Clouds 26 1016 36 8000 3.6 300 20:39 12.06.2020
1450 Clouds 26 1016 36 8000 3.6 300 20:39 12.06.2020
1451 Clouds 26 1016 36 8000 3.6 300 20:21 12.06.2020
1452 Clouds 26 1016 36 8000 4.6 260 19:56 12.06.2020
1453 Clouds 26 1016 39 8000 3.1 0 19:38 12.06.2020
1454 Clouds 26 1016 39 8000 3.1 0 19:18 12.06.2020
1455 Clouds 26 1016 41 8000 2.1 0 18:38 12.06.2020
1456 Clouds 26 1016 41 8000 2.1 0 18:18 12.06.2020
1457 Clouds 25 1016 41 8000 3.1 0 17:47 12.06.2020
1458 Clouds 25 1016 41 8000 3.1 0 17:27 12.06.2020
1459 Clouds 24 1016 47 8000 3.6 290 16:59 12.06.2020
1460 Clouds 23 1016 46 8000 2.6 0 16:40 12.06.2020
1461 Clouds 23 1016 46 8000 2.6 0 16:19 12.06.2020
1462 Clear 22 1016 49 0 3.6 280 15:45 12.06.2020
1463 Clear 23 1017 49 0 2.6 0 15:25 12.06.2020
1464 Clear 22 1017 49 0 2.6 300 14:55 12.06.2020
1465 Clouds 22 1017 49 8000 2.1 270 14:36 12.06.2020
1466 Clouds 22 1017 49 8000 2.1 270 14:18 12.06.2020
1467 Clouds 21 1017 56 8000 1.5 0 13:41 12.06.2020
1468 Clouds 21 1017 56 8000 1.5 0 13:20 12.06.2020
1469 Clouds 19 1017 63 8000 2.1 230 12:40 12.06.2020
1470 Clouds 19 1017 63 8000 2.1 230 12:20 12.06.2020
1471 Clouds 17 1017 72 8000 1.5 230 11:57 12.06.2020
1472 Clouds 17 1017 67 8000 2.1 250 11:38 12.06.2020
1473 Clouds 17 1017 67 8000 2.1 250 11:19 12.06.2020
1474 Clouds 16 1017 72 8000 3.6 270 10:45 12.06.2020
1475 Clouds 16 1017 72 8000 2.6 260 10:24 12.06.2020
1476 Clouds 15 1016 77 8000 3.1 250 09:45 12.06.2020
1477 Clouds 15 1016 77 8000 2.6 240 09:21 12.06.2020
1478 Clouds 14 1016 82 8000 3.1 240 08:44 12.06.2020
1479 Clouds 14 1016 82 8000 2.6 260 08:25 12.06.2020
1480 Clouds 14 1016 82 10000 2.6 240 07:44 12.06.2020
1481 Clear 15 1016 77 10000 2.6 240 07:25 12.06.2020
1482 Clear 15 1015 77 10000 1.5 240 06:55 12.06.2020
1483 Clear 14 1016 76 10000 1 0 06:30 12.06.2020
1484 Clear 15 1016 77 10000 2.1 230 05:53 12.06.2020
1485 Clear 16 1016 72 10000 2.1 230 05:30 12.06.2020
1486 Clear 16 1016 72 10000 2.6 240 04:55 12.06.2020
1487 Clear 16 1017 72 10000 2.6 250 03:20 12.06.2020
1488 Clear 18 1017 68 10000 3.6 250 01:55 12.06.2020
1489 Clear 19 1017 63 10000 2.6 330 01:27 12.06.2020
1490 Clear 20 1017 60 10000 3.6 360 00:45 12.06.2020
1491 Clear 21 1017 52 10000 3.6 350 00:25 12.06.2020
1492 Clear 22 1017 43 10000 2.6 250 23:59 11.06.2020
1493 Clear 23 1016 43 10000 2.1 250 23:41 11.06.2020
1494 Clear 23 1016 43 10000 2.1 250 23:21 11.06.2020
1495 Clear 23 1016 43 10000 2.1 260 22:59 11.06.2020
1496 Clear 24 1016 41 10000 2.6 250 22:39 11.06.2020
1497 Clear 24 1016 41 10000 2.6 250 22:20 11.06.2020
1498 Clouds 25 1016 41 10000 2.1 300 21:56 11.06.2020
1499 Clouds 25 1016 41 10000 2.1 300 21:56 11.06.2020
1500 Clouds 25 1016 41 10000 2.1 0 21:38 11.06.2020
1501 Clouds 25 1016 41 10000 2.1 0 21:20 11.06.2020
1502 Clouds 26 1016 39 10000 2.6 310 20:45 11.06.2020
1503 Clouds 26 1016 39 10000 2.1 290 20:21 11.06.2020
1504 Clouds 26 1016 39 10000 3.1 300 19:55 11.06.2020
1505 Clouds 26 1016 41 10000 3.1 310 19:36 11.06.2020
1506 Clouds 25 1017 44 10000 3.1 300 19:18 11.06.2020
1507 Clouds 26 1017 44 10000 2.1 0 18:41 11.06.2020
1508 Clouds 26 1017 44 10000 2.1 0 18:22 11.06.2020
1509 Clouds 25 1017 44 10000 2.1 0 17:56 11.06.2020
1510 Clouds 25 1018 47 10000 2.6 310 17:38 11.06.2020
1511 Clouds 25 1018 47 10000 2.1 0 17:19 11.06.2020
1512 Clouds 25 1018 47 10000 2.1 0 16:56 11.06.2020
1513 Clouds 24 1018 50 10000 2.6 270 16:38 11.06.2020
1514 Clouds 24 1018 50 10000 2.6 270 16:38 11.06.2020
1515 Clouds 24 1018 50 10000 2.6 270 16:19 11.06.2020
1516 Clouds 23 1019 53 8000 3.1 330 15:42 11.06.2020
1517 Clouds 23 1019 53 8000 3.1 330 15:23 11.06.2020
1518 Clouds 22 1019 56 8000 1.5 0 14:56 11.06.2020
1519 Clouds 21 1019 60 8000 2.1 0 14:38 11.06.2020
1520 Clouds 21 1019 60 8000 2.1 0 14:20 11.06.2020
1521 Clouds 21 1019 60 8000 1 0 13:54 11.06.2020
1522 Clouds 20 1019 64 8000 1 0 13:36 11.06.2020
1523 Clouds 20 1019 64 8000 1 0 13:18 11.06.2020
1524 Clouds 19 1019 68 8000 1 0 12:39 11.06.2020
1525 Clouds 19 1019 63 8000 1 0 12:21 11.06.2020
1526 Clouds 19 1019 63 8000 1 0 11:59 11.06.2020
1527 Clouds 18 1019 68 8000 1 0 11:41 11.06.2020
1528 Clouds 18 1019 68 8000 1 0 11:22 11.06.2020
1529 Clouds 18 1019 68 8000 1 0 10:59 11.06.2020
1530 Clouds 17 1019 72 8000 1.5 30 10:41 11.06.2020
1531 Clouds 17 1019 72 8000 2.1 70 10:18 11.06.2020
1532 Clouds 17 1019 72 8000 2.1 80 09:44 11.06.2020
1533 Clouds 17 1019 72 8000 2.1 80 09:26 11.06.2020
1534 Clouds 17 1019 72 8000 1.5 90 08:54 11.06.2020
1535 Clouds 17 1019 72 8000 2.1 50 08:36 11.06.2020
1536 Clouds 17 1019 72 8000 2.6 30 08:18 11.06.2020
1537 Clouds 16 1018 77 10000 0.5 0 07:41 11.06.2020
1538 Clouds 16 1018 77 10000 0.5 0 07:22 11.06.2020
1539 Clouds 16 1018 77 10000 0.5 0 07:22 11.06.2020
1540 Clouds 17 1018 72 10000 2.1 40 06:31 11.06.2020
1541 Clouds 17 1018 72 10000 2.6 30 05:53 11.06.2020
1542 Clouds 18 1018 68 10000 3.1 30 03:59 11.06.2020
1543 Clear 18 1019 68 10000 2.1 30 03:25 11.06.2020
1544 Clear 19 1019 63 10000 3.1 350 02:45 11.06.2020
1545 Clear 19 1020 63 10000 2.6 350 01:56 11.06.2020
1546 Clear 20 1020 60 10000 3.1 330 01:34 11.06.2020
1547 Clouds 20 1020 60 10000 3.1 350 00:52 11.06.2020
1548 Clouds 21 1019 56 10000 2.6 350 00:32 11.06.2020
1549 Clouds 21 1019 56 10000 3.6 350 23:56 10.06.2020
1550 Clouds 22 1018 53 10000 5.1 350 23:37 10.06.2020
1551 Clouds 23 1018 49 10000 5.7 10 23:18 10.06.2020
1552 Clouds 25 1017 47 10000 5.1 360 22:40 10.06.2020
1553 Clouds 25 1017 47 10000 5.1 360 22:40 10.06.2020
1554 Clouds 25 1017 47 10000 5.1 360 22:22 10.06.2020
1555 Clouds 27 1017 42 10000 4.6 350 21:58 10.06.2020
1556 Clouds 28 1016 37 10000 2.6 330 21:40 10.06.2020
1557 Clouds 28 1016 37 10000 2.6 330 21:19 10.06.2020
1558 Clouds 29 1016 37 10000 2.1 0 20:57 10.06.2020
1559 Clouds 29 1016 35 10000 2.6 0 20:39 10.06.2020
1560 Clouds 29 1016 35 10000 2.6 0 20:21 10.06.2020
1561 Clouds 29 1016 35 10000 2.6 0 20:21 10.06.2020
1562 Clouds 29 1016 35 10000 1 0 19:56 10.06.2020
1563 Clouds 29 1017 35 10000 2.6 0 19:37 10.06.2020
1564 Clouds 29 1014 24 0 5.03 345 19:18 10.06.2020
1565 Clouds 28 1017 37 10000 2.1 0 18:41 10.06.2020
1566 Clouds 28 1017 37 10000 2.1 0 18:20 10.06.2020
1567 Clouds 28 1017 37 10000 2.1 0 17:58 10.06.2020
1568 Clouds 28 1017 37 10000 2.1 0 17:40 10.06.2020
1569 Clouds 28 1017 37 10000 2.1 0 17:20 10.06.2020
1570 Clouds 27 1017 39 10000 2.6 0 16:58 10.06.2020
1571 Clouds 27 1018 42 10000 2.6 0 16:39 10.06.2020
1572 Clouds 27 1018 42 10000 2.6 0 16:39 10.06.2020
1573 Clouds 27 1018 42 10000 2.6 0 16:20 10.06.2020
1574 Clouds 27 1018 42 10000 2.6 0 16:20 10.06.2020
1575 Clouds 26 1018 41 10000 2.6 0 15:55 10.06.2020
1576 Clouds 26 1018 44 10000 3.1 0 15:36 10.06.2020
1577 Clouds 25 1018 44 10000 2.1 0 15:18 10.06.2020
1578 Clouds 25 1019 44 10000 2.6 0 14:40 10.06.2020
1579 Clouds 25 1019 44 10000 2.6 0 14:21 10.06.2020
1580 Clouds 24 1019 47 10000 2.1 0 13:43 10.06.2020
1581 Clouds 24 1019 47 10000 2.1 0 13:22 10.06.2020
1582 Clouds 23 1019 49 10000 2.6 320 12:58 10.06.2020
1583 Clouds 23 1019 49 10000 1.5 0 12:39 10.06.2020
1584 Clouds 21 1019 56 10000 2.6 360 12:18 10.06.2020
1585 Clouds 21 1019 56 10000 1.5 0 11:44 10.06.2020
1586 Clouds 21 1019 56 10000 1.5 0 11:20 10.06.2020
1587 Clouds 20 1019 60 10000 1.5 0 10:58 10.06.2020
1588 Clear 20 1019 60 8000 1 0 10:40 10.06.2020
1589 Clear 20 1019 60 8000 1 0 10:21 10.06.2020
1590 Clear 17 1019 67 8000 1.5 250 09:44 10.06.2020
1591 Clear 17 1019 67 8000 1.5 250 09:25 10.06.2020
1592 Clear 16 1018 72 8000 2.1 250 08:59 10.06.2020
1593 Clear 15 1018 72 8000 2.1 240 08:41 10.06.2020
1594 Clear 15 1018 72 8000 2.1 260 08:22 10.06.2020
1595 Clear 15 1018 72 8000 2.1 250 07:42 10.06.2020
1596 Clear 15 1018 72 8000 2.1 250 07:23 10.06.2020
1597 Clear 16 1018 67 8000 2.1 260 06:50 10.06.2020
1598 Clear 16 1018 67 8000 1.5 260 06:31 10.06.2020
1599 Clear 16 1018 72 8000 1.5 260 05:59 10.06.2020
1600 Clear 17 1018 67 8000 1.5 40 05:30 10.06.2020
1601 Clear 18 1018 63 8000 2.6 30 04:48 10.06.2020
1602 Clear 18 1018 63 8000 2.6 30 04:28 10.06.2020
1603 Clear 19 1019 59 8000 3.1 30 02:24 10.06.2020
1604 Clear 20 1019 56 8000 3.1 30 01:40 10.06.2020
1605 Clouds 21 1019 52 10000 4.1 40 00:42 10.06.2020
1606 Clouds 21 1019 52 10000 4.1 40 00:23 10.06.2020
1607 Clouds 21 1018 52 10000 5.1 30 23:59 09.06.2020
1608 Clouds 23 1018 43 10000 5.1 30 23:41 09.06.2020
1609 Clouds 23 1018 43 10000 5.1 30 23:22 09.06.2020
1610 Clouds 23 1017 43 10000 5.7 350 22:56 09.06.2020
1611 Clouds 25 1017 38 10000 6.7 360 22:38 09.06.2020
1612 Clouds 25 1017 38 10000 6.7 360 22:20 09.06.2020
1613 Clouds 27 1016 36 10000 4.1 340 21:57 09.06.2020
1614 Clouds 27 1016 36 10000 4.1 340 21:57 09.06.2020
1615 Clouds 28 1016 34 10000 3.6 350 21:38 09.06.2020
1616 Clouds 28 1016 34 10000 3.6 350 21:20 09.06.2020
1617 Clouds 28 1016 32 10000 3.6 10 20:57 09.06.2020
1618 Clouds 29 1016 35 10000 3.1 350 20:38 09.06.2020
1619 Clouds 30 1016 33 10000 3.1 0 20:20 09.06.2020
1620 Clouds 30 1016 33 10000 3.1 0 20:20 09.06.2020
1621 Clouds 30 1016 33 10000 3.1 0 19:57 09.06.2020
1622 Clouds 29 1015 35 10000 2.6 360 19:39 09.06.2020
1623 Clouds 29 1015 35 10000 2.6 360 19:20 09.06.2020
1624 Clouds 29 1016 35 10000 2.6 0 18:56 09.06.2020
1625 Clouds 29 1016 35 10000 2.6 0 18:38 09.06.2020
1626 Clouds 29 1016 37 10000 2.1 0 18:18 09.06.2020
1627 Clouds 29 1016 37 10000 2.1 0 17:55 09.06.2020
1628 Clouds 29 1017 37 10000 3.1 0 17:36 09.06.2020
1629 Clouds 28 1017 37 10000 1.5 0 17:18 09.06.2020
1630 Clouds 28 1017 39 10000 3.1 0 16:42 09.06.2020
1631 Clouds 28 1017 39 10000 3.1 0 16:22 09.06.2020
1632 Clouds 27 1018 42 10000 2.6 0 15:55 09.06.2020
1633 Clouds 27 1018 44 10000 2.1 0 15:37 09.06.2020
1634 Clouds 27 1018 44 10000 2.1 0 15:18 09.06.2020
1635 Clouds 25 1018 47 10000 2.6 0 14:40 09.06.2020
1636 Clouds 25 1018 47 10000 2.6 0 14:21 09.06.2020
1637 Clouds 25 1019 50 10000 2.1 0 13:58 09.06.2020
1638 Clouds 25 1019 50 10000 2.1 0 13:58 09.06.2020
1639 Clouds 23 1019 53 10000 2.6 330 13:39 09.06.2020
1640 Clouds 23 1019 53 10000 2.6 330 13:20 09.06.2020
1641 Clouds 22 1019 56 10000 1.5 0 12:43 09.06.2020
1642 Clouds 22 1019 56 10000 1.5 0 12:21 09.06.2020
1643 Clouds 21 1019 60 10000 2.1 80 12:21 09.06.2020
1644 Clouds 21 1019 60 10000 2.1 80 11:59 09.06.2020
1645 Clouds 20 1019 64 10000 2.1 0 11:40 09.06.2020
1646 Clouds 20 1019 64 10000 2.1 0 11:20 09.06.2020
1647 Clouds 20 1019 64 10000 2.6 60 10:58 09.06.2020
1648 Clouds 19 1019 63 10000 2.1 50 10:39 09.06.2020
1649 Clouds 19 1019 63 10000 2.1 50 10:19 09.06.2020
1650 Clouds 18 1019 68 10000 2.6 40 09:43 09.06.2020
1651 Clouds 18 1019 68 10000 2.6 40 09:24 09.06.2020
1652 Clouds 18 1019 68 10000 3.6 50 08:56 09.06.2020
1653 Clouds 18 1019 68 10000 3.1 40 08:37 09.06.2020
1654 Clouds 18 1019 68 10000 3.1 40 08:19 09.06.2020
1655 Clouds 18 1018 68 10000 2.6 30 07:38 09.06.2020
1656 Clouds 18 1018 68 10000 2.6 20 07:19 09.06.2020
1657 Clouds 18 1018 68 10000 2.6 20 06:53 09.06.2020
1658 Clouds 18 1018 68 10000 3.1 20 06:33 09.06.2020
1659 Clouds 19 1018 68 10000 3.6 20 05:23 09.06.2020
1660 Clouds 20 1019 68 10000 2.6 30 02:56 09.06.2020
1661 Clouds 21 1019 64 10000 3.6 40 01:41 09.06.2020
1662 Clouds 21 1019 64 10000 4.6 30 01:19 09.06.2020
1663 Clouds 21 1019 64 10000 4.6 30 01:19 09.06.2020
1664 Clouds 21 1019 64 10000 5.7 30 00:45 09.06.2020
1665 Clouds 22 1018 60 10000 4.6 30 00:20 09.06.2020
1666 Clouds 22 1018 60 10000 4.6 30 23:55 08.06.2020
1667 Clouds 23 1018 56 10000 5.1 20 23:37 08.06.2020
1668 Clouds 23 1018 56 10000 5.1 20 23:19 08.06.2020
1669 Clouds 25 1017 50 10000 6.7 360 22:41 08.06.2020
1670 Clouds 25 1017 50 10000 6.7 360 22:22 08.06.2020
1671 Clouds 26 1016 47 10000 5.1 360 21:58 08.06.2020
1672 Clouds 27 1016 44 10000 5.1 350 21:39 08.06.2020
1673 Clouds 27 1016 44 10000 5.1 350 21:21 08.06.2020
1674 Clouds 28 1016 42 10000 4.6 340 20:57 08.06.2020
1675 Clouds 30 1015 33 10000 2.6 310 20:39 08.06.2020
1676 Clouds 29 1015 32 10000 3.1 290 20:20 08.06.2020
1677 Clouds 30 1015 33 10000 3.1 300 19:44 08.06.2020
1678 Clouds 30 1015 33 10000 3.1 300 19:22 08.06.2020
1679 Clouds 31 1016 31 10000 2.1 0 18:59 08.06.2020
1680 Clouds 30 1016 30 10000 2.6 280 18:40 08.06.2020
1681 Clouds 29 1016 32 10000 4.1 260 18:18 08.06.2020
1682 Clouds 29 1016 32 10000 4.1 260 17:55 08.06.2020
1683 Clouds 29 1016 35 10000 1.5 0 17:37 08.06.2020
1684 Clouds 29 1016 35 10000 1.5 0 17:37 08.06.2020
1685 Clouds 29 1016 35 10000 2.6 0 17:18 08.06.2020
1686 Clouds 28 1017 37 10000 2.6 0 16:44 08.06.2020
1687 Clouds 28 1017 37 10000 2.6 0 16:23 08.06.2020
1688 Clouds 28 1017 39 10000 2.1 0 15:57 08.06.2020
1689 Clouds 28 1017 37 10000 2.1 0 15:39 08.06.2020
1690 Clouds 28 1017 37 10000 2.1 0 15:19 08.06.2020
1691 Clouds 26 1018 44 10000 2.6 10 14:41 08.06.2020
1692 Clouds 26 1018 44 10000 2.6 10 14:22 08.06.2020
1693 Clouds 26 1018 44 10000 2.6 0 13:56 08.06.2020
1694 Clouds 25 1018 50 10000 2.6 300 13:38 08.06.2020
1695 Clouds 25 1019 50 10000 2.1 300 13:19 08.06.2020
1696 Clouds 24 1019 53 10000 1 0 12:40 08.06.2020
1697 Clouds 23 1019 60 10000 2.1 0 12:19 08.06.2020
1698 Clouds 22 1019 60 10000 2.6 260 11:42 08.06.2020
1699 Clouds 22 1019 60 10000 2.6 260 11:24 08.06.2020
1700 Clouds 22 1019 60 10000 2.1 280 10:59 08.06.2020
1701 Clouds 20 1019 68 10000 2.6 270 10:41 08.06.2020
1702 Clouds 20 1019 68 10000 2.6 270 10:21 08.06.2020
1703 Clouds 21 1019 68 10000 1 0 10:00 08.06.2020
1704 Clouds 20 1019 68 10000 2.1 270 09:41 08.06.2020
1705 Clouds 20 1019 68 10000 2.1 270 09:23 08.06.2020
1706 Clouds 19 1019 68 10000 2.1 250 08:49 08.06.2020
1707 Clouds 19 1019 72 10000 2.1 280 08:49 08.06.2020
1708 Clouds 19 1019 68 10000 2.1 250 08:23 08.06.2020
1709 Clouds 19 1018 72 10000 3.1 270 07:48 08.06.2020
1710 Clouds 19 1018 72 10000 3.1 270 07:28 08.06.2020
1711 Clouds 19 1018 72 10000 2.6 270 06:55 08.06.2020
1712 Clouds 19 1018 68 10000 3.6 270 06:36 08.06.2020
1713 Clouds 19 1018 72 10000 3.6 280 05:54 08.06.2020
1714 Clouds 20 1018 68 10000 3.1 290 04:36 08.06.2020
1715 Clouds 20 1018 68 10000 3.1 290 04:36 08.06.2020
1716 Clouds 20 1019 68 10000 3.1 280 02:56 08.06.2020
1717 Clouds 21 1019 64 10000 4.1 280 02:25 08.06.2020
1718 Clouds 21 1019 64 10000 3.6 300 01:40 08.06.2020
1719 Clouds 22 1019 60 10000 4.1 300 00:41 08.06.2020
1720 Clouds 22 1018 60 10000 5.1 310 00:19 08.06.2020
1721 Clouds 22 1018 60 10000 5.1 300 23:38 07.06.2020
1722 Clouds 23 1018 56 10000 4.6 310 23:18 07.06.2020
1723 Clouds 23 1018 56 10000 4.6 310 22:55 07.06.2020
1724 Clouds 23 1018 56 10000 4.6 310 22:36 07.06.2020
1725 Clouds 24 1018 53 10000 5.1 310 22:18 07.06.2020
1726 Clouds 24 1018 53 10000 5.1 310 21:56 07.06.2020
1727 Clouds 25 1017 50 10000 6.7 290 21:36 07.06.2020
1728 Clouds 25 1017 50 10000 6.7 290 21:36 07.06.2020
1729 Clouds 25 1017 50 10000 6.7 290 21:36 07.06.2020
1730 Clouds 26 1017 47 10000 6.7 300 21:18 07.06.2020
1731 Clouds 27 1016 44 10000 6.7 300 20:39 07.06.2020
1732 Clouds 28 1016 42 10000 6.2 290 20:20 07.06.2020
1733 Clouds 28 1016 42 10000 6.2 290 19:56 07.06.2020
1734 Clouds 30 1016 33 10000 4.1 300 19:38 07.06.2020
1735 Clouds 28 1015 33 0 8.21 309 19:19 07.06.2020
1736 Clouds 28 1015 33 0 8.21 309 18:56 07.06.2020
1737 Clouds 28 1015 33 0 8.21 309 18:37 07.06.2020
1738 Clear 30 1014 26 0 6.07 293 18:19 07.06.2020
1739 Clear 30 1014 28 0 6 304 17:55 07.06.2020
1740 Clear 30 1014 28 0 6 304 17:37 07.06.2020
1741 Clear 29 1014 28 0 5.08 303 17:19 07.06.2020
1742 Clear 29 1014 28 0 5.08 303 16:42 07.06.2020
1743 Clear 29 1015 28 0 4.94 304 16:21 07.06.2020
1744 Clouds 27 1018 44 10000 1.5 60 15:40 07.06.2020
1745 Clouds 27 1018 44 10000 1.5 60 15:21 07.06.2020
1746 Clouds 27 1018 44 10000 2.6 10 14:40 07.06.2020
1747 Clouds 27 1018 44 10000 2.6 10 14:40 07.06.2020
1748 Clouds 27 1018 44 10000 2.6 10 14:21 07.06.2020
1749 Clouds 26 1018 47 10000 3.6 330 13:48 07.06.2020
1750 Clouds 24 1018 53 10000 1.5 0 13:21 07.06.2020
1751 Clouds 24 1018 53 10000 1.5 0 12:57 07.06.2020
1752 Clouds 24 1018 57 10000 1 0 12:39 07.06.2020
1753 Clouds 24 1018 57 10000 2.1 100 12:19 07.06.2020
1754 Clouds 24 1018 57 10000 2.1 100 11:55 07.06.2020
1755 Clouds 23 1018 60 10000 1.5 0 11:36 07.06.2020
1756 Clouds 23 1018 60 10000 1.5 0 11:18 07.06.2020
1757 Clouds 22 1018 68 10000 1.5 100 10:44 07.06.2020
1758 Clouds 22 1018 68 10000 1.5 100 10:20 07.06.2020
1759 Clouds 21 1018 68 10000 1.5 0 09:58 07.06.2020
1760 Clouds 21 1018 68 0 1 0 09:39 07.06.2020
1761 Clouds 20 1018 72 8000 0.5 0 09:20 07.06.2020
1762 Clouds 20 1018 72 8000 0.5 0 08:57 07.06.2020
1763 Clouds 18 1018 82 8000 1 0 08:39 07.06.2020
1764 Clouds 18 1018 82 8000 1 0 08:20 07.06.2020
1765 Clouds 18 1017 77 8000 1.5 290 07:32 07.06.2020
1766 Clouds 19 1017 77 8000 2.1 300 06:51 07.06.2020
1767 Clouds 19 1017 77 8000 2.1 270 05:52 07.06.2020
1768 Clouds 19 1017 72 8000 3.6 280 04:21 07.06.2020
1769 Clouds 20 1017 68 8000 3.6 290 02:57 07.06.2020
1770 Clouds 20 1017 68 8000 3.6 300 01:58 07.06.2020
1771 Clouds 20 1017 68 8000 4.6 290 01:25 07.06.2020
1772 Clouds 20 1017 68 8000 4.6 290 01:25 07.06.2020
1773 Clouds 21 1017 68 5000 5.1 280 00:47 07.06.2020
1774 Clouds 22 1017 64 5000 5.1 260 00:20 07.06.2020
1775 Clouds 22 1017 64 5000 5.1 260 23:58 06.06.2020
1776 Clouds 22 1017 64 5000 5.1 260 23:37 06.06.2020
1777 Clouds 22 1017 64 5000 5.1 260 23:19 06.06.2020
1778 Clouds 22 1017 64 5000 6.2 270 22:56 06.06.2020
1779 Clouds 23 1016 60 5000 5.7 290 22:38 06.06.2020
1780 Clouds 23 1016 60 5000 5.7 290 22:18 06.06.2020
1781 Clouds 25 1015 53 5000 7.2 290 21:45 06.06.2020
1782 Clouds 25 1015 53 5000 7.2 290 21:22 06.06.2020
1783 Clouds 26 1014 47 5000 7.2 290 20:57 06.06.2020
1784 Clouds 27 1014 47 5000 8.2 300 20:38 06.06.2020
1785 Clouds 27 1014 47 5000 8.2 300 20:18 06.06.2020
1786 Clouds 27 1014 47 5000 8.2 300 20:18 06.06.2020
1787 Clouds 28 1013 45 5000 7.7 290 19:57 06.06.2020
1788 Clouds 29 1013 39 5000 8.2 290 19:38 06.06.2020
1789 Clouds 29 1013 39 5000 8.2 290 19:19 06.06.2020
1790 Clouds 30 1013 40 5000 7.7 310 18:43 06.06.2020
1791 Clouds 30 1013 40 5000 7.7 310 18:24 06.06.2020
1792 Clouds 31 1013 43 5000 7.7 310 17:58 06.06.2020
1793 Clouds 32 1013 38 5000 5.7 310 17:39 06.06.2020
1794 Clouds 31 1013 40 8000 5.7 310 17:19 06.06.2020
1795 Clouds 31 1013 43 8000 6.2 300 16:48 06.06.2020
1796 Clouds 31 1013 43 8000 6.2 300 16:23 06.06.2020
1797 Clouds 32 1013 40 8000 6.7 290 15:58 06.06.2020
1798 Clouds 31 1013 40 8000 6.2 300 15:40 06.06.2020
1799 Clouds 31 1013 40 8000 6.2 300 15:20 06.06.2020
1800 Clouds 30 1013 35 8000 4.6 300 14:44 06.06.2020
1801 Clouds 30 1013 35 8000 4.6 300 14:25 06.06.2020
1802 Clouds 31 1013 35 8000 5.1 310 13:59 06.06.2020
1803 Clouds 31 1013 33 8000 2.1 0 13:41 06.06.2020
1804 Clouds 31 1013 33 8000 2.1 320 13:18 06.06.2020
1805 Clouds 30 1013 35 8000 3.1 80 12:43 06.06.2020
1806 Clouds 30 1013 35 8000 3.1 80 12:43 06.06.2020
1807 Clouds 30 1013 35 8000 3.1 80 12:43 06.06.2020
1808 Clouds 30 1013 35 8000 3.1 80 12:43 06.06.2020
1809 Clouds 30 1013 35 8000 3.1 80 12:24 06.06.2020
1810 Clouds 29 1013 39 8000 3.1 50 11:59 06.06.2020
1811 Clouds 28 1013 39 10000 5.1 70 11:39 06.06.2020
1812 Clouds 27 1013 42 10000 3.6 70 11:20 06.06.2020
1813 Clouds 27 1013 42 10000 3.6 70 10:59 06.06.2020
1814 Clouds 26 1013 44 10000 3.1 50 10:40 06.06.2020
1815 Clouds 26 1013 44 10000 3.1 50 10:21 06.06.2020
1816 Clouds 24 1013 50 10000 2.6 80 09:58 06.06.2020
1817 Clouds 24 1013 47 10000 3.6 90 09:40 06.06.2020
1818 Clouds 24 1013 47 10000 3.6 90 09:21 06.06.2020
1819 Clouds 23 1013 49 10000 3.1 80 08:43 06.06.2020
1820 Clouds 23 1013 49 10000 3.1 80 08:23 06.06.2020
1821 Clouds 24 1014 47 10000 4.1 100 07:46 06.06.2020
1822 Clouds 24 1014 47 10000 4.1 100 07:23 06.06.2020
1823 Clouds 24 1014 47 10000 4.1 100 07:23 06.06.2020
1824 Clouds 24 1014 47 10000 3.6 100 06:49 06.06.2020
1825 Clouds 24 1014 47 10000 3.6 100 06:31 06.06.2020
1826 Clouds 24 1014 47 10000 3.6 90 05:58 06.06.2020
1827 Clouds 22 1015 44 0 2.37 29 05:30 06.06.2020
1828 Clouds 23 1015 42 0 2.62 7 04:46 06.06.2020
1829 Clouds 25 1016 44 10000 1.5 70 02:52 06.06.2020
1830 Clouds 26 1017 44 10000 1.5 40 01:57 06.06.2020
1831 Clouds 26 1017 41 10000 2.6 350 01:19 06.06.2020
1832 Clouds 26 1017 41 10000 2.6 340 00:46 06.06.2020
1833 Clouds 26 1017 41 10000 2.6 340 00:27 06.06.2020
1834 Clouds 26 1017 41 10000 3.6 330 23:56 05.06.2020
1835 Clouds 27 1016 42 10000 3.6 340 23:38 05.06.2020
1836 Clouds 27 1016 42 10000 3.6 340 23:18 05.06.2020
1837 Clouds 28 1016 39 10000 6.2 310 22:55 05.06.2020
1838 Clouds 28 1016 39 10000 6.2 310 22:37 05.06.2020
1839 Clouds 28 1016 39 10000 6.2 310 22:18 05.06.2020
1840 Clouds 28 1016 39 10000 6.2 310 22:18 05.06.2020
1841 Clouds 30 1015 33 0 3.6 290 21:41 05.06.2020
1842 Clouds 30 1015 33 0 3.6 290 21:22 05.06.2020
1843 Clouds 31 1015 31 10000 4.6 280 20:57 05.06.2020
1844 Clouds 32 1015 29 10000 4.1 280 20:38 05.06.2020
1845 Clouds 32 1015 29 10000 4.1 280 20:20 05.06.2020
1846 Clouds 33 1014 27 10000 3.6 280 19:42 05.06.2020
1847 Clouds 31 1014 31 10000 3.1 290 19:23 05.06.2020
1848 Clouds 31 1014 31 10000 3.1 290 18:56 05.06.2020
1849 Clouds 32 1015 29 10000 3.1 260 18:38 05.06.2020
1850 Clouds 32 1015 29 10000 3.1 260 18:19 05.06.2020
1851 Clouds 32 1015 29 10000 3.1 260 17:57 05.06.2020
1852 Clouds 32 1014 29 10000 3.1 0 17:38 05.06.2020
1853 Clouds 32 1014 29 10000 3.1 0 17:18 05.06.2020
1854 Clouds 31 1015 31 10000 2.6 0 16:39 05.06.2020
1855 Clouds 31 1015 31 10000 2.6 0 16:20 05.06.2020
1856 Clouds 31 1015 31 10000 2.6 0 15:43 05.06.2020
1857 Clouds 31 1015 31 10000 2.6 0 15:43 05.06.2020
1858 Clouds 31 1015 31 10000 2.6 0 15:22 05.06.2020
1859 Clouds 31 1015 33 10000 1.5 0 14:59 05.06.2020
1860 Clouds 30 1016 33 10000 2.1 340 14:40 05.06.2020
1861 Clouds 30 1016 33 10000 2.1 340 14:22 05.06.2020
1862 Clouds 30 1016 33 10000 1.5 0 13:58 05.06.2020
1863 Clouds 30 1016 33 10000 1.5 0 13:58 05.06.2020
1864 Clouds 29 1016 39 10000 2.6 360 13:38 05.06.2020
1865 Clouds 29 1016 39 10000 2.6 360 13:19 05.06.2020
1866 Clouds 26 1016 47 10000 1.5 0 12:42 05.06.2020
1867 Clouds 26 1016 47 10000 1.5 0 12:20 05.06.2020
1868 Clouds 25 1017 50 10000 2.1 50 11:55 05.06.2020
1869 Clouds 24 1017 53 10000 2.1 0 11:37 05.06.2020
1870 Clouds 24 1017 53 10000 2.1 0 11:18 05.06.2020
1871 Clouds 22 1016 60 10000 2.6 90 10:42 05.06.2020
1872 Clouds 22 1016 60 10000 2.6 90 10:21 05.06.2020
1873 Clouds 21 1016 64 10000 2.6 60 09:58 05.06.2020
1874 Clouds 21 1016 60 10000 3.1 80 09:40 05.06.2020
1875 Clouds 21 1016 60 10000 3.1 80 09:21 05.06.2020
1876 Clouds 20 1015 60 10000 2.1 80 08:58 05.06.2020
1877 Clouds 20 1015 60 10000 2.1 80 08:58 05.06.2020
1878 Clouds 19 1015 63 10000 1.5 90 08:40 05.06.2020
1879 Clouds 19 1015 63 10000 1.5 90 08:19 05.06.2020
1880 Clouds 18 1015 63 10000 2.6 80 07:53 05.06.2020
1881 Clouds 18 1015 63 10000 2.1 80 07:34 05.06.2020
1882 Clouds 19 1015 59 10000 2.1 80 06:50 05.06.2020
1883 Clouds 20 1015 56 10000 1 0 05:23 05.06.2020
1884 Clouds 20 1016 56 10000 2.1 70 04:31 05.06.2020
1885 Clouds 21 1016 52 10000 2.1 60 03:38 05.06.2020
1886 Clouds 22 1017 49 10000 2.6 30 02:30 05.06.2020
1887 Clouds 22 1017 49 10000 2.6 30 01:59 05.06.2020
1888 Clouds 22 1017 53 8000 3.1 30 01:34 05.06.2020
1889 Clouds 23 1017 49 8000 2.6 360 00:55 05.06.2020
1890 Clouds 23 1017 49 10000 3.1 20 00:36 05.06.2020
1891 Clouds 23 1017 53 10000 3.1 360 00:18 05.06.2020
1892 Clouds 24 1017 50 10000 3.1 360 23:42 04.06.2020
1893 Clouds 24 1017 50 10000 3.1 360 23:24 04.06.2020
1894 Clouds 25 1016 47 10000 5.1 350 22:42 04.06.2020
1895 Clouds 25 1016 47 10000 5.1 350 22:22 04.06.2020
1896 Clouds 26 1016 47 10000 4.1 320 21:58 04.06.2020
1897 Clouds 27 1015 44 10000 5.1 320 21:39 04.06.2020
1898 Clouds 27 1015 44 10000 5.1 300 21:20 04.06.2020
1899 Clouds 27 1015 44 10000 5.1 300 20:57 04.06.2020
1900 Clouds 28 1015 45 10000 5.1 310 20:39 04.06.2020
1901 Clouds 28 1015 45 10000 5.1 310 20:39 04.06.2020
1902 Clouds 28 1015 45 10000 5.1 310 20:20 04.06.2020
1903 Clouds 30 1014 40 10000 4.6 290 19:55 04.06.2020
1904 Clouds 29 1014 39 10000 4.1 310 19:37 04.06.2020
1905 Clouds 30 1014 35 10000 4.6 300 19:18 04.06.2020
1906 Clouds 30 1014 35 10000 4.6 300 18:39 04.06.2020
1907 Clouds 30 1014 35 10000 4.6 300 18:20 04.06.2020
1908 Clouds 30 1015 35 10000 4.1 260 17:56 04.06.2020
1909 Clouds 30 1015 35 10000 4.1 260 17:38 04.06.2020
1910 Clouds 30 1015 35 10000 4.1 260 17:19 04.06.2020
1911 Clouds 30 1015 35 10000 3.1 0 16:41 04.06.2020
1912 Clouds 30 1015 35 10000 3.1 0 16:20 04.06.2020
1913 Clouds 28 1016 39 10000 1.5 0 15:46 04.06.2020
1914 Clouds 28 1016 39 10000 1.5 0 15:27 04.06.2020
1915 Clouds 28 1016 39 10000 1.5 0 14:56 04.06.2020
1916 Clouds 28 1016 37 10000 3.6 290 14:37 04.06.2020
1917 Clouds 28 1016 37 10000 3.6 290 14:18 04.06.2020
1918 Clouds 26 1016 41 10000 3.1 0 13:41 04.06.2020
1919 Clouds 26 1016 41 10000 3.1 0 13:21 04.06.2020
1920 Clouds 25 1016 44 10000 2.6 310 12:59 04.06.2020
1921 Clear 24 1016 50 8000 2.6 300 12:41 04.06.2020
1922 Clear 24 1016 50 8000 2.6 300 12:23 04.06.2020
1923 Clear 24 1016 53 8000 1 0 11:56 04.06.2020
1924 Clear 23 1016 53 8000 1.5 0 11:38 04.06.2020
1925 Clear 23 1016 56 8000 1 0 11:19 04.06.2020
1926 Clear 21 1016 64 8000 1 0 10:42 04.06.2020
1927 Clear 21 1016 64 8000 1 0 10:23 04.06.2020
1928 Clouds 21 1016 64 10000 1 0 09:58 04.06.2020
1929 Clouds 19 1016 72 10000 1.5 260 09:40 04.06.2020
1930 Clouds 19 1016 72 10000 1.5 260 09:22 04.06.2020
1931 Clouds 17 1016 77 10000 2.1 250 08:44 04.06.2020
1932 Clouds 17 1016 77 10000 2.1 250 08:25 04.06.2020
1933 Clear 17 1016 77 10000 2.1 230 07:47 04.06.2020
1934 Clear 17 1016 77 10000 2.1 230 07:26 04.06.2020
1935 Clear 17 1015 77 10000 2.1 240 06:43 04.06.2020
1936 Clear 17 1015 77 10000 2.1 240 06:24 04.06.2020
1937 Clear 17 1015 72 10000 2.1 250 05:35 04.06.2020
1938 Clear 18 1015 68 10000 3.1 240 04:31 04.06.2020
1939 Clear 18 1015 68 10000 2.6 260 03:23 04.06.2020
1940 Clear 20 1016 60 10000 3.1 270 01:56 04.06.2020
1941 Clear 20 1016 60 10000 3.1 270 01:56 04.06.2020
1942 Clear 21 1016 56 10000 3.6 260 01:19 04.06.2020
1943 Clear 22 1016 46 10000 3.6 270 00:40 04.06.2020
1944 Clear 23 1015 40 10000 5.1 280 23:44 03.06.2020
1945 Clear 23 1015 40 10000 5.1 280 23:21 03.06.2020
1946 Clear 25 1014 36 10000 5.1 290 22:59 03.06.2020
1947 Clear 26 1014 34 10000 5.1 300 22:39 03.06.2020
1948 Clear 26 1014 34 10000 5.1 300 22:18 03.06.2020
1949 Clear 27 1014 32 10000 6.2 290 21:57 03.06.2020
1950 Clouds 28 1013 30 10000 5.7 300 21:38 03.06.2020
1951 Clouds 29 1013 30 10000 5.7 290 21:20 03.06.2020
1952 Clouds 29 1013 30 10000 5.7 290 20:54 03.06.2020
1953 Clouds 31 1012 31 10000 6.2 300 20:36 03.06.2020
1954 Clouds 31 1012 31 10000 6.2 300 20:36 03.06.2020
1955 Clouds 31 1012 31 10000 5.7 290 20:18 03.06.2020
1956 Clouds 31 1012 31 10000 5.7 290 19:54 03.06.2020
1957 Clouds 32 1012 27 10000 5.1 300 19:36 03.06.2020
1958 Clouds 33 1012 24 10000 4.1 300 19:18 03.06.2020
1959 Clouds 33 1013 26 10000 3.1 270 18:41 03.06.2020
1960 Clouds 33 1013 26 10000 3.1 270 18:21 03.06.2020
1961 Clouds 32 1013 27 10000 3.6 0 17:55 03.06.2020
1962 Clear 33 1013 26 10000 4.6 290 17:37 03.06.2020
1963 Clear 33 1013 26 10000 4.1 270 17:18 03.06.2020
1964 Clear 32 1013 27 10000 2.6 0 16:41 03.06.2020
1965 Clear 32 1013 27 10000 2.6 0 16:20 03.06.2020
1966 Clear 33 1014 29 10000 2.1 0 15:57 03.06.2020
1967 Clear 32 1014 31 10000 2.1 0 15:38 03.06.2020
1968 Clear 32 1014 31 10000 2.1 0 15:20 03.06.2020
1969 Clear 30 1014 35 10000 1.5 0 14:46 03.06.2020
1970 Clear 30 1014 35 10000 1.5 0 14:24 03.06.2020
1971 Clear 29 1015 37 10000 2.1 0 13:55 03.06.2020
1972 Clear 28 1015 42 10000 1 0 13:37 03.06.2020
1973 Clear 27 1015 47 10000 2.1 320 13:18 03.06.2020
1974 Clear 29 1014 28 0 2.14 331 12:42 03.06.2020
1975 Clear 26 1014 38 0 1.33 15 12:20 03.06.2020
1976 Clear 26 1014 38 0 1.33 15 11:45 03.06.2020
1977 Clear 24 1014 46 0 0.86 48 11:26 03.06.2020
1978 Clear 24 1014 46 0 0.86 48 10:55 03.06.2020
1979 Clear 24 1014 46 0 0.86 48 10:37 03.06.2020
1980 Clear 22 1015 53 0 0.49 43 10:19 03.06.2020
1981 Clear 22 1015 53 0 0.49 43 09:41 03.06.2020
1982 Clear 20 1015 60 0 0.28 238 09:19 03.06.2020
1983 Clear 20 1015 60 0 0.28 238 08:47 03.06.2020
1984 Clouds 19 1015 66 0 0.57 267 08:22 03.06.2020
1985 Clouds 19 1015 66 0 0.57 267 07:58 03.06.2020
1986 Clouds 19 1015 66 0 0.57 267 07:37 03.06.2020
1987 Clouds 19 1015 67 0 0.99 289 07:18 03.06.2020
1988 Clouds 19 1015 67 0 0.99 289 06:45 03.06.2020
1989 Clouds 19 1015 65 0 0.6 291 06:22 03.06.2020
1990 Clouds 19 1015 65 0 0.6 291 05:45 03.06.2020
1991 Clouds 20 1016 56 0 1.54 310 04:26 03.06.2020
1992 Clouds 20 1016 56 0 1.54 310 03:42 03.06.2020
1993 Clouds 21 1016 60 10000 3.1 240 02:39 03.06.2020
1994 Clear 22 1016 60 10000 2.6 250 01:44 03.06.2020
1995 Clear 24 1016 53 10000 2.6 300 00:39 03.06.2020
1996 Clear 25 1016 50 10000 3.6 320 00:20 03.06.2020
1997 Clear 25 1016 50 10000 3.6 310 23:45 02.06.2020
1998 Clear 25 1016 50 10000 3.6 310 23:27 02.06.2020
1999 Clear 26 1016 47 10000 4.1 330 22:55 02.06.2020
2000 Clear 27 1015 44 10000 3.6 330 22:36 02.06.2020
2001 Clear 28 1015 42 10000 4.6 320 22:18 02.06.2020
2002 Clear 28 1015 42 10000 4.6 320 21:54 02.06.2020
2003 Clear 29 1014 39 10000 4.6 340 21:36 02.06.2020
2004 Clear 29 1014 39 10000 4.6 340 21:18 02.06.2020
2005 Clear 31 1013 29 10000 7.2 280 20:42 02.06.2020
2006 Clear 31 1013 29 10000 7.2 280 20:23 02.06.2020
2007 Clear 31 1013 29 10000 7.2 280 20:23 02.06.2020
2008 Clear 32 1013 29 10000 6.7 270 19:58 02.06.2020
2009 Clear 32 1013 27 10000 5.1 290 19:39 02.06.2020
2010 Clear 32 1013 27 10000 5.1 290 19:21 02.06.2020
2011 Clear 33 1013 26 10000 5.1 300 18:55 02.06.2020
2012 Clear 32 1013 25 10000 4.6 280 18:37 02.06.2020
2013 Clear 32 1013 29 10000 3.6 280 18:18 02.06.2020
2014 Clear 33 1014 26 10000 3.6 300 17:41 02.06.2020
2015 Clear 33 1014 26 10000 3.6 300 17:23 02.06.2020
2016 Clear 32 1014 27 10000 2.6 340 16:57 02.06.2020
2017 Clear 32 1014 31 10000 2.6 0 16:38 02.06.2020
2018 Clear 32 1014 31 10000 2.6 0 16:20 02.06.2020
2019 Clear 30 1015 35 10000 2.6 0 15:44 02.06.2020
2020 Clear 30 1015 35 10000 2.6 0 15:24 02.06.2020
2021 Clear 29 1015 39 10000 2.6 0 14:50 02.06.2020
2022 Clear 28 1015 42 10000 2.6 50 14:31 02.06.2020
2023 Clear 27 1016 47 10000 1.5 360 13:58 02.06.2020
2024 Clear 26 1016 54 10000 1.5 0 13:39 02.06.2020
2025 Clear 26 1016 54 10000 1.5 0 13:19 02.06.2020
2026 Clear 25 1016 53 10000 1.5 0 12:58 02.06.2020
2027 Clear 24 1017 57 10000 1 0 12:40 02.06.2020
2028 Clear 24 1017 57 10000 1 0 12:20 02.06.2020
2029 Clear 24 1017 57 10000 1 0 12:20 02.06.2020
2030 Clouds 23 1017 64 10000 1.5 0 11:56 02.06.2020
2031 Clouds 22 1017 64 10000 2.1 0 11:38 02.06.2020
2032 Clouds 22 1017 64 10000 2.1 0 11:20 02.06.2020
2033 Clouds 21 1017 68 10000 1.5 10 11:20 02.06.2020
2034 Clouds 20 1017 72 10000 1 0 10:47 02.06.2020
2035 Clouds 20 1017 72 10000 1 0 10:28 02.06.2020
2036 Clouds 20 1016 72 10000 1 0 09:56 02.06.2020
2037 Clouds 18 1016 77 10000 1.5 260 09:37 02.06.2020
2038 Clouds 18 1016 77 10000 1.5 260 09:19 02.06.2020
2039 Clouds 17 1016 82 10000 1.5 230 08:47 02.06.2020
2040 Clouds 17 1016 82 10000 2.1 230 08:20 02.06.2020
2041 Clear 17 1016 82 10000 3.1 230 07:46 02.06.2020
2042 Clear 17 1016 82 10000 3.1 230 07:46 02.06.2020
2043 Clear 17 1016 82 10000 3.1 230 07:25 02.06.2020
2044 Clear 16 1015 82 10000 3.1 240 06:43 02.06.2020
2045 Clear 17 1015 77 10000 3.6 240 05:57 02.06.2020
2046 Clear 17 1015 77 10000 3.1 240 05:19 02.06.2020
2047 Clear 18 1016 72 10000 2.6 250 03:22 02.06.2020
2048 Clear 19 1016 72 10000 3.1 240 02:25 02.06.2020
2049 Clear 20 1017 68 10000 3.1 270 01:22 02.06.2020
2050 Clear 22 1017 60 10000 3.6 260 00:25 02.06.2020
2051 Clear 22 1017 60 10000 4.1 260 23:56 01.06.2020
2052 Clear 23 1016 56 10000 3.6 300 23:37 01.06.2020
2053 Clear 24 1016 53 10000 4.1 310 23:18 01.06.2020
2054 Clear 25 1015 50 10000 4.6 320 22:41 01.06.2020
2055 Clear 25 1015 50 10000 4.6 320 22:21 01.06.2020
2056 Clear 26 1015 47 10000 5.7 310 21:58 01.06.2020
2057 Clear 28 1014 42 10000 6.2 290 21:40 01.06.2020
2058 Clear 28 1014 42 10000 6.2 290 21:19 01.06.2020
2059 Clear 30 1014 35 10000 4.6 280 20:56 01.06.2020
2060 Clear 31 1013 33 10000 3.6 270 20:38 01.06.2020
2061 Clear 31 1013 33 10000 3.6 270 20:19 01.06.2020
2062 Clear 32 1013 31 10000 4.6 260 19:43 01.06.2020
2063 Clear 32 1013 31 10000 4.6 260 19:21 01.06.2020
2064 Clear 32 1013 31 10000 3.6 280 18:59 01.06.2020
2065 Clear 31 1013 33 10000 2.6 0 18:39 01.06.2020
2066 Clear 31 1013 33 10000 2.6 0 18:20 01.06.2020
2067 -273 0 0 0 0 0 17:58 01.06.2020
2068 Clear 31 1013 33 10000 3.1 280 17:40 01.06.2020
2069 Clear 31 1013 33 10000 3.1 280 17:19 01.06.2020
2070 Clear 30 1014 37 10000 2.1 0 16:42 01.06.2020
2071 Clear 30 1014 37 10000 2.1 0 16:22 01.06.2020
2072 Clear 29 1014 42 10000 2.1 0 15:57 01.06.2020
2073 Clear 28 1014 42 10000 2.6 20 15:39 01.06.2020
2074 Clear 27 1014 44 10000 2.1 0 15:19 01.06.2020
2075 Clear 27 1014 44 10000 2.1 0 14:57 01.06.2020
2076 Clear 27 1015 44 10000 3.1 0 14:39 01.06.2020
2077 Clear 26 1015 47 10000 2.6 0 14:21 01.06.2020
2078 Clear 26 1015 47 10000 2.6 0 13:54 01.06.2020
2079 Clear 25 1015 50 10000 1 0 13:36 01.06.2020
2080 Clear 25 1015 50 10000 1 0 13:18 01.06.2020
2081 Clouds 24 1015 53 8000 2.6 280 12:54 01.06.2020
2082 Clouds 24 1015 53 8000 2.1 0 12:36 01.06.2020
2083 Clouds 24 1015 53 8000 2.1 0 12:18 01.06.2020
2084 Clouds 23 1015 56 8000 1.5 0 11:38 01.06.2020
2085 Clouds 23 1015 56 8000 1.5 0 11:19 01.06.2020
2086 Clouds 23 1015 60 8000 1.5 0 10:57 01.06.2020
2087 Clouds 21 1015 68 8000 1 0 10:37 01.06.2020
2088 Clouds 21 1015 68 8000 1 0 10:18 01.06.2020
2089 Clouds 21 1015 68 8000 1 0 09:46 01.06.2020
2090 Clouds 19 1015 72 8000 1.5 260 09:27 01.06.2020
2091 Clear 19 1015 72 8000 1.5 260 08:57 01.06.2020
2092 Clear 19 1015 72 8000 2.1 270 08:37 01.06.2020
2093 Clear 19 1015 72 8000 2.1 270 08:19 01.06.2020
2094 Clear 19 1014 72 8000 2.1 270 07:41 01.06.2020
2095 Clear 19 1014 72 8000 2.1 270 07:22 01.06.2020
2096 Clear 19 1014 72 8000 2.1 270 06:49 01.06.2020
2097 Clear 18 1014 77 8000 2.1 250 05:57 01.06.2020
2098 Clear 18 1015 77 8000 1.5 260 05:18 01.06.2020
2099 Clear 18 1015 77 8000 2.1 240 03:57 01.06.2020
2100 Clear 18 1015 77 8000 2.6 240 03:39 01.06.2020
2101 Clear 18 1015 72 8000 2.1 260 02:57 01.06.2020
2102 Clear 20 1015 64 8000 3.6 250 01:40 01.06.2020
2103 Clear 20 1015 64 8000 3.6 250 01:18 01.06.2020
2104 Clear 20 1015 64 8000 3.6 260 00:56 01.06.2020
2105 Clear 21 1015 64 8000 4.1 260 00:37 01.06.2020
2106 Clear 21 1015 64 8000 4.1 260 00:19 01.06.2020
2107 Clear 23 1014 56 8000 4.6 270 23:41 31.05.2020
2108 Clear 23 1014 56 8000 4.6 270 23:22 31.05.2020
2109 Clear 24 1014 53 8000 6.2 270 22:59 31.05.2020
2110 Clear 25 1013 50 8000 6.2 280 22:40 31.05.2020
2111 Clear 25 1013 50 8000 6.2 280 22:22 31.05.2020
2112 Clear 26 1013 47 8000 6.2 290 21:57 31.05.2020
2113 Clear 29 1012 37 8000 4.1 270 21:39 31.05.2020
2114 Clear 29 1012 37 8000 4.1 270 21:20 31.05.2020
2115 Clouds 29 1012 37 8000 3.6 270 20:45 31.05.2020
2116 Clouds 29 1012 37 8000 3.1 300 20:25 31.05.2020
2117 Clouds 30 1011 35 8000 2.6 320 19:56 31.05.2020
2118 Clouds 30 1011 35 8000 2.6 310 19:38 31.05.2020
2119 Clouds 30 1011 35 8000 2.6 310 19:20 31.05.2020
2120 Clouds 30 1011 35 8000 2.6 330 18:45 31.05.2020
2121 Clouds 30 1011 35 8000 1.5 250 18:25 31.05.2020
2122 Clouds 30 1012 37 8000 1.5 0 17:59 31.05.2020
2123 Clouds 29 1012 39 8000 2.1 0 17:40 31.05.2020
2124 Clouds 29 1012 39 8000 2.1 0 17:21 31.05.2020
2125 Clouds 29 1012 39 8000 2.1 0 16:41 31.05.2020
2126 Clouds 28 1012 45 8000 1.5 0 16:21 31.05.2020
2127 Clouds 26 1012 50 8000 2.1 0 15:56 31.05.2020
2128 Clouds 26 1013 54 8000 1 0 15:37 31.05.2020
2129 Clouds 26 1013 54 8000 1 0 15:18 31.05.2020
2130 Clouds 23 1013 60 8000 1 0 14:41 31.05.2020
2131 Clouds 23 1013 60 8000 1 0 14:19 31.05.2020
2132 Clouds 22 1014 64 7000 2.1 290 13:55 31.05.2020
2133 Clouds 21 1014 68 7000 1.5 0 13:37 31.05.2020
2134 Clouds 21 1014 68 7000 1.5 0 13:19 31.05.2020
2135 Clouds 20 1014 72 7000 1.5 0 12:46 31.05.2020
2136 Clouds 19 1014 72 7000 2.1 280 12:24 31.05.2020
2137 Clouds 19 1014 72 7000 1.5 300 11:59 31.05.2020
2138 Clouds 18 1013 82 7000 2.6 330 11:39 31.05.2020
2139 Clouds 18 1013 82 7000 2.6 330 11:21 31.05.2020
2140 Clouds 18 1013 82 7000 2.1 320 10:45 31.05.2020
2141 Clouds 18 1013 82 7000 1 0 10:27 31.05.2020
2142 Clouds 17 1013 82 7000 1.5 240 09:59 31.05.2020
2143 Clouds 17 1013 82 7000 1.5 240 09:41 31.05.2020
2144 Clouds 17 1013 88 7000 1.5 280 09:21 31.05.2020
2145 Clouds 17 1013 82 7000 2.6 260 08:43 31.05.2020
2146 Clouds 17 1013 82 6000 2.6 270 08:24 31.05.2020
2147 Clouds 17 1013 82 6000 2.1 260 07:52 31.05.2020
2148 Clouds 17 1012 82 10000 2.1 250 07:22 31.05.2020
2149 Clouds 16 1012 87 10000 2.1 250 06:58 31.05.2020
2150 Clouds 17 1012 82 10000 2.6 270 06:36 31.05.2020
2151 Clouds 17 1012 82 10000 2.6 270 05:55 31.05.2020
2152 Clouds 17 1012 82 10000 2.6 260 05:37 31.05.2020
2153 Clouds 18 1011 77 10000 3.1 260 04:18 31.05.2020
2154 Clouds 18 1011 77 10000 3.6 260 03:45 31.05.2020
2155 Clouds 18 1012 77 10000 3.1 260 02:50 31.05.2020
2156 Clouds 19 1012 72 10000 3.1 270 01:46 31.05.2020
2157 Clouds 20 1012 68 10000 3.6 250 00:46 31.05.2020
2158 Clouds 21 1012 64 10000 4.1 260 00:28 31.05.2020
2159 Clouds 21 1012 64 10000 4.1 270 23:42 30.05.2020
2160 Clouds 22 1012 60 10000 5.7 270 23:24 30.05.2020
2161 Clouds 22 1011 60 10000 5.7 270 22:57 30.05.2020
2162 Clouds 23 1011 56 10000 6.7 280 22:39 30.05.2020
2163 Clouds 23 1011 56 10000 6.7 280 22:21 30.05.2020
2164 Clouds 25 1011 50 10000 6.2 290 21:43 30.05.2020
2165 Clouds 27 1010 47 10000 3.1 280 21:22 30.05.2020
2166 Clouds 27 1010 47 7000 2.6 280 20:58 30.05.2020
2167 Clouds 28 1010 45 7000 2.6 260 20:40 30.05.2020
2168 Clouds 28 1010 45 7000 2.6 260 20:21 30.05.2020
2169 Clouds 28 1010 45 7000 3.1 230 19:58 30.05.2020
2170 Clouds 29 1010 45 7000 2.6 0 19:40 30.05.2020
2171 Clouds 29 1010 45 7000 2.6 0 19:20 30.05.2020
2172 Clouds 28 1010 48 7000 2.6 0 18:43 30.05.2020
2173 Clouds 29 1010 45 7000 2.1 0 18:20 30.05.2020
2174 Clouds 28 1010 45 6000 2.1 0 17:43 30.05.2020
2175 Clouds 28 1010 45 6000 2.1 0 17:25 30.05.2020
2176 Clouds 27 1011 51 6000 3.1 0 16:59 30.05.2020
2177 Clouds 26 1011 54 6000 3.6 270 16:40 30.05.2020
2178 Clouds 26 1011 54 6000 3.6 270 16:21 30.05.2020
2179 Clouds 26 1011 57 6000 2.6 320 15:44 30.05.2020
2180 Clouds 26 1011 57 6000 2.6 320 15:26 30.05.2020
2181 Clouds 26 1011 54 6000 2.6 260 14:45 30.05.2020
2182 Clouds 24 1012 57 6000 3.6 280 14:27 30.05.2020
2183 Clouds 22 1012 68 6000 3.6 260 13:44 30.05.2020
2184 Clouds 22 1012 68 6000 3.6 260 13:26 30.05.2020
2185 Clouds 21 1012 68 6000 4.6 280 12:43 30.05.2020
2186 Clouds 20 1012 72 6000 5.7 270 12:23 30.05.2020
2187 Clouds 21 1012 73 6000 5.1 280 11:59 30.05.2020
2188 Clouds 20 1012 72 6000 5.1 260 11:41 30.05.2020
2189 Clouds 20 1012 72 6000 5.1 260 11:22 30.05.2020
2190 Clouds 20 1011 77 6000 5.1 280 10:55 30.05.2020
2191 Clouds 20 1011 77 7000 4.6 280 10:37 30.05.2020
2192 Clouds 20 1011 77 7000 4.6 280 10:19 30.05.2020
2193 Clear 19 1011 77 8000 3.6 260 09:42 30.05.2020
2194 Clear 18 1011 82 7000 3.1 250 09:24 30.05.2020
2195 Clear 18 1011 82 7000 3.1 230 08:41 30.05.2020
2196 Clouds 17 1011 88 7000 3.1 240 08:21 30.05.2020
2197 Clouds 17 1011 88 10000 3.6 240 07:39 30.05.2020
2198 Clouds 17 1011 88 10000 3.6 240 07:18 30.05.2020
2199 Clouds 18 1010 77 10000 2.6 250 06:28 30.05.2020
2200 Clouds 18 1010 82 10000 3.1 260 05:49 30.05.2020
2201 Clouds 19 1011 77 10000 3.1 250 04:37 30.05.2020
2202 Clouds 21 1012 64 10000 3.1 250 02:34 30.05.2020
2203 Clouds 21 1012 64 10000 3.6 240 01:57 30.05.2020
2204 Clouds 24 1013 53 10000 3.6 250 00:44 30.05.2020
2205 Clouds 24 1013 53 10000 3.6 250 00:24 30.05.2020
2206 Clouds 25 1013 50 10000 3.1 280 23:59 29.05.2020
2207 Clouds 26 1012 47 10000 3.6 320 23:38 29.05.2020
2208 Clouds 26 1012 47 10000 3.6 320 23:19 29.05.2020
2209 Clouds 27 1012 44 10000 4.6 320 22:54 29.05.2020
2210 Clouds 28 1012 39 10000 5.1 310 22:36 29.05.2020
2211 Clouds 28 1012 39 10000 5.1 310 22:18 29.05.2020
2212 Clouds 28 1012 39 10000 5.1 310 22:18 29.05.2020
2213 Clouds 30 1011 37 10000 6.7 270 21:39 29.05.2020
2214 Clouds 30 1011 37 10000 6.7 270 21:21 29.05.2020
2215 Clouds 32 1011 27 10000 3.6 260 20:57 29.05.2020
2216 Clouds 32 1011 25 10000 4.1 250 20:38 29.05.2020
2217 Clouds 32 1011 25 10000 4.1 250 20:19 29.05.2020
2218 Clouds 33 1011 26 10000 3.6 270 19:42 29.05.2020
2219 Clouds 33 1011 24 10000 3.6 250 19:24 29.05.2020
2220 Clouds 33 1011 26 10000 2.6 270 18:48 29.05.2020
2221 Clouds 33 1011 26 10000 2.6 0 18:23 29.05.2020
2222 Clouds 33 1011 29 10000 2.6 320 17:59 29.05.2020
2223 Clouds 32 1012 33 10000 2.6 260 17:39 29.05.2020
2224 Clouds 32 1012 33 10000 2.6 260 17:20 29.05.2020
2225 Clouds 32 1012 33 10000 2.6 0 16:47 29.05.2020
2226 Clouds 31 1012 35 10000 2.1 0 16:29 29.05.2020
2227 Clouds 30 1012 40 10000 2.6 0 15:59 29.05.2020
2228 Clouds 30 1013 40 10000 2.1 0 15:41 29.05.2020
2229 Clouds 30 1013 40 10000 2.1 0 15:21 29.05.2020
2230 Clouds 29 1013 42 8000 2.1 0 14:57 29.05.2020
2231 Clouds 28 1013 48 8000 2.1 0 14:38 29.05.2020
2232 Clouds 28 1013 48 8000 2.1 0 14:19 29.05.2020
2233 Clouds 27 1014 51 8000 2.1 0 13:41 29.05.2020
2234 Clouds 26 1014 54 8000 2.1 290 13:21 29.05.2020
2235 Clouds 24 1014 57 8000 2.1 0 12:55 29.05.2020
2236 Clouds 24 1014 60 8000 1.5 0 12:37 29.05.2020
2237 Clouds 24 1014 60 8000 1.5 0 12:18 29.05.2020
2238 Clouds 22 1014 68 8000 2.1 280 11:42 29.05.2020
2239 Clouds 21 1014 73 8000 2.6 270 11:42 29.05.2020
2240 Clouds 21 1014 73 8000 2.6 270 11:24 29.05.2020
2241 Clouds 20 1015 72 8000 2.1 300 10:43 29.05.2020
2242 Clouds 19 1015 77 8000 2.1 250 10:24 29.05.2020
2243 Clouds 18 1015 82 8000 2.1 250 09:58 29.05.2020
2244 Clouds 18 1015 82 8000 2.6 270 09:40 29.05.2020
2245 Clear 18 1015 82 8000 2.6 270 09:19 29.05.2020
2246 Clear 17 1015 88 8000 2.6 260 08:47 29.05.2020
2247 Clear 17 1015 82 8000 3.1 260 08:23 29.05.2020
2248 Clear 17 1015 82 10000 3.1 240 07:48 29.05.2020
2249 Clear 18 1014 77 10000 3.1 260 07:29 29.05.2020
2250 Clear 18 1014 77 10000 2.6 250 06:55 29.05.2020
2251 Clear 18 1014 77 8000 3.1 250 06:37 29.05.2020
2252 Clear 18 1014 77 8000 3.1 250 06:18 29.05.2020
2253 Clear 19 1014 72 8000 3.1 250 05:37 29.05.2020
2254 Clear 23 1015 53 8000 2.1 250 01:53 29.05.2020
2255 Clear 24 1016 50 8000 3.1 240 01:27 29.05.2020
2256 Clear 24 1016 50 8000 3.1 240 01:27 29.05.2020
2257 Clear 24 1016 50 8000 3.6 240 00:51 29.05.2020
2258 Clear 25 1016 47 8000 3.6 240 00:29 29.05.2020
2259 Clear 26 1016 41 8000 3.1 250 23:56 28.05.2020
2260 Clear 28 1015 39 8000 2.1 320 23:38 28.05.2020
2261 Clear 28 1015 39 8000 2.1 320 23:18 28.05.2020
2262 Clear 29 1015 35 8000 3.6 310 22:41 28.05.2020
2263 Clear 29 1015 25 8000 2.6 270 22:21 28.05.2020
2264 Clear 30 1015 23 8000 3.6 260 21:55 28.05.2020
2265 Clear 31 1014 22 8000 4.6 280 21:37 28.05.2020
2266 Clear 31 1014 22 8000 4.6 280 21:18 28.05.2020
2267 Clear 32 1014 22 8000 5.1 270 20:55 28.05.2020
2268 Clear 32 1014 22 8000 5.1 270 20:55 28.05.2020
2269 Clear 33 1014 24 8000 5.1 260 20:36 28.05.2020
2270 Rain 33 1014 24 8000 5.1 260 20:18 28.05.2020
2271 Rain 33 1014 26 8000 4.1 260 19:43 28.05.2020
2272 Clouds 34 1014 24 8000 4.1 260 19:20 28.05.2020
2273 Clouds 34 1014 28 8000 3.6 270 18:57 28.05.2020
2274 Clouds 34 1014 28 8000 2.6 0 18:39 28.05.2020
2275 Clouds 34 1014 28 8000 2.6 0 18:20 28.05.2020
2276 Clouds 34 1014 24 8000 5.7 270 17:40 28.05.2020
2277 Clouds 34 1014 24 8000 5.7 270 17:22 28.05.2020
2278 Clouds 33 1014 27 8000 5.1 290 16:55 28.05.2020
2279 Clouds 33 1015 29 8000 5.1 270 16:36 28.05.2020
2280 Clouds 33 1015 29 8000 5.1 270 16:18 28.05.2020
2281 Clouds 32 1015 31 8000 3.6 280 15:40 28.05.2020
2282 Clouds 32 1015 31 8000 3.6 280 15:22 28.05.2020
2283 Clouds 31 1016 33 8000 3.6 270 14:43 28.05.2020
2284 Clouds 31 1016 35 8000 2.6 320 14:23 28.05.2020
2285 Clouds 30 1016 37 8000 2.1 300 13:48 28.05.2020
2286 Clouds 29 1016 42 8000 2.6 280 13:30 28.05.2020
2287 Clouds 27 1016 47 8000 3.1 290 12:59 28.05.2020
2288 Clouds 25 1016 53 8000 3.1 280 12:38 28.05.2020
2289 Clouds 25 1016 53 8000 3.1 280 12:18 28.05.2020
2290 Clouds 25 1016 53 8000 3.6 280 11:41 28.05.2020
2291 Clouds 23 1016 60 8000 4.1 270 11:23 28.05.2020
2292 Clouds 22 1016 64 10000 3.6 260 10:56 28.05.2020
2293 Clouds 22 1016 64 10000 3.1 270 10:37 28.05.2020
2294 Clouds 22 1016 64 10000 3.1 270 10:18 28.05.2020
2295 Clouds 21 1016 60 10000 3.6 270 09:39 28.05.2020
2296 Clouds 21 1016 60 10000 3.6 270 09:19 28.05.2020
2297 Clouds 21 1015 52 10000 2.6 280 08:45 28.05.2020
2298 Clouds 21 1015 52 10000 2.6 250 08:26 28.05.2020
2299 Clouds 21 1015 52 10000 2.1 250 07:45 28.05.2020
2300 Clouds 21 1015 52 10000 2.1 260 07:25 28.05.2020
2301 Clouds 22 1015 49 10000 2.1 250 06:55 28.05.2020
2302 Clouds 22 1015 49 10000 2.1 260 06:36 28.05.2020
2303 Clouds 23 1015 46 10000 2.6 270 05:40 28.05.2020
2304 Clouds 23 1015 46 10000 2.1 280 04:54 28.05.2020
2305 Clear 24 1015 41 10000 1.5 280 04:27 28.05.2020
2306 Clear 25 1016 41 10000 1 0 03:45 28.05.2020
2307 Clear 25 1016 41 10000 1.5 250 02:45 28.05.2020
2308 Clear 26 1017 39 10000 2.6 240 01:50 28.05.2020
2309 Clear 27 1017 34 10000 1 0 00:54 28.05.2020
2310 Clouds 28 1018 30 10000 1.5 40 00:24 28.05.2020
2311 Clouds 29 1018 30 10000 2.1 40 23:57 27.05.2020
2312 Clouds 29 1017 30 10000 2.1 20 23:39 27.05.2020
2313 Clouds 29 1017 30 10000 2.1 20 23:20 27.05.2020
2314 Clouds 30 1017 28 10000 3.1 360 22:56 27.05.2020
2315 Clouds 31 1017 27 10000 2.6 340 22:38 27.05.2020
2316 Clouds 31 1017 27 10000 2.6 340 22:19 27.05.2020
2317 Clouds 32 1016 24 10000 4.6 310 21:41 27.05.2020
2318 Clouds 32 1016 24 10000 4.6 310 21:22 27.05.2020
2319 Clouds 34 1015 24 10000 4.6 320 20:58 27.05.2020
2320 Clouds 34 1015 26 10000 4.6 330 20:40 27.05.2020
2321 Clouds 34 1015 26 10000 4.6 330 20:20 27.05.2020
2322 Clouds 36 1015 22 10000 5.1 310 19:47 27.05.2020
2323 Clouds 36 1015 22 10000 5.1 310 19:47 27.05.2020
2324 Clouds 36 1015 20 10000 4.1 300 19:21 27.05.2020
2325 Clouds 37 1015 18 10000 5.1 310 18:58 27.05.2020
2326 Clouds 38 1014 17 10000 4.6 300 18:39 27.05.2020
2327 Clouds 38 1014 17 10000 4.6 300 18:19 27.05.2020
2328 Clouds 38 1014 16 10000 5.7 280 17:43 27.05.2020
2329 Clouds 38 1014 16 10000 5.7 280 17:25 27.05.2020
2330 Clear 39 1014 15 10000 6.2 270 16:57 27.05.2020
2331 Clear 39 1014 15 10000 6.2 270 16:57 27.05.2020
2332 Clear 38 1015 17 10000 3.1 250 16:38 27.05.2020
2333 Clear 38 1015 17 10000 3.1 250 16:20 27.05.2020
2334 Clear 37 1015 20 10000 2.6 310 15:55 27.05.2020
2335 Clear 37 1015 20 10000 3.1 330 15:37 27.05.2020
2336 Clear 37 1015 20 10000 3.1 330 15:18 27.05.2020
2337 Clear 36 1015 22 10000 3.1 0 14:42 27.05.2020
2338 Clear 36 1015 22 10000 3.1 0 14:42 27.05.2020
2339 Clear 35 1016 24 10000 2.6 340 14:20 27.05.2020
2340 Clear 35 1016 24 10000 2.1 0 13:44 27.05.2020
2341 Clouds 34 1016 28 10000 2.1 360 13:25 27.05.2020
2342 Clouds 34 1016 28 10000 2.1 360 13:25 27.05.2020
2343 Clouds 33 1016 29 10000 1.5 0 12:56 27.05.2020
2344 Clouds 31 1016 31 10000 1.5 310 12:37 27.05.2020
2345 Clouds 31 1016 31 10000 1.5 310 12:18 27.05.2020
2346 Clouds 28 1017 39 10000 2.1 260 11:39 27.05.2020
2347 Clouds 28 1017 39 10000 2.1 260 11:21 27.05.2020
2348 Clouds 27 1017 42 10000 1 0 10:56 27.05.2020
2349 Clouds 26 1017 44 10000 2.6 280 10:38 27.05.2020
2350 Clouds 26 1017 44 10000 2.6 280 10:19 27.05.2020
2351 Clouds 24 1016 50 10000 2.1 250 09:40 27.05.2020
2352 Clouds 24 1016 50 10000 2.1 250 09:21 27.05.2020
2353 Clouds 23 1016 53 10000 1 0 08:55 27.05.2020
2354 Clouds 23 1016 53 10000 1.5 260 08:36 27.05.2020
2355 Clouds 23 1016 53 10000 1.5 260 08:18 27.05.2020
2356 Clouds 23 1016 53 10000 2.6 260 07:41 27.05.2020
2357 Clear 23 1016 53 10000 1.5 280 07:23 27.05.2020
2358 Clear 23 1016 49 10000 1.5 260 06:45 27.05.2020
2359 Clear 23 1016 49 10000 1.5 260 06:20 27.05.2020
2360 Clear 23 1016 49 10000 2.1 240 05:48 27.05.2020
2361 Clear 24 1016 50 10000 2.1 240 04:38 27.05.2020
2362 Clear 26 1018 44 10000 1.5 250 02:32 27.05.2020
2363 Clear 26 1018 41 10000 2.6 250 01:53 27.05.2020
2364 Clear 27 1018 36 10000 2.6 240 01:29 27.05.2020
2365 Clear 28 1018 30 10000 2.6 240 00:46 27.05.2020
2366 Clear 28 1018 30 10000 2.6 240 00:46 27.05.2020
2367 Clear 29 1018 28 10000 1.5 0 00:20 27.05.2020
2368 Clear 30 1018 27 10000 1 0 23:54 26.05.2020
2369 Clouds 31 1018 25 10000 2.1 330 23:36 26.05.2020
2370 Clouds 31 1018 25 10000 2.1 330 23:18 26.05.2020
2371 Clouds 31 1018 25 10000 2.1 330 23:18 26.05.2020
2372 Clouds 31 1018 25 10000 2.1 330 23:18 26.05.2020
2373 Clouds 32 1017 24 10000 3.6 330 22:40 26.05.2020
2374 Clouds 32 1017 24 10000 3.6 330 22:21 26.05.2020
2375 Clouds 33 1017 22 10000 4.6 340 21:58 26.05.2020
2376 Clouds 34 1016 23 10000 4.6 330 21:40 26.05.2020
2377 Clouds 34 1016 23 10000 4.6 330 21:21 26.05.2020
2378 Clouds 35 1016 21 10000 5.1 320 20:55 26.05.2020
2379 Clouds 36 1016 20 10000 4.6 300 20:37 26.05.2020
2380 Clouds 36 1016 20 10000 4.6 300 20:18 26.05.2020
2381 Clouds 38 1015 18 10000 5.1 280 19:39 26.05.2020
2382 Clouds 38 1015 18 10000 5.1 280 19:19 26.05.2020
2383 Clouds 38 1015 16 10000 4.6 270 18:43 26.05.2020
2384 Clouds 38 1015 16 10000 4.6 270 18:23 26.05.2020
2385 Clear 39 1016 15 10000 4.6 270 17:59 26.05.2020
2386 Clear 39 1015 16 10000 5.1 280 17:38 26.05.2020
2387 Clear 39 1015 16 10000 5.1 280 17:20 26.05.2020
2388 Clear 38 1016 16 10000 5.7 280 16:42 26.05.2020
2389 Clear 38 1016 16 10000 4.6 300 16:20 26.05.2020
2390 Clear 38 1016 16 10000 2.6 0 15:55 26.05.2020
2391 Clear 38 1017 16 10000 2.1 330 15:37 26.05.2020
2392 Clear 38 1017 16 10000 2.1 330 15:18 26.05.2020
2393 Clear 35 1017 16 10000 2.1 0 14:43 26.05.2020
2394 Clear 35 1017 16 10000 2.1 0 14:23 26.05.2020
2395 Clear 35 1018 21 10000 1.5 0 13:56 26.05.2020
2396 Clear 34 1018 21 10000 1.5 0 13:37 26.05.2020
2397 Clear 34 1018 21 10000 1.5 0 13:18 26.05.2020
2398 Clear 33 1018 24 10000 2.1 0 12:42 26.05.2020
2399 Clear 32 1018 29 10000 2.1 0 12:20 26.05.2020
2400 Clear 32 1018 29 10000 1 0 11:58 26.05.2020
2401 Clear 30 1018 33 10000 1.5 320 11:40 26.05.2020
2402 Clear 30 1018 33 10000 1.5 320 11:18 26.05.2020
2403 Clear 29 1018 35 10000 1.5 270 10:42 26.05.2020
2404 Clear 28 1018 34 10000 1 0 10:19 26.05.2020
2405 Clear 26 1018 36 10000 0.5 0 09:40 26.05.2020
2406 Clear 26 1018 36 10000 0.5 0 09:20 26.05.2020
2407 Clouds 24 1018 41 10000 1 0 08:43 26.05.2020
2408 Clouds 24 1018 41 10000 1 0 08:43 26.05.2020
2409 Clouds 23 1018 40 10000 1 0 08:22 26.05.2020
2410 Clouds 22 1017 43 10000 1.5 250 07:57 26.05.2020
2411 Clouds 23 1017 40 10000 0.5 0 07:37 26.05.2020
2412 Clouds 23 1017 40 10000 0.5 0 07:18 26.05.2020
2413 Clouds 23 1017 40 10000 0.5 0 06:45 26.05.2020
2414 Clear 25 1017 36 10000 1 0 05:55 26.05.2020
2415 Clear 25 1017 36 10000 0.5 0 05:35 26.05.2020
2416 Clear 26 1017 31 10000 1.5 220 04:54 26.05.2020
2417 Clear 25 1017 33 10000 1.5 230 04:33 26.05.2020
2418 Clear 26 1018 31 10000 1.5 200 03:59 26.05.2020
2419 Clear 26 1018 29 10000 0.5 0 02:45 26.05.2020
2420 Clear 26 1019 29 10000 1.5 250 01:49 26.05.2020
2421 Clear 27 1019 28 10000 1.5 250 01:28 26.05.2020
2422 Clear 30 1019 20 10000 1.5 30 00:39 26.05.2020
2423 Clear 30 1019 20 10000 1.5 30 00:19 26.05.2020
2424 Clear 31 1019 19 10000 0.5 0 23:56 25.05.2020
2425 Clear 32 1018 18 10000 3.6 350 23:37 25.05.2020
2426 Clear 32 1018 18 10000 3.6 350 23:18 25.05.2020
2427 Clouds 33 1017 19 10000 4.1 350 22:55 25.05.2020
2428 Clouds 33 1017 21 10000 4.1 350 22:36 25.05.2020
2429 Clouds 33 1017 21 10000 4.1 350 22:18 25.05.2020
2430 Clouds 33 1017 21 10000 4.1 350 22:18 25.05.2020
2431 Clouds 34 1016 21 10000 6.7 350 21:55 25.05.2020
2432 Clouds 36 1016 22 10000 5.1 280 21:36 25.05.2020
2433 Clouds 36 1016 22 10000 5.1 280 21:18 25.05.2020
2434 Clouds 36 1016 22 10000 5.1 280 21:18 25.05.2020
2435 Clouds 37 1015 13 10000 2.1 290 20:42 25.05.2020
2436 Clouds 38 1015 13 10000 3.1 340 20:22 25.05.2020
2437 Clouds 38 1015 13 10000 3.1 340 20:21 25.05.2020
2438 Clouds 38 1015 14 10000 3.1 310 19:59 25.05.2020
2439 Clouds 39 1015 13 10000 3.1 290 19:40 25.05.2020
2440 Clouds 39 1015 13 10000 3.1 290 19:18 25.05.2020
2441 Clouds 38 1016 14 10000 3.6 30 18:55 25.05.2020
2442 Clouds 38 1016 14 10000 2.6 0 18:36 25.05.2020
2443 Clouds 38 1016 14 10000 2.6 0 18:18 25.05.2020
2444 Clouds 39 1016 14 10000 2.1 0 17:42 25.05.2020
2445 Clouds 39 1016 14 10000 2.1 0 17:23 25.05.2020
2446 Clouds 39 1017 13 10000 2.6 10 16:57 25.05.2020
2447 Clouds 38 1017 15 10000 2.6 340 16:39 25.05.2020
2448 Clouds 38 1017 15 10000 2.6 340 16:19 25.05.2020
2449 Clouds 38 1017 15 10000 2.6 340 16:19 25.05.2020
2450 Clouds 38 1017 16 10000 3.1 350 15:44 25.05.2020
2451 Clouds 38 1017 16 10000 2.1 0 15:20 25.05.2020
2452 Clouds 37 1018 17 10000 2.6 0 14:58 25.05.2020
2453 Clouds 36 1018 16 10000 2.6 0 14:38 25.05.2020
2454 Clouds 36 1018 16 10000 2.6 0 14:19 25.05.2020
2455 Clear 35 1018 20 10000 2.1 0 13:40 25.05.2020
2456 Clear 35 1018 20 10000 2.1 0 13:21 25.05.2020
2457 Clear 34 1018 21 10000 2.1 340 12:58 25.05.2020
2458 Clear 32 1018 24 10000 1.5 320 12:39 25.05.2020
2459 Clear 32 1018 24 10000 1.5 320 12:20 25.05.2020
2460 Clear 32 1018 24 10000 1.5 320 12:20 25.05.2020
2461 Clear 31 1019 25 0 0.5 0 11:40 25.05.2020
2462 Clear 31 1019 25 0 0.5 0 11:21 25.05.2020
2463 Clear 29 1018 28 10000 0.5 0 10:57 25.05.2020
2464 Clear 27 1018 32 10000 1 0 10:39 25.05.2020
2465 Clear 27 1018 32 10000 1 0 10:20 25.05.2020
2466 Clear 27 1018 32 10000 1 0 10:20 25.05.2020
2467 Clear 27 1018 34 10000 0.5 0 09:54 25.05.2020
2468 Clear 24 1018 41 10000 0.5 0 09:36 25.05.2020
2469 Clear 24 1018 41 10000 0.5 0 09:18 25.05.2020
2470 Clear 22 1018 40 10000 1 0 08:40 25.05.2020
2471 Clear 22 1018 40 10000 1 0 08:21 25.05.2020
2472 Clear 21 1018 43 10000 2.1 60 07:50 25.05.2020
2473 Clear 21 1018 43 10000 2.1 70 07:32 25.05.2020
2474 Clear 22 1018 40 10000 1.5 60 06:57 25.05.2020
2475 Clear 22 1018 40 10000 1.5 100 06:36 25.05.2020
2476 Clear 24 1018 31 10000 2.1 110 05:25 25.05.2020
2477 Clear 28 1019 24 10000 2.1 210 03:28 25.05.2020
2478 Clouds 28 1019 24 10000 2.1 220 02:47 25.05.2020
2479 Clouds 28 1019 24 10000 2.1 230 02:20 25.05.2020
2480 Clouds 29 1019 26 10000 2.6 210 01:42 25.05.2020
2481 Clouds 27 1020 32 10000 2.1 260 00:47 25.05.2020
2482 Clouds 29 1020 28 10000 3.1 240 00:26 25.05.2020
2483 Clouds 30 1020 27 10000 2.6 230 23:58 24.05.2020
2484 Clouds 30 1019 27 10000 2.1 260 23:39 24.05.2020
2485 Clouds 30 1019 27 10000 2.1 260 23:39 24.05.2020
2486 Clouds 30 1019 27 10000 2.1 260 23:39 24.05.2020
2487 Clouds 30 1019 27 10000 2.1 260 23:39 24.05.2020
2488 Clouds 30 1019 27 10000 2.1 260 23:20 24.05.2020
2489 Clouds 30 1019 27 10000 2.1 260 23:20 24.05.2020
2490 Clouds 32 1019 24 10000 3.1 330 22:55 24.05.2020
2491 Clouds 33 1018 22 10000 4.1 340 22:37 24.05.2020
2492 Clouds 33 1018 22 10000 4.1 340 22:18 24.05.2020
2493 Clouds 33 1018 22 10000 5.1 320 21:54 24.05.2020
2494 Clouds 34 1017 23 10000 5.1 320 21:36 24.05.2020
2495 Clouds 34 1017 23 10000 5.1 320 21:18 24.05.2020
2496 Clouds 35 1017 21 10000 5.7 320 20:42 24.05.2020
2497 Clouds 36 1016 23 10000 5.7 310 20:21 24.05.2020
2498 Clouds 37 1016 20 10000 4.1 330 19:56 24.05.2020
2499 Clouds 37 1016 19 10000 4.6 330 19:37 24.05.2020
2500 Clouds 37 1016 19 10000 4.6 330 19:18 24.05.2020
2501 Clouds 38 1016 18 10000 3.1 290 18:42 24.05.2020
2502 Clouds 38 1016 16 10000 3.1 290 18:23 24.05.2020
2503 Clouds 39 1017 15 10000 3.1 290 17:57 24.05.2020
2504 Clouds 38 1017 16 10000 2.6 0 17:38 24.05.2020
2505 Clouds 38 1017 16 10000 2.6 0 17:19 24.05.2020
2506 Clouds 38 1017 17 10000 2.6 0 16:56 24.05.2020
2507 Clouds 38 1017 17 10000 2.6 0 16:56 24.05.2020
2508 Clouds 38 1017 17 10000 4.1 280 16:36 24.05.2020
2509 Clouds 38 1017 17 10000 4.1 280 16:18 24.05.2020
2510 Clouds 38 1018 18 10000 3.6 0 15:55 24.05.2020
2511 Clouds 36 1018 20 10000 4.1 310 15:36 24.05.2020
2512 Clouds 36 1018 20 10000 4.1 310 15:18 24.05.2020
2513 Clear 35 1019 24 10000 3.1 320 14:41 24.05.2020
2514 Clouds 36 1018 20 10000 3.6 300 14:41 24.05.2020
2515 Clear 35 1019 24 10000 3.1 320 14:22 24.05.2020
2516 Clear 34 1019 28 10000 3.1 290 13:56 24.05.2020
2517 Clear 34 1019 28 10000 2.6 300 13:38 24.05.2020
2518 Clear 34 1019 28 10000 2.6 300 13:19 24.05.2020
2519 Clear 33 1019 33 10000 3.1 290 12:56 24.05.2020
2520 Clear 31 1019 38 10000 2.1 310 12:37 24.05.2020
2521 Clear 31 1019 38 10000 2.1 310 12:19 24.05.2020
2522 Clear 30 1019 40 10000 2.6 310 11:54 24.05.2020
2523 Clear 29 1019 42 10000 1.5 270 11:36 24.05.2020
2524 Clear 29 1019 42 10000 1.5 270 11:18 24.05.2020
2525 Clear 28 1018 42 10000 2.1 280 10:42 24.05.2020
2526 Clear 27 1018 44 10000 1.5 280 10:23 24.05.2020
2527 Clear 27 1018 44 10000 1 0 09:58 24.05.2020
2528 Clear 26 1018 47 10000 1.5 30 09:40 24.05.2020
2529 Clear 26 1018 47 10000 1.5 30 09:18 24.05.2020
2530 Clear 24 1018 53 10000 1.5 50 08:42 24.05.2020
2531 Clouds 22 1018 56 10000 0.5 0 08:24 24.05.2020
2532 Clouds 22 1018 56 10000 1.5 70 07:59 24.05.2020
2533 Clouds 24 1018 50 10000 1.5 120 07:40 24.05.2020
2534 Clouds 24 1018 50 10000 1.5 120 07:21 24.05.2020
2535 Clouds 24 1017 50 10000 0.5 0 06:39 24.05.2020
2536 Clouds 25 1018 44 10000 1.5 220 05:50 24.05.2020
2537 Clouds 25 1018 44 10000 3.1 240 03:58 24.05.2020
2538 Clouds 26 1019 44 10000 2.1 230 03:39 24.05.2020
2539 Clear 27 1019 42 10000 3.6 300 02:26 24.05.2020
2540 Clear 28 1019 39 10000 2.6 230 01:32 24.05.2020
2541 Clouds 30 1019 30 10000 2.1 30 00:38 24.05.2020
2542 Clouds 30 1019 30 10000 2.1 30 00:20 24.05.2020
2543 Clouds 31 1018 33 8000 3.6 10 23:40 23.05.2020
2544 Clouds 31 1018 33 8000 3.6 10 23:21 23.05.2020
2545 Clouds 32 1018 31 8000 4.6 360 22:57 23.05.2020
2546 Clouds 33 1018 29 8000 4.6 350 22:37 23.05.2020
2547 Clouds 33 1018 29 8000 4.6 350 22:19 23.05.2020
2548 Clouds 34 1017 26 8000 5.1 340 21:57 23.05.2020
2549 Clouds 36 1017 19 8000 4.6 340 21:37 23.05.2020
2550 Clouds 36 1017 19 8000 4.6 340 21:19 23.05.2020
2551 Clouds 36 1017 19 8000 4.1 350 20:55 23.05.2020
2552 Clouds 37 1017 18 8000 4.1 350 20:36 23.05.2020
2553 Clouds 37 1017 18 8000 4.1 350 20:18 23.05.2020
2554 Clouds 38 1017 16 8000 3.1 330 19:41 23.05.2020
2555 Clouds 38 1017 16 8000 3.1 330 19:19 23.05.2020
2556 Clouds 38 1017 16 8000 3.6 320 18:56 23.05.2020
2557 Clouds 38 1017 17 8000 3.1 0 18:37 23.05.2020
2558 Clouds 38 1017 17 8000 3.1 0 18:19 23.05.2020
2559 Clouds 38 1018 15 8000 3.6 320 17:54 23.05.2020
2560 Clouds 38 1018 16 8000 2.1 0 17:36 23.05.2020
2561 Clouds 38 1018 16 8000 2.1 0 17:18 23.05.2020
2562 Clouds 38 1018 17 8000 3.1 300 16:55 23.05.2020
2563 Clouds 38 1018 18 8000 1.5 290 16:37 23.05.2020
2564 Clouds 38 1018 18 8000 1.5 290 16:18 23.05.2020
2565 Clouds 37 1019 22 8000 2.1 0 15:41 23.05.2020
2566 Clouds 36 1019 25 8000 2.1 0 15:23 23.05.2020
2567 Clear 35 1019 26 10000 1.5 0 14:43 23.05.2020
2568 Clear 35 1020 30 10000 1.5 0 14:24 23.05.2020
2569 Clear 34 1020 34 10000 1 0 13:57 23.05.2020
2570 Clear 32 1021 38 10000 2.1 310 13:38 23.05.2020
2571 Clear 32 1021 38 10000 2.1 310 13:18 23.05.2020
2572 Clear 31 1021 40 10000 2.1 0 12:41 23.05.2020
2573 Clear 31 1021 43 10000 1.5 360 12:20 23.05.2020
2574 Clear 29 1021 45 0 1.5 20 11:59 23.05.2020
2575 Clear 29 1021 45 0 1.5 20 11:59 23.05.2020
2576 Clear 28 1021 51 0 2.1 350 11:40 23.05.2020
2577 Clear 28 1021 51 0 2.1 350 11:19 23.05.2020
2578 Clear 27 1021 51 0 1 0 10:56 23.05.2020
2579 Clear 26 1021 57 10000 1.5 300 10:37 23.05.2020
2580 Clear 26 1021 57 10000 1.5 300 10:18 23.05.2020
2581 Clear 25 1020 57 10000 1 0 09:55 23.05.2020
2582 Clear 24 1020 60 10000 1.5 70 09:37 23.05.2020
2583 Clouds 24 1020 60 10000 1.5 70 09:18 23.05.2020
2584 Clouds 21 1020 68 10000 1 0 08:41 23.05.2020
2585 Clouds 21 1020 68 10000 1 0 08:19 23.05.2020
2586 Clouds 21 1020 68 10000 1 0 07:45 23.05.2020
2587 Clear 21 1020 68 10000 1 0 07:27 23.05.2020
2588 Clear 23 1020 64 10000 1.5 220 06:43 23.05.2020
2589 Clear 22 1020 64 10000 1.5 250 05:59 23.05.2020
2590 Clear 24 1020 57 10000 2.6 240 03:55 23.05.2020
2591 Clear 23 1020 56 10000 2.1 260 03:26 23.05.2020
2592 Clear 23 1020 56 10000 2.1 260 03:26 23.05.2020
2593 Clear 26 1021 47 10000 2.6 240 02:40 23.05.2020
2594 Clear 27 1021 44 10000 3.6 240 01:50 23.05.2020
2595 Clear 28 1021 42 10000 1 0 01:18 23.05.2020
2596 Clear 28 1021 42 10000 1.5 70 00:42 23.05.2020
2597 Clear 29 1021 39 10000 3.6 40 00:19 23.05.2020
2598 Clear 30 1020 37 10000 4.6 30 23:44 22.05.2020
2599 Clear 31 1020 33 10000 4.1 10 23:22 22.05.2020
2600 Clouds 31 1019 33 8000 4.6 10 22:59 22.05.2020
2601 Clear 30 1021 28 0 5.49 18 22:40 22.05.2020
2602 Clear 32 1020 20 0 6.03 11 22:21 22.05.2020
2603 Clear 32 1020 20 0 6.03 11 21:54 22.05.2020
2604 Clouds 36 1018 19 8000 4.1 50 21:36 22.05.2020
2605 Clouds 36 1018 19 8000 4.1 50 21:18 22.05.2020
2606 Clouds 36 1018 19 8000 4.1 50 20:42 22.05.2020
2607 Clouds 36 1018 19 8000 4.1 50 20:20 22.05.2020
2608 Clouds 36 1018 19 8000 4.1 50 20:20 22.05.2020
2609 Clouds 37 1018 18 8000 3.1 0 19:45 22.05.2020
2610 Clouds 37 1018 19 8000 3.1 30 19:26 22.05.2020
2611 Clouds 38 1018 18 8000 2.1 30 18:57 22.05.2020
2612 Clouds 37 1018 19 8000 3.6 80 18:38 22.05.2020
2613 Clouds 37 1018 19 8000 3.6 80 18:19 22.05.2020
2614 Clouds 37 1019 22 8000 1.5 0 17:40 22.05.2020
2615 Clouds 37 1019 22 8000 1.5 0 17:20 22.05.2020
2616 Clouds 37 1019 23 8000 2.6 90 16:57 22.05.2020
2617 Clouds 36 1019 23 8000 2.6 0 16:39 22.05.2020
2618 Clouds 36 1019 23 8000 2.6 0 16:39 22.05.2020
2619 Clouds 36 1019 23 8000 2.6 0 16:19 22.05.2020
2620 Clouds 35 1020 26 8000 2.1 0 15:54 22.05.2020
2621 Clouds 35 1020 26 8000 2.1 0 15:54 22.05.2020
2622 Clouds 34 1020 30 8000 1 0 15:36 22.05.2020
2623 Clouds 34 1020 30 8000 1 0 15:18 22.05.2020
2624 Clear 33 1021 33 8000 2.6 340 14:39 22.05.2020
2625 Clear 33 1021 33 8000 2.6 340 14:20 22.05.2020
2626 Clear 32 1021 33 8000 2.1 0 13:42 22.05.2020
2627 Clear 32 1021 33 8000 2.1 0 13:42 22.05.2020
2628 Clear 30 1021 40 10000 2.6 0 13:19 22.05.2020
2629 Clear 30 1021 40 10000 2.1 0 12:43 22.05.2020
2630 Clear 28 1021 42 10000 2.1 0 12:24 22.05.2020
2631 Clear 28 1021 42 10000 2.1 0 12:24 22.05.2020
2632 Clear 27 1021 44 10000 2.1 0 11:48 22.05.2020
2633 Clear 26 1021 47 10000 1 0 11:22 22.05.2020
2634 Clear 25 1021 53 10000 1 0 10:59 22.05.2020
2635 Clear 24 1021 57 10000 1 0 10:39 22.05.2020
2636 Clear 24 1021 57 10000 1 0 10:20 22.05.2020
2637 Clear 23 1020 60 10000 0.5 0 09:55 22.05.2020
2638 Clear 20 1020 68 10000 1.5 250 09:36 22.05.2020
2639 Clear 20 1020 68 10000 1.5 250 09:18 22.05.2020
2640 Clear 19 1020 72 10000 1.5 280 08:42 22.05.2020
2641 Clouds 19 1020 68 10000 1.5 240 08:20 22.05.2020
2642 Clouds 18 1020 72 10000 1.5 250 07:52 22.05.2020
2643 Clouds 19 1020 68 10000 1.5 240 07:24 22.05.2020
2644 Clouds 19 1020 68 10000 1.5 250 06:54 22.05.2020
2645 Clouds 19 1019 68 10000 1 0 06:32 22.05.2020
2646 Clouds 20 1019 64 10000 2.1 250 05:38 22.05.2020
2647 Clouds 20 1019 64 10000 1.5 260 04:50 22.05.2020
2648 Clouds 21 1020 60 10000 2.1 250 04:19 22.05.2020
2649 Clouds 22 1020 56 10000 2.6 230 03:41 22.05.2020
2650 Clouds 22 1021 56 10000 2.1 240 02:59 22.05.2020
2651 Clouds 22 1021 60 10000 2.1 250 01:49 22.05.2020
2652 Clouds 23 1021 53 10000 2.1 240 01:24 22.05.2020
2653 Clouds 25 1021 47 10000 2.6 270 00:34 22.05.2020
2654 -273 0 0 0 0 0 23:59 21.05.2020
2655 Clouds 27 1021 42 10000 3.1 270 23:40 21.05.2020
2656 Clouds 27 1021 42 10000 3.1 270 23:22 21.05.2020
2657 Clouds 28 1020 39 10000 3.6 20 22:57 21.05.2020
2658 Clouds 29 1019 39 10000 5.1 30 22:37 21.05.2020
2659 Clouds 29 1019 39 10000 5.1 30 22:19 21.05.2020
2660 Clouds 30 1019 37 10000 4.6 10 21:48 21.05.2020
2661 Clouds 31 1018 35 10000 6.7 360 21:27 21.05.2020
2662 Clouds 33 1017 33 10000 6.7 10 20:58 21.05.2020
2663 Clouds 36 1017 16 10000 4.1 30 20:40 21.05.2020
2664 Clouds 36 1017 16 10000 4.1 30 20:21 21.05.2020
2665 Clouds 36 1017 16 10000 3.6 20 19:40 21.05.2020
2666 Clouds 36 1017 16 10000 3.6 20 19:20 21.05.2020
2667 Clouds 36 1017 18 10000 4.1 50 18:58 21.05.2020
2668 Clouds 36 1017 18 10000 3.1 20 18:37 21.05.2020
2669 Clouds 36 1017 18 10000 3.1 20 18:18 21.05.2020
2670 Clouds 36 1017 20 10000 2.6 0 17:54 21.05.2020
2671 Clouds 36 1017 23 10000 2.6 310 17:36 21.05.2020
2672 Clouds 36 1017 23 10000 2.6 310 17:18 21.05.2020
2673 Clouds 35 1017 26 10000 2.1 0 16:40 21.05.2020
2674 Clouds 35 1017 26 10000 2.1 0 16:21 21.05.2020
2675 Clouds 33 1018 31 10000 1.5 0 15:41 21.05.2020
2676 Clouds 33 1018 31 10000 1.5 0 15:22 21.05.2020
2677 Clouds 30 1019 37 10000 2.6 350 14:41 21.05.2020
2678 Clouds 30 1019 37 10000 2.6 350 14:23 21.05.2020
2679 Clouds 29 1019 39 10000 2.6 0 13:56 21.05.2020
2680 Clear 27 1019 44 10000 2.1 320 13:37 21.05.2020
2681 Clear 27 1019 44 10000 2.1 320 13:18 21.05.2020
2682 Clear 26 1019 50 10000 1.5 0 12:39 21.05.2020
2683 Clear 26 1019 50 10000 1.5 0 12:20 21.05.2020
2684 Clear 25 1019 53 10000 2.1 310 11:57 21.05.2020
2685 Clear 24 1019 57 10000 0.5 0 11:39 21.05.2020
2686 Clear 24 1019 57 10000 0.5 0 11:39 21.05.2020
2687 Clear 24 1019 57 10000 0.5 0 11:20 21.05.2020
2688 Clear 22 1019 64 10000 1 0 10:43 21.05.2020
2689 Clear 20 1019 72 10000 2.1 270 10:23 21.05.2020
2690 Clear 19 1019 77 10000 2.1 250 09:58 21.05.2020
2691 Clear 18 1019 77 10000 2.6 240 09:39 21.05.2020
2692 Clear 18 1019 77 10000 2.6 240 09:21 21.05.2020
2693 Clear 17 1019 77 10000 3.1 240 08:50 21.05.2020
2694 Clear 17 1019 77 10000 3.1 240 08:31 21.05.2020
2695 Clear 16 1019 77 10000 2.6 250 07:54 21.05.2020
2696 Clear 17 1018 72 10000 3.1 240 07:36 21.05.2020
2697 Clear 17 1018 72 10000 3.1 240 07:18 21.05.2020
2698 Clear 18 1018 63 10000 3.1 240 06:26 21.05.2020
2699 Clear 19 1018 59 10000 2.6 230 05:50 21.05.2020
2700 Clear 19 1018 59 10000 2.6 270 03:47 21.05.2020
2701 Clear 20 1018 56 10000 1.5 250 03:20 21.05.2020
2702 Clear 21 1019 52 10000 1.5 250 02:31 21.05.2020
2703 Clouds 23 1019 46 8000 1.5 240 01:50 21.05.2020
2704 Clouds 23 1020 46 8000 1 0 01:24 21.05.2020
2705 Clouds 24 1020 44 8000 1.5 330 00:54 21.05.2020
2706 Clouds 25 1020 38 8000 2.6 360 00:26 21.05.2020
2707 Clouds 26 1020 39 8000 2.6 360 23:56 20.05.2020
2708 Clouds 26 1019 39 8000 3.1 30 23:37 20.05.2020
2709 Clouds 26 1019 39 8000 3.1 30 23:18 20.05.2020
2710 Clouds 27 1019 36 8000 3.6 20 22:42 20.05.2020
2711 Clouds 27 1018 36 8000 4.1 340 22:23 20.05.2020
2712 Clouds 28 1017 37 8000 4.6 340 21:42 20.05.2020
2713 Clouds 30 1016 33 8000 5.1 350 21:23 20.05.2020
2714 Clouds 31 1016 31 8000 5.1 360 20:59 20.05.2020
2715 Clouds 32 1015 29 8000 6.2 350 20:41 20.05.2020
2716 Clouds 32 1015 29 8000 6.2 350 20:22 20.05.2020
2717 Clouds 34 1014 23 8000 5.7 320 19:42 20.05.2020
2718 Clouds 34 1014 23 8000 5.7 320 19:23 20.05.2020
2719 Clouds 36 1014 19 8000 5.7 310 18:58 20.05.2020
2720 Clouds 36 1014 19 8000 5.7 310 18:39 20.05.2020
2721 Clouds 36 1014 19 8000 5.7 310 18:20 20.05.2020
2722 Clouds 37 1014 16 8000 8.2 280 17:39 20.05.2020
2723 Clouds 37 1014 16 8000 8.2 280 17:21 20.05.2020
2724 Clouds 36 1014 16 8000 6.7 290 16:43 20.05.2020
2725 Clouds 36 1014 15 8000 7.2 280 16:24 20.05.2020
2726 Clouds 36 1015 14 8000 6.2 300 15:59 20.05.2020
2727 Clouds 36 1015 14 8000 4.6 290 15:40 20.05.2020
2728 Clouds 36 1015 14 8000 4.6 290 15:22 20.05.2020
2729 Clouds 36 1015 14 8000 2.6 0 14:43 20.05.2020
2730 Clear 36 1015 15 8000 1.5 0 14:21 20.05.2020
2731 Clear 34 1016 20 8000 1.5 0 13:41 20.05.2020
2732 Clear 33 1016 22 10000 1.5 0 13:20 20.05.2020
2733 Clear 31 1016 25 10000 2.6 70 12:58 20.05.2020
2734 Clear 30 1016 27 10000 3.1 40 12:39 20.05.2020
2735 Clear 30 1016 27 10000 3.1 40 12:19 20.05.2020
2736 Clear 28 1016 32 10000 2.6 340 11:36 20.05.2020
2737 Clear 28 1016 32 10000 2.6 340 11:36 20.05.2020
2738 Clear 28 1016 32 10000 2.6 340 11:18 20.05.2020
2739 Clear 28 1016 34 10000 1 0 10:43 20.05.2020
2740 Clear 26 1016 36 10000 2.1 100 10:20 20.05.2020
2741 Clear 24 1016 44 10000 2.6 110 09:45 20.05.2020
2742 Clear 22 1016 46 10000 2.1 30 09:22 20.05.2020
2743 Clear 20 1016 52 10000 2.1 90 08:58 20.05.2020
2744 Clear 19 1015 55 10000 2.6 90 08:40 20.05.2020
2745 Clear 19 1015 55 10000 2.6 90 08:18 20.05.2020
2746 Clear 19 1015 55 10000 1.5 60 07:46 20.05.2020
2747 Clear 19 1015 55 10000 2.1 90 07:21 20.05.2020
2748 Clear 19 1015 55 10000 2.1 100 06:43 20.05.2020
2749 Clear 22 1016 43 10000 1 0 05:24 20.05.2020
2750 Clear 22 1016 46 10000 1 0 04:33 20.05.2020
2751 Clear 22 1016 43 10000 0.5 0 03:52 20.05.2020
2752 Clear 25 1017 38 10000 0.5 0 02:32 20.05.2020
2753 Clouds 26 1018 36 10000 1.5 70 01:31 20.05.2020
2754 Clouds 27 1018 34 8000 3.1 80 00:45 20.05.2020
2755 Clouds 28 1018 30 8000 2.6 60 00:24 20.05.2020
2756 Clouds 29 1017 28 8000 3.6 30 23:45 19.05.2020
2757 Clouds 29 1017 28 8000 4.1 30 23:20 19.05.2020
2758 Clouds 31 1016 18 8000 2.6 30 22:56 19.05.2020
2759 Clouds 32 1015 17 8000 4.6 50 22:38 19.05.2020
2760 Clouds 32 1015 17 8000 4.6 50 22:20 19.05.2020
2761 Clouds 32 1015 17 8000 4.6 50 22:20 19.05.2020
2762 Clouds 33 1015 16 8000 4.6 50 21:58 19.05.2020
2763 Clouds 34 1014 16 8000 4.6 30 21:38 19.05.2020
2764 Clouds 34 1014 16 8000 4.6 30 21:20 19.05.2020
2765 Clouds 35 1014 14 8000 2.6 50 20:58 19.05.2020
2766 Clouds 35 1014 14 8000 2.6 50 20:58 19.05.2020
2767 Clouds 35 1014 14 8000 2.6 0 20:40 19.05.2020
2768 Clouds 35 1014 14 8000 2.6 0 20:21 19.05.2020
2769 Clouds 36 1014 12 8000 2.1 60 19:55 19.05.2020
2770 Clouds 36 1014 12 8000 1.5 0 19:37 19.05.2020
2771 Clouds 36 1014 12 8000 1.5 0 19:37 19.05.2020
2772 Clear 36 1014 12 8000 1.5 0 19:19 19.05.2020
2773 Clear 36 1014 12 8000 2.1 70 18:42 19.05.2020
2774 Clear 36 1014 12 8000 1.5 0 18:20 19.05.2020
2775 Clear 36 1015 12 8000 3.1 360 17:44 19.05.2020
2776 Clear 36 1015 12 8000 2.1 0 17:22 19.05.2020
2777 Clear 36 1015 12 8000 3.1 0 16:59 19.05.2020
2778 Clear 36 1016 12 8000 3.6 360 16:39 19.05.2020
2779 Clear 36 1016 12 8000 3.6 360 16:20 19.05.2020
2780 Clear 35 1016 14 8000 3.6 0 15:47 19.05.2020
2781 Clear 36 1016 13 8000 1.5 0 15:23 19.05.2020
2782 Clear 35 1016 15 8000 2.6 0 14:58 19.05.2020
2783 Clear 34 1017 17 8000 2.6 0 14:40 19.05.2020
2784 Clouds 34 1017 17 8000 2.6 0 14:21 19.05.2020
2785 Clouds 34 1017 20 8000 2.6 30 13:58 19.05.2020
2786 Clouds 32 1018 24 8000 2.1 50 13:39 19.05.2020
2787 Clouds 32 1018 24 8000 2.1 50 13:21 19.05.2020
2788 Clouds 32 1018 24 8000 3.1 50 12:57 19.05.2020
2789 Clouds 30 1018 25 8000 3.1 70 12:38 19.05.2020
2790 Clouds 30 1018 25 8000 3.1 70 12:20 19.05.2020
2791 Clouds 30 1018 27 8000 2.6 90 11:55 19.05.2020
2792 Clouds 27 1018 39 8000 2.1 70 11:37 19.05.2020
2793 Clouds 27 1018 39 8000 2.1 70 11:18 19.05.2020
2794 Clouds 24 1018 44 10000 2.1 90 10:43 19.05.2020
2795 Clouds 24 1018 44 10000 2.1 90 10:23 19.05.2020
2796 Clouds 23 1018 43 10000 2.6 100 09:55 19.05.2020
2797 Clouds 21 1018 49 10000 2.6 80 09:37 19.05.2020
2798 Clouds 21 1018 49 10000 2.6 80 09:18 19.05.2020
2799 Clouds 19 1017 55 10000 2.6 70 08:41 19.05.2020
2800 Clouds 17 1017 63 10000 2.6 80 08:23 19.05.2020
2801 Clouds 17 1017 59 10000 2.6 80 07:42 19.05.2020
2802 Clouds 18 1017 55 10000 2.1 80 07:24 19.05.2020
2803 Clouds 18 1017 59 10000 2.1 80 06:41 19.05.2020
2804 Clouds 18 1017 59 10000 2.1 80 06:22 19.05.2020
2805 Clouds 19 1018 55 10000 2.1 90 05:40 19.05.2020
2806 Clouds 20 1018 52 10000 1 0 04:54 19.05.2020
2807 Clouds 20 1018 56 10000 2.1 90 03:44 19.05.2020
2808 Clouds 23 1020 49 10000 2.1 70 01:23 19.05.2020
2809 Clouds 24 1019 47 10000 3.1 70 00:43 19.05.2020
2810 Clouds 25 1019 44 10000 4.1 50 00:21 19.05.2020
2811 Clouds 27 1019 32 10000 5.7 40 23:40 18.05.2020
2812 Clouds 27 1019 32 10000 5.7 40 23:21 18.05.2020
2813 Clouds 28 1018 21 10000 3.1 20 22:59 18.05.2020
2814 Clouds 29 1018 20 10000 4.1 20 22:40 18.05.2020
2815 Clouds 29 1018 20 10000 4.1 20 22:21 18.05.2020
2816 Clouds 30 1017 20 10000 4.6 20 21:43 18.05.2020
2817 Clouds 30 1017 20 10000 4.6 20 21:22 18.05.2020
2818 Clouds 31 1017 19 10000 4.1 40 20:58 18.05.2020
2819 Clouds 31 1017 19 10000 4.1 40 20:58 18.05.2020
2820 Clouds 32 1017 19 10000 2.1 0 20:40 18.05.2020
2821 Clouds 32 1017 19 10000 2.1 0 20:21 18.05.2020
2822 Clouds 32 1017 19 10000 2.1 0 20:21 18.05.2020
2823 Clouds 31 1017 20 10000 3.1 20 19:57 18.05.2020
2824 Clouds 31 1017 20 10000 3.1 40 19:38 18.05.2020
2825 Clouds 31 1017 20 10000 3.1 40 19:18 18.05.2020
2826 Clouds 33 1017 19 10000 3.1 330 18:45 18.05.2020
2827 Clouds 33 1017 19 10000 2.1 320 18:24 18.05.2020
2828 Clouds 33 1018 21 10000 3.6 10 17:40 18.05.2020
2829 Clouds 33 1018 21 10000 3.6 10 17:18 18.05.2020
2830 Clouds 33 1018 21 10000 1 0 16:57 18.05.2020
2831 Clouds 32 1018 22 10000 2.1 0 16:38 18.05.2020
2832 Clouds 32 1018 22 10000 2.1 0 16:18 18.05.2020
2833 Clouds 32 1018 24 10000 2.1 0 15:57 18.05.2020
2834 Clouds 30 1019 25 10000 4.1 50 15:37 18.05.2020
2835 Clear 30 1019 25 10000 4.1 50 15:19 18.05.2020
2836 Clear 29 1019 26 10000 3.6 60 14:43 18.05.2020
2837 Clouds 28 1019 32 10000 3.1 40 14:25 18.05.2020
2838 Clouds 28 1020 34 10000 3.6 50 13:58 18.05.2020
2839 Clouds 27 1020 36 10000 4.1 70 13:39 18.05.2020
2840 Clouds 27 1020 36 10000 4.1 70 13:19 18.05.2020
2841 Clouds 26 1020 41 8000 3.6 60 12:56 18.05.2020
2842 Clouds 25 1020 44 8000 3.6 50 12:38 18.05.2020
2843 Clouds 25 1020 44 8000 3.6 50 12:18 18.05.2020
2844 Clouds 24 1020 50 8000 3.1 60 11:47 18.05.2020
2845 Clouds 22 1021 53 8000 2.6 70 11:27 18.05.2020
2846 Clouds 21 1020 60 8000 2.6 70 10:58 18.05.2020
2847 Clouds 20 1020 64 10000 3.1 90 10:40 18.05.2020
2848 Clouds 20 1020 64 10000 3.1 90 10:22 18.05.2020
2849 Clouds 19 1020 68 10000 3.1 80 09:43 18.05.2020
2850 Clouds 17 1020 77 10000 3.6 90 09:24 18.05.2020
2851 Clouds 17 1020 77 10000 3.1 90 08:45 18.05.2020
2852 Clouds 16 1020 77 10000 2.6 100 08:26 18.05.2020
2853 Clouds 16 1019 77 10000 3.1 90 07:54 18.05.2020
2854 Clouds 16 1019 77 10000 3.1 80 07:26 18.05.2020
2855 Clouds 16 1019 77 10000 3.1 80 06:51 18.05.2020
2856 Clouds 16 1019 77 10000 3.1 100 06:33 18.05.2020
2857 Clouds 17 1019 72 10000 2.6 90 05:49 18.05.2020
2858 Clouds 17 1019 72 10000 2.6 80 04:52 18.05.2020
2859 Clouds 18 1020 68 10000 3.6 70 03:31 18.05.2020
2860 Clouds 19 1020 63 10000 4.6 60 02:21 18.05.2020
2861 Clouds 21 1020 60 10000 5.7 50 00:55 18.05.2020
2862 Clouds 21 1020 60 10000 4.6 40 00:25 18.05.2020
2863 Clouds 22 1020 56 10000 6.7 40 23:57 17.05.2020
2864 Clouds 23 1019 49 10000 6.7 30 23:39 17.05.2020
2865 Clear 23 1019 49 10000 6.7 30 23:20 17.05.2020
2866 Clouds 24 1019 38 10000 4.6 40 22:56 17.05.2020
2867 Clouds 25 1019 31 10000 3.6 40 22:37 17.05.2020
2868 Clouds 25 1019 31 10000 3.6 40 22:19 17.05.2020
2869 Clouds 25 1018 31 10000 3.6 40 21:55 17.05.2020
2870 Clouds 26 1018 29 10000 3.6 40 21:36 17.05.2020
2871 Clouds 26 1018 29 10000 3.6 40 21:18 17.05.2020
2872 Clouds 27 1018 28 10000 3.6 40 20:41 17.05.2020
2873 Clouds 27 1018 28 10000 3.6 30 20:20 17.05.2020
2874 Clouds 27 1018 30 10000 3.6 0 19:56 17.05.2020
2875 Clouds 27 1017 30 10000 3.1 40 19:37 17.05.2020
2876 Clouds 27 1017 30 10000 3.1 40 19:19 17.05.2020
2877 Clouds 28 1017 28 10000 2.6 0 18:41 17.05.2020
2878 Clouds 27 1017 30 10000 3.1 40 18:23 17.05.2020
2879 Clouds 28 1017 30 10000 3.1 70 17:58 17.05.2020
2880 Clouds 26 1018 31 10000 4.1 50 17:39 17.05.2020
2881 Clouds 26 1018 31 10000 4.1 50 17:18 17.05.2020
2882 Clouds 26 1018 34 10000 2.6 30 16:40 17.05.2020
2883 Clouds 26 1018 34 10000 2.6 30 16:20 17.05.2020
2884 Clouds 26 1018 34 10000 3.6 0 15:58 17.05.2020
2885 Clouds 25 1018 36 10000 3.6 0 15:39 17.05.2020
2886 Clouds 25 1018 36 10000 3.6 0 15:20 17.05.2020
2887 Clouds 25 1019 36 10000 2.6 0 14:43 17.05.2020
2888 Clouds 24 1019 38 10000 4.1 30 14:24 17.05.2020
2889 Clouds 24 1019 41 10000 3.1 0 13:58 17.05.2020
2890 Clouds 23 1019 43 8000 4.1 50 13:40 17.05.2020
2891 Clouds 23 1019 43 8000 4.1 50 13:19 17.05.2020
2892 Clouds 14 1018 82 10000 2.1 80 04:41 17.05.2020
2893 Clouds 16 1019 72 10000 4.1 50 02:39 17.05.2020
2894 Clouds 16 1019 72 10000 4.1 50 02:19 17.05.2020
2895 Clouds 16 1019 77 10000 5.7 50 01:44 17.05.2020
2896 Clouds 18 1019 68 10000 3.6 30 00:40 17.05.2020
2897 Clouds 18 1019 68 10000 3.6 30 00:19 17.05.2020
2898 Clouds 19 1018 55 10000 4.1 10 23:40 16.05.2020
2899 Clouds 19 1018 55 10000 4.1 10 23:20 16.05.2020
2900 Clouds 20 1018 49 10000 2.6 10 22:58 16.05.2020
2901 Clouds 20 1017 49 10000 4.1 20 22:40 16.05.2020
2902 Clouds 20 1017 49 10000 4.1 20 22:20 16.05.2020
2903 Clouds 20 1017 49 10000 3.6 20 21:46 16.05.2020
2904 Clouds 20 1017 49 10000 3.6 20 21:46 16.05.2020
2905 Clouds 21 1017 46 10000 3.1 360 21:27 16.05.2020
2906 Clouds 21 1017 49 10000 3.1 360 20:59 16.05.2020
2907 Clouds 22 1016 46 10000 3.6 350 20:41 16.05.2020
2908 Clouds 22 1016 46 10000 3.6 350 20:22 16.05.2020
2909 Clouds 22 1016 46 10000 3.6 30 19:58 16.05.2020
2910 Clouds 21 1017 49 10000 2.6 30 19:40 16.05.2020
2911 Clouds 21 1017 49 10000 2.6 30 19:22 16.05.2020
2912 Clouds 21 1017 49 10000 3.1 350 18:42 16.05.2020
2913 Clouds 21 1017 49 10000 3.1 10 18:24 16.05.2020
2914 Clouds 22 1017 49 10000 3.6 360 17:57 16.05.2020
2915 Clouds 21 1017 52 10000 4.1 350 17:38 16.05.2020
2916 Clouds 21 1017 52 10000 4.1 350 17:19 16.05.2020
2917 Clouds 21 1017 52 10000 4.1 330 16:41 16.05.2020
2918 Clouds 21 1017 52 10000 4.1 330 16:22 16.05.2020
2919 Clouds 20 1017 52 8000 5.1 320 15:58 16.05.2020
2920 Clouds 20 1018 49 8000 5.1 330 15:39 16.05.2020
2921 Clouds 20 1018 49 8000 5.1 330 15:19 16.05.2020
2922 Clouds 19 1018 59 8000 3.6 330 14:46 16.05.2020
2923 Clouds 18 1018 68 8000 5.1 350 14:21 16.05.2020
2924 Clouds 18 1018 68 8000 4.1 330 13:58 16.05.2020
2925 Clouds 19 1018 68 8000 4.6 300 13:40 16.05.2020
2926 Clouds 19 1018 68 8000 4.6 300 13:22 16.05.2020
2927 Clouds 18 1018 68 8000 4.1 290 12:45 16.05.2020
2928 Clouds 18 1018 68 8000 2.6 270 12:22 16.05.2020
2929 Clouds 17 1018 72 8000 3.6 260 11:59 16.05.2020
2930 Clouds 16 1017 77 8000 4.1 260 11:38 16.05.2020
2931 Clouds 16 1017 77 8000 4.1 260 11:20 16.05.2020
2932 Clouds 15 1017 87 8000 4.1 260 10:56 16.05.2020
2933 Clouds 14 1017 93 8000 3.6 250 10:37 16.05.2020
2934 Clouds 14 1017 93 8000 3.6 250 10:18 16.05.2020
2935 Clouds 14 1017 93 8000 3.6 240 09:44 16.05.2020
2936 Clouds 13 1017 93 8000 3.1 250 09:26 16.05.2020
2937 Clouds 13 1016 93 8000 3.1 270 08:43 16.05.2020
2938 Clouds 14 1016 82 8000 4.1 260 08:22 16.05.2020
2939 Clouds 14 1016 82 8000 3.6 240 07:55 16.05.2020
2940 Clouds 14 1015 82 8000 3.6 220 07:37 16.05.2020
2941 Clouds 14 1015 82 8000 3.6 220 07:18 16.05.2020
2942 Clouds 14 1015 82 8000 3.6 210 06:43 16.05.2020
2943 Clouds 13 1015 87 8000 2.6 230 06:18 16.05.2020
2944 Clouds 13 1015 87 8000 2.1 240 05:39 16.05.2020
2945 Clouds 13 1015 87 8000 3.1 240 04:30 16.05.2020
2946 Clouds 14 1016 82 8000 5.1 260 02:59 16.05.2020
2947 Clouds 14 1016 87 7000 4.6 250 02:27 16.05.2020
2948 Clouds 14 1016 87 7000 4.6 250 01:56 16.05.2020
2949 Clouds 14 1017 87 8000 4.1 240 01:33 16.05.2020
2950 Clouds 14 1017 87 8000 5.1 250 00:54 16.05.2020
2951 Clouds 15 1016 82 8000 4.6 250 00:24 16.05.2020
2952 Clouds 15 1016 77 8000 5.1 260 23:56 15.05.2020
2953 Clouds 15 1016 77 8000 6.2 270 23:37 15.05.2020
2954 Clouds 15 1016 77 8000 6.2 270 23:18 15.05.2020
2955 Clouds 16 1015 67 8000 5.1 280 22:40 15.05.2020
2956 Clouds 16 1015 67 8000 5.1 280 22:20 15.05.2020
2957 Clouds 17 1015 59 8000 6.7 280 21:40 15.05.2020
2958 Clouds 17 1015 59 8000 6.7 280 21:22 15.05.2020
2959 Clouds 17 1014 59 8000 7.2 280 20:59 15.05.2020
2960 Clouds 17 1014 59 8000 7.2 280 20:59 15.05.2020
2961 Clouds 17 1014 59 8000 7.2 280 20:41 15.05.2020
2962 Clouds 18 1014 55 8000 8.2 280 20:23 15.05.2020
2963 Clouds 18 1014 55 8000 7.7 290 19:59 15.05.2020
2964 Clouds 18 1014 59 8000 8.2 280 19:41 15.05.2020
2965 Clouds 18 1014 59 8000 8.2 280 19:22 15.05.2020
2966 Clouds 19 1013 55 8000 8.7 290 18:47 15.05.2020
2967 Clouds 19 1013 55 8000 8.7 280 18:27 15.05.2020
2968 Clouds 20 1013 56 8000 8.2 280 17:41 15.05.2020
2969 Clouds 20 1013 56 8000 8.2 280 17:20 15.05.2020
2970 Clouds 20 1013 56 8000 7.2 290 16:58 15.05.2020
2971 Clouds 19 1014 55 8000 8.2 280 16:39 15.05.2020
2972 Clouds 19 1014 55 8000 8.2 280 16:20 15.05.2020
2973 Clouds 19 1014 59 8000 5.7 280 15:59 15.05.2020
2974 Clouds 19 1014 68 8000 6.7 260 15:40 15.05.2020
2975 Clouds 19 1014 68 8000 6.7 260 15:20 15.05.2020
2976 Clouds 19 1014 68 8000 6.7 260 15:20 15.05.2020
2977 Clouds 18 1014 72 8000 7.2 260 14:55 15.05.2020
2978 Clouds 17 1014 77 7000 5.1 240 14:36 15.05.2020
2979 Clouds 17 1014 77 7000 5.1 240 14:18 15.05.2020
2980 Clouds 17 1014 77 7000 5.1 240 14:18 15.05.2020
2981 Rain 15 1014 87 5000 5.7 240 13:41 15.05.2020
2982 Clouds 16 1014 82 6000 7.7 250 13:20 15.05.2020
2983 Clouds 16 1014 82 6000 7.7 250 12:41 15.05.2020
2984 Rain 15 1014 87 4000 7.2 240 12:21 15.05.2020
2985 Rain 15 1014 82 3000 8.2 250 11:59 15.05.2020
2986 Clouds 15 1014 82 6000 8.2 250 11:40 15.05.2020
2987 Clouds 15 1014 82 6000 8.2 250 11:21 15.05.2020
2988 Rain 13 1014 87 6000 7.7 250 10:59 15.05.2020
2989 Rain 13 1014 87 6000 6.2 270 10:40 15.05.2020
2990 Rain 13 1014 87 6000 6.2 270 10:22 15.05.2020
2991 Clouds 13 1014 82 8000 4.6 260 09:59 15.05.2020
2992 Clouds 14 1013 67 8000 4.6 240 09:37 15.05.2020
2993 Clouds 14 1013 67 8000 4.6 240 09:37 15.05.2020
2994 Clouds 15 1013 58 8000 4.6 240 09:18 15.05.2020
2995 Clouds 15 1013 58 8000 4.6 240 08:57 15.05.2020
2996 Clouds 14 1012 58 8000 2.6 240 08:37 15.05.2020
2997 Clouds 14 1012 58 8000 2.6 240 08:18 15.05.2020
2998 Clouds 14 1012 58 8000 2.6 240 08:18 15.05.2020
2999 Clouds 14 1012 58 8000 3.1 230 07:43 15.05.2020
3000 Clouds 14 1012 58 8000 3.6 210 07:24 15.05.2020
3001 Clouds 14 1012 58 8000 3.1 220 06:41 15.05.2020
3002 Clouds 14 1013 58 8000 2.6 210 05:49 15.05.2020
3003 Clouds 13 1013 62 8000 3.6 240 04:27 15.05.2020
3004 Clouds 12 1013 66 8000 3.1 230 03:45 15.05.2020
3005 Clouds 12 1014 76 8000 3.6 270 02:30 15.05.2020
3006 Clouds 13 1014 71 8000 4.1 260 01:19 15.05.2020
3007 Clouds 14 1014 67 8000 5.1 260 00:46 15.05.2020
3008 Clouds 14 1014 62 8000 4.6 270 00:28 15.05.2020
3009 Clouds 14 1014 62 8000 5.1 270 23:44 14.05.2020
3010 Clouds 15 1014 67 8000 4.6 280 23:21 14.05.2020
3011 Clouds 15 1014 67 8000 4.1 280 22:57 14.05.2020
3012 Clouds 15 1013 72 8000 6.7 280 22:39 14.05.2020
3013 Clouds 15 1013 72 8000 6.7 280 22:19 14.05.2020
3014 Clouds 15 1013 72 8000 6.7 280 21:55 14.05.2020
3015 Clouds 15 1013 67 8000 6.7 280 21:37 14.05.2020
3016 Clouds 15 1013 67 8000 6.7 280 21:18 14.05.2020
3017 Clouds 16 1013 63 7000 8.2 270 20:42 14.05.2020
3018 Clouds 16 1013 59 7000 6.7 280 20:20 14.05.2020
3019 Clouds 16 1013 59 7000 6.7 280 20:20 14.05.2020
3020 Clouds 15 1013 62 5000 6.7 270 19:59 14.05.2020
3021 Clouds 17 1013 59 5000 7.7 270 19:39 14.05.2020
3022 Clouds 17 1013 59 5000 7.7 270 19:20 14.05.2020
3023 Clouds 17 1013 63 5000 7.2 290 18:58 14.05.2020
3024 Clouds 17 1013 63 5000 7.2 290 18:58 14.05.2020
3025 Clouds 17 1013 63 5000 7.2 290 18:58 14.05.2020
3026 Clouds 18 1012 52 6000 7.7 290 18:38 14.05.2020
3027 Clouds 18 1012 52 6000 7.7 290 18:20 14.05.2020
3028 Clouds 18 1012 55 6000 8.2 290 17:58 14.05.2020
3029 Dust 18 1012 55 5000 11.3 280 17:37 14.05.2020
3030 Dust 18 1012 55 5000 11.3 280 17:19 14.05.2020
3031 Dust 19 1011 55 4000 10.8 290 16:57 14.05.2020
3032 Dust 19 1011 55 4000 10.8 290 16:57 14.05.2020
3033 Dust 20 1011 49 4000 10.8 280 16:37 14.05.2020
3034 Dust 20 1011 49 4000 10.8 280 16:18 14.05.2020
3035 Clouds 21 1011 43 8000 9.3 280 15:55 14.05.2020
3036 Clouds 20 1012 45 8000 10.8 280 15:36 14.05.2020
3037 Clouds 20 1012 45 8000 10.8 280 15:36 14.05.2020
3038 Clouds 20 1012 45 8000 10.8 280 15:18 14.05.2020
3039 Clouds 18 1013 48 8000 8.7 260 14:40 14.05.2020
3040 Clouds 18 1013 48 8000 8.7 260 14:20 14.05.2020
3041 Clouds 17 1013 51 8000 9.3 250 13:57 14.05.2020
3042 Clouds 16 1014 63 8000 9.3 270 13:38 14.05.2020
3043 Clouds 16 1014 63 8000 9.3 270 13:20 14.05.2020
3044 Clouds 18 1013 52 8000 7.2 290 12:58 14.05.2020
3045 Clouds 19 1013 45 8000 7.7 280 12:38 14.05.2020
3046 Clouds 19 1013 45 8000 7.7 280 12:19 14.05.2020
3047 Clouds 18 1013 48 8000 9.8 260 11:57 14.05.2020
3048 Clouds 19 1013 45 8000 8.2 260 11:38 14.05.2020
3049 Clouds 19 1013 45 8000 8.2 260 11:19 14.05.2020
3050 Clouds 18 1013 52 8000 5.7 250 10:45 14.05.2020
3051 Clouds 16 1013 55 8000 4.1 260 10:26 14.05.2020
3052 Clouds 15 1013 54 8000 3.1 210 09:57 14.05.2020
3053 Clouds 14 1013 58 8000 3.1 220 09:38 14.05.2020
3054 Clouds 14 1013 58 8000 3.1 220 09:19 14.05.2020
3055 Clouds 14 1013 58 8000 3.1 200 08:40 14.05.2020
3056 Clouds 14 1013 58 8000 3.1 200 08:20 14.05.2020
3057 Clouds 13 1013 62 8000 3.1 200 07:45 14.05.2020
3058 Clouds 13 1013 62 8000 2.6 210 07:24 14.05.2020
3059 Clouds 13 1013 66 8000 3.1 220 06:54 14.05.2020
3060 Clouds 13 1013 66 8000 2.6 190 06:28 14.05.2020
3061 Clouds 13 1013 66 8000 3.6 210 05:44 14.05.2020
3062 Clouds 13 1013 71 8000 3.1 220 05:23 14.05.2020
3063 Clouds 13 1014 71 8000 3.1 220 04:25 14.05.2020
3064 Clouds 13 1014 76 8000 2.6 210 03:22 14.05.2020
3065 Clouds 13 1014 76 8000 2.6 230 02:40 14.05.2020
3066 Clouds 12 1015 81 8000 3.6 230 01:56 14.05.2020
3067 Clouds 13 1015 76 8000 5.1 230 01:19 14.05.2020
3068 Clouds 13 1015 76 8000 6.2 250 00:42 14.05.2020
3069 Clouds 14 1015 71 8000 4.6 230 00:21 14.05.2020
3070 Clouds 14 1014 82 8000 2.6 230 23:40 13.05.2020
3071 Clouds 14 1014 82 8000 2.6 230 23:21 13.05.2020
3072 Clouds 14 1014 82 8000 2.1 230 22:42 13.05.2020
3073 Clouds 14 1014 82 6000 1.5 230 22:42 13.05.2020
3074 Clouds 14 1014 82 6000 1.5 230 22:23 13.05.2020
3075 Clouds 14 1014 82 6000 1.5 230 22:23 13.05.2020
3076 Clouds 15 1014 82 6000 2.1 220 21:59 13.05.2020
3077 Clouds 15 1014 82 6000 2.1 220 21:59 13.05.2020
3078 Clouds 14 1014 87 6000 2.1 220 21:40 13.05.2020
3079 Clouds 14 1014 87 6000 2.1 220 21:20 13.05.2020
3080 Clouds 14 1014 82 6000 3.1 220 20:59 13.05.2020
3081 Clouds 13 1013 87 6000 5.7 270 20:39 13.05.2020
3082 Clouds 13 1013 87 6000 5.7 270 20:21 13.05.2020
3083 Rain 13 1012 82 5000 6.7 290 19:43 13.05.2020
3084 Rain 13 1012 82 5000 6.7 290 19:24 13.05.2020
3085 Dust 15 1012 67 4000 6.7 300 18:55 13.05.2020
3086 Dust 15 1012 72 4000 10.3 320 18:36 13.05.2020
3087 Dust 15 1012 72 4000 10.3 320 18:18 13.05.2020
3088 Clouds 19 1010 59 600 12.9 300 17:38 13.05.2020
3089 Clouds 19 1010 59 600 12.9 300 17:38 13.05.2020
3090 Clouds 19 1010 59 600 12.9 300 17:19 13.05.2020
3091 Dust 24 1009 33 3000 9.8 280 16:54 13.05.2020
3092 Dust 24 1009 36 4000 7.2 280 16:36 13.05.2020
3093 Dust 24 1009 36 4000 7.2 280 16:36 13.05.2020
3094 Dust 24 1009 36 4000 7.2 280 16:18 13.05.2020
3095 Dust 23 1009 40 4000 8.2 270 15:42 13.05.2020
3096 Dust 23 1009 40 4000 8.2 270 15:42 13.05.2020
3097 Clouds 23 1010 40 10000 7.2 280 15:19 13.05.2020
3098 Clouds 23 1010 40 10000 5.7 290 14:57 13.05.2020
3099 Clouds 23 1011 43 10000 4.6 270 14:39 13.05.2020
3100 Clouds 23 1011 43 10000 4.6 270 14:20 13.05.2020
3101 Clouds 21 1011 49 10000 5.7 270 13:55 13.05.2020
3102 Clouds 21 1011 52 8000 4.1 280 13:37 13.05.2020
3103 Clouds 21 1011 52 8000 4.1 280 13:19 13.05.2020
3104 Clouds 19 1012 59 8000 5.1 280 12:43 13.05.2020
3105 Clouds 18 1012 63 8000 4.6 270 12:21 13.05.2020
3106 Clouds 18 1012 63 8000 5.1 260 11:57 13.05.2020
3107 Clouds 18 1012 63 8000 5.1 260 11:57 13.05.2020
3108 Clouds 17 1012 67 10000 4.6 270 11:38 13.05.2020
3109 Clouds 17 1012 67 10000 4.6 270 11:20 13.05.2020
3110 Clouds 17 1012 63 10000 4.1 280 10:59 13.05.2020
3111 Clouds 16 1012 72 10000 3.6 280 10:38 13.05.2020
3112 Clouds 16 1012 72 10000 3.6 280 10:20 13.05.2020
3113 Clouds 16 1012 72 10000 2.6 260 09:56 13.05.2020
3114 Clouds 16 1012 72 10000 2.1 240 09:38 13.05.2020
3115 Clouds 16 1012 72 10000 2.1 240 09:19 13.05.2020
3116 Clouds 13 1012 82 10000 1.5 270 08:40 13.05.2020
3117 Clouds 13 1012 82 10000 1.5 270 08:21 13.05.2020
3118 Clouds 14 1012 82 10000 2.1 240 07:56 13.05.2020
3119 Clouds 14 1012 82 10000 2.1 230 07:34 13.05.2020
3120 Clouds 14 1012 82 10000 2.6 220 06:55 13.05.2020
3121 Clouds 14 1012 82 10000 2.1 230 06:35 13.05.2020
3122 Clouds 14 1012 82 10000 2.1 230 05:48 13.05.2020
3123 Clouds 14 1013 82 10000 2.1 240 04:21 13.05.2020
3124 Clouds 15 1014 82 10000 3.6 250 02:43 13.05.2020
3125 Clouds 16 1014 77 10000 4.6 270 01:47 13.05.2020
3126 Clouds 16 1014 77 10000 4.6 280 00:59 13.05.2020
3127 Clouds 17 1014 72 10000 4.6 270 00:28 13.05.2020
3128 Clouds 17 1014 67 10000 6.2 280 23:59 12.05.2020
3129 Clouds 17 1014 67 10000 5.1 290 23:39 12.05.2020
3130 Clouds 17 1014 67 10000 5.1 290 23:20 12.05.2020
3131 Clouds 18 1013 63 10000 5.1 290 22:43 12.05.2020
3132 Clouds 18 1013 63 10000 5.1 290 22:23 12.05.2020
3133 Clouds 19 1013 55 10000 7.2 290 21:59 12.05.2020
3134 Clouds 19 1013 55 10000 7.2 290 21:59 12.05.2020
3135 Clouds 20 1012 56 10000 6.2 310 21:40 12.05.2020
3136 Clouds 20 1012 56 10000 6.2 310 21:22 12.05.2020
3137 Clouds 21 1012 46 10000 6.2 310 20:59 12.05.2020
3138 Clouds 21 1012 46 10000 6.2 310 20:59 12.05.2020
3139 Clouds 22 1012 43 10000 6.2 300 20:41 12.05.2020
3140 Clouds 22 1012 43 10000 6.2 300 20:23 12.05.2020
3141 Clouds 23 1012 43 10000 6.2 290 19:59 12.05.2020
3142 Clouds 23 1012 43 10000 6.7 290 19:41 12.05.2020
3143 Clouds 23 1012 43 10000 6.7 290 19:22 12.05.2020
3144 Clouds 24 1012 38 10000 5.7 290 18:58 12.05.2020
3145 Clouds 23 1012 35 10000 5.7 290 18:39 12.05.2020
3146 Clouds 23 1012 35 10000 5.7 290 18:21 12.05.2020
3147 Clouds 23 1012 38 10000 5.1 290 17:43 12.05.2020
3148 Clouds 24 1012 36 10000 5.1 270 17:24 12.05.2020
3149 Clouds 24 1013 33 10000 5.1 270 16:47 12.05.2020
3150 Clouds 23 1013 35 10000 5.1 260 16:26 12.05.2020
3151 Clouds 24 1013 36 10000 6.2 270 15:57 12.05.2020
3152 Clouds 23 1013 38 10000 5.1 260 15:39 12.05.2020
3153 Clouds 23 1013 38 10000 5.1 260 15:39 12.05.2020
3154 Clouds 23 1013 38 10000 5.1 260 15:20 12.05.2020
3155 Clouds 23 1014 38 8000 5.1 280 14:58 12.05.2020
3156 Clouds 21 1014 43 8000 5.1 280 14:39 12.05.2020
3157 Clouds 21 1014 43 8000 5.1 280 14:21 12.05.2020
3158 Clouds 21 1014 40 8000 4.6 270 13:59 12.05.2020
3159 Clouds 21 1014 40 8000 4.6 270 13:41 12.05.2020
3160 Clouds 20 1014 45 8000 4.6 270 13:20 12.05.2020
3161 Clouds 21 1014 46 8000 4.1 270 12:58 12.05.2020
3162 Clouds 20 1014 42 8000 4.1 250 12:40 12.05.2020
3163 Clouds 20 1014 42 8000 4.1 250 12:40 12.05.2020
3164 Clouds 20 1014 42 8000 4.1 250 12:40 12.05.2020
3165 Clouds 20 1014 42 8000 4.1 250 12:22 12.05.2020
3166 Clouds 19 1014 48 8000 3.1 270 11:58 12.05.2020
3167 Clouds 19 1014 48 8000 3.6 250 11:39 12.05.2020
3168 Clouds 19 1014 48 8000 3.6 250 11:21 12.05.2020
3169 Clouds 18 1014 48 8000 3.6 240 10:59 12.05.2020
3170 Clouds 17 1015 59 8000 3.6 270 10:40 12.05.2020
3171 Clouds 17 1015 59 8000 3.6 270 10:22 12.05.2020
3172 Clouds 17 1015 59 8000 3.6 270 10:22 12.05.2020
3173 Clouds 17 1014 63 8000 4.1 260 09:59 12.05.2020
3174 Clouds 16 1014 72 8000 2.6 250 09:40 12.05.2020
3175 Clouds 16 1014 72 8000 2.6 250 09:21 12.05.2020
3176 Clouds 15 1014 82 8000 2.6 250 08:57 12.05.2020
3177 Clouds 15 1014 77 8000 3.1 220 08:38 12.05.2020
3178 Clouds 15 1014 77 8000 3.1 220 08:19 12.05.2020
3179 Clouds 15 1014 77 8000 3.6 220 07:41 12.05.2020
3180 Clouds 15 1014 77 8000 3.1 210 07:22 12.05.2020
3181 Clouds 15 1014 77 6000 3.1 220 06:49 12.05.2020
3182 Clouds 14 1014 82 6000 4.1 210 06:27 12.05.2020
3183 Clouds 14 1014 87 6000 3.6 220 05:50 12.05.2020
3184 Clouds 14 1014 87 5000 3.1 230 05:30 12.05.2020
3185 Clouds 17 1014 67 5000 3.6 250 03:27 12.05.2020
3186 Clouds 17 1014 67 5000 4.1 270 02:41 12.05.2020
3187 Clouds 17 1014 67 5000 4.1 270 02:18 12.05.2020
3188 Drizzle 16 1015 77 5000 3.6 280 01:26 12.05.2020
3189 Drizzle 17 1015 72 6000 5.1 300 00:26 12.05.2020
3190 Clouds 18 1015 68 8000 5.7 290 23:58 11.05.2020
3191 Clouds 19 1015 63 8000 4.6 300 23:40 11.05.2020
3192 Clouds 19 1015 63 8000 4.6 300 23:20 11.05.2020
3193 Clouds 20 1015 60 8000 5.7 300 22:58 11.05.2020
3194 Clouds 20 1014 60 8000 5.7 310 22:40 11.05.2020
3195 Clouds 20 1014 60 8000 5.7 310 22:20 11.05.2020
3196 Clouds 21 1014 56 8000 6.7 300 21:58 11.05.2020
3197 Clouds 22 1013 53 8000 6.7 300 21:39 11.05.2020
3198 Clouds 22 1013 53 8000 6.7 300 21:19 11.05.2020
3199 Dust 23 1013 49 3000 7.2 310 20:57 11.05.2020
3200 Dust 23 1013 49 3000 7.2 310 20:57 11.05.2020
3201 Dust 25 1012 44 3000 7.7 280 20:39 11.05.2020
3202 Dust 25 1012 44 3000 7.7 280 20:20 11.05.2020
3203 Clouds 27 1012 32 8000 5.7 270 19:55 11.05.2020
3204 Clouds 27 1012 32 8000 4.6 280 19:36 11.05.2020
3205 Clouds 27 1012 32 8000 4.6 280 19:18 11.05.2020
3206 Clouds 27 1012 32 8000 3.6 0 18:55 11.05.2020
3207 Clouds 27 1013 30 8000 4.1 290 18:36 11.05.2020
3208 Clouds 27 1013 30 8000 4.1 290 18:18 11.05.2020
3209 Clouds 27 1013 30 8000 4.1 290 18:18 11.05.2020
3210 Clouds 27 1013 30 8000 4.1 290 18:18 11.05.2020
3211 Clouds 26 1013 34 8000 4.1 280 17:41 11.05.2020
3212 Clouds 26 1013 34 8000 4.1 280 17:22 11.05.2020
3213 Clouds 26 1013 36 8000 4.1 310 16:59 11.05.2020
3214 Clouds 25 1014 41 8000 2.6 0 16:39 11.05.2020
3215 Clouds 25 1014 41 8000 2.6 0 16:21 11.05.2020
3216 Clouds 25 1014 41 8000 2.1 0 15:57 11.05.2020
3217 Clear 25 1014 44 8000 3.1 280 15:39 11.05.2020
3218 Clear 25 1014 44 8000 3.1 280 15:18 11.05.2020
3219 Clear 24 1015 47 8000 2.6 0 14:42 11.05.2020
3220 Clear 24 1015 47 8000 2.6 0 14:42 11.05.2020
3221 Clouds 23 1015 46 8000 2.6 290 14:23 11.05.2020
3222 Clouds 23 1016 49 8000 1.5 0 13:59 11.05.2020
3223 Clouds 22 1016 49 8000 1.5 0 13:41 11.05.2020
3224 Clouds 22 1016 49 8000 1.5 0 13:19 11.05.2020
3225 Clouds 21 1017 56 8000 1.5 0 12:58 11.05.2020
3226 Clouds 21 1017 56 8000 1 0 12:39 11.05.2020
3227 Clouds 21 1017 56 8000 1 0 12:21 11.05.2020
3228 Clouds 19 1017 63 8000 1.5 0 11:55 11.05.2020
3229 Clouds 18 1017 68 8000 2.1 290 11:37 11.05.2020
3230 Clouds 18 1017 68 8000 2.1 290 11:18 11.05.2020
3231 Clouds 18 1017 68 8000 2.1 290 11:18 11.05.2020
3232 Clouds 17 1017 72 8000 2.1 260 10:54 11.05.2020
3233 Clouds 17 1016 72 8000 2.6 290 10:36 11.05.2020
3234 Clear 17 1016 72 8000 2.6 290 10:18 11.05.2020
3235 Clear 16 1016 72 8000 2.6 280 09:42 11.05.2020
3236 Clouds 15 1016 77 10000 2.6 240 09:20 11.05.2020
3237 Clouds 14 1015 82 10000 2.1 240 08:57 11.05.2020
3238 Clouds 12 1015 81 10000 1.5 270 08:38 11.05.2020
3239 Clouds 12 1015 81 10000 1.5 270 08:18 11.05.2020
3240 Clouds 12 1015 81 10000 2.1 270 07:47 11.05.2020
3241 Clouds 13 1015 76 10000 1.5 260 07:28 11.05.2020
3242 Clear 13 1015 82 10000 1.5 250 06:51 11.05.2020
3243 Clear 15 1015 72 10000 2.6 220 05:58 11.05.2020
3244 Clear 14 1016 76 10000 1.5 240 05:25 11.05.2020
3245 Clear 14 1016 71 10000 2.1 240 04:32 11.05.2020
3246 Clear 14 1016 71 10000 2.1 250 03:29 11.05.2020
3247 Clear 15 1017 62 10000 2.1 270 02:29 11.05.2020
3248 Clouds 17 1017 55 10000 2.6 240 01:40 11.05.2020
3249 Clouds 18 1017 52 10000 3.1 240 00:53 11.05.2020
3250 Clouds 18 1018 52 10000 3.1 260 00:20 11.05.2020
3251 Clouds 19 1017 48 10000 3.6 270 23:44 10.05.2020
3252 Clouds 19 1017 48 10000 3.1 250 23:24 10.05.2020
3253 Clouds 20 1017 45 8000 3.6 270 22:57 10.05.2020
3254 Clouds 21 1016 43 6000 4.6 300 22:38 10.05.2020
3255 Clouds 21 1016 43 6000 4.6 300 22:20 10.05.2020
3256 Clouds 22 1016 37 6000 5.1 300 21:44 10.05.2020
3257 Clouds 22 1016 37 6000 5.1 300 21:44 10.05.2020
3258 Clouds 23 1016 38 6000 6.2 290 21:20 10.05.2020
3259 Clouds 23 1016 40 6000 7.2 290 20:55 10.05.2020
3260 Clouds 25 1015 38 6000 7.7 280 20:36 10.05.2020
3261 Clouds 25 1015 38 6000 7.7 280 20:36 10.05.2020
3262 Clouds 25 1015 38 6000 7.7 280 20:18 10.05.2020
3263 Clouds 26 1015 34 8000 2.6 0 19:40 10.05.2020
3264 Clouds 26 1015 34 8000 2.6 0 19:22 10.05.2020
3265 Clouds 26 1015 34 8000 2.1 0 18:57 10.05.2020
3266 Clouds 26 1015 34 8000 2.1 0 18:57 10.05.2020
3267 Clouds 26 1015 34 8000 2.6 0 18:37 10.05.2020
3268 Clouds 26 1015 34 8000 2.6 0 18:19 10.05.2020
3269 Clouds 25 1015 36 8000 3.6 320 17:59 10.05.2020
3270 Clouds 25 1015 38 8000 2.6 0 17:40 10.05.2020
3271 Clouds 25 1015 38 8000 2.6 0 17:22 10.05.2020
3272 Clouds 24 1016 41 8000 3.1 300 16:58 10.05.2020
3273 Clouds 24 1016 41 8000 1.5 0 16:40 10.05.2020
3274 Clouds 24 1016 41 8000 1.5 0 16:19 10.05.2020
3275 Clouds 23 1016 43 8000 2.6 310 15:44 10.05.2020
3276 Clouds 23 1016 43 8000 2.6 310 15:25 10.05.2020
3277 Clouds 23 1017 46 8000 1.5 0 14:59 10.05.2020
3278 Clouds 23 1017 46 8000 2.1 0 14:38 10.05.2020
3279 Clouds 23 1017 46 8000 2.1 0 14:20 10.05.2020
3280 Clouds 23 1017 46 8000 2.1 0 14:20 10.05.2020
3281 Clouds 23 1017 46 8000 2.1 0 14:20 10.05.2020
3282 Clouds 22 1017 53 8000 1.5 0 13:59 10.05.2020
3283 Clouds 22 1017 53 8000 3.1 300 13:38 10.05.2020
3284 Clouds 22 1017 53 8000 3.1 300 13:20 10.05.2020
3285 Clouds 21 1017 52 8000 3.1 270 12:57 10.05.2020
3286 Clouds 21 1017 52 8000 1.5 0 12:39 10.05.2020
3287 Clouds 21 1017 52 8000 1.5 0 12:21 10.05.2020
3288 Clouds 19 1017 63 8000 3.1 280 11:57 10.05.2020
3289 Clouds 19 1017 63 8000 1 0 11:39 10.05.2020
3290 Clouds 19 1017 63 8000 1 0 11:20 10.05.2020
3291 Clouds 18 1017 68 8000 1.5 0 10:47 10.05.2020
3292 Clouds 18 1017 72 8000 2.1 270 10:29 10.05.2020
3293 Clouds 17 1017 77 8000 2.6 280 09:58 10.05.2020
3294 Clouds 17 1017 77 8000 2.1 260 09:40 10.05.2020
3295 Clouds 17 1017 77 8000 2.1 260 09:21 10.05.2020
3296 Clouds 15 1017 82 8000 1.5 260 08:51 10.05.2020
3297 Clouds 15 1016 82 8000 1.5 260 08:24 10.05.2020
3298 Clouds 15 1016 82 8000 1.5 260 07:45 10.05.2020
3299 Clouds 15 1016 82 8000 2.1 250 07:21 10.05.2020
3300 Clouds 15 1016 82 8000 2.1 250 06:58 10.05.2020
3301 Clouds 16 1016 77 8000 2.1 260 06:35 10.05.2020
3302 Clouds 16 1016 77 8000 2.1 260 05:52 10.05.2020
3303 Clouds 16 1016 77 8000 2.1 270 04:58 10.05.2020
3304 Clouds 16 1017 77 8000 2.6 270 04:38 10.05.2020
3305 Clouds 16 1017 77 8000 2.6 270 04:20 10.05.2020
3306 Clouds 17 1017 72 8000 3.1 270 03:39 10.05.2020
3307 Clouds 17 1017 72 8000 3.1 290 02:50 10.05.2020
3308 Clouds 17 1017 72 8000 3.1 300 02:22 10.05.2020
3309 Clouds 17 1017 72 8000 3.1 280 01:42 10.05.2020
3310 Clouds 17 1018 72 8000 3.1 270 01:21 10.05.2020
3311 Clouds 17 1018 72 8000 4.1 280 00:55 10.05.2020
3312 Clouds 17 1018 72 8000 4.1 290 00:29 10.05.2020
3313 Clouds 18 1018 68 8000 4.1 290 23:59 09.05.2020
3314 Clouds 19 1017 63 8000 4.6 300 23:39 09.05.2020
3315 Clouds 19 1017 63 8000 4.6 300 23:20 09.05.2020
3316 Clouds 19 1017 63 8000 5.1 300 22:44 09.05.2020
3317 Clouds 21 1016 52 8000 5.1 300 22:24 09.05.2020
3318 Clouds 22 1016 40 8000 5.1 290 21:59 09.05.2020
3319 Clouds 23 1016 38 7000 6.2 290 21:41 09.05.2020
3320 Clouds 23 1016 38 7000 6.2 290 21:22 09.05.2020
3321 Clouds 23 1015 38 7000 6.2 300 20:58 09.05.2020
3322 Clouds 25 1015 31 6000 6.7 290 20:39 09.05.2020
3323 Clouds 25 1015 31 6000 6.7 290 20:20 09.05.2020
3324 Clouds 26 1015 29 8000 5.7 280 19:58 09.05.2020
3325 Clouds 27 1015 26 8000 4.6 280 19:38 09.05.2020
3326 Clouds 27 1015 26 8000 4.6 280 19:19 09.05.2020
3327 Clouds 27 1015 28 8000 3.6 290 18:45 09.05.2020
3328 Clouds 27 1015 28 8000 4.1 0 18:26 09.05.2020
3329 Clouds 26 1015 29 8000 4.1 320 17:56 09.05.2020
3330 Clouds 25 1015 36 8000 3.1 260 17:36 09.05.2020
3331 Clouds 25 1015 36 8000 3.1 260 17:18 09.05.2020
3332 Clouds 25 1016 44 8000 3.1 0 16:41 09.05.2020
3333 Clouds 25 1016 44 8000 3.1 0 16:19 09.05.2020
3334 Clouds 24 1016 47 8000 3.1 260 15:45 09.05.2020
3335 Clouds 23 1017 49 8000 3.1 290 15:26 09.05.2020
3336 Clouds 23 1017 53 8000 3.1 0 14:59 09.05.2020
3337 Clouds 22 1017 56 8000 3.1 300 14:40 09.05.2020
3338 Clouds 22 1017 56 8000 3.1 300 14:19 09.05.2020
3339 Clouds 22 1018 56 8000 2.6 250 13:57 09.05.2020
3340 Clouds 20 1018 60 8000 3.1 280 13:38 09.05.2020
3341 Clouds 20 1018 60 8000 3.1 280 13:19 09.05.2020
3342 Clouds 20 1018 64 8000 2.6 300 12:42 09.05.2020
3343 Clouds 20 1018 64 8000 2.6 300 12:22 09.05.2020
3344 Clouds 20 1018 60 8000 2.1 0 11:56 09.05.2020
3345 Clouds 19 1018 63 8000 2.6 290 11:37 09.05.2020
3346 Clouds 19 1018 63 8000 2.6 290 11:18 09.05.2020
3347 Clouds 19 1018 63 8000 2.6 290 11:18 09.05.2020
3348 Clouds 17 1018 72 8000 2.1 290 10:43 09.05.2020
3349 Clouds 17 1018 72 8000 2.1 290 10:23 09.05.2020
3350 Clouds 17 1017 72 8000 1.5 270 09:56 09.05.2020
3351 Clouds 15 1017 82 8000 1.5 240 09:37 09.05.2020
3352 Clouds 15 1017 82 8000 1.5 240 09:18 09.05.2020
3353 Clouds 14 1017 82 8000 3.1 240 08:51 09.05.2020
3354 Clouds 14 1017 82 8000 3.1 240 08:31 09.05.2020
3355 Clouds 14 1017 82 10000 3.1 240 07:49 09.05.2020
3356 Clouds 14 1016 82 10000 3.6 230 07:31 09.05.2020
3357 Clouds 14 1016 82 10000 1.5 250 06:49 09.05.2020
3358 Clouds 14 1016 82 10000 2.1 260 06:24 09.05.2020
3359 Clouds 14 1016 82 10000 2.6 270 05:45 09.05.2020
3360 Clear 17 1017 67 10000 2.6 230 03:54 09.05.2020
3361 Clear 16 1017 72 10000 2.6 240 03:36 09.05.2020
3362 Clouds 18 1017 63 8000 1.5 0 02:32 09.05.2020
3363 Clouds 19 1017 63 8000 2.1 10 01:52 09.05.2020
3364 Clouds 19 1017 63 8000 1.5 0 01:24 09.05.2020
3365 Clouds 19 1017 63 8000 2.6 280 00:50 09.05.2020
3366 Clouds 19 1018 63 8000 2.6 300 00:31 09.05.2020
3367 Clouds 20 1018 60 8000 3.6 300 23:49 08.05.2020
3368 Clouds 20 1018 60 8000 2.1 320 23:29 08.05.2020
3369 Clouds 21 1017 56 5000 3.1 350 22:59 08.05.2020
3370 Clouds 21 1017 56 5000 5.1 330 22:40 08.05.2020
3371 Clouds 21 1017 56 5000 5.1 330 22:19 08.05.2020
3372 Clouds 22 1016 53 5000 5.1 340 21:59 08.05.2020
3373 Clouds 22 1016 53 5000 5.1 340 21:59 08.05.2020
3374 Clouds 23 1016 53 5000 5.7 340 21:40 08.05.2020
3375 Clouds 23 1016 53 5000 5.7 340 21:19 08.05.2020
3376 Clouds 25 1015 47 5000 5.7 330 20:58 08.05.2020
3377 Clouds 26 1015 44 8000 7.7 270 20:39 08.05.2020
3378 Clouds 26 1015 44 8000 7.7 270 20:21 08.05.2020
3379 Dust 27 1015 39 3000 6.7 270 19:44 08.05.2020
3380 Clouds 28 1015 32 8000 4.6 280 19:24 08.05.2020
3381 Clouds 29 1015 35 8000 4.1 270 18:56 08.05.2020
3382 Clouds 29 1015 32 8000 2.6 0 18:38 08.05.2020
3383 Clouds 29 1015 32 8000 2.6 0 18:18 08.05.2020
3384 Clouds 28 1014 37 8000 2.1 330 17:42 08.05.2020
3385 Clouds 28 1014 37 8000 2.1 330 17:18 08.05.2020
3386 Clouds 27 1015 39 8000 2.1 0 16:45 08.05.2020
3387 Clouds 27 1015 39 8000 2.1 0 16:26 08.05.2020
3388 Clouds 26 1015 39 8000 1.5 0 15:57 08.05.2020
3389 Clouds 25 1016 44 8000 2.6 0 15:39 08.05.2020
3390 Clouds 25 1016 44 8000 2.6 0 15:18 08.05.2020
3391 Clouds 24 1016 47 8000 3.1 300 14:54 08.05.2020
3392 Clouds 24 1016 50 8000 2.6 290 14:36 08.05.2020
3393 Clouds 24 1016 50 8000 2.6 290 14:18 08.05.2020
3394 Clouds 22 1016 56 8000 2.1 0 13:39 08.05.2020
3395 Clouds 22 1016 56 8000 2.1 0 13:20 08.05.2020
3396 Clouds 21 1016 60 8000 1.5 0 12:45 08.05.2020
3397 Clouds 21 1017 60 8000 1 0 12:25 08.05.2020
3398 Clouds 20 1016 64 6000 1.5 0 11:59 08.05.2020
3399 Clouds 18 1016 72 6000 2.1 260 11:41 08.05.2020
3400 Clouds 18 1016 72 6000 2.1 260 11:21 08.05.2020
3401 Clouds 18 1017 72 6000 2.6 270 10:57 08.05.2020
3402 Clouds 17 1017 77 6000 2.6 290 10:39 08.05.2020
3403 Clouds 17 1017 77 6000 2.6 290 10:18 08.05.2020
3404 Clouds 16 1017 82 8000 2.6 260 09:41 08.05.2020
3405 Clouds 15 1016 87 7000 3.1 240 09:19 08.05.2020
3406 Clouds 15 1016 82 7000 3.1 240 08:56 08.05.2020
3407 Clouds 14 1016 87 8000 2.6 240 08:37 08.05.2020
3408 Clouds 14 1016 87 8000 2.6 240 08:18 08.05.2020
3409 Clear 14 1016 87 10000 2.1 260 07:39 08.05.2020
3410 Clear 14 1016 87 10000 2.1 260 07:19 08.05.2020
3411 Clear 14 1016 87 10000 2.1 250 06:42 08.05.2020
3412 Clear 15 1015 82 10000 2.1 250 06:20 08.05.2020
3413 Clear 15 1015 87 10000 3.1 240 05:32 08.05.2020
3414 Clear 17 1016 77 10000 3.6 240 03:23 08.05.2020
3415 Clear 18 1016 68 10000 3.1 250 02:29 08.05.2020
3416 Clear 19 1016 63 10000 3.6 260 01:40 08.05.2020
3417 Clear 19 1016 63 10000 3.6 260 01:20 08.05.2020
3418 Clear 20 1016 60 10000 3.1 310 00:47 08.05.2020
3419 Clouds 21 1016 56 8000 3.6 300 00:27 08.05.2020
3420 Clouds 21 1016 52 8000 4.1 320 23:56 07.05.2020
3421 Clouds 22 1015 49 8000 4.1 330 23:37 07.05.2020
3422 Clouds 22 1015 49 8000 4.1 330 23:19 07.05.2020
3423 Clouds 23 1014 46 8000 5.1 310 22:41 07.05.2020
3424 Clouds 24 1014 47 8000 5.1 310 22:20 07.05.2020
3425 Clouds 26 1013 41 8000 4.6 260 21:57 07.05.2020
3426 Clouds 27 1013 42 8000 4.6 250 21:39 07.05.2020
3427 Clouds 27 1013 42 8000 4.6 250 21:20 07.05.2020
3428 Clouds 28 1012 37 8000 3.6 270 20:57 07.05.2020
3429 Clouds 29 1012 35 8000 3.1 290 20:38 07.05.2020
3430 Clouds 29 1012 35 8000 3.1 290 20:19 07.05.2020
3431 Clouds 29 1012 37 8000 3.1 280 19:47 07.05.2020
3432 Clouds 29 1012 37 8000 3.1 280 19:23 07.05.2020
3433 Clouds 29 1012 37 8000 3.1 300 18:56 07.05.2020
3434 Clouds 29 1012 37 8000 2.6 310 18:38 07.05.2020
3435 Clouds 29 1012 37 8000 2.6 310 18:20 07.05.2020
3436 Clouds 29 1013 37 8000 2.6 0 17:41 07.05.2020
3437 Clouds 29 1013 37 8000 2.6 0 17:20 07.05.2020
3438 Clouds 27 1013 42 8000 3.6 300 16:43 07.05.2020
3439 Clouds 28 1013 39 8000 3.6 290 16:19 07.05.2020
3440 Clouds 27 1013 42 8000 4.1 290 15:57 07.05.2020
3441 Clouds 26 1013 41 8000 4.6 280 15:38 07.05.2020
3442 Clouds 26 1013 41 8000 4.6 280 15:18 07.05.2020
3443 Clouds 26 1014 47 8000 3.6 300 14:56 07.05.2020
3444 Clouds 26 1014 47 8000 3.1 280 14:37 07.05.2020
3445 Clouds 26 1014 47 8000 3.1 280 14:18 07.05.2020
3446 Clouds 26 1014 47 8000 3.1 280 14:18 07.05.2020
3447 Clouds 25 1014 50 8000 3.6 290 13:42 07.05.2020
3448 Clouds 24 1014 50 8000 4.1 310 13:22 07.05.2020
3449 Clouds 24 1014 50 8000 4.1 310 13:22 07.05.2020
3450 Clouds 24 1014 53 8000 4.1 300 12:43 07.05.2020
3451 Clouds 24 1014 53 8000 2.6 290 12:20 07.05.2020
3452 Clouds 22 1014 64 8000 1 0 11:40 07.05.2020
3453 Clouds 22 1014 64 8000 1 0 11:22 07.05.2020
3454 Clouds 21 1014 64 8000 1 0 10:58 07.05.2020
3455 Clouds 20 1014 68 8000 1 0 10:40 07.05.2020
3456 Clouds 20 1014 68 8000 1 0 10:40 07.05.2020
3457 Clouds 20 1014 68 8000 1 0 10:20 07.05.2020
3458 Clouds 17 1014 72 8000 2.1 280 09:40 07.05.2020
3459 Clouds 17 1014 72 8000 2.1 280 09:40 07.05.2020
3460 Clouds 17 1014 72 8000 2.1 280 09:20 07.05.2020
3461 Clouds 16 1014 72 8000 2.6 270 08:56 07.05.2020
3462 Clouds 16 1014 72 8000 2.6 260 08:37 07.05.2020
3463 Clouds 17 1013 72 8000 2.6 240 08:18 07.05.2020
3464 Clouds 17 1013 67 8000 3.1 240 07:41 07.05.2020
3465 Clouds 17 1013 67 8000 3.1 240 07:21 07.05.2020
3466 Clouds 17 1013 67 8000 4.1 230 06:39 07.05.2020
3467 Clouds 17 1013 67 8000 4.1 230 06:21 07.05.2020
3468 Clouds 18 1013 68 8000 3.6 240 05:25 07.05.2020
3469 Clouds 19 1013 63 8000 2.6 250 03:50 07.05.2020
3470 Clouds 19 1013 68 8000 3.6 250 03:21 07.05.2020
3471 Clouds 20 1014 64 8000 3.6 240 02:41 07.05.2020
3472 Clouds 22 1014 56 8000 2.6 230 01:41 07.05.2020
3473 Clouds 21 1014 60 8000 3.1 250 01:23 07.05.2020
3474 Clouds 22 1014 56 8000 3.1 250 00:44 07.05.2020
3475 Clouds 23 1013 53 7000 2.6 260 00:25 07.05.2020
3476 Clouds 23 1013 53 7000 1.5 260 23:46 06.05.2020
3477 Clouds 24 1013 50 7000 2.6 250 23:24 06.05.2020
3478 Clouds 25 1013 47 7000 2.1 270 22:57 06.05.2020
3479 Clouds 27 1013 42 7000 3.1 360 22:39 06.05.2020
3480 Clouds 27 1013 42 7000 3.1 360 22:19 06.05.2020
3481 Clouds 27 1013 42 7000 3.1 360 21:56 06.05.2020
3482 Clouds 28 1012 39 7000 5.7 350 21:38 06.05.2020
3483 Clouds 28 1012 39 7000 5.7 350 21:18 06.05.2020
3484 Clouds 29 1012 37 7000 5.7 350 20:42 06.05.2020
3485 Clouds 30 1011 35 7000 5.7 320 20:23 06.05.2020
3486 Clouds 30 1011 35 7000 5.7 320 20:23 06.05.2020
3487 Clouds 30 1011 35 7000 5.7 320 20:23 06.05.2020
3488 Clouds 33 1011 29 10000 2.1 340 19:57 06.05.2020
3489 Clouds 33 1011 27 10000 2.1 320 19:39 06.05.2020
3490 Clouds 33 1011 27 10000 2.1 320 19:19 06.05.2020
3491 Clouds 34 1011 28 10000 2.6 0 18:58 06.05.2020
3492 Clouds 34 1011 28 10000 2.6 70 18:39 06.05.2020
3493 Clouds 34 1011 28 10000 2.6 70 18:21 06.05.2020
3494 Clouds 33 1011 27 10000 2.6 0 17:58 06.05.2020
3495 Clouds 33 1011 26 10000 3.1 40 17:39 06.05.2020
3496 Clouds 33 1011 26 10000 3.1 40 17:21 06.05.2020
3497 Clouds 33 1011 26 10000 2.6 50 16:58 06.05.2020
3498 Clouds 33 1012 26 10000 2.6 360 16:40 06.05.2020
3499 Clouds 33 1012 26 10000 2.6 360 16:21 06.05.2020
3500 Clouds 33 1012 27 10000 2.6 80 15:58 06.05.2020
3501 Clouds 31 1013 31 10000 3.1 80 15:40 06.05.2020
3502 Clouds 31 1013 31 10000 3.1 80 15:20 06.05.2020
3503 Clouds 30 1013 33 10000 2.6 0 14:42 06.05.2020
3504 Clouds 30 1013 33 10000 2.6 0 14:42 06.05.2020
3505 Clouds 29 1014 35 10000 2.1 0 14:19 06.05.2020
3506 Clouds 28 1014 37 10000 3.6 40 13:59 06.05.2020
3507 Clouds 27 1015 36 10000 4.1 70 13:40 06.05.2020
3508 Clouds 27 1015 36 10000 4.1 70 13:22 06.05.2020
3509 Clouds 26 1015 41 10000 2.1 0 12:54 06.05.2020
3510 Clouds 25 1015 44 10000 2.1 0 12:36 06.05.2020
3511 Clouds 25 1015 44 10000 2.1 0 12:18 06.05.2020
3512 Clouds 23 1016 56 10000 1 0 11:40 06.05.2020
3513 Clouds 23 1016 56 10000 1 0 11:21 06.05.2020
3514 Clouds 22 1016 60 10000 1 0 10:56 06.05.2020
3515 Clouds 21 1016 64 10000 1.5 270 10:37 06.05.2020
3516 Clouds 21 1016 64 10000 1.5 270 10:18 06.05.2020
3517 Clouds 19 1016 72 10000 2.1 280 09:41 06.05.2020
3518 Clouds 18 1016 72 10000 1.5 260 09:22 06.05.2020
3519 Clouds 16 1016 82 10000 1.5 270 08:45 06.05.2020
3520 Clouds 16 1016 77 10000 2.1 250 08:22 06.05.2020
3521 Clouds 16 1016 77 10000 2.1 240 07:59 06.05.2020
3522 Clouds 16 1016 77 10000 1.5 260 07:39 06.05.2020
3523 Clouds 16 1016 77 10000 1.5 260 07:20 06.05.2020
3524 Clouds 17 1016 77 10000 1.5 260 06:51 06.05.2020
3525 Clouds 17 1016 77 10000 1.5 260 06:21 06.05.2020
3526 Clouds 17 1016 77 10000 1 0 05:52 06.05.2020
3527 Clouds 19 1016 68 10000 1.5 80 05:34 06.05.2020
3528 Clouds 19 1016 68 10000 2.1 70 04:31 06.05.2020
3529 Clouds 20 1017 64 10000 2.1 30 03:38 06.05.2020
3530 Clouds 20 1017 64 10000 2.1 30 03:19 06.05.2020
3531 Clouds 21 1018 60 10000 3.1 20 02:29 06.05.2020
3532 Clouds 22 1018 56 10000 2.6 30 01:54 06.05.2020
3533 Clouds 22 1018 60 10000 2.1 20 01:30 06.05.2020
3534 Clouds 22 1018 60 10000 2.1 20 00:53 06.05.2020
3535 Clouds 22 1018 60 10000 2.1 20 00:23 06.05.2020
3536 Clouds 23 1018 56 10000 5.1 30 23:55 05.05.2020
3537 Clouds 23 1018 56 10000 5.1 30 23:37 05.05.2020
3538 Clouds 23 1018 56 10000 5.1 30 23:18 05.05.2020
3539 Clouds 25 1017 50 10000 4.6 30 22:41 05.05.2020
3540 Clouds 25 1017 50 10000 4.6 30 22:19 05.05.2020
3541 Clouds 26 1016 47 10000 6.2 10 21:56 05.05.2020
3542 Clouds 29 1016 35 10000 3.1 340 21:38 05.05.2020
3543 Clouds 29 1016 35 10000 3.1 340 21:19 05.05.2020
3544 Clouds 29 1015 35 10000 2.1 340 20:56 05.05.2020
3545 Clouds 30 1015 35 10000 2.1 340 20:38 05.05.2020
3546 Clouds 30 1015 35 10000 2.1 340 20:18 05.05.2020
3547 Clouds 30 1015 35 8000 2.1 310 19:42 05.05.2020
3548 Clouds 31 1015 35 8000 1.5 0 19:24 05.05.2020
3549 Clouds 30 1016 37 8000 1.5 0 18:58 05.05.2020
3550 Clouds 30 1016 37 8000 1.5 0 18:40 05.05.2020
3551 Clouds 30 1016 37 8000 1.5 0 18:20 05.05.2020
3552 Clouds 29 1016 39 8000 2.6 0 17:58 05.05.2020
3553 Clouds 29 1016 39 8000 2.6 0 17:58 05.05.2020
3554 Clouds 29 1016 39 8000 2.6 0 17:39 05.05.2020
3555 Clouds 29 1016 39 8000 2.6 0 17:21 05.05.2020
3556 Clouds 28 1016 42 8000 3.1 0 16:56 05.05.2020
3557 Clouds 27 1016 47 8000 1.5 0 16:36 05.05.2020
3558 Clouds 27 1016 47 8000 1.5 0 16:18 05.05.2020
3559 Clouds 27 1016 47 8000 1.5 0 15:41 05.05.2020
3560 Clouds 27 1016 47 8000 1.5 0 15:22 05.05.2020
3561 Clouds 29 1016 33 0 4 320 14:57 05.05.2020
3562 Clouds 23 1017 60 8000 3.1 280 14:38 05.05.2020
3563 Clouds 23 1017 60 8000 3.1 280 14:20 05.05.2020
3564 Clouds 23 1017 60 8000 3.1 280 13:58 05.05.2020
3565 Clouds 23 1017 64 0 2.6 0 13:39 05.05.2020
3566 Clouds 23 1017 64 0 2.6 0 13:20 05.05.2020
3567 Clouds 23 1017 64 0 2.6 0 12:58 05.05.2020
3568 Clouds 22 1017 64 10000 2.1 0 12:38 05.05.2020
3569 Clouds 22 1017 64 10000 2.1 0 12:38 05.05.2020
3570 Clouds 22 1017 64 10000 2.1 0 12:19 05.05.2020
3571 Clouds 21 1017 73 0 2.1 270 11:42 05.05.2020
3572 Clouds 21 1017 73 0 2.1 270 11:42 05.05.2020
3573 Clouds 21 1017 68 8000 1.5 290 11:20 05.05.2020
3574 Clouds 21 1017 68 8000 1.5 290 11:20 05.05.2020
3575 Clouds 19 1017 77 8000 1 0 10:59 05.05.2020
3576 Clouds 18 1017 77 8000 1.5 270 10:38 05.05.2020
3577 Clouds 18 1017 77 8000 1.5 270 10:19 05.05.2020
3578 Clouds 17 1017 82 8000 2.1 290 09:57 05.05.2020
3579 Clouds 16 1017 87 8000 2.1 260 09:39 05.05.2020
3580 Clouds 16 1017 87 8000 2.1 260 09:20 05.05.2020
3581 Clouds 16 1017 82 0 3.6 230 08:41 05.05.2020
3582 Clouds 16 1017 82 0 3.6 230 08:20 05.05.2020
3583 Clouds 16 1016 87 8000 4.1 230 07:57 05.05.2020
3584 Clouds 16 1016 82 10000 4.1 230 07:38 05.05.2020
3585 Clouds 16 1016 82 10000 4.1 230 07:18 05.05.2020
3586 Clouds 16 1016 82 10000 3.6 240 06:42 05.05.2020
3587 Clouds 16 1016 82 10000 4.1 250 06:20 05.05.2020
3588 Clouds 17 1015 82 10000 3.1 240 05:34 05.05.2020
3589 Clouds 19 1016 68 10000 4.1 230 03:24 05.05.2020
3590 Clear 22 1017 56 10000 1.5 70 01:27 05.05.2020
3591 Clear 22 1017 56 10000 1.5 30 00:50 05.05.2020
3592 Clear 23 1017 53 10000 3.1 30 00:20 05.05.2020
3593 Clear 23 1018 53 10000 3.1 30 23:43 04.05.2020
3594 Clear 24 1017 50 10000 3.1 10 23:21 04.05.2020
3595 Clear 25 1016 47 10000 4.6 350 22:56 04.05.2020
3596 Clear 26 1016 44 8000 4.1 10 22:38 04.05.2020
3597 Clear 26 1016 44 8000 4.1 10 22:19 04.05.2020
3598 Clear 27 1016 42 8000 5.1 10 21:53 04.05.2020
3599 Clear 27 1016 42 8000 5.1 10 21:53 04.05.2020
3600 Clear 27 1016 42 8000 5.1 10 21:53 04.05.2020
3601 Clear 27 1016 42 8000 5.1 10 21:53 04.05.2020
3602 Clear 27 1016 42 8000 5.1 10 21:53 04.05.2020
3603 Clear 29 1015 37 8000 3.6 350 21:30 04.05.2020
3604 Clear 29 1015 37 8000 3.6 350 21:30 04.05.2020
3605 Clear 29 1015 37 8000 3.6 350 21:30 04.05.2020
3606 Clear 29 1015 37 8000 3.6 350 21:30 04.05.2020
3607 Clear 29 1015 37 8000 3.6 350 21:30 04.05.2020
3608 Clear 30 1015 28 8000 2.6 280 20:44 04.05.2020
3609 Clear 31 1015 25 8000 1.5 0 20:23 04.05.2020
3610 Clear 32 1015 25 8000 2.1 250 19:59 04.05.2020
3611 Clear 31 1015 27 8000 3.1 230 19:40 04.05.2020
3612 Clear 31 1015 27 8000 3.1 230 19:20 04.05.2020
3613 Clear 31 1015 27 8000 3.1 260 18:55 04.05.2020
3614 Clear 31 1015 27 8000 2.1 0 18:37 04.05.2020
3615 Clear 31 1015 27 8000 2.1 0 18:18 04.05.2020
3616 Clear 31 1015 27 8000 2.1 0 17:55 04.05.2020
3617 Clear 31 1015 27 8000 2.1 0 17:55 04.05.2020
3618 Clear 31 1015 27 8000 2.1 0 17:55 04.05.2020
3619 Clear 31 1015 27 8000 1.5 0 17:36 04.05.2020
3620 Clear 31 1015 27 8000 1.5 0 17:18 04.05.2020
3621 Clear 30 1015 28 8000 1.5 0 16:42 04.05.2020
3622 Clear 28 1016 32 8000 2.1 0 16:21 04.05.2020
3623 Clear 28 1016 32 8000 2.6 290 15:46 04.05.2020
3624 Clear 28 1016 32 8000 2.6 290 15:46 04.05.2020
3625 Clear 27 1016 36 8000 2.6 310 15:25 04.05.2020
3626 Clear 27 1017 36 8000 3.1 290 14:56 04.05.2020
3627 Clear 27 1017 36 8000 3.1 290 14:56 04.05.2020
3628 Clear 26 1017 41 8000 4.1 300 14:38 04.05.2020
3629 Clear 26 1017 41 8000 4.1 300 14:38 04.05.2020
3630 Clear 26 1017 44 8000 4.1 280 13:42 04.05.2020
3631 Clear 26 1017 44 8000 4.1 280 13:42 04.05.2020
3632 Clear 24 1017 47 10000 4.1 280 12:46 04.05.2020
3633 Clear 24 1017 47 10000 4.1 280 12:46 04.05.2020
3634 Clear 24 1017 47 10000 4.1 280 12:46 04.05.2020
3635 Clear 24 1017 47 10000 4.1 280 12:46 04.05.2020
3636 Clear 22 1017 60 10000 4.6 280 12:01 04.05.2020
3637 Clouds 21 1015 49 8000 2.6 290 09:33 04.05.2020
3638 Clouds 20 1015 52 8000 2.1 240 08:54 04.05.2020
3639 Clouds 20 1015 52 8000 2.1 240 08:54 04.05.2020
3640 Clouds 20 1015 52 8000 2.1 240 08:52 04.05.2020
3641 Clouds 20 1015 52 8000 2.1 240 08:51 04.05.2020
3642 Clouds 20 1015 52 8000 2.1 240 08:50 04.05.2020
3643 Clouds 19 1014 59 8000 3.6 230 07:44 04.05.2020
3644 Clouds 19 1014 59 8000 3.6 230 07:44 04.05.2020
3645 Clouds 18 1014 63 8000 3.6 250 07:01 04.05.2020
3646 Clouds 18 1014 63 8000 3.6 250 07:01 04.05.2020
3647 Clouds 18 1014 63 8000 3.6 250 07:01 04.05.2020
3648 Clouds 20 1012 52 8000 3.1 270 04:55 04.05.2020
3649 Clear 24 1013 41 8000 2.1 70 03:18 04.05.2020
3650 Clear 26 1014 34 8000 3.6 100 02:30 04.05.2020
3651 Clouds 27 1015 30 8000 1 0 00:38 04.05.2020
3652 Clouds 30 1015 23 8000 2.6 220 23:46 03.05.2020
3653 Clouds 30 1015 23 8000 2.6 220 23:25 03.05.2020
3654 Clouds 30 1014 23 8000 3.1 240 22:56 03.05.2020
3655 Clouds 32 1013 22 8000 4.1 290 22:38 03.05.2020
3656 Clouds 32 1013 22 8000 4.1 290 22:20 03.05.2020
3657 Clouds 33 1012 19 8000 4.6 290 21:41 03.05.2020
3658 Clouds 33 1012 19 8000 4.6 290 21:20 03.05.2020
3659 Clouds 34 1012 20 8000 6.2 300 20:47 03.05.2020
3660 Dust 36 1012 18 4000 6.2 310 20:23 03.05.2020
3661 Dust 37 1011 17 4000 7.2 310 19:55 03.05.2020
3662 Dust 37 1011 17 4000 7.2 310 19:55 03.05.2020
3663 Clear 39 1011 10 8000 2.6 0 19:36 03.05.2020
3664 Clear 39 1011 10 8000 2.6 0 19:18 03.05.2020
3665 Clear 39 1011 13 8000 2.6 110 18:39 03.05.2020
3666 Clear 39 1011 13 8000 2.6 110 18:39 03.05.2020
3667 Clear 39 1011 13 8000 2.6 110 18:20 03.05.2020
3668 Clear 39 1011 13 8000 2.6 0 17:42 03.05.2020
3669 Clear 39 1012 15 8000 3.1 60 17:22 03.05.2020
3670 Clear 39 1012 14 8000 2.6 0 16:58 03.05.2020
3671 Clear 39 1013 15 8000 3.6 50 16:39 03.05.2020
3672 Clear 39 1013 15 8000 3.6 50 16:18 03.05.2020
3673 Clear 39 1013 16 8000 4.1 40 15:56 03.05.2020
3674 Clear 38 1013 16 8000 3.1 70 15:37 03.05.2020
3675 Clear 38 1013 16 8000 3.1 70 15:37 03.05.2020
3676 Clear 38 1013 16 8000 3.1 70 15:37 03.05.2020
3677 Clear 38 1013 16 8000 3.1 70 15:37 03.05.2020
3678 Clear 38 1013 16 8000 3.1 70 15:19 03.05.2020
3679 Clear 37 1014 16 8000 4.6 70 14:43 03.05.2020
3680 Clear 37 1014 16 8000 3.6 70 14:23 03.05.2020
3681 Clear 37 1014 17 8000 3.1 140 14:02 03.05.2020
3682 Clear 36 1015 20 8000 2.6 100 13:36 03.05.2020
3683 Clear 36 1015 20 8000 2.6 100 13:36 03.05.2020
3684 Clear 36 1015 20 8000 2.6 100 13:36 03.05.2020
3685 Clear 35 1015 21 8000 3.1 90 12:48 03.05.2020
3686 Clear 35 1015 23 8000 2.6 120 12:26 03.05.2020
3687 Clear 33 1015 27 8000 3.1 100 11:57 03.05.2020
3688 Clear 32 1015 29 8000 3.6 100 11:39 03.05.2020
3689 Clear 32 1015 29 8000 3.6 100 11:20 03.05.2020
3690 Clear 30 1015 37 8000 2.1 80 10:52 03.05.2020
3691 Clear 28 1015 39 8000 1 0 10:24 03.05.2020
3692 Clear 23 1015 49 8000 1 0 09:40 03.05.2020
3693 Clear 23 1015 49 8000 1 0 09:40 03.05.2020
3694 Clear 21 1015 56 8000 2.6 70 08:58 03.05.2020
3695 Clear 21 1015 52 8000 2.6 70 08:35 03.05.2020
3696 Clear 21 1015 52 8000 2.6 70 08:35 03.05.2020
3697 Clear 21 1014 52 8000 3.6 70 07:43 03.05.2020
3698 Clear 21 1014 52 8000 3.6 70 07:43 03.05.2020
3699 Clear 21 1014 52 8000 3.6 70 07:43 03.05.2020
3700 Clear 21 1014 52 8000 3.6 70 07:43 03.05.2020
3701 Clear 21 1014 52 8000 3.6 70 07:43 03.05.2020
3702 Clear 22 1015 49 8000 2.1 80 06:44 03.05.2020
3703 Clear 22 1015 49 8000 2.1 80 06:44 03.05.2020
3704 Clear 24 1015 44 8000 2.1 70 05:54 03.05.2020
3705 Clear 26 1015 39 8000 3.6 160 05:35 03.05.2020
3706 Clear 26 1016 39 8000 2.1 150 04:28 03.05.2020
3707 Clear 26 1016 39 8000 3.1 140 03:38 03.05.2020
3708 Clear 26 1017 39 8000 1 0 02:31 03.05.2020
3709 Clear 27 1017 36 8000 1 0 01:59 03.05.2020
3710 Clear 28 1018 32 8000 2.6 90 01:39 03.05.2020
3711 Clear 28 1018 32 8000 2.6 90 01:20 03.05.2020
3712 Clear 30 1018 28 8000 2.1 40 00:38 03.05.2020
3713 Clear 30 1018 28 8000 2.1 40 00:20 03.05.2020
3714 Clear 31 1018 27 8000 3.1 350 23:46 02.05.2020
3715 Clear 31 1017 29 8000 3.1 330 23:27 02.05.2020
3716 Clear 32 1017 24 8000 3.6 310 22:56 02.05.2020
3717 Clear 31 1017 25 8000 3.6 290 22:38 02.05.2020
3718 Clear 31 1017 25 8000 3.6 290 22:19 02.05.2020
3719 Clear 33 1016 26 8000 4.6 280 21:41 02.05.2020
3720 Clear 33 1016 26 8000 4.6 280 21:20 02.05.2020
3721 Clear 33 1016 26 8000 4.6 280 21:20 02.05.2020
3722 Clear 35 1016 20 8000 4.1 260 20:58 02.05.2020
3723 Clear 35 1016 20 8000 4.1 260 20:58 02.05.2020
3724 Clear 36 1016 19 8000 3.1 280 20:38 02.05.2020
3725 Clear 36 1016 19 8000 3.1 280 20:20 02.05.2020
3726 Clear 36 1016 20 10000 3.1 280 19:58 02.05.2020
3727 Clear 37 1016 19 10000 3.1 270 19:39 02.05.2020
3728 Clear 37 1016 19 10000 3.1 270 19:20 02.05.2020
3729 Clear 37 1016 18 10000 2.6 0 18:56 02.05.2020
3730 Clear 37 1016 18 10000 3.1 330 18:38 02.05.2020
3731 Clear 37 1016 18 10000 3.1 330 18:19 02.05.2020
3732 Clear 37 1016 18 10000 2.6 290 17:55 02.05.2020
3733 Clear 37 1017 19 10000 2.1 0 17:37 02.05.2020
3734 Clear 37 1017 19 10000 2.1 0 17:19 02.05.2020
3735 Clear 36 1017 18 10000 2.6 0 16:44 02.05.2020
3736 Clear 36 1017 19 10000 2.6 340 16:25 02.05.2020
3737 Clear 36 1018 22 10000 3.1 20 15:55 02.05.2020
3738 Clear 35 1018 21 10000 2.1 350 15:36 02.05.2020
3739 Clear 35 1018 21 10000 2.1 350 15:18 02.05.2020
3740 Clear 34 1019 28 10000 1.5 0 14:41 02.05.2020
3741 Clear 34 1019 28 10000 1.5 0 14:23 02.05.2020
3742 Clear 32 1019 31 10000 2.6 80 13:57 02.05.2020
3743 Clear 31 1020 35 10000 2.6 80 13:37 02.05.2020
3744 Clear 31 1020 35 10000 2.6 80 13:18 02.05.2020
3745 Clear 29 1020 39 10000 2.1 50 12:40 02.05.2020
3746 Clear 29 1020 39 10000 2.1 50 12:20 02.05.2020
3747 Clear 27 1020 44 10000 2.6 40 11:56 02.05.2020
3748 Clear 26 1020 47 10000 1.5 30 11:38 02.05.2020
3749 Clear 26 1020 47 10000 1.5 30 11:19 02.05.2020
3750 Clear 23 1020 53 10000 2.6 70 10:40 02.05.2020
3751 Clear 23 1020 53 10000 2.6 70 10:22 02.05.2020
3752 Clear 22 1020 56 10000 0.5 0 09:58 02.05.2020
3753 Clear 20 1020 64 10000 1.5 270 09:40 02.05.2020
3754 Clear 20 1020 64 10000 1.5 270 09:21 02.05.2020
3755 Clear 19 1019 68 10000 1 0 08:55 02.05.2020
3756 Clear 19 1019 63 10000 0.5 0 08:33 02.05.2020
3757 Clear 19 1019 59 10000 0.5 0 07:50 02.05.2020
3758 Clear 19 1019 59 10000 1 0 07:30 02.05.2020
3759 Clear 19 1019 59 10000 1 0 06:56 02.05.2020
3760 Clear 19 1019 59 10000 1 0 06:28 02.05.2020
3761 Clear 19 1019 63 10000 1.5 250 05:27 02.05.2020
3762 Clear 20 1020 60 10000 0.5 0 04:27 02.05.2020
3763 Clear 21 1020 60 10000 2.1 100 03:38 02.05.2020
3764 Clear 22 1021 56 10000 2.6 70 02:41 02.05.2020
3765 Clear 23 1021 49 10000 2.6 60 01:56 02.05.2020
3766 Clear 24 1021 47 10000 2.1 40 01:20 02.05.2020
3767 Clear 24 1021 47 10000 2.1 70 00:42 02.05.2020
3768 Clear 25 1021 44 10000 2.1 50 00:21 02.05.2020
3769 Clear 27 1020 34 10000 3.1 50 23:41 01.05.2020
3770 Clear 27 1020 34 10000 3.1 50 23:21 01.05.2020
3771 Clear 27 1020 32 10000 2.1 100 22:58 01.05.2020
3772 Clouds 28 1020 28 10000 1.5 60 22:38 01.05.2020
3773 Clouds 28 1020 28 10000 1.5 60 22:19 01.05.2020
3774 Clouds 29 1019 25 10000 2.1 40 21:57 01.05.2020
3775 Clouds 30 1019 25 10000 2.1 50 21:39 01.05.2020
3776 Clouds 30 1019 25 10000 2.1 50 21:19 01.05.2020
3777 Clouds 31 1019 23 10000 3.1 40 20:57 01.05.2020
3778 Clouds 32 1019 24 10000 2.1 350 20:38 01.05.2020
3779 Clouds 32 1019 24 10000 2.1 350 20:19 01.05.2020
3780 Clouds 31 1019 25 10000 3.1 70 19:55 01.05.2020
3781 Clouds 32 1019 25 10000 3.1 40 19:36 01.05.2020
3782 Clouds 32 1019 25 10000 3.1 40 19:18 01.05.2020
3783 Clouds 33 1019 27 10000 2.1 0 18:54 01.05.2020
3784 Clouds 32 1019 29 10000 3.1 0 18:36 01.05.2020
3785 Clouds 32 1019 29 10000 3.1 0 18:18 01.05.2020
3786 Clouds 31 1019 29 10000 2.6 0 17:39 01.05.2020
3787 Clouds 31 1019 29 10000 2.6 0 17:21 01.05.2020
3788 Clouds 31 1019 31 10000 3.1 60 16:57 01.05.2020
3789 Clouds 31 1020 31 10000 2.1 0 16:38 01.05.2020
3790 Clouds 31 1020 31 10000 2.1 0 16:20 01.05.2020
3791 Clouds 31 1020 31 10000 2.1 0 15:56 01.05.2020
3792 Clouds 29 1020 32 10000 3.6 80 15:38 01.05.2020
3793 Clouds 29 1020 32 10000 3.6 80 15:18 01.05.2020
3794 Clear 28 1021 34 10000 3.1 60 14:42 01.05.2020
3795 Clear 27 1021 39 10000 2.1 0 14:23 01.05.2020
3796 Clear 24 1022 47 10000 2.6 360 13:42 01.05.2020
3797 Clear 24 1022 47 10000 2.6 360 13:23 01.05.2020
3798 Clear 24 1022 47 10000 2.6 360 12:59 01.05.2020
3799 Clear 23 1022 49 10000 1.5 0 12:40 01.05.2020
3800 Clear 23 1022 49 10000 1.5 0 12:21 01.05.2020
3801 Clear 21 1022 56 10000 1 0 11:59 01.05.2020
3802 Clear 21 1022 56 10000 1 0 11:41 01.05.2020
3803 Clear 21 1022 56 10000 1 0 11:19 01.05.2020
3804 Clear 20 1022 64 10000 0.5 0 10:54 01.05.2020
3805 Clear 19 1022 63 10000 1.5 260 10:36 01.05.2020
3806 Clear 19 1022 63 10000 1.5 260 10:18 01.05.2020
3807 Clear 19 1022 63 10000 1.5 260 10:18 01.05.2020
3808 Clear 18 1022 68 10000 1.5 270 09:41 01.05.2020
3809 Clear 16 1022 72 10000 1 0 09:19 01.05.2020
3810 Clear 15 1021 77 10000 1 0 08:46 01.05.2020
3811 Clear 16 1021 72 10000 0.5 0 08:46 01.05.2020
3812 Clear 15 1021 77 10000 1 0 08:28 01.05.2020
3813 Clear 14 1021 82 10000 0.5 0 07:58 01.05.2020
3814 Clear 15 1021 77 10000 1 0 07:39 01.05.2020
3815 Clear 15 1021 77 10000 1 0 07:18 01.05.2020
3816 Clear 16 1021 72 10000 1.5 50 06:27 01.05.2020
3817 Clear 16 1021 72 10000 1.5 90 05:21 01.05.2020
3818 Clear 18 1021 59 10000 2.1 20 03:45 01.05.2020
3819 Clouds 18 1021 59 10000 3.1 30 02:53 01.05.2020
3820 Clouds 19 1022 52 10000 2.1 40 02:35 01.05.2020
3821 Clouds 19 1022 52 10000 4.1 60 01:53 01.05.2020
3822 Clouds 20 1022 49 10000 2.6 60 01:27 01.05.2020
3823 Clouds 21 1022 43 10000 4.1 40 00:40 01.05.2020
3824 Clouds 21 1022 43 10000 4.1 40 00:21 01.05.2020
3825 Clouds 21 1022 40 10000 5.7 40 23:57 30.04.2020
3826 Clouds 22 1021 37 10000 5.7 30 23:39 30.04.2020
3827 Clouds 22 1021 37 10000 5.7 30 23:21 30.04.2020
3828 Clouds 23 1021 38 10000 4.6 20 22:57 30.04.2020
3829 Clouds 25 1020 31 10000 5.7 30 22:38 30.04.2020
3830 Clouds 25 1020 31 10000 5.7 30 22:18 30.04.2020
3831 Clouds 26 1020 29 10000 5.7 30 21:42 30.04.2020
3832 Clouds 27 1019 26 10000 4.6 20 21:22 30.04.2020
3833 Clouds 27 1019 24 10000 5.1 30 20:58 30.04.2020
3834 Clouds 29 1019 23 10000 4.6 50 20:40 30.04.2020
3835 Clouds 29 1019 23 10000 4.6 50 20:18 30.04.2020
3836 Clouds 29 1018 25 10000 1.5 40 19:46 30.04.2020
3837 Clouds 29 1018 23 10000 4.1 80 19:26 30.04.2020
3838 Clouds 29 1019 25 10000 2.6 80 18:59 30.04.2020
3839 Clouds 29 1019 26 10000 2.6 0 18:39 30.04.2020
3840 Clouds 29 1019 26 10000 2.6 0 18:21 30.04.2020
3841 Clouds 29 1019 26 10000 2.6 0 17:58 30.04.2020
3842 Clouds 28 1019 32 10000 4.1 0 17:40 30.04.2020
3843 Clouds 28 1019 32 10000 4.1 0 17:21 30.04.2020
3844 Clouds 28 1020 34 10000 3.1 60 16:57 30.04.2020
3845 Clouds 27 1020 36 10000 4.1 30 16:38 30.04.2020
3846 Clouds 27 1020 36 10000 4.1 30 16:19 30.04.2020
3847 Clouds 26 1020 39 10000 4.1 90 15:48 30.04.2020
3848 Clouds 26 1020 39 10000 4.1 90 15:48 30.04.2020
3849 Clouds 26 1020 39 10000 2.6 0 15:25 30.04.2020
3850 Clouds 25 1021 41 10000 3.6 30 14:57 30.04.2020
3851 Clouds 24 1021 44 10000 2.6 0 14:39 30.04.2020
3852 Clouds 24 1021 44 10000 2.6 0 14:19 30.04.2020
3853 Clouds 24 1021 44 10000 2.6 10 13:55 30.04.2020
3854 Clouds 23 1022 49 10000 3.1 60 13:37 30.04.2020
3855 Clouds 23 1022 49 10000 3.1 60 13:19 30.04.2020
3856 Clear 22 1022 53 10000 1 0 12:41 30.04.2020
3857 Clear 22 1022 53 10000 1 0 12:20 30.04.2020
3858 Clear 21 1022 52 10000 1 0 11:58 30.04.2020
3859 Clear 20 1022 60 10000 1 0 11:36 30.04.2020
3860 Clear 20 1022 60 10000 1 0 11:18 30.04.2020
3861 Clear 19 1022 59 10000 1 0 10:41 30.04.2020
3862 Clear 17 1021 67 10000 1.5 220 10:22 30.04.2020
3863 Clear 17 1021 67 10000 1.5 220 10:22 30.04.2020
3864 Clear 16 1022 72 10000 1.5 250 09:58 30.04.2020
3865 Clear 15 1021 72 10000 1.5 270 09:39 30.04.2020
3866 Clear 15 1021 72 10000 1.5 270 09:21 30.04.2020
3867 Clear 14 1021 76 10000 2.1 280 08:48 30.04.2020
3868 Clear 14 1021 76 10000 2.6 290 08:26 30.04.2020
3869 Clear 14 1021 76 10000 1.5 280 07:57 30.04.2020
3870 Clear 14 1020 76 10000 2.1 230 07:39 30.04.2020
3871 Clear 14 1020 76 10000 2.1 230 07:19 30.04.2020
3872 Clear 14 1021 76 10000 1.5 260 06:32 30.04.2020
3873 Clear 14 1021 76 10000 1.5 260 05:47 30.04.2020
3874 Clear 16 1021 67 10000 1.5 40 04:46 30.04.2020
3875 Clear 16 1021 67 10000 2.1 50 04:24 30.04.2020
3876 Clear 17 1022 63 10000 2.6 40 02:50 30.04.2020
3877 Clear 17 1022 63 10000 1.5 50 02:28 30.04.2020
3878 Clouds 19 1021 55 10000 4.1 30 01:37 30.04.2020
3879 Clouds 19 1021 55 10000 5.1 30 00:53 30.04.2020
3880 Clouds 20 1021 52 10000 4.6 20 00:24 30.04.2020
3881 Clouds 20 1021 52 10000 4.6 20 00:24 30.04.2020
3882 Clouds 21 1021 52 10000 5.1 20 23:59 29.04.2020
3883 Clouds 22 1021 46 10000 3.1 50 23:41 29.04.2020
3884 Clouds 22 1021 46 10000 3.1 50 23:22 29.04.2020
3885 Clouds 22 1020 43 10000 2.6 70 22:58 29.04.2020
3886 Clouds 23 1020 38 10000 2.6 70 22:38 29.04.2020
3887 Clouds 23 1020 38 10000 2.6 70 22:19 29.04.2020
3888 Clouds 25 1020 36 10000 3.1 60 21:38 29.04.2020
3889 Clouds 25 1020 36 10000 3.1 60 21:20 29.04.2020
3890 Clouds 25 1019 33 10000 4.6 40 20:58 29.04.2020
3891 Clouds 26 1019 34 10000 4.1 50 20:39 29.04.2020
3892 Clouds 26 1019 34 10000 4.1 50 20:19 29.04.2020
3893 Clouds 26 1020 36 10000 3.1 50 19:54 29.04.2020
3894 Clouds 26 1019 36 10000 4.1 60 19:36 29.04.2020
3895 Clouds 26 1019 36 10000 4.1 60 19:18 29.04.2020
3896 Clouds 26 1019 36 10000 4.6 60 18:41 29.04.2020
3897 Clouds 26 1019 36 10000 4.6 60 18:20 29.04.2020
3898 Clouds 26 1019 36 10000 4.6 40 17:44 29.04.2020
3899 Clouds 26 1020 41 10000 2.6 40 17:22 29.04.2020
3900 Clouds 25 1020 41 10000 2.1 0 16:59 29.04.2020
3901 Clouds 25 1021 41 10000 2.1 0 16:37 29.04.2020
3902 Clouds 25 1021 41 10000 2.1 0 16:18 29.04.2020
3903 Clouds 24 1021 44 10000 4.1 80 15:55 29.04.2020
3904 Clouds 24 1021 44 10000 1.5 90 15:37 29.04.2020
3905 Clouds 24 1021 44 10000 1.5 90 15:37 29.04.2020
3906 Clouds 24 1021 44 10000 1.5 90 15:19 29.04.2020
3907 Clouds 22 1022 49 10000 3.1 50 14:44 29.04.2020
3908 Clouds 22 1022 49 10000 3.1 50 14:26 29.04.2020
3909 Clouds 23 1022 46 10000 1.5 0 13:58 29.04.2020
3910 Clouds 22 1022 53 10000 2.1 0 13:38 29.04.2020
3911 Clouds 22 1022 53 10000 2.1 0 13:19 29.04.2020
3912 Clouds 22 1023 53 10000 1.5 0 12:55 29.04.2020
3913 Clouds 21 1023 56 10000 1.5 0 12:37 29.04.2020
3914 Clouds 21 1023 56 10000 1.5 0 12:37 29.04.2020
3915 Clouds 21 1023 56 10000 1.5 0 12:18 29.04.2020
3916 Clouds 18 1022 68 10000 1.5 80 11:39 29.04.2020
3917 Clouds 18 1022 68 10000 1.5 80 11:20 29.04.2020
3918 Clouds 18 1022 68 10000 1.5 80 11:20 29.04.2020
3919 Clouds 18 1022 68 10000 1.5 80 11:20 29.04.2020
3920 Clouds 18 1022 68 10000 1.5 80 11:20 29.04.2020
3921 Clouds 18 1022 68 10000 1.5 90 10:54 29.04.2020
3922 Clouds 17 1021 67 10000 2.1 80 10:36 29.04.2020
3923 Clouds 17 1021 67 10000 2.1 80 10:18 29.04.2020
3924 Clouds 17 1021 72 10000 2.1 90 09:41 29.04.2020
3925 Clouds 17 1021 72 10000 2.1 90 09:41 29.04.2020
3926 Clouds 17 1021 72 10000 2.1 90 09:21 29.04.2020
3927 Clouds 16 1020 77 10000 2.6 90 08:44 29.04.2020
3928 Clouds 16 1020 77 10000 2.6 90 08:26 29.04.2020
3929 Clouds 16 1020 77 10000 2.6 80 07:55 29.04.2020
3930 Clouds 16 1020 77 10000 3.1 50 07:29 29.04.2020
3931 Clouds 16 1020 77 10000 3.1 70 06:53 29.04.2020
3932 Clouds 16 1019 72 10000 3.6 40 06:32 29.04.2020
3933 Clouds 16 1019 77 10000 3.6 40 05:53 29.04.2020
3934 Clouds 17 1019 72 10000 3.1 60 05:20 29.04.2020
3935 Clouds 17 1020 72 10000 2.6 50 04:20 29.04.2020
3936 Clouds 16 1020 77 10000 3.6 30 03:54 29.04.2020
3937 Clouds 17 1021 67 10000 3.6 350 02:30 29.04.2020
3938 Clouds 17 1021 67 10000 3.1 360 01:37 29.04.2020
3939 Clouds 17 1021 67 10000 3.1 360 01:19 29.04.2020
3940 Clouds 18 1021 63 10000 3.6 340 00:38 29.04.2020
3941 Clouds 18 1021 63 10000 3.6 340 00:18 29.04.2020
3942 Clouds 18 1021 63 10000 3.6 330 23:45 28.04.2020
3943 Clouds 19 1021 59 10000 5.1 330 23:21 28.04.2020
3944 Clouds 21 1019 49 10000 5.7 330 22:40 28.04.2020
3945 Clouds 21 1019 49 10000 5.7 330 22:22 28.04.2020
3946 Clouds 22 1019 46 10000 3.1 270 21:59 28.04.2020
3947 Clouds 23 1018 40 10000 3.1 280 21:40 28.04.2020
3948 Clouds 23 1018 40 10000 3.1 280 21:22 28.04.2020
3949 Clouds 24 1018 38 10000 2.1 290 20:59 28.04.2020
3950 Clouds 24 1018 38 10000 2.1 290 20:40 28.04.2020
3951 Clouds 24 1018 38 10000 2.1 290 20:20 28.04.2020
3952 Clouds 24 1018 38 10000 2.1 270 19:56 28.04.2020
3953 Clouds 26 1018 34 10000 1.5 0 19:38 28.04.2020
3954 Clouds 26 1018 34 10000 1.5 0 19:19 28.04.2020
3955 Clouds 25 1018 38 10000 1 0 18:57 28.04.2020
3956 Clouds 24 1018 38 10000 2.6 280 18:37 28.04.2020
3957 Clouds 24 1018 38 10000 2.6 280 18:37 28.04.2020
3958 Clouds 24 1018 38 10000 2.6 280 18:18 28.04.2020
3959 Clouds 24 1018 41 10000 2.1 0 17:37 28.04.2020
3960 Clouds 24 1018 41 10000 2.1 0 17:19 28.04.2020
3961 Clouds 24 1018 41 10000 3.1 0 16:57 28.04.2020
3962 Clouds 23 1018 43 10000 3.6 280 16:39 28.04.2020
3963 Clouds 23 1018 43 10000 3.6 280 16:21 28.04.2020
3964 Clouds 23 1018 43 10000 2.1 250 15:56 28.04.2020
3965 Clouds 23 1019 43 0 1 0 15:38 28.04.2020
3966 Clouds 23 1019 43 0 1 0 15:20 28.04.2020
3967 Clouds 22 1019 49 8000 2.1 310 14:54 28.04.2020
3968 Clouds 21 1019 49 8000 2.6 0 14:36 28.04.2020
3969 Clouds 21 1019 49 8000 2.6 0 14:18 28.04.2020
3970 Clouds 20 1019 56 8000 2.6 340 13:55 28.04.2020
3971 Clouds 20 1019 56 8000 2.6 270 13:36 28.04.2020
3972 Clouds 20 1019 56 8000 2.6 270 13:18 28.04.2020
3973 Clouds 19 1020 63 8000 1.5 280 12:41 28.04.2020
3974 Clouds 19 1020 63 8000 1.5 280 12:22 28.04.2020
3975 Clouds 17 1020 67 8000 2.1 280 11:42 28.04.2020
3976 Clouds 17 1019 72 8000 3.6 270 11:23 28.04.2020
3977 Clouds 16 1019 82 8000 2.6 290 10:58 28.04.2020
3978 Clouds 16 1019 82 8000 3.1 270 10:38 28.04.2020
3979 Clouds 16 1019 82 8000 3.1 270 10:18 28.04.2020
3980 Clouds 15 1019 87 8000 2.6 260 09:44 28.04.2020
3981 Clouds 15 1018 87 10000 2.6 270 09:25 28.04.2020
3982 Clouds 15 1018 87 10000 2.6 240 08:57 28.04.2020
3983 Clouds 15 1018 87 10000 2.6 250 08:38 28.04.2020
3984 Clouds 15 1018 87 10000 2.6 250 08:20 28.04.2020
3985 Clouds 15 1018 87 10000 2.6 270 07:42 28.04.2020
3986 Clouds 15 1018 87 10000 3.1 270 07:18 28.04.2020
3987 Clouds 15 1018 87 10000 3.1 270 06:41 28.04.2020
3988 Clouds 15 1017 82 10000 3.1 270 05:52 28.04.2020
3989 Clouds 15 1017 82 10000 2.1 270 05:34 28.04.2020
3990 Clouds 15 1017 82 10000 2.1 270 04:33 28.04.2020
3991 Clouds 17 1018 77 10000 3.6 260 02:39 28.04.2020
3992 Clouds 17 1018 77 10000 3.1 260 01:53 28.04.2020
3993 Clouds 17 1018 72 10000 2.6 290 01:22 28.04.2020
3994 Clouds 18 1018 68 10000 3.6 300 00:42 28.04.2020
3995 Clouds 19 1018 63 10000 3.6 310 23:58 27.04.2020
3996 Clouds 20 1018 56 10000 4.6 320 23:40 27.04.2020
3997 Clouds 20 1018 56 10000 4.6 320 23:20 27.04.2020
3998 Clouds 22 1016 49 10000 4.1 290 22:43 27.04.2020
3999 Clouds 22 1016 49 10000 4.1 290 22:23 27.04.2020
4000 Clouds 22 1016 49 10000 3.1 310 21:57 27.04.2020
4001 Clouds 23 1016 40 10000 3.1 250 21:39 27.04.2020
4002 Clouds 23 1016 40 10000 3.1 250 21:19 27.04.2020
4003 Clouds 23 1016 38 10000 2.6 240 20:57 27.04.2020
4004 Clouds 25 1016 36 10000 2.6 220 20:39 27.04.2020
4005 Clouds 25 1016 36 10000 2.6 220 20:21 27.04.2020
4006 Clouds 24 1016 38 10000 3.1 250 19:56 27.04.2020
4007 Clouds 24 1016 38 10000 3.6 260 19:37 27.04.2020
4008 Clouds 24 1016 38 10000 3.6 260 19:37 27.04.2020
4009 Clouds 24 1016 38 10000 3.6 260 19:37 27.04.2020
4010 Clouds 24 1016 38 10000 3.6 260 19:19 27.04.2020
4011 Clouds 24 1016 36 10000 2.6 230 18:55 27.04.2020
4012 Clouds 25 1016 38 10000 3.1 0 18:37 27.04.2020
4013 Clouds 25 1016 38 10000 3.1 0 18:18 27.04.2020
4014 Clouds 25 1016 41 10000 2.1 0 17:41 27.04.2020
4015 Clouds 25 1016 41 10000 2.1 0 17:19 27.04.2020
4016 Clouds 24 1016 47 10000 1.5 0 16:41 27.04.2020
4017 Clouds 24 1016 47 10000 1.5 0 16:22 27.04.2020
4018 Clouds 23 1017 46 10000 2.1 0 15:59 27.04.2020
4019 Clouds 22 1017 53 10000 2.6 0 15:41 27.04.2020
4020 Clouds 22 1017 53 10000 2.6 0 15:21 27.04.2020
4021 Clouds 22 1017 53 10000 2.6 320 14:58 27.04.2020
4022 Clouds 21 1017 52 10000 2.1 0 14:40 27.04.2020
4023 Clouds 21 1017 52 10000 2.1 0 14:19 27.04.2020
4024 Clouds 21 1017 52 10000 2.6 280 13:57 27.04.2020
4025 Clouds 21 1017 52 10000 2.6 280 13:57 27.04.2020
4026 Clouds 20 1017 56 10000 2.6 280 13:37 27.04.2020
4027 Clouds 20 1017 56 10000 2.6 280 13:18 27.04.2020
4028 Clear 19 1017 59 10000 2.1 280 12:43 27.04.2020
4029 Clear 19 1017 59 10000 1.5 0 12:22 27.04.2020
4030 Clear 18 1017 63 10000 2.1 0 11:55 27.04.2020
4031 Clear 17 1017 67 10000 2.1 270 11:37 27.04.2020
4032 Clear 17 1017 67 10000 2.1 270 11:18 27.04.2020
4033 Clear 16 1017 72 10000 2.1 240 10:42 27.04.2020
4034 Clear 15 1017 77 10000 2.1 250 10:24 27.04.2020
4035 Clear 15 1017 77 10000 2.1 250 10:24 27.04.2020
4036 Clear 14 1016 76 8000 3.1 220 09:58 27.04.2020
4037 Clear 13 1016 82 8000 2.6 220 09:39 27.04.2020
4038 Clouds 13 1016 82 8000 2.6 220 09:18 27.04.2020
4039 Clouds 13 1016 82 8000 2.1 230 08:48 27.04.2020
4040 Clouds 11 1016 87 8000 2.1 270 08:30 27.04.2020
4041 Clouds 11 1016 87 8000 2.1 260 07:45 27.04.2020
4042 Clouds 12 1016 81 8000 1.5 240 07:25 27.04.2020
4043 Clouds 12 1016 87 8000 1.5 240 06:58 27.04.2020
4044 Clouds 12 1016 87 8000 1.5 250 06:30 27.04.2020
4045 Clouds 12 1016 87 8000 2.1 280 05:56 27.04.2020
4046 Clouds 12 1016 81 8000 2.1 260 05:18 27.04.2020
4047 Clouds 13 1016 76 8000 2.1 260 04:39 27.04.2020
4048 Clouds 14 1016 71 8000 3.6 240 03:45 27.04.2020
4049 Clouds 14 1016 71 8000 3.6 240 03:45 27.04.2020
4050 Clouds 16 1016 63 8000 1 0 02:30 27.04.2020
4051 Clouds 17 1016 59 8000 4.1 30 01:20 27.04.2020
4052 Clouds 19 1017 52 8000 4.6 20 00:40 27.04.2020
4053 Clouds 19 1017 52 8000 4.6 20 00:18 27.04.2020
4054 Clouds 20 1016 45 8000 2.6 10 23:55 26.04.2020
4055 Clouds 21 1016 43 8000 2.1 330 23:36 26.04.2020
4056 Clouds 21 1016 43 8000 2.1 330 23:36 26.04.2020
4057 Clouds 21 1016 43 8000 2.1 330 23:18 26.04.2020
4058 Clouds 21 1016 46 8000 2.1 260 22:40 26.04.2020
4059 Clouds 21 1016 46 8000 2.1 260 22:21 26.04.2020
4060 Clouds 21 1015 46 8000 2.1 250 21:59 26.04.2020
4061 Clouds 21 1015 46 8000 2.1 250 21:59 26.04.2020
4062 Clouds 21 1015 46 8000 2.1 210 21:40 26.04.2020
4063 Clouds 21 1015 46 8000 2.1 210 21:40 26.04.2020
4064 Clouds 21 1015 46 8000 2.1 210 21:19 26.04.2020
4065 Clouds 22 1015 43 8000 2.1 240 20:56 26.04.2020
4066 Clouds 22 1014 43 8000 1 0 20:37 26.04.2020
4067 Clouds 22 1014 43 8000 1 0 20:19 26.04.2020
4068 Clouds 23 1014 40 8000 1.5 0 19:58 26.04.2020
4069 Clouds 23 1014 40 8000 2.1 110 19:37 26.04.2020
4070 Clouds 23 1014 40 8000 2.1 110 19:19 26.04.2020
4071 Clouds 23 1014 40 8000 2.6 110 18:44 26.04.2020
4072 Clouds 23 1015 40 8000 1.5 0 18:24 26.04.2020
4073 Clouds 23 1015 43 8000 1.5 0 17:45 26.04.2020
4074 Clouds 22 1015 43 8000 2.1 80 17:24 26.04.2020
4075 Clouds 21 1015 46 8000 1.5 70 16:59 26.04.2020
4076 Clouds 23 1015 43 8000 1.5 0 16:40 26.04.2020
4077 Clouds 23 1015 43 8000 1.5 0 16:21 26.04.2020
4078 Clouds 20 1015 52 8000 2.1 0 15:58 26.04.2020
4079 Clouds 20 1015 52 8000 2.1 100 15:38 26.04.2020
4080 Clouds 20 1015 52 8000 2.1 100 15:20 26.04.2020
4081 Clouds 21 1016 52 8000 2.1 110 14:54 26.04.2020
4082 Clouds 19 1016 55 8000 2.1 0 14:36 26.04.2020
4083 Clouds 19 1016 55 8000 2.1 0 14:18 26.04.2020
4084 Clouds 18 1016 59 8000 2.6 50 13:41 26.04.2020
4085 Clouds 18 1017 63 8000 3.1 60 13:23 26.04.2020
4086 Clouds 18 1017 63 8000 3.1 60 12:58 26.04.2020
4087 Clouds 16 1016 72 8000 3.1 60 12:39 26.04.2020
4088 Clouds 16 1016 72 8000 3.1 60 12:20 26.04.2020
4089 Clouds 16 1016 72 8000 3.1 50 11:57 26.04.2020
4090 Clouds 16 1016 72 8000 3.6 70 11:38 26.04.2020
4091 Clouds 16 1016 72 8000 3.6 70 11:38 26.04.2020
4092 Clouds 16 1016 72 8000 3.6 70 11:20 26.04.2020
4093 Clouds 15 1016 77 8000 3.6 80 10:55 26.04.2020
4094 Clouds 15 1016 82 8000 3.1 60 10:37 26.04.2020
4095 Clouds 15 1016 82 8000 3.1 60 10:18 26.04.2020
4096 Clouds 13 1016 87 7000 3.1 40 09:39 26.04.2020
4097 Clouds 13 1016 87 7000 3.1 40 09:21 26.04.2020
4098 Rain 13 1016 87 7000 2.1 40 08:43 26.04.2020
4099 Rain 13 1016 87 7000 2.1 40 08:23 26.04.2020
4100 Clouds 13 1015 87 7000 2.6 50 07:58 26.04.2020
4101 Rain 13 1015 93 5000 2.6 30 07:40 26.04.2020
4102 Rain 13 1015 93 5000 2.6 30 07:18 26.04.2020
4103 Clouds 13 1015 87 8000 1.5 60 06:39 26.04.2020
4104 Clouds 14 1016 82 8000 3.1 100 05:55 26.04.2020
4105 Clouds 14 1016 82 8000 3.1 100 05:36 26.04.2020
4106 Clouds 14 1016 87 8000 3.6 110 04:44 26.04.2020
4107 Clouds 14 1016 82 8000 3.1 90 03:56 26.04.2020
4108 Clouds 15 1017 77 8000 3.1 40 02:46 26.04.2020
4109 Clouds 15 1017 77 8000 3.6 50 02:26 26.04.2020
4110 Clouds 15 1018 77 8000 3.1 20 01:40 26.04.2020
4111 Clouds 15 1018 77 8000 3.1 20 01:21 26.04.2020
4112 Clouds 16 1018 67 8000 3.1 350 00:39 26.04.2020
4113 Clouds 16 1018 67 8000 3.1 350 00:18 26.04.2020
4114 Clouds 16 1017 67 8000 3.6 360 23:38 25.04.2020
4115 Clouds 16 1017 67 8000 3.6 360 23:20 25.04.2020
4116 Clouds 16 1017 67 8000 4.1 360 22:55 25.04.2020
4117 Clouds 16 1016 67 8000 4.1 360 22:37 25.04.2020
4118 Clouds 16 1016 67 8000 4.1 360 22:18 25.04.2020
4119 Clouds 16 1016 67 8000 4.1 360 22:18 25.04.2020
4120 Clouds 17 1016 63 8000 4.1 350 21:40 25.04.2020
4121 Clouds 17 1016 63 8000 4.1 350 21:20 25.04.2020
4122 Clouds 17 1016 67 8000 4.6 340 20:57 25.04.2020
4123 Clouds 18 1015 63 8000 4.1 350 20:39 25.04.2020
4124 Clouds 18 1015 63 8000 4.1 350 20:20 25.04.2020
4125 Clouds 19 1015 55 8000 3.6 350 19:42 25.04.2020
4126 Clouds 19 1015 55 8000 3.1 350 19:23 25.04.2020
4127 Clouds 20 1015 56 8000 4.1 360 18:58 25.04.2020
4128 Clouds 19 1015 59 8000 4.1 340 18:39 25.04.2020
4129 Clouds 19 1015 59 8000 4.1 340 18:20 25.04.2020
4130 Clouds 19 1015 59 8000 4.1 330 17:58 25.04.2020
4131 Clouds 18 1016 63 8000 4.6 330 17:38 25.04.2020
4132 Clouds 18 1016 63 8000 4.6 330 17:19 25.04.2020
4133 Clouds 19 1016 68 8000 5.1 330 16:55 25.04.2020
4134 Clouds 20 1016 56 8000 3.1 310 16:37 25.04.2020
4135 Clouds 20 1016 56 8000 3.1 310 16:18 25.04.2020
4136 Clouds 18 1016 63 6000 4.6 270 15:41 25.04.2020
4137 Clouds 18 1016 63 6000 4.6 270 15:41 25.04.2020
4138 Clouds 18 1016 63 6000 4.6 270 15:20 25.04.2020
4139 Clouds 18 1017 59 6000 3.1 300 14:58 25.04.2020
4140 Clouds 18 1017 59 6000 3.1 300 14:58 25.04.2020
4141 Clouds 18 1016 68 6000 3.6 290 14:39 25.04.2020
4142 Clouds 18 1016 68 6000 3.6 290 14:20 25.04.2020
4143 Clouds 18 1017 68 6000 3.1 260 13:43 25.04.2020
4144 Clouds 17 1017 67 6000 3.6 290 13:19 25.04.2020
4145 Clouds 17 1017 72 6000 1.5 280 12:58 25.04.2020
4146 Clouds 16 1017 77 6000 2.6 270 12:40 25.04.2020
4147 Clouds 16 1017 77 6000 2.6 270 12:20 25.04.2020
4148 Clouds 16 1017 77 6000 1.5 250 11:57 25.04.2020
4149 Clouds 16 1017 82 6000 2.1 240 11:39 25.04.2020
4150 Clouds 16 1017 82 6000 2.1 240 11:20 25.04.2020
4151 Clouds 14 1016 93 6000 2.6 260 10:43 25.04.2020
4152 Clouds 14 1016 93 6000 2.6 270 10:23 25.04.2020
4153 Rain 13 1016 93 5000 1.5 290 09:48 25.04.2020
4154 Clouds 13 1016 93 8000 2.6 260 09:29 25.04.2020
4155 Clouds 13 1015 93 8000 2.6 260 08:58 25.04.2020
4156 Clouds 13 1015 93 8000 2.6 260 08:58 25.04.2020
4157 Clouds 13 1015 93 6000 2.6 280 08:40 25.04.2020
4158 Clouds 13 1015 93 6000 2.6 280 08:21 25.04.2020
4159 Clouds 13 1014 93 6000 3.6 300 07:58 25.04.2020
4160 Clouds 13 1014 93 6000 3.1 260 07:39 25.04.2020
4161 Clouds 13 1014 93 6000 2.6 260 06:48 25.04.2020
4162 Clouds 13 1014 93 6000 2.6 240 06:30 25.04.2020
4163 Clouds 13 1014 93 6000 2.1 260 05:40 25.04.2020
4164 Clouds 13 1014 93 6000 2.1 260 05:21 25.04.2020
4165 Clouds 14 1015 93 6000 3.6 220 02:59 25.04.2020
4166 Clouds 14 1015 93 5000 3.6 250 02:25 25.04.2020
4167 Clouds 14 1015 93 5000 2.6 230 01:54 25.04.2020
4168 Clouds 14 1015 87 5000 3.1 230 01:34 25.04.2020
4169 Clouds 14 1015 93 5000 2.1 220 00:58 25.04.2020
4170 Clouds 13 1015 100 5000 2.1 210 00:34 25.04.2020
4171 Clouds 13 1015 93 5000 2.1 200 23:55 24.04.2020
4172 Clouds 13 1015 93 5000 2.1 200 23:55 24.04.2020
4173 Thunderstorm 12 1015 93 2000 2.6 230 23:36 24.04.2020
4174 Thunderstorm 12 1015 93 2000 2.6 230 23:18 24.04.2020
4175 Thunderstorm 11 1014 93 3000 8.2 280 22:40 24.04.2020
4176 Thunderstorm 11 1014 93 3000 8.2 280 22:19 24.04.2020
4177 Clouds 16 1012 82 6000 3.1 170 21:57 24.04.2020
4178 Clouds 16 1012 82 6000 3.6 170 21:38 24.04.2020
4179 Clouds 16 1012 82 6000 3.6 170 21:20 24.04.2020
4180 Clouds 16 1012 82 6000 4.1 190 20:56 24.04.2020
4181 Clouds 15 1012 82 6000 4.6 190 20:38 24.04.2020
4182 Clouds 15 1012 82 6000 4.6 190 20:18 24.04.2020
4183 Clouds 16 1011 82 6000 3.6 170 19:40 24.04.2020
4184 Clouds 16 1011 82 6000 3.6 170 19:22 24.04.2020
4185 Thunderstorm 15 1011 82 3000 3.6 330 18:46 24.04.2020
4186 Thunderstorm 16 1012 82 5000 8.2 280 18:28 24.04.2020
4187 Thunderstorm 18 1011 68 6000 2.6 280 17:58 24.04.2020
4188 Clouds 18 1012 68 6000 4.1 300 17:39 24.04.2020
4189 Clouds 18 1012 68 6000 4.1 300 17:20 24.04.2020
4190 Clouds 19 1012 68 6000 1 0 16:58 24.04.2020
4191 Clouds 19 1012 63 6000 1.5 320 16:40 24.04.2020
4192 Clouds 19 1012 63 6000 1.5 320 16:21 24.04.2020
4193 Clouds 18 1012 68 6000 3.1 270 15:42 24.04.2020
4194 Clouds 17 1012 72 6000 4.1 300 15:21 24.04.2020
4195 Clouds 18 1012 72 6000 5.1 290 14:59 24.04.2020
4196 Clouds 18 1012 68 6000 5.7 280 14:38 24.04.2020
4197 Clouds 18 1012 68 6000 5.7 280 14:19 24.04.2020
4198 Clouds 18 1012 68 6000 6.7 270 13:42 24.04.2020
4199 Clouds 18 1012 68 6000 4.6 260 13:22 24.04.2020
4200 Clouds 17 1012 72 6000 5.7 260 12:59 24.04.2020
4201 Clouds 16 1012 77 6000 4.1 250 12:40 24.04.2020
4202 Clouds 16 1012 77 6000 4.1 250 12:20 24.04.2020
4203 Mist 17 1012 72 4000 2.6 250 11:55 24.04.2020
4204 Mist 16 1012 77 4000 2.1 0 11:36 24.04.2020
4205 Mist 16 1012 77 4000 2.1 0 11:18 24.04.2020
4206 Mist 14 1012 87 4000 4.1 280 10:38 24.04.2020
4207 Mist 14 1012 87 4000 4.1 280 10:20 24.04.2020
4208 Mist 14 1012 87 4000 4.1 270 09:57 24.04.2020
4209 Clouds 14 1012 82 6000 4.1 260 09:39 24.04.2020
4210 Clouds 14 1012 82 6000 4.1 260 09:20 24.04.2020
4211 Clouds 13 1012 87 8000 5.1 260 08:43 24.04.2020
4212 Clouds 13 1011 87 8000 5.7 250 08:23 24.04.2020
4213 Clouds 13 1010 87 8000 5.1 240 07:59 24.04.2020
4214 Clouds 13 1010 87 8000 4.1 240 07:41 24.04.2020
4215 Clouds 13 1010 87 8000 4.1 240 07:22 24.04.2020
4216 Clouds 13 1010 82 8000 3.6 240 06:45 24.04.2020
4217 Clouds 13 1009 82 8000 3.1 240 06:23 24.04.2020
4218 Clouds 14 1009 76 8000 3.1 240 05:39 24.04.2020
4219 Clouds 17 1010 67 8000 0.5 0 03:41 24.04.2020
4220 Clouds 17 1010 67 8000 1 0 02:51 24.04.2020
4221 Clouds 17 1011 72 8000 1.5 330 02:31 24.04.2020
4222 Clouds 17 1010 72 8000 1 0 01:46 24.04.2020
4223 Clouds 19 1011 59 8000 1 0 00:55 24.04.2020
4224 Clouds 21 1010 52 8000 1 0 00:20 24.04.2020
4225 Clouds 21 1010 52 8000 1.5 70 23:48 23.04.2020
4226 Clouds 21 1010 56 8000 2.6 80 23:28 23.04.2020
4227 Clouds 22 1011 53 8000 2.1 190 22:58 23.04.2020
4228 Clouds 23 1011 49 8000 1.5 180 22:39 23.04.2020
4229 Clouds 23 1011 49 8000 1.5 180 22:20 23.04.2020
4230 Clouds 23 1010 49 8000 2.1 150 21:57 23.04.2020
4231 Clouds 23 1010 49 8000 1 0 21:39 23.04.2020
4232 Clouds 23 1010 49 8000 1 0 21:20 23.04.2020
4233 Clouds 22 1010 53 8000 2.6 250 20:57 23.04.2020
4234 Clouds 23 1010 49 8000 2.6 270 20:39 23.04.2020
4235 Clouds 23 1010 49 8000 2.6 270 20:20 23.04.2020
4236 Thunderstorm 23 1010 49 8000 3.1 240 19:56 23.04.2020
4237 Thunderstorm 24 1010 44 8000 1.5 280 19:38 23.04.2020
4238 Thunderstorm 24 1010 44 8000 1.5 280 19:20 23.04.2020
4239 Clouds 24 1010 44 10000 2.1 0 18:43 23.04.2020
4240 Clouds 24 1010 44 10000 2.1 0 18:23 23.04.2020
4241 Clouds 24 1010 44 10000 2.6 0 17:58 23.04.2020
4242 Clouds 24 1010 44 10000 2.6 0 17:58 23.04.2020
4243 Clouds 24 1011 44 10000 2.6 340 17:39 23.04.2020
4244 Clouds 24 1011 44 10000 2.6 340 17:21 23.04.2020
4245 Clouds 24 1011 47 10000 1.5 360 16:56 23.04.2020
4246 Clouds 23 1011 49 10000 1.5 0 16:38 23.04.2020
4247 Clouds 23 1011 49 10000 1.5 0 16:18 23.04.2020
4248 Clouds 21 1012 52 10000 2.1 50 15:42 23.04.2020
4249 Clouds 21 1012 52 10000 2.1 50 15:22 23.04.2020
4250 Clouds 21 1012 56 10000 1.5 0 14:56 23.04.2020
4251 Clouds 21 1012 56 10000 2.1 0 14:37 23.04.2020
4252 Clouds 21 1012 56 10000 2.1 0 14:19 23.04.2020
4253 Clouds 20 1013 60 10000 1.5 0 13:41 23.04.2020
4254 Clouds 20 1013 60 10000 1.5 0 13:23 23.04.2020
4255 Clouds 19 1013 63 10000 1.5 120 12:59 23.04.2020
4256 Clouds 18 1014 68 10000 1 0 12:41 23.04.2020
4257 Clouds 18 1014 68 10000 1 0 12:23 23.04.2020
4258 Clouds 17 1014 67 10000 1 0 11:47 23.04.2020
4259 Clouds 16 1014 72 10000 1.5 260 11:28 23.04.2020
4260 Clouds 15 1013 77 10000 1 0 10:59 23.04.2020
4261 Clouds 15 1013 77 10000 1 0 10:59 23.04.2020
4262 Clouds 14 1013 82 10000 1 0 10:40 23.04.2020
4263 Clouds 14 1013 82 10000 1 0 10:20 23.04.2020
4264 Clouds 13 1013 82 10000 2.6 240 09:41 23.04.2020
4265 Clouds 13 1013 82 10000 2.6 240 09:19 23.04.2020
4266 Clouds 12 1013 87 10000 1 0 08:52 23.04.2020
4267 Clouds 13 1013 82 10000 1.5 250 08:32 23.04.2020
4268 Clouds 12 1012 87 10000 1.5 260 07:59 23.04.2020
4269 Clouds 12 1012 87 10000 1.5 260 07:40 23.04.2020
4270 Clouds 12 1012 87 10000 1.5 260 07:22 23.04.2020
4271 Clouds 13 1012 82 10000 1.5 260 06:46 23.04.2020
4272 Clouds 14 1012 76 10000 1.5 80 05:54 23.04.2020
4273 Clouds 14 1012 76 10000 1.5 80 05:54 23.04.2020
4274 Clouds 14 1012 76 10000 1 0 05:21 23.04.2020
4275 Clouds 15 1012 72 10000 2.1 40 04:50 23.04.2020
4276 Clouds 16 1014 72 10000 4.1 60 02:23 23.04.2020
4277 Clouds 17 1014 63 10000 5.1 50 01:40 23.04.2020
4278 Clouds 17 1014 63 10000 4.1 40 00:56 23.04.2020
4279 Clouds 18 1014 59 10000 5.1 30 00:28 23.04.2020
4280 Clouds 18 1014 59 10000 5.1 30 00:28 23.04.2020
4281 Clouds 18 1014 59 10000 5.7 30 23:58 22.04.2020
4282 Clouds 19 1014 55 10000 5.7 30 23:40 22.04.2020
4283 Clouds 19 1014 55 10000 5.7 30 23:19 22.04.2020
4284 Clouds 21 1014 49 10000 5.7 20 22:40 22.04.2020
4285 Clouds 21 1014 49 10000 5.7 20 22:20 22.04.2020
4286 Clouds 22 1013 35 10000 3.6 60 21:59 22.04.2020
4287 Clouds 22 1013 37 10000 3.1 60 21:41 22.04.2020
4288 Clouds 22 1013 37 10000 3.1 60 21:22 22.04.2020
4289 Clouds 23 1013 35 10000 3.6 40 20:59 22.04.2020
4290 Clouds 24 1013 33 10000 2.6 70 20:41 22.04.2020
4291 Clouds 24 1013 33 10000 2.6 70 20:19 22.04.2020
4292 Clouds 24 1013 36 10000 2.6 30 19:57 22.04.2020
4293 Clouds 24 1013 36 10000 2.6 0 19:37 22.04.2020
4294 Clouds 24 1013 36 10000 2.6 0 19:18 22.04.2020
4295 Clouds 24 1013 36 10000 2.6 90 18:56 22.04.2020
4296 Clouds 26 1013 34 10000 1.5 0 18:38 22.04.2020
4297 Clouds 26 1013 34 10000 1.5 0 18:20 22.04.2020
4298 Clouds 24 1013 36 10000 2.1 0 17:43 22.04.2020
4299 Clouds 24 1013 36 10000 2.1 0 17:25 22.04.2020
4300 Clouds 24 1014 36 10000 3.1 30 16:56 22.04.2020
4301 Clouds 23 1014 38 10000 4.6 30 16:38 22.04.2020
4302 Clouds 23 1014 38 10000 4.6 30 16:19 22.04.2020
4303 Clouds 22 1015 43 8000 3.1 90 15:41 22.04.2020
4304 Clouds 22 1015 43 8000 3.1 90 15:22 22.04.2020
4305 Clouds 21 1015 43 8000 3.1 0 14:58 22.04.2020
4306 Clouds 20 1016 45 8000 4.1 60 14:37 22.04.2020
4307 Clouds 20 1016 45 8000 4.1 60 14:19 22.04.2020
4308 Clouds 19 1016 48 8000 3.1 80 13:44 22.04.2020
4309 Clouds 19 1016 52 8000 4.1 60 13:20 22.04.2020
4310 Clouds 18 1017 55 8000 3.6 70 12:54 22.04.2020
4311 Clouds 18 1017 55 8000 3.6 70 12:54 22.04.2020
4312 Clouds 17 1017 59 8000 2.6 80 12:36 22.04.2020
4313 Clouds 17 1017 59 8000 2.6 80 12:18 22.04.2020
4314 Clouds 16 1017 67 8000 3.1 60 11:40 22.04.2020
4315 Clouds 16 1017 67 8000 3.1 60 11:20 22.04.2020
4316 Clouds 15 1017 72 8000 3.1 60 10:58 22.04.2020
4317 Clouds 14 1017 76 8000 3.6 80 10:38 22.04.2020
4318 Clouds 14 1017 76 8000 3.6 80 10:18 22.04.2020
4319 Clouds 12 1017 81 8000 3.1 80 09:39 22.04.2020
4320 Clouds 12 1017 81 8000 3.1 80 09:20 22.04.2020
4321 Clouds 12 1017 81 8000 3.1 100 08:55 22.04.2020
4322 Clouds 11 1017 81 8000 2.1 90 08:37 22.04.2020
4323 Clouds 11 1017 81 8000 2.1 90 08:18 22.04.2020
4324 Clouds 11 1017 81 8000 1.5 80 07:51 22.04.2020
4325 Clouds 11 1017 81 8000 3.1 100 07:23 22.04.2020
4326 Clouds 11 1017 81 8000 2.1 70 06:52 22.04.2020
4327 Clouds 11 1017 81 8000 2.1 80 05:47 22.04.2020
4328 Clouds 12 1018 76 8000 2.1 60 05:27 22.04.2020
4329 Clouds 12 1018 76 8000 1.5 60 04:18 22.04.2020
4330 Clouds 13 1019 71 8000 1.5 60 02:39 22.04.2020
4331 Clouds 14 1019 67 8000 1.5 20 01:43 22.04.2020
4332 Clouds 14 1019 67 8000 1.5 20 01:24 22.04.2020
4333 Clouds 14 1020 67 8000 3.1 360 00:47 22.04.2020
4334 Clouds 15 1020 58 8000 2.6 10 00:22 22.04.2020
4335 Clouds 15 1019 58 10000 3.6 360 23:56 21.04.2020
4336 Clouds 16 1019 51 10000 4.1 350 23:37 21.04.2020
4337 Clouds 16 1019 51 10000 4.1 350 23:18 21.04.2020
4338 Clouds 17 1018 48 10000 5.1 340 22:40 21.04.2020
4339 Clouds 17 1018 48 10000 5.1 340 22:21 21.04.2020
4340 Clouds 18 1018 45 10000 5.1 330 21:58 21.04.2020
4341 Clouds 18 1018 45 10000 5.1 330 21:58 21.04.2020
4342 Clouds 19 1017 39 10000 4.6 340 21:40 21.04.2020
4343 Clouds 19 1017 39 10000 4.6 340 21:22 21.04.2020
4344 Clouds 20 1017 37 10000 2.6 300 20:41 21.04.2020
4345 Clouds 20 1017 37 10000 2.6 300 20:23 21.04.2020
4346 Clouds 20 1017 37 10000 1 0 19:59 21.04.2020
4347 Clouds 20 1017 37 10000 1.5 0 19:40 21.04.2020
4348 Clouds 20 1017 37 10000 1.5 0 19:19 21.04.2020
4349 Clouds 20 1017 37 10000 1.5 0 19:19 21.04.2020
4350 Clouds 20 1017 37 10000 2.6 280 18:56 21.04.2020
4351 Clouds 20 1017 37 10000 2.1 0 18:38 21.04.2020
4352 Clouds 20 1017 37 10000 2.1 0 18:18 21.04.2020
4353 Clouds 19 1017 39 10000 2.1 0 17:41 21.04.2020
4354 Clouds 19 1017 39 10000 2.1 0 17:21 21.04.2020
4355 Clouds 19 1018 39 10000 2.1 360 16:59 21.04.2020
4356 Clouds 20 1018 37 8000 1.5 0 16:38 21.04.2020
4357 Clouds 20 1018 37 8000 1.5 0 16:19 21.04.2020
4358 Clouds 20 1018 37 8000 2.6 300 15:55 21.04.2020
4359 Clouds 18 1018 42 8000 3.6 320 15:37 21.04.2020
4360 Clouds 18 1018 42 8000 3.6 320 15:19 21.04.2020
4361 Clouds 19 1019 45 8000 3.6 0 14:45 21.04.2020
4362 Clouds 19 1019 48 8000 3.1 300 14:25 21.04.2020
4363 Clouds 18 1019 52 8000 4.1 290 13:58 21.04.2020
4364 Clouds 17 1019 55 8000 4.6 300 13:38 21.04.2020
4365 Clouds 17 1019 55 8000 4.6 300 13:19 21.04.2020
4366 Clouds 15 1020 67 8000 3.1 290 12:40 21.04.2020
4367 Clouds 15 1020 67 8000 3.1 290 12:20 21.04.2020
4368 Clouds 15 1020 67 8000 3.6 310 11:58 21.04.2020
4369 Clouds 15 1019 72 8000 3.6 300 11:39 21.04.2020
4370 Clouds 15 1019 72 8000 3.6 300 11:20 21.04.2020
4371 Clouds 15 1019 72 8000 2.6 280 10:59 21.04.2020
4372 Clouds 13 1019 82 8000 4.1 250 10:40 21.04.2020
4373 Clouds 13 1019 82 8000 4.1 250 10:22 21.04.2020
4374 Clouds 13 1019 87 8000 2.6 240 09:59 21.04.2020
4375 Clouds 12 1019 93 8000 2.6 250 09:37 21.04.2020
4376 Clouds 12 1019 93 8000 2.6 250 09:18 21.04.2020
4377 Clouds 12 1019 87 8000 3.6 260 08:46 21.04.2020
4378 Clouds 12 1019 87 7000 2.6 240 08:27 21.04.2020
4379 Clouds 12 1018 93 7000 3.6 270 07:55 21.04.2020
4380 Rain 12 1018 93 7000 3.6 260 07:36 21.04.2020
4381 Rain 12 1018 93 7000 3.6 260 07:18 21.04.2020
4382 Rain 13 1018 87 7000 3.6 270 06:42 21.04.2020
4383 Rain 12 1018 93 7000 3.1 240 05:51 21.04.2020
4384 Rain 12 1019 93 7000 3.1 240 05:32 21.04.2020
4385 Clouds 13 1019 87 10000 6.2 290 03:48 21.04.2020
4386 Clouds 15 1020 77 10000 3.6 270 02:47 21.04.2020
4387 Clouds 16 1020 72 10000 3.6 280 01:33 21.04.2020
4388 Clouds 16 1020 67 10000 4.6 290 00:47 21.04.2020
4389 Clouds 16 1020 67 10000 5.1 280 00:23 21.04.2020
4390 Clouds 16 1020 67 10000 4.1 270 23:44 20.04.2020
4391 Clouds 16 1020 72 10000 5.7 260 23:23 20.04.2020
4392 Clouds 16 1020 67 10000 5.1 270 22:57 20.04.2020
4393 Clouds 17 1020 59 10000 6.2 270 22:37 20.04.2020
4394 Clouds 17 1020 59 10000 6.2 270 22:19 20.04.2020
4395 Clouds 17 1020 59 10000 6.2 270 22:19 20.04.2020
4396 Clouds 18 1019 52 10000 7.2 280 21:55 20.04.2020
4397 Clouds 19 1018 45 10000 8.2 280 21:37 20.04.2020
4398 Clouds 19 1018 45 10000 8.2 280 21:18 20.04.2020
4399 Clouds 20 1018 42 10000 9.3 280 20:55 20.04.2020
4400 Clouds 22 1017 40 10000 8.7 270 20:36 20.04.2020
4401 Clouds 22 1017 40 10000 8.7 270 20:18 20.04.2020
4402 Clouds 24 1017 36 10000 6.7 290 19:41 20.04.2020
4403 Clouds 24 1017 36 10000 6.7 290 19:23 20.04.2020
4404 Clouds 25 1016 33 10000 6.7 280 18:59 20.04.2020
4405 Clouds 25 1016 31 10000 5.7 290 18:41 20.04.2020
4406 Clouds 25 1016 31 10000 5.7 290 18:21 20.04.2020
4407 Clouds 25 1016 33 10000 4.6 280 17:55 20.04.2020
4408 Clouds 25 1016 36 10000 3.6 280 17:36 20.04.2020
4409 Clouds 25 1016 36 10000 3.6 280 17:18 20.04.2020
4410 Clouds 24 1017 41 10000 2.1 280 16:43 20.04.2020
4411 Clouds 24 1017 41 10000 2.1 280 16:20 20.04.2020
4412 Clouds 23 1018 43 10000 4.1 260 15:57 20.04.2020
4413 Clouds 22 1018 43 10000 3.1 260 15:38 20.04.2020
4414 Clouds 22 1018 43 10000 3.1 260 15:20 20.04.2020
4415 Clouds 22 1019 49 10000 2.1 0 14:42 20.04.2020
4416 Clouds 21 1019 49 10000 3.1 290 14:20 20.04.2020
4417 Clouds 20 1019 52 10000 1.5 0 13:58 20.04.2020
4418 Clouds 19 1019 59 10000 2.1 0 13:39 20.04.2020
4419 Clouds 19 1019 59 10000 2.1 0 13:20 20.04.2020
4420 Clouds 18 1019 59 10000 2.1 110 12:44 20.04.2020
4421 Clouds 18 1019 63 10000 2.1 60 12:24 20.04.2020
4422 Clouds 17 1019 67 10000 1.5 70 11:58 20.04.2020
4423 Clouds 17 1019 63 10000 1.5 0 11:38 20.04.2020
4424 Clouds 17 1019 63 10000 1.5 0 11:19 20.04.2020
4425 Clouds 15 1020 77 10000 2.6 180 10:55 20.04.2020
4426 Clouds 14 1020 82 10000 1.5 200 10:36 20.04.2020
4427 Clouds 14 1020 82 10000 1.5 200 10:18 20.04.2020
4428 Clouds 13 1021 87 10000 2.1 240 09:44 20.04.2020
4429 Clouds 12 1020 87 8000 2.6 260 09:25 20.04.2020
4430 Clouds 12 1019 87 8000 1.5 240 08:58 20.04.2020
4431 Clouds 11 1019 93 8000 1.5 240 08:40 20.04.2020
4432 Clouds 11 1019 93 8000 1.5 240 08:18 20.04.2020
4433 Clouds 12 1018 81 8000 1 0 07:52 20.04.2020
4434 Clouds 13 1018 82 8000 1.5 130 07:28 20.04.2020
4435 Clouds 13 1018 87 8000 2.1 110 06:39 20.04.2020
4436 Clouds 13 1018 87 8000 2.1 110 06:20 20.04.2020
4437 Clouds 13 1017 87 8000 2.1 70 05:22 20.04.2020
4438 Clouds 15 1019 72 8000 2.6 40 03:30 20.04.2020
4439 Clouds 16 1020 67 8000 3.1 20 02:38 20.04.2020
4440 Clouds 16 1020 67 8000 2.6 20 01:31 20.04.2020
4441 Clouds 16 1020 67 8000 2.6 360 00:57 20.04.2020
4442 Clouds 16 1020 67 8000 3.1 20 00:27 20.04.2020
4443 Clouds 17 1020 59 10000 3.6 340 23:54 19.04.2020
4444 Clouds 17 1019 59 10000 4.6 350 23:36 19.04.2020
4445 Clouds 17 1019 59 10000 4.6 350 23:18 19.04.2020
4446 Clouds 18 1018 55 10000 5.7 340 22:39 19.04.2020
4447 Clouds 18 1018 55 10000 5.7 340 22:21 19.04.2020
4448 Clouds 19 1017 52 10000 6.2 350 21:55 19.04.2020
4449 Clouds 20 1016 49 10000 4.6 350 21:37 19.04.2020
4450 Clouds 20 1016 49 10000 4.6 350 21:18 19.04.2020
4451 Clouds 22 1015 43 10000 4.6 350 20:41 19.04.2020
4452 Clouds 22 1015 43 10000 4.6 350 20:21 19.04.2020
4453 Clouds 22 1015 43 10000 3.1 320 19:58 19.04.2020
4454 Clouds 22 1015 43 10000 3.1 350 19:40 19.04.2020
4455 Clouds 22 1015 43 10000 3.1 350 19:22 19.04.2020
4456 Clouds 24 1015 38 10000 2.6 310 18:58 19.04.2020
4457 Clouds 23 1015 38 10000 2.6 330 18:39 19.04.2020
4458 Clouds 23 1015 38 10000 2.6 330 18:19 19.04.2020
4459 Clouds 23 1015 38 10000 2.6 330 18:19 19.04.2020
4460 Clouds 22 1015 43 10000 3.1 320 17:56 19.04.2020
4461 Clouds 22 1015 43 10000 3.1 320 17:56 19.04.2020
4462 Clouds 22 1015 46 10000 3.1 0 17:38 19.04.2020
4463 Clouds 22 1015 46 10000 3.1 0 17:20 19.04.2020
4464 Clouds 21 1016 46 10000 3.1 300 16:56 19.04.2020
4465 Clouds 22 1016 46 10000 3.1 310 16:37 19.04.2020
4466 Clouds 22 1016 46 10000 3.1 310 16:18 19.04.2020
4467 Clouds 21 1016 49 10000 2.1 320 15:42 19.04.2020
4468 Clouds 22 1016 49 10000 1 0 15:21 19.04.2020
4469 Clouds 20 1016 60 10000 2.1 310 14:54 19.04.2020
4470 Clouds 19 1016 63 10000 2.1 0 14:36 19.04.2020
4471 Clouds 19 1016 63 10000 2.1 0 14:18 19.04.2020
4472 Clouds 18 1017 72 10000 3.1 270 13:39 19.04.2020
4473 Clouds 18 1017 72 10000 3.1 270 13:19 19.04.2020
4474 Rain 18 1017 68 6000 2.6 280 12:50 19.04.2020
4475 Rain 16 1017 77 6000 1.5 340 12:25 19.04.2020
4476 Rain 16 1017 77 6000 1.5 340 12:25 19.04.2020
4477 Rain 15 1017 82 6000 3.1 300 11:56 19.04.2020
4478 Clouds 16 1016 77 8000 1.5 310 11:37 19.04.2020
4479 Clouds 16 1016 77 8000 1.5 310 11:18 19.04.2020
4480 Clouds 16 1016 77 8000 2.1 0 10:55 19.04.2020
4481 Clouds 16 1016 72 8000 1 0 10:37 19.04.2020
4482 Clouds 16 1016 72 8000 1 0 10:18 19.04.2020
4483 Clouds 15 1015 77 8000 2.6 30 09:44 19.04.2020
4484 Clouds 15 1015 77 8000 1 0 09:25 19.04.2020
4485 Clouds 15 1015 77 8000 2.1 350 08:41 19.04.2020
4486 Clouds 15 1015 77 8000 2.1 350 08:41 19.04.2020
4487 Clouds 15 1015 77 8000 2.1 350 08:21 19.04.2020
4488 Clouds 15 1014 82 8000 2.6 20 07:58 19.04.2020
4489 Clouds 15 1014 82 8000 2.1 20 07:40 19.04.2020
4490 Clouds 15 1014 82 8000 2.1 20 07:21 19.04.2020
4491 Clouds 15 1014 82 8000 2.1 340 06:27 19.04.2020
4492 Clouds 15 1014 87 8000 1.5 290 05:46 19.04.2020
4493 Clouds 15 1015 82 8000 2.1 220 04:22 19.04.2020
4494 Thunderstorm 15 1014 82 8000 3.1 130 02:55 19.04.2020
4495 Thunderstorm 15 1014 82 7000 2.6 110 02:20 19.04.2020
4496 Thunderstorm 15 1014 82 7000 3.1 90 01:37 19.04.2020
4497 Thunderstorm 16 1015 82 5000 3.6 140 00:42 19.04.2020
4498 Thunderstorm 15 1014 82 5000 4.1 100 00:22 19.04.2020
4499 Thunderstorm 16 1014 77 5000 2.1 0 23:46 18.04.2020
4500 Thunderstorm 18 1014 68 8000 3.6 360 23:21 18.04.2020
4501 Thunderstorm 18 1012 72 8000 6.7 10 22:58 18.04.2020
4502 Thunderstorm 18 1012 72 8000 6.7 10 22:38 18.04.2020
4503 Thunderstorm 18 1012 72 8000 6.7 10 22:20 18.04.2020
4504 Thunderstorm 20 1011 56 8000 7.2 350 21:56 18.04.2020
4505 Thunderstorm 21 1011 52 8000 6.7 10 21:37 18.04.2020
4506 Thunderstorm 21 1011 52 8000 6.7 10 21:19 18.04.2020
4507 Clouds 23 1010 49 8000 6.7 340 20:40 18.04.2020
4508 Clouds 23 1010 49 8000 6.7 340 20:21 18.04.2020
4509 Clouds 24 1010 44 8000 5.1 340 19:45 18.04.2020
4510 Clouds 24 1010 41 8000 4.1 350 19:27 18.04.2020
4511 Clouds 25 1010 36 8000 3.1 300 18:59 18.04.2020
4512 Clouds 26 1009 36 8000 2.6 0 18:37 18.04.2020
4513 Clouds 26 1009 36 8000 2.6 0 18:37 18.04.2020
4514 Clouds 26 1009 36 8000 2.6 0 18:19 18.04.2020
4515 Clouds 26 1009 36 8000 2.6 0 18:19 18.04.2020
4516 Clouds 26 1010 36 8000 2.6 340 17:43 18.04.2020
4517 Clouds 26 1010 36 8000 2.6 340 17:21 18.04.2020
4518 Clouds 25 1011 38 8000 2.1 0 16:57 18.04.2020
4519 Clouds 24 1011 41 8000 2.1 0 16:37 18.04.2020
4520 Clouds 24 1011 41 8000 2.1 0 16:19 18.04.2020
4521 Clouds 24 1012 41 8000 2.1 330 15:39 18.04.2020
4522 Clouds 24 1012 41 8000 2.1 330 15:21 18.04.2020
4523 Clouds 23 1012 43 8000 1.5 100 14:46 18.04.2020
4524 Clouds 24 1013 44 8000 2.1 0 14:27 18.04.2020
4525 Clouds 23 1013 46 8000 1.5 0 13:56 18.04.2020
4526 Clouds 22 1014 49 8000 1.5 0 13:38 18.04.2020
4527 Clouds 22 1014 49 8000 1.5 0 13:19 18.04.2020
4528 Clouds 20 1014 56 8000 1.5 0 12:41 18.04.2020
4529 Clouds 20 1014 56 8000 1.5 0 12:22 18.04.2020
4530 Clouds 20 1014 56 8000 1.5 0 11:55 18.04.2020
4531 Clouds 19 1014 63 8000 2.1 260 11:36 18.04.2020
4532 Clouds 19 1014 63 8000 2.1 260 11:18 18.04.2020
4533 Clouds 17 1014 67 8000 3.1 280 10:40 18.04.2020
4534 Clouds 17 1014 67 8000 3.1 280 10:19 18.04.2020
4535 Clouds 16 1014 72 8000 3.6 280 09:58 18.04.2020
4536 Clouds 16 1014 72 8000 3.1 270 09:38 18.04.2020
4537 Clouds 16 1014 72 8000 3.1 270 09:20 18.04.2020
4538 Clouds 15 1014 72 8000 2.1 250 08:39 18.04.2020
4539 Clouds 15 1014 72 8000 2.1 250 08:21 18.04.2020
4540 Clouds 16 1013 67 8000 2.6 240 07:38 18.04.2020
4541 Clouds 16 1013 67 8000 2.6 240 07:19 18.04.2020
4542 Clouds 16 1013 67 8000 2.6 260 06:30 18.04.2020
4543 Clouds 16 1013 67 8000 2.6 250 05:43 18.04.2020
4544 Clouds 17 1013 67 0 3.1 260 04:47 18.04.2020
4545 Clouds 17 1013 67 0 3.1 260 04:47 18.04.2020
4546 Clouds 17 1013 63 10000 3.6 270 04:28 18.04.2020
4547 Clouds 18 1014 63 10000 2.1 330 02:57 18.04.2020
4548 Clouds 18 1014 63 10000 3.1 350 02:37 18.04.2020
4549 Clouds 18 1014 63 10000 3.1 350 02:19 18.04.2020
4550 Clouds 18 1014 59 10000 2.6 300 01:36 18.04.2020
4551 Clouds 18 1015 59 10000 3.6 300 00:51 18.04.2020
4552 Clouds 18 1015 59 10000 4.1 300 00:24 18.04.2020
4553 Clouds 18 1015 59 10000 4.1 310 23:57 17.04.2020
4554 Clouds 19 1015 55 10000 3.6 310 23:38 17.04.2020
4555 Clouds 19 1015 55 10000 3.6 310 23:19 17.04.2020
4556 Clouds 20 1014 56 10000 5.1 330 22:56 17.04.2020
4557 Clouds 21 1014 52 10000 4.6 340 22:37 17.04.2020
4558 Clouds 21 1014 52 10000 4.6 340 22:19 17.04.2020
4559 Clouds 24 1012 38 10000 5.1 260 21:43 17.04.2020
4560 Clouds 24 1012 38 10000 5.1 260 21:22 17.04.2020
4561 Clouds 25 1012 36 10000 4.1 270 20:58 17.04.2020
4562 Clouds 25 1012 36 10000 3.1 250 20:38 17.04.2020
4563 Clouds 25 1012 36 10000 3.1 250 20:19 17.04.2020
4564 Clouds 27 1012 34 10000 1.5 0 19:57 17.04.2020
4565 Clouds 26 1012 34 10000 2.1 0 19:39 17.04.2020
4566 Clouds 26 1012 34 10000 2.1 0 19:39 17.04.2020
4567 Clouds 26 1012 34 10000 2.1 0 19:21 17.04.2020
4568 Clouds 26 1012 36 10000 1.5 200 18:44 17.04.2020
4569 Clouds 26 1012 34 10000 1.5 0 18:24 17.04.2020
4570 Clouds 26 1012 34 10000 1.5 0 18:23 17.04.2020
4571 Clouds 26 1012 36 10000 1.5 0 17:55 17.04.2020
4572 Clouds 25 1013 38 10000 1.5 0 17:36 17.04.2020
4573 Clouds 25 1013 38 10000 1.5 0 17:18 17.04.2020
4574 Clouds 24 1014 38 10000 2.6 360 16:41 17.04.2020
4575 Clouds 24 1014 38 10000 2.6 360 16:41 17.04.2020
4576 Clouds 24 1014 38 10000 2.6 360 16:22 17.04.2020
4577 Clouds 23 1015 40 10000 1.5 0 15:41 17.04.2020
4578 Clouds 23 1015 40 10000 1.5 0 15:23 17.04.2020
4579 Clouds 23 1015 40 10000 2.1 0 14:56 17.04.2020
4580 Clouds 22 1015 46 10000 3.1 10 14:37 17.04.2020
4581 Clouds 22 1015 46 10000 3.1 10 14:37 17.04.2020
4582 Clouds 22 1015 46 10000 3.1 10 14:19 17.04.2020
4583 Clouds 21 1016 52 10000 2.1 0 13:41 17.04.2020
4584 Clouds 21 1016 52 10000 2.1 0 13:22 17.04.2020
4585 Clouds 21 1016 52 10000 1.5 0 12:59 17.04.2020
4586 Clouds 20 1016 56 10000 1.5 0 12:41 17.04.2020
4587 Clouds 20 1016 56 10000 1.5 0 12:22 17.04.2020
4588 Clouds 18 1017 63 10000 1.5 30 11:40 17.04.2020
4589 Clouds 18 1017 63 10000 1.5 30 11:19 17.04.2020
4590 Clouds 18 1017 68 10000 1 0 10:55 17.04.2020
4591 Clouds 18 1017 72 10000 1 0 10:37 17.04.2020
4592 Clouds 18 1017 72 10000 1 0 10:18 17.04.2020
4593 Clouds 15 1017 77 10000 1 0 09:40 17.04.2020
4594 Clouds 15 1017 77 10000 1 0 09:20 17.04.2020
4595 Clouds 12 1016 87 10000 0.5 0 08:56 17.04.2020
4596 Clouds 12 1016 87 10000 0.5 0 08:37 17.04.2020
4597 Clouds 14 1016 82 10000 1.5 170 08:18 17.04.2020
4598 Clouds 13 1016 87 10000 1 0 07:41 17.04.2020
4599 Clouds 13 1016 82 10000 1.5 250 07:20 17.04.2020
4600 Clouds 13 1016 82 10000 1 0 06:45 17.04.2020
4601 Clouds 13 1016 82 10000 1 0 06:21 17.04.2020
4602 Clouds 16 1017 67 10000 2.1 230 03:37 17.04.2020
4603 Clouds 16 1017 72 10000 2.6 240 03:18 17.04.2020
4604 Clouds 15 1018 72 10000 1.5 260 01:55 17.04.2020
4605 Clouds 16 1018 67 10000 2.1 250 01:23 17.04.2020
4606 Clouds 18 1018 63 10000 3.1 320 00:28 17.04.2020
4607 Clouds 18 1018 59 10000 4.1 300 23:56 16.04.2020
4608 Clouds 19 1017 48 10000 3.6 310 23:38 16.04.2020
4609 Clouds 19 1017 48 10000 3.6 310 23:19 16.04.2020
4610 Clouds 20 1017 45 10000 4.1 310 22:55 16.04.2020
4611 Clouds 21 1016 43 10000 4.6 300 22:36 16.04.2020
4612 Clouds 21 1016 43 10000 4.6 300 22:18 16.04.2020
4613 Clouds 23 1016 38 10000 4.6 320 21:41 16.04.2020
4614 Clouds 23 1016 38 10000 4.6 320 21:20 16.04.2020
4615 Clouds 25 1015 31 10000 2.6 290 20:44 16.04.2020
4616 Clouds 25 1015 31 10000 2.6 290 20:23 16.04.2020
4617 Clouds 25 1015 33 10000 3.1 310 20:00 16.04.2020
4618 Clouds 26 1015 31 10000 1.5 0 19:40 16.04.2020
4619 Clouds 26 1015 31 10000 2.1 50 19:20 16.04.2020
4620 Clouds 26 1015 31 10000 2.1 50 18:58 16.04.2020
4621 Clouds 26 1015 34 10000 1.5 0 18:39 16.04.2020
4622 Clouds 26 1015 34 10000 1.5 0 18:21 16.04.2020
4623 Clouds 26 1015 34 10000 1.5 0 17:55 16.04.2020
4624 Clouds 26 1015 34 10000 2.1 0 17:37 16.04.2020
4625 Clouds 26 1015 31 10000 1.5 0 17:18 16.04.2020
4626 Clouds 25 1016 33 10000 3.1 280 16:41 16.04.2020
4627 Clouds 25 1016 33 10000 3.1 280 16:19 16.04.2020
4628 Clouds 24 1016 38 10000 3.1 30 15:45 16.04.2020
4629 Clouds 23 1016 38 10000 2.6 0 15:19 16.04.2020
4630 Clouds 23 1016 38 10000 2.6 0 14:58 16.04.2020
4631 Clouds 22 1016 40 10000 3.1 20 14:39 16.04.2020
4632 Clouds 22 1016 43 10000 1.5 0 14:19 16.04.2020
4633 Clouds 22 1016 43 10000 1.5 0 13:57 16.04.2020
4634 Clouds 22 1017 43 10000 2.6 360 13:37 16.04.2020
4635 Clouds 22 1017 43 10000 2.6 360 13:37 16.04.2020
4636 Clouds 21 1017 43 10000 2.6 0 13:19 16.04.2020
4637 Clouds 21 1017 43 10000 2.6 0 12:56 16.04.2020
4638 Clouds 21 1017 49 10000 2.1 30 12:37 16.04.2020
4639 Clouds 19 1017 52 10000 2.1 80 12:18 16.04.2020
4640 Clouds 19 1017 52 10000 2.1 80 11:55 16.04.2020
4641 Clouds 18 1017 55 10000 2.6 100 11:36 16.04.2020
4642 Clouds 18 1017 59 10000 3.1 90 11:18 16.04.2020
4643 Clouds 17 1017 59 10000 3.6 110 10:40 16.04.2020
4644 Clouds 16 1017 63 10000 2.1 110 10:19 16.04.2020
4645 Clouds 16 1017 63 10000 2.1 110 09:58 16.04.2020
4646 Clouds 15 1016 67 10000 1.5 140 09:38 16.04.2020
4647 Clouds 14 1016 71 10000 1.5 140 09:19 16.04.2020
4648 Clouds 15 1016 67 10000 1.5 140 09:19 16.04.2020
4649 Clear 14 1016 71 8000 1.5 140 08:42 16.04.2020
4650 Clear 14 1016 71 8000 1.5 140 08:23 16.04.2020
4651 Clear 12 1016 76 8000 1.5 100 07:46 16.04.2020
4652 Clear 12 1016 76 8000 1.5 100 07:28 16.04.2020
4653 Clear 12 1016 76 8000 1.5 100 07:28 16.04.2020
4654 Clear 12 1016 76 8000 1 0 06:46 16.04.2020
4655 Clear 12 1016 76 8000 1 0 06:26 16.04.2020
4656 Clear 12 1016 76 8000 1.5 230 05:49 16.04.2020
4657 Clear 13 1016 76 8000 2.1 240 04:44 16.04.2020
4658 Clouds 15 1017 67 8000 1 0 03:24 16.04.2020
4659 Clouds 16 1017 63 8000 1.5 30 02:52 16.04.2020
4660 Clouds 16 1017 63 8000 1.5 20 02:32 16.04.2020
4661 Clouds 16 1017 63 8000 2.1 290 01:20 16.04.2020
4662 Clouds 17 1018 63 8000 2.1 290 00:37 16.04.2020
4663 Clouds 17 1018 63 8000 1.5 300 00:00 16.04.2020
4664 Clouds 17 1017 63 8000 2.1 270 23:41 15.04.2020
4665 Clouds 17 1017 63 8000 2.1 270 23:22 15.04.2020
4666 Clouds 18 1017 59 8000 5.1 310 22:41 15.04.2020
4667 Clouds 18 1017 59 8000 5.1 310 22:22 15.04.2020
4668 Clouds 18 1017 59 8000 5.1 310 22:22 15.04.2020
4669 -273 0 0 0 0 0 21:59 15.04.2020
4670 Clouds 20 1015 56 8000 6.2 320 21:41 15.04.2020
4671 Clouds 20 1015 56 8000 6.2 320 21:23 15.04.2020
4672 Clouds 23 1014 46 8000 5.1 310 20:59 15.04.2020
4673 Clouds 24 1014 36 8000 3.1 280 20:40 15.04.2020
4674 Clouds 24 1014 36 8000 3.1 280 20:22 15.04.2020
4675 Clouds 25 1013 33 8000 1.5 0 19:46 15.04.2020
4676 Clouds 25 1013 33 8000 1.5 0 19:21 15.04.2020
4677 Clouds 25 1013 36 8000 2.1 70 18:58 15.04.2020
4678 Clouds 25 1013 36 8000 1.5 0 18:40 15.04.2020
4679 Clouds 25 1013 36 8000 1.5 0 18:21 15.04.2020
4680 Clouds 25 1013 36 8000 1.5 0 18:21 15.04.2020
4681 Clouds 25 1013 36 8000 1.5 0 17:55 15.04.2020
4682 Clouds 25 1013 36 8000 2.1 0 17:36 15.04.2020
4683 Clouds 25 1013 36 8000 2.1 0 17:36 15.04.2020
4684 Clouds 25 1013 36 8000 2.1 0 17:18 15.04.2020
4685 Clouds 25 1013 36 8000 2.1 0 16:54 15.04.2020
4686 Clouds 24 1014 38 8000 1.5 0 16:36 15.04.2020
4687 Clouds 24 1014 38 8000 2.6 320 16:18 15.04.2020
4688 Clouds 24 1014 38 8000 2.6 320 15:55 15.04.2020
4689 Clouds 23 1014 40 8000 2.1 20 15:36 15.04.2020
4690 Clouds 23 1014 40 8000 2.1 20 15:18 15.04.2020
4691 Clouds 22 1015 49 8000 2.6 70 14:42 15.04.2020
4692 Clouds 22 1015 49 8000 2.6 70 14:23 15.04.2020
4693 Clouds 22 1015 49 8000 2.6 0 14:00 15.04.2020
4694 Clouds 20 1015 52 8000 3.6 90 13:40 15.04.2020
4695 Clouds 20 1015 52 8000 3.6 90 13:21 15.04.2020
4696 Clouds 20 1016 56 8000 3.1 110 12:59 15.04.2020
4697 Clouds 18 1016 63 8000 3.1 100 12:40 15.04.2020
4698 Clouds 18 1016 63 8000 3.1 100 12:22 15.04.2020
4699 Clouds 18 1015 63 8000 2.6 60 11:58 15.04.2020
4700 Clouds 17 1015 67 8000 1 0 11:38 15.04.2020
4701 Clouds 17 1015 67 8000 1 0 11:38 15.04.2020
4702 Clouds 16 1015 72 8000 1.5 0 11:20 15.04.2020
4703 Clouds 16 1014 72 8000 1.5 0 10:38 15.04.2020
4704 Clouds 16 1014 72 8000 1.5 0 10:20 15.04.2020
4705 Clouds 15 1014 77 8000 1.5 270 09:57 15.04.2020
4706 Clouds 14 1014 76 8000 1 0 09:38 15.04.2020
4707 Clouds 14 1014 76 8000 1 0 09:20 15.04.2020
4708 Clouds 14 1014 76 8000 1 0 08:54 15.04.2020
4709 Clouds 13 1013 82 8000 1.5 110 08:36 15.04.2020
4710 Clouds 13 1013 76 8000 1.5 90 08:18 15.04.2020
4711 Clouds 14 1013 76 8000 1.5 30 07:44 15.04.2020
4712 Clouds 14 1013 76 8000 1.5 30 07:26 15.04.2020
4713 Clouds 14 1012 71 8000 2.1 70 06:25 15.04.2020
4714 Clouds 14 1012 76 8000 2.1 40 05:48 15.04.2020
4715 Clouds 15 1012 72 8000 3.1 60 04:47 15.04.2020
4716 Clouds 15 1012 72 8000 3.1 60 04:22 15.04.2020
4717 Clouds 15 1012 72 8000 2.6 80 03:22 15.04.2020
4718 Clouds 15 1013 72 8000 1.5 40 02:49 15.04.2020
4719 Clouds 15 1013 72 10000 2.1 330 01:52 15.04.2020
4720 Clouds 16 1013 67 10000 2.6 340 01:25 15.04.2020
4721 Clouds 17 1012 59 10000 3.6 310 00:48 15.04.2020
4722 Clouds 17 1012 59 10000 3.6 310 00:25 15.04.2020
4723 Clouds 17 1012 55 10000 6.7 300 23:56 14.04.2020
4724 Clouds 18 1012 45 10000 4.6 320 23:38 14.04.2020
4725 Clouds 18 1012 45 10000 4.6 320 23:20 14.04.2020
4726 Clouds 19 1011 42 10000 4.1 320 22:56 14.04.2020
4727 Clouds 19 1011 42 10000 5.7 310 22:38 14.04.2020
4728 Clouds 19 1011 42 10000 5.7 310 22:20 14.04.2020
4729 Clouds 20 1010 42 10000 5.1 300 21:56 14.04.2020
4730 Clouds 21 1009 37 10000 6.7 290 21:38 14.04.2020
4731 Clouds 21 1009 37 10000 6.7 290 21:19 14.04.2020
4732 Clouds 22 1009 37 10000 5.7 300 20:55 14.04.2020
4733 Clouds 22 1009 37 10000 6.2 290 20:36 14.04.2020
4734 -273 0 0 0 0 0 20:36 14.04.2020
4735 Clouds 23 1008 38 10000 6.2 300 20:18 14.04.2020
4736 Clouds 24 1008 36 10000 4.6 290 19:41 14.04.2020
4737 Clouds 24 1008 36 10000 4.6 290 19:22 14.04.2020
4738 Clouds 24 1008 33 10000 4.1 270 18:57 14.04.2020
4739 Clouds 24 1008 31 10000 3.6 270 18:39 14.04.2020
4740 Clouds 24 1008 31 10000 3.6 270 18:21 14.04.2020
4741 Clouds 25 1008 31 10000 3.6 0 17:58 14.04.2020
4742 Clouds 24 1009 33 10000 2.6 0 17:38 14.04.2020
4743 Clouds 24 1009 33 10000 2.6 0 17:19 14.04.2020
4744 Clouds 24 1009 33 10000 2.6 0 17:19 14.04.2020
4745 Clouds 24 1009 33 10000 2.6 0 17:19 14.04.2020
4746 Clouds 24 1009 31 10000 4.1 270 16:55 14.04.2020
4747 Clouds 23 1009 33 10000 3.1 0 16:37 14.04.2020
4748 Clouds 23 1010 33 10000 3.1 310 16:19 14.04.2020
4749 Clouds 22 1010 35 10000 3.1 0 15:42 14.04.2020
4750 Clouds 22 1010 35 10000 3.1 0 15:23 14.04.2020
4751 Clouds 22 1011 37 8000 2.6 270 14:59 14.04.2020
4752 Clouds 21 1011 40 8000 2.1 200 14:41 14.04.2020
4753 Clouds 21 1011 40 8000 2.1 200 14:22 14.04.2020
4754 Clouds 20 1011 42 8000 2.6 0 13:58 14.04.2020
4755 Clouds 21 1011 43 8000 2.1 0 13:40 14.04.2020
4756 Clouds 21 1011 43 8000 2.1 0 13:21 14.04.2020
4757 Clouds 19 1011 52 8000 1.5 340 12:42 14.04.2020
4758 Clouds 19 1011 52 8000 1.5 340 12:22 14.04.2020
4759 Clouds 18 1011 52 8000 1.5 0 11:57 14.04.2020
4760 Clouds 18 1011 59 8000 1.5 170 11:39 14.04.2020
4761 Clouds 18 1011 59 8000 1.5 170 11:20 14.04.2020
4762 Clouds 16 1011 72 8000 2.6 100 10:46 14.04.2020
4763 Clouds 16 1011 72 8000 2.6 100 10:28 14.04.2020
4764 Clouds 15 1011 77 8000 2.6 90 09:58 14.04.2020
4765 Clouds 14 1011 76 8000 1.5 90 09:40 14.04.2020
4766 Clouds 14 1011 76 8000 1.5 90 09:22 14.04.2020
4767 Clouds 12 1011 76 8000 0.5 0 08:44 14.04.2020
4768 Clouds 12 1011 76 8000 0.5 0 08:24 14.04.2020
4769 Clouds 13 1011 76 8000 1 0 07:56 14.04.2020
4770 Clouds 12 1010 67 0 0.12 130 07:32 14.04.2020
4771 Clouds 12 1010 67 0 0.12 130 06:57 14.04.2020
4772 Clouds 13 1011 82 8000 1 0 06:33 14.04.2020
4773 Clouds 14 1011 76 8000 2.1 280 04:48 14.04.2020
4774 Clouds 14 1012 76 8000 2.1 260 03:22 14.04.2020
4775 Clouds 15 1012 67 8000 3.6 280 02:18 14.04.2020
4776 Clouds 15 1012 67 8000 3.6 270 01:25 14.04.2020
4777 Clouds 16 1013 67 8000 4.1 290 00:42 14.04.2020
4778 Clouds 16 1013 67 8000 4.1 290 00:19 14.04.2020
4779 Clouds 17 1013 59 8000 4.6 300 23:47 13.04.2020
4780 Clouds 17 1013 59 8000 4.6 300 23:27 13.04.2020
4781 Clouds 17 1012 59 8000 5.1 290 23:00 13.04.2020
4782 Clouds 17 1012 55 8000 6.2 280 22:41 13.04.2020
4783 Clouds 17 1012 55 8000 6.2 280 22:22 13.04.2020
4784 Clouds 18 1011 52 8000 5.7 290 21:57 13.04.2020
4785 Clouds 18 1011 52 8000 6.2 290 21:38 13.04.2020
4786 Clouds 19 1011 52 8000 6.7 290 21:20 13.04.2020
4787 Clouds 19 1011 52 8000 6.7 290 20:56 13.04.2020
4788 Clouds 20 1010 45 8000 4.6 280 20:38 13.04.2020
4789 Clouds 20 1010 45 8000 4.6 280 20:19 13.04.2020
4790 Clouds 21 1010 43 8000 3.1 240 19:54 13.04.2020
4791 Clouds 21 1010 43 8000 2.6 280 19:36 13.04.2020
4792 Clouds 21 1010 43 8000 3.1 240 19:18 13.04.2020
4793 Clouds 21 1010 43 8000 3.1 240 18:54 13.04.2020
4794 Clouds 21 1010 43 8000 4.1 260 18:36 13.04.2020
4795 Clouds 21 1011 43 8000 3.6 270 18:18 13.04.2020
4796 Clouds 21 1011 43 8000 3.6 270 17:54 13.04.2020
4797 Clouds 21 1011 46 8000 3.6 0 17:36 13.04.2020
4798 Clouds 21 1011 43 8000 3.6 270 17:18 13.04.2020
4799 Clouds 21 1011 43 8000 3.6 270 16:55 13.04.2020
4800 Clouds 21 1011 46 8000 3.6 300 16:36 13.04.2020
4801 Clouds 20 1012 49 8000 2.6 280 16:18 13.04.2020
4802 Clouds 19 1012 55 8000 2.6 290 15:43 13.04.2020
4803 Clouds 18 1012 59 8000 2.6 260 15:25 13.04.2020
4804 Clouds 18 1012 59 8000 2.6 260 14:56 13.04.2020
4805 Clouds 18 1012 59 8000 3.1 290 14:38 13.04.2020
4806 Clouds 18 1012 59 8000 3.1 290 14:20 13.04.2020
4807 Clouds 17 1012 63 8000 3.6 280 13:55 13.04.2020
4808 Clouds 17 1012 63 8000 3.6 280 13:55 13.04.2020
4809 Clouds 18 1013 59 8000 1.5 250 13:37 13.04.2020
4810 Clouds 18 1013 63 8000 1 0 13:19 13.04.2020
4811 Clouds 18 1013 63 8000 1 0 12:57 13.04.2020
4812 Clouds 17 1013 67 8000 0.5 0 12:38 13.04.2020
4813 Clouds 17 1013 67 8000 1 0 12:19 13.04.2020
4814 Clouds 16 1013 72 8000 2.1 280 11:43 13.04.2020
4815 Clouds 16 1013 72 8000 2.1 280 11:19 13.04.2020
4816 Clouds 16 1013 72 8000 2.1 280 11:19 13.04.2020
4817 Clouds 15 1013 82 8000 2.1 270 10:56 13.04.2020
4818 Clouds 14 1013 87 8000 2.6 270 10:38 13.04.2020
4819 Clouds 14 1013 87 8000 2.6 270 10:20 13.04.2020
4820 Clouds 14 1013 82 8000 3.1 270 09:55 13.04.2020
4821 Clouds 14 1013 82 8000 3.1 260 09:36 13.04.2020
4822 Clouds 14 1013 82 8000 3.1 260 09:18 13.04.2020
4823 Clouds 14 1013 82 8000 2.6 260 08:43 13.04.2020
4824 Clouds 14 1013 82 8000 2.6 260 08:25 13.04.2020
4825 Clouds 14 1013 82 8000 2.1 230 07:42 13.04.2020
4826 Clouds 15 1013 77 8000 2.1 300 07:24 13.04.2020
4827 Clouds 14 1013 82 8000 2.1 310 06:47 13.04.2020
4828 Clouds 14 1013 82 8000 2.1 310 06:26 13.04.2020
4829 Clouds 15 1013 77 8000 3.6 310 05:38 13.04.2020
4830 Clouds 15 1013 77 8000 3.1 300 05:18 13.04.2020
4831 Clouds 15 1013 77 8000 3.6 300 04:24 13.04.2020
4832 Clouds 15 1014 77 8000 2.6 320 03:49 13.04.2020
4833 Clouds 15 1014 77 8000 2.6 310 03:00 13.04.2020
4834 Clouds 16 1014 72 8000 3.1 320 02:39 13.04.2020
4835 Clouds 16 1014 72 8000 3.1 320 01:45 13.04.2020
4836 Clouds 16 1014 72 8000 3.1 320 01:25 13.04.2020
4837 Clouds 16 1014 77 8000 3.6 310 00:44 13.04.2020
4838 Clouds 16 1014 77 8000 3.6 310 00:22 13.04.2020
4839 Clouds 16 1014 77 8000 2.1 240 23:49 12.04.2020
4840 Clouds 16 1014 82 8000 2.1 240 23:26 12.04.2020
4841 Clouds 15 1014 87 8000 2.1 250 22:59 12.04.2020
4842 Clouds 15 1014 82 8000 4.1 260 22:38 12.04.2020
4843 Clouds 15 1014 82 8000 4.1 260 22:19 12.04.2020
4844 Clouds 17 1014 72 8000 4.1 270 21:55 12.04.2020
4845 Clouds 18 1014 68 8000 3.1 290 21:36 12.04.2020
4846 Clouds 18 1013 63 8000 1.5 0 21:18 12.04.2020
4847 Clouds 18 1013 63 8000 1.5 0 21:18 12.04.2020
4848 Clouds 19 1013 59 8000 3.1 250 20:41 12.04.2020
4849 Clouds 19 1013 59 8000 3.1 250 20:22 12.04.2020
4850 Clouds 19 1013 59 8000 3.1 250 20:22 12.04.2020
4851 Clouds 19 1013 59 8000 2.1 0 19:57 12.04.2020
4852 Clouds 20 1013 56 8000 3.6 350 19:38 12.04.2020
4853 Clouds 20 1013 56 8000 3.6 340 19:18 12.04.2020
4854 Clouds 21 1013 52 8000 4.1 250 18:41 12.04.2020
4855 Clouds 21 1013 52 8000 4.1 250 18:23 12.04.2020
4856 Clouds 22 1013 49 8000 3.6 260 17:59 12.04.2020
4857 Clouds 21 1013 56 8000 4.1 280 17:41 12.04.2020
4858 Clouds 21 1013 56 8000 4.1 280 17:23 12.04.2020
4859 Clouds 20 1013 56 8000 3.6 260 16:58 12.04.2020
4860 Clouds 20 1014 60 8000 3.6 270 16:39 12.04.2020
4861 Clouds 20 1014 60 8000 3.6 270 16:20 12.04.2020
4862 Clouds 19 1014 63 8000 3.1 300 15:48 12.04.2020
4863 Clouds 19 1014 63 8000 3.1 300 15:29 12.04.2020
4864 Clouds 18 1014 68 6000 2.1 280 14:54 12.04.2020
4865 Clouds 18 1015 72 6000 1.5 0 14:36 12.04.2020
4866 Clouds 17 1015 72 6000 1.5 260 14:18 12.04.2020
4867 Clouds 17 1015 72 6000 1.5 260 14:18 12.04.2020
4868 Clouds 17 1015 77 6000 2.6 250 13:41 12.04.2020
4869 Clouds 17 1015 77 6000 2.6 250 13:23 12.04.2020
4870 Mist 16 1016 77 4000 2.1 250 12:55 12.04.2020
4871 Mist 15 1016 87 4000 1.5 250 12:37 12.04.2020
4872 Mist 14 1016 87 4000 2.1 260 12:18 12.04.2020
4873 Mist 14 1016 87 4000 2.1 260 11:42 12.04.2020
4874 Mist 15 1015 82 4000 2.6 270 11:22 12.04.2020
4875 Mist 15 1015 82 4000 2.6 270 10:58 12.04.2020
4876 Mist 14 1015 87 4000 2.6 250 10:40 12.04.2020
4877 Mist 14 1015 87 4000 2.6 250 10:21 12.04.2020
4878 Mist 14 1015 82 4000 2.6 270 10:00 12.04.2020
4879 Mist 14 1015 82 4000 3.1 270 09:40 12.04.2020
4880 Mist 14 1015 82 4000 3.1 270 09:40 12.04.2020
4881 Mist 14 1015 82 4000 3.1 270 09:21 12.04.2020
4882 Clouds 14 1014 82 8000 3.1 260 08:52 12.04.2020
4883 Clouds 14 1014 82 8000 2.1 250 08:33 12.04.2020
4884 Clouds 14 1014 82 8000 2.6 250 07:58 12.04.2020
4885 Clouds 14 1014 82 8000 2.6 260 07:40 12.04.2020
4886 Clouds 14 1014 82 8000 2.6 270 07:18 12.04.2020
4887 Clouds 15 1014 77 8000 3.1 270 06:33 12.04.2020
4888 Clouds 14 1014 82 10000 3.1 270 05:51 12.04.2020
4889 Clouds 14 1014 82 10000 3.6 250 05:29 12.04.2020
4890 Clouds 15 1015 82 10000 2.6 260 03:43 12.04.2020
4891 Clouds 15 1015 82 10000 2.6 260 03:19 12.04.2020
4892 Clouds 16 1016 77 10000 3.1 260 02:34 12.04.2020
4893 Clouds 17 1016 67 10000 2.6 260 01:47 12.04.2020
4894 Clouds 17 1016 67 10000 2.1 270 00:57 12.04.2020
4895 Clouds 17 1016 67 10000 2.1 270 00:57 12.04.2020
4896 Clouds 18 1016 63 10000 1.5 320 00:39 12.04.2020
4897 Rain 18 1016 63 10000 1.5 320 00:19 12.04.2020
4898 Clouds 18 1016 68 10000 4.1 20 23:46 11.04.2020
4899 Clouds 18 1016 68 10000 4.1 20 23:25 11.04.2020
4900 Clouds 19 1015 63 10000 4.1 330 22:42 11.04.2020
4901 Clouds 19 1015 63 10000 4.1 330 22:23 11.04.2020
4902 Clouds 20 1015 60 10000 5.1 340 21:57 11.04.2020
4903 Clouds 20 1015 60 10000 5.1 340 21:57 11.04.2020
4904 Clouds 22 1014 56 10000 3.6 340 21:38 11.04.2020
4905 Clouds 22 1014 56 10000 3.6 340 21:38 11.04.2020
4906 Clouds 22 1014 56 10000 3.6 340 21:19 11.04.2020
4907 Clouds 23 1014 53 10000 3.6 340 20:58 11.04.2020
4908 Clouds 23 1014 53 10000 3.6 330 20:40 11.04.2020
4909 Clouds 23 1014 53 10000 3.6 330 20:21 11.04.2020
4910 Clouds 24 1014 47 10000 3.1 310 19:58 11.04.2020
4911 Clouds 24 1014 47 10000 2.6 310 19:40 11.04.2020
4912 Clouds 24 1014 47 10000 2.6 310 19:20 11.04.2020
4913 Clouds 24 1014 50 10000 3.6 320 18:58 11.04.2020
4914 Clouds 24 1014 50 10000 3.1 320 18:39 11.04.2020
4915 Clouds 24 1014 50 10000 3.1 320 18:21 11.04.2020
4916 Clouds 24 1014 50 10000 3.6 320 17:59 11.04.2020
4917 Clouds 24 1014 50 10000 3.1 0 17:41 11.04.2020
4918 Clouds 25 1014 50 10000 2.6 0 17:21 11.04.2020
4919 Clouds 25 1014 50 10000 2.6 0 16:58 11.04.2020
4920 Clouds 23 1015 53 10000 3.1 0 16:40 11.04.2020
4921 Clouds 23 1015 53 10000 3.1 0 16:20 11.04.2020
4922 Clouds 23 1015 53 10000 3.1 0 16:20 11.04.2020
4923 Clouds 23 1015 53 10000 2.6 0 15:39 11.04.2020
4924 Clouds 23 1015 53 10000 2.6 0 15:19 11.04.2020
4925 Clouds 22 1016 56 10000 1.5 0 14:43 11.04.2020
4926 Clouds 22 1016 56 10000 1.5 0 14:25 11.04.2020
4927 Clouds 21 1017 60 10000 2.6 260 13:59 11.04.2020
4928 Clouds 21 1017 60 10000 3.1 300 13:40 11.04.2020
4929 Clouds 21 1017 60 10000 3.1 300 13:20 11.04.2020
4930 Clouds 19 1017 63 10000 2.1 0 12:43 11.04.2020
4931 Clouds 19 1017 63 10000 2.1 0 12:21 11.04.2020
4932 Clouds 18 1017 68 8000 2.1 290 11:58 11.04.2020
4933 Clouds 17 1017 67 8000 3.1 260 11:39 11.04.2020
4934 Clouds 17 1017 67 8000 3.1 260 11:19 11.04.2020
4935 Clouds 16 1017 77 8000 2.6 270 10:55 11.04.2020
4936 Clouds 15 1017 82 8000 2.6 270 10:36 11.04.2020
4937 Clouds 15 1017 82 8000 2.6 270 10:36 11.04.2020
4938 Clouds 14 1017 87 8000 3.1 260 10:18 11.04.2020
4939 Clouds 13 1017 87 8000 3.1 260 09:40 11.04.2020
4940 Clouds 13 1017 87 8000 3.1 260 09:40 11.04.2020
4941 Clouds 13 1017 87 8000 3.1 260 09:22 11.04.2020
4942 Clouds 13 1017 87 8000 2.6 250 08:51 11.04.2020
4943 Clouds 14 1016 82 8000 3.1 230 08:29 11.04.2020
4944 Clouds 14 1016 82 10000 3.1 240 07:55 11.04.2020
4945 Clouds 14 1016 76 10000 2.6 230 07:37 11.04.2020
4946 Clouds 14 1016 76 10000 2.6 220 07:18 11.04.2020
4947 Clouds 14 1016 76 10000 2.1 240 06:35 11.04.2020
4948 Clouds 14 1016 76 10000 2.6 240 05:56 11.04.2020
4949 Clouds 18 1017 59 10000 1.5 40 03:48 11.04.2020
4950 Clear 18 1017 59 10000 2.1 20 02:50 11.04.2020
4951 Clouds 19 1018 55 10000 2.1 20 01:26 11.04.2020
4952 Clouds 19 1018 55 10000 1.5 50 00:54 11.04.2020
4953 Clouds 20 1018 52 10000 3.6 50 00:36 11.04.2020
4954 Clouds 21 1018 49 10000 3.6 40 00:18 11.04.2020
4955 Clouds 21 1017 49 10000 5.7 20 23:41 10.04.2020
4956 Clouds 21 1017 49 10000 5.7 20 23:19 10.04.2020
4957 Clouds 21 1017 52 10000 6.2 30 22:55 10.04.2020
4958 Clouds 22 1016 49 10000 5.7 20 22:37 10.04.2020
4959 Clouds 22 1016 49 10000 5.7 20 22:18 10.04.2020
4960 Clouds 22 1016 49 10000 5.7 20 22:18 10.04.2020
4961 Clouds 25 1015 41 10000 6.2 10 21:41 10.04.2020
4962 Clouds 27 1015 34 10000 2.6 50 21:21 10.04.2020
4963 Clouds 27 1015 34 10000 2.6 50 20:57 10.04.2020
4964 Clouds 28 1015 32 10000 3.1 60 20:38 10.04.2020
4965 Clouds 28 1015 32 10000 3.1 60 20:19 10.04.2020
4966 Clouds 28 1015 32 10000 3.1 70 19:54 10.04.2020
4967 Clouds 28 1015 32 10000 3.1 70 19:36 10.04.2020
4968 Clouds 28 1015 32 10000 2.6 0 19:18 10.04.2020
4969 Clouds 28 1015 32 10000 2.6 0 18:55 10.04.2020
4970 Clouds 28 1016 32 10000 3.1 60 18:36 10.04.2020
4971 Clouds 28 1016 32 10000 3.6 0 18:18 10.04.2020
4972 Clouds 28 1016 32 10000 3.6 0 17:56 10.04.2020
4973 Clouds 27 1016 34 10000 3.1 20 17:37 10.04.2020
4974 Clouds 27 1016 34 10000 3.1 0 17:18 10.04.2020
4975 Clouds 27 1016 32 10000 3.1 40 16:41 10.04.2020
4976 Clouds 27 1016 32 10000 3.1 40 16:23 10.04.2020
4977 Clouds 26 1017 34 10000 3.1 50 15:58 10.04.2020
4978 Clouds 25 1017 38 10000 1.5 0 15:38 10.04.2020
4979 Clouds 25 1017 38 10000 1.5 0 15:20 10.04.2020
4980 Clouds 25 1018 41 10000 3.1 20 14:58 10.04.2020
4981 Clouds 24 1018 41 10000 1.5 0 14:39 10.04.2020
4982 Clouds 24 1018 41 10000 1.5 0 14:39 10.04.2020
4983 Clouds 24 1018 41 10000 1.5 0 14:20 10.04.2020
4984 Clouds 22 1019 49 10000 2.1 40 13:45 10.04.2020
4985 Clouds 22 1019 53 10000 1.5 0 13:22 10.04.2020
4986 Clouds 22 1019 53 10000 1.5 0 12:56 10.04.2020
4987 Clouds 21 1019 56 10000 2.1 0 12:37 10.04.2020
4988 Clouds 20 1019 60 10000 1.5 0 12:19 10.04.2020
4989 Clouds 19 1019 63 10000 2.1 40 11:42 10.04.2020
4990 Clouds 19 1019 63 10000 2.1 40 11:24 10.04.2020
4991 Clouds 18 1019 68 10000 2.6 80 10:57 10.04.2020
4992 Clouds 18 1019 68 10000 1 0 10:38 10.04.2020
4993 Clouds 18 1019 68 10000 1 0 10:19 10.04.2020
4994 Clouds 14 1019 82 10000 1.5 270 09:43 10.04.2020
4995 Clouds 14 1019 82 10000 1.5 270 09:21 10.04.2020
4996 Clouds 14 1019 82 10000 1.5 230 08:48 10.04.2020
4997 Clouds 14 1018 82 10000 1.5 260 08:27 10.04.2020
4998 Clouds 15 1018 77 10000 2.6 230 07:54 10.04.2020
4999 Clouds 14 1018 82 10000 1 0 07:36 10.04.2020
5000 Clouds 14 1018 82 10000 2.1 260 07:18 10.04.2020
5001 Clouds 16 1018 72 10000 2.6 230 06:30 10.04.2020
5002 Clouds 15 1019 77 10000 3.1 240 05:59 10.04.2020
5003 Clouds 15 1019 77 10000 2.1 240 05:25 10.04.2020
5004 Clouds 16 1019 72 10000 2.1 270 04:53 10.04.2020
5005 Clouds 18 1019 63 10000 1.5 40 03:34 10.04.2020
5006 Clouds 19 1019 59 10000 2.1 30 02:51 10.04.2020
5007 Clouds 19 1020 63 10000 2.1 20 02:32 10.04.2020
5008 Clouds 20 1020 56 10000 1 0 01:43 10.04.2020
5009 Clouds 20 1020 56 10000 1 0 01:25 10.04.2020
5010 Clouds 20 1020 56 10000 2.1 50 00:45 10.04.2020
5011 Clouds 20 1020 56 10000 2.1 50 00:20 10.04.2020
5012 Clouds 22 1019 49 10000 4.1 40 23:41 09.04.2020
5013 Clouds 22 1019 49 10000 4.1 40 23:23 09.04.2020
5014 Clouds 22 1019 49 10000 4.1 360 22:57 09.04.2020
5015 Clouds 23 1018 43 10000 5.1 360 22:38 09.04.2020
5016 Clouds 24 1018 44 10000 5.7 10 22:20 09.04.2020
5017 Clouds 25 1017 41 10000 4.6 340 21:38 09.04.2020
5018 Clouds 25 1017 41 10000 4.6 340 21:20 09.04.2020
5019 Clouds 27 1017 28 10000 3.6 340 20:47 09.04.2020
5020 Clouds 28 1017 26 10000 3.6 330 20:22 09.04.2020
5021 Clouds 28 1017 26 10000 3.6 330 19:59 09.04.2020
5022 Clouds 29 1016 25 10000 1.5 0 19:38 09.04.2020
5023 Clouds 29 1016 23 10000 2.6 350 19:20 09.04.2020
5024 Clouds 30 1016 22 10000 2.1 0 18:42 09.04.2020
5025 Clouds 29 1016 25 10000 2.6 0 18:20 09.04.2020
5026 Clouds 29 1016 26 10000 2.6 0 17:43 09.04.2020
5027 Clouds 29 1016 26 10000 2.6 0 17:25 09.04.2020
5028 Clouds 29 1017 28 10000 2.1 0 17:00 09.04.2020
5029 Clouds 28 1017 30 10000 2.6 0 16:39 09.04.2020
5030 Clouds 27 1017 34 10000 3.1 320 16:19 09.04.2020
5031 Clouds 27 1017 34 10000 3.1 320 15:56 09.04.2020
5032 Clouds 27 1017 34 10000 2.6 0 15:37 09.04.2020
5033 Clouds 26 1018 36 10000 1.5 0 15:19 09.04.2020
5034 Clouds 26 1018 39 10000 2.1 10 14:42 09.04.2020
5035 Clouds 26 1018 39 10000 2.1 10 14:21 09.04.2020
5036 Clouds 25 1019 41 10000 1.5 0 13:57 09.04.2020
5037 Clouds 25 1019 44 10000 1.5 0 13:39 09.04.2020
5038 Clouds 25 1019 44 10000 1.5 0 13:21 09.04.2020
5039 Clouds 22 1020 49 10000 2.1 240 12:43 09.04.2020
5040 Clouds 22 1020 49 10000 2.1 240 12:24 09.04.2020
5041 Clouds 21 1020 52 10000 2.1 260 11:59 09.04.2020
5042 Clouds 20 1020 56 10000 1.5 230 11:41 09.04.2020
5043 Clouds 20 1020 56 10000 1.5 230 11:20 09.04.2020
5044 Clouds 19 1019 59 10000 1.5 270 10:58 09.04.2020
5045 Clouds 16 1019 67 10000 2.1 270 10:39 09.04.2020
5046 Clouds 16 1019 67 10000 2.1 270 10:20 09.04.2020
5047 Clouds 16 1019 67 10000 2.1 270 09:56 09.04.2020
5048 Clouds 16 1019 67 10000 2.1 270 09:38 09.04.2020
5049 Clouds 16 1019 67 10000 2.1 270 09:19 09.04.2020
5050 Clouds 16 1018 67 10000 1.5 270 08:43 09.04.2020
5051 Clouds 16 1018 67 10000 1.5 270 08:23 09.04.2020
5052 Clouds 17 1018 63 10000 2.6 290 07:55 09.04.2020
5053 Clouds 19 1017 55 10000 2.6 200 07:27 09.04.2020
5054 Clouds 19 1017 55 10000 2.6 230 06:55 09.04.2020
5055 Clouds 18 1017 59 10000 3.6 220 05:59 09.04.2020
5056 Clouds 18 1017 59 10000 3.6 230 05:39 09.04.2020
5057 Clouds 18 1017 59 10000 2.6 250 03:50 09.04.2020
5058 Clouds 22 1018 43 10000 1 0 02:27 09.04.2020
5059 Clouds 22 1019 46 10000 1.5 90 01:40 09.04.2020
5060 Clouds 22 1019 46 10000 1.5 90 01:20 09.04.2020
5061 Clouds 23 1019 43 10000 2.6 50 00:41 09.04.2020
5062 Clouds 23 1019 43 10000 3.1 40 00:20 09.04.2020
5063 Clouds 23 1019 43 10000 3.1 40 23:58 08.04.2020
5064 Clouds 24 1018 41 10000 3.6 40 23:40 08.04.2020
5065 Clouds 24 1018 41 10000 4.6 40 23:20 08.04.2020
5066 Clouds 26 1018 34 10000 4.1 30 22:43 08.04.2020
5067 Clouds 26 1018 34 10000 4.1 30 22:24 08.04.2020
5068 Clouds 27 1018 32 10000 4.1 360 21:56 08.04.2020
5069 Clouds 28 1017 30 10000 3.1 10 21:37 08.04.2020
5070 Clouds 28 1017 30 10000 3.6 350 21:19 08.04.2020
5071 Clouds 28 1017 30 10000 3.6 350 20:57 08.04.2020
5072 Clouds 29 1016 30 10000 3.1 350 20:38 08.04.2020
5073 Clouds 30 1016 33 10000 3.1 260 20:20 08.04.2020
5074 Clouds 30 1016 33 10000 3.1 260 19:42 08.04.2020
5075 Clouds 30 1016 33 10000 3.6 260 19:22 08.04.2020
5076 Clouds 30 1016 35 10000 4.6 280 18:59 08.04.2020
5077 Clouds 30 1016 35 10000 4.6 280 18:40 08.04.2020
5078 Clouds 30 1016 35 10000 4.6 260 18:22 08.04.2020
5079 Clouds 29 1016 37 10000 5.1 270 17:44 08.04.2020
5080 Clouds 29 1016 37 10000 5.1 270 17:22 08.04.2020
5081 Clouds 29 1016 37 10000 5.1 270 17:22 08.04.2020
5082 Clouds 31 1017 33 10000 3.6 270 16:59 08.04.2020
5083 Clouds 31 1017 33 10000 3.6 270 16:41 08.04.2020
5084 Clouds 32 1017 33 10000 3.1 290 16:22 08.04.2020
5085 Clouds 32 1017 33 10000 3.1 290 15:55 08.04.2020
5086 Clouds 30 1017 35 10000 2.6 0 15:36 08.04.2020
5087 Clouds 29 1017 37 10000 2.1 0 15:18 08.04.2020
5088 Clouds 29 1018 39 10000 1.5 0 14:41 08.04.2020
5089 Clouds 29 1018 39 10000 1.5 0 14:23 08.04.2020
5090 Clouds 27 1018 44 10000 1.5 0 13:45 08.04.2020
5091 Clouds 26 1019 44 10000 2.1 330 13:22 08.04.2020
5092 Clouds 26 1019 44 10000 2.1 330 12:59 08.04.2020
5093 Clouds 25 1019 50 10000 2.1 350 12:41 08.04.2020
5094 Clouds 25 1019 47 10000 1.5 0 12:18 08.04.2020
5095 Clouds 24 1018 50 10000 1 0 11:42 08.04.2020
5096 Clouds 22 1018 56 0 1 0 11:23 08.04.2020
5097 Clouds 22 1018 56 0 1 0 10:59 08.04.2020
5098 Clouds 20 1018 60 0 1 0 10:41 08.04.2020
5099 Clouds 20 1018 60 0 1 0 10:21 08.04.2020
5100 Clouds 20 1018 60 0 1 0 09:59 08.04.2020
5101 Clouds 18 1018 63 0 1 0 09:41 08.04.2020
5102 Clouds 18 1018 63 0 1 0 09:19 08.04.2020
5103 Clouds 17 1018 67 0 0.5 0 08:58 08.04.2020
5104 Clouds 17 1018 67 0 0.5 0 08:40 08.04.2020
5105 Clouds 17 1018 67 0 0.5 0 08:21 08.04.2020
5106 Clouds 17 1018 67 10000 2.1 250 07:43 08.04.2020
5107 Clouds 17 1018 67 10000 2.1 250 07:22 08.04.2020
5108 Clouds 17 1018 67 10000 3.1 270 06:33 08.04.2020
5109 Clouds 18 1019 63 10000 1 0 05:30 08.04.2020
5110 Clouds 20 1020 56 10000 1.5 230 03:20 08.04.2020
5111 Clouds 21 1020 56 10000 2.1 270 02:38 08.04.2020
5112 Clouds 23 1020 49 10000 2.1 160 02:18 08.04.2020
5113 Clouds 23 1021 46 10000 1.5 90 01:28 08.04.2020
5114 Clouds 23 1020 46 10000 1 0 00:50 08.04.2020
5115 Clouds 24 1020 47 10000 4.1 20 00:32 08.04.2020
5116 Clouds 24 1020 47 10000 3.6 20 23:57 07.04.2020
5117 Clouds 25 1019 44 10000 4.1 30 23:38 07.04.2020
5118 Clouds 25 1019 44 10000 4.1 30 23:19 07.04.2020
5119 Clouds 25 1019 44 10000 4.1 30 23:19 07.04.2020
5120 Clouds 26 1019 41 8000 4.6 30 22:56 07.04.2020
5121 Clouds 27 1018 39 8000 4.6 20 22:38 07.04.2020
5122 Clouds 28 1018 37 8000 4.1 10 22:18 07.04.2020
5123 Clouds 29 1018 30 8000 3.1 30 21:43 07.04.2020
5124 Clouds 29 1018 30 8000 3.1 30 21:23 07.04.2020
5125 Clouds 30 1018 30 8000 2.6 100 20:59 07.04.2020
5126 Clouds 30 1017 33 8000 3.1 80 20:41 07.04.2020
5127 Clouds 30 1017 33 8000 3.1 80 20:21 07.04.2020
5128 Clouds 30 1017 30 8000 2.6 90 19:58 07.04.2020
5129 Clouds 31 1017 29 8000 2.6 30 19:38 07.04.2020
5130 Clouds 31 1017 29 8000 2.6 30 19:38 07.04.2020
5131 Clouds 31 1017 29 8000 2.6 340 19:20 07.04.2020
5132 Clouds 31 1017 29 8000 2.6 340 19:20 07.04.2020
5133 Clouds 31 1017 29 8000 2.6 340 18:59 07.04.2020
5134 Clouds 31 1017 31 8000 1.5 0 18:40 07.04.2020
5135 Clouds 32 1017 29 8000 2.1 0 18:21 07.04.2020
5136 Clouds 31 1018 33 8000 2.1 0 17:55 07.04.2020
5137 Clouds 31 1018 33 8000 2.1 0 17:37 07.04.2020
5138 Clouds 31 1018 35 8000 1.5 0 17:19 07.04.2020
5139 Clouds 30 1018 35 8000 1.5 0 16:43 07.04.2020
5140 Clouds 29 1018 37 8000 2.6 60 16:25 07.04.2020
5141 Clouds 28 1019 42 8000 3.1 30 15:44 07.04.2020
5142 Clouds 28 1019 42 8000 3.1 30 15:26 07.04.2020
5143 Clouds 26 1020 47 8000 3.6 70 14:55 07.04.2020
5144 Clouds 26 1020 47 8000 3.6 70 14:37 07.04.2020
5145 Clouds 26 1020 47 8000 3.6 70 14:18 07.04.2020
5146 Clouds 24 1020 57 8000 4.1 70 13:42 07.04.2020
5147 Clouds 24 1021 53 10000 3.6 50 13:19 07.04.2020
5148 Clouds 24 1021 53 10000 3.6 50 12:57 07.04.2020
5149 Clouds 22 1021 60 8000 2.6 30 12:37 07.04.2020
5150 Clear 22 1021 60 8000 1.5 340 12:19 07.04.2020
5151 Clear 22 1021 60 8000 1.5 340 11:56 07.04.2020
5152 Clear 21 1021 68 8000 1 0 11:38 07.04.2020
5153 Clear 20 1021 64 8000 1 0 11:19 07.04.2020
5154 Clear 19 1021 72 10000 1 0 10:39 07.04.2020
5155 Clear 19 1021 72 10000 1 0 10:20 07.04.2020
5156 Clear 18 1021 72 10000 1.5 10 09:54 07.04.2020
5157 Clear 17 1021 77 8000 1.5 20 09:36 07.04.2020
5158 Clear 16 1021 77 10000 0.5 0 09:18 07.04.2020
5159 Clear 16 1021 77 10000 1.5 210 08:39 07.04.2020
5160 Clear 16 1021 77 8000 2.6 230 08:20 07.04.2020
5161 Clear 16 1021 77 8000 2.6 230 07:44 07.04.2020
5162 Clear 16 1021 77 8000 2.6 230 07:44 07.04.2020
5163 Clear 16 1021 77 8000 2.6 230 07:26 07.04.2020
5164 Clear 16 1021 77 8000 2.6 230 07:26 07.04.2020
5165 Clear 16 1021 77 10000 2.1 240 06:52 07.04.2020
5166 Clear 15 1021 82 10000 1.5 250 06:26 07.04.2020
5167 Clear 15 1021 82 10000 2.1 270 05:54 07.04.2020
5168 Clear 16 1020 77 10000 2.6 250 05:25 07.04.2020
5169 Clear 18 1021 72 10000 2.1 240 03:36 07.04.2020
5170 Clear 19 1021 68 10000 0.5 0 03:18 07.04.2020
5171 Clear 20 1022 64 10000 1.5 10 02:36 07.04.2020
5172 Clear 20 1021 64 10000 1.5 20 01:34 07.04.2020
5173 Clear 21 1021 64 10000 1.5 340 00:54 07.04.2020
5174 Clouds 21 1021 64 10000 4.1 30 00:25 07.04.2020
5175 Clouds 22 1021 60 10000 4.6 20 23:41 06.04.2020
5176 Clouds 22 1021 60 10000 4.6 20 23:21 06.04.2020
5177 Clouds 23 1020 56 10000 5.1 360 22:54 06.04.2020
5178 Clouds 24 1020 41 10000 1.5 280 22:36 06.04.2020
5179 Clouds 24 1020 41 10000 1.5 280 22:36 06.04.2020
5180 Clouds 25 1020 41 10000 3.1 240 22:18 06.04.2020
5181 Clouds 26 1019 39 10000 3.1 240 21:42 06.04.2020
5182 Clouds 26 1019 39 10000 3.1 240 21:20 06.04.2020
5183 Clouds 26 1019 39 10000 2.6 270 20:57 06.04.2020
5184 Clouds 27 1019 34 10000 3.1 250 20:39 06.04.2020
5185 Clouds 27 1019 34 10000 3.1 250 20:21 06.04.2020
5186 Clouds 28 1019 34 10000 2.6 290 19:57 06.04.2020
5187 Clouds 28 1019 32 10000 1 0 19:38 06.04.2020
5188 Clouds 29 1019 30 10000 0.5 0 19:20 06.04.2020
5189 Clouds 28 1019 34 10000 2.1 0 18:42 06.04.2020
5190 Clouds 28 1019 34 10000 2.1 0 18:23 06.04.2020
5191 Clouds 27 1019 34 10000 2.6 0 17:57 06.04.2020
5192 Clouds 27 1019 36 10000 1.5 0 17:39 06.04.2020
5193 Clouds 28 1020 34 10000 1.5 0 17:18 06.04.2020
5194 Clouds 27 1020 36 10000 1.5 0 16:48 06.04.2020
5195 Clouds 27 1020 36 10000 1.5 0 16:30 06.04.2020
5196 Clouds 25 1021 41 10000 1.5 0 14:49 06.04.2020
5197 Clouds 25 1021 41 10000 1.5 0 14:49 06.04.2020
5198 Clouds 25 1021 41 10000 1.5 0 14:49 06.04.2020
5199 Clouds 25 1021 41 10000 1.5 0 14:49 06.04.2020
5200 Clouds 24 1021 50 10000 1.5 0 13:45 06.04.2020
5201 Clouds 24 1021 50 10000 1.5 0 13:45 06.04.2020
5202 Clouds 23 1022 56 10000 2.1 0 13:22 06.04.2020
5203 Clouds 23 1022 56 10000 2.1 0 13:22 06.04.2020
5204 Clouds 23 1022 60 10000 1 0 12:46 06.04.2020
5205 Clouds 21 1022 64 10000 1.5 0 12:19 06.04.2020
5206 Clouds 21 1022 64 10000 1.5 0 11:40 06.04.2020
5207 Clouds 21 1022 64 10000 1.5 0 11:40 06.04.2020
5208 Clouds 19 1021 72 8000 2.1 360 11:03 06.04.2020
5209 Clouds 19 1021 72 8000 2.1 360 11:03 06.04.2020
5210 Clouds 19 1021 72 8000 1 0 10:38 06.04.2020
5211 Clouds 19 1021 72 8000 1 0 10:38 06.04.2020
5212 Clouds 19 1021 72 8000 1 0 10:20 06.04.2020
5213 Clouds 19 1021 72 8000 1 0 10:20 06.04.2020
5214 Clouds 19 1021 72 8000 1 0 10:20 06.04.2020
5215 Clouds 19 1021 72 8000 1 0 10:20 06.04.2020
5216 Clouds 19 1021 72 8000 1 0 10:19 06.04.2020
5217 Clouds 17 1021 82 8000 0.5 0 09:40 06.04.2020
5218 Clouds 17 1021 82 8000 0.5 0 09:40 06.04.2020
5219 Clouds 16 1021 82 8000 1.5 270 09:19 06.04.2020
5220 Clouds 17 1020 77 8000 1 0 08:43 06.04.2020
5221 Clouds 17 1020 77 8000 1 0 08:43 06.04.2020
5222 Clouds 17 1020 77 8000 1 0 08:43 06.04.2020
5223 Clouds 17 1020 77 8000 1 0 08:43 06.04.2020
5224 Clouds 17 1020 77 8000 1 0 08:43 06.04.2020
5225 Clouds 17 1020 77 8000 1 0 08:23 06.04.2020
5226 Clouds 17 1019 77 8000 2.1 120 07:22 06.04.2020
5227 Clouds 17 1019 77 8000 2.1 120 07:22 06.04.2020
5228 Clouds 17 1019 77 8000 2.1 120 07:22 06.04.2020
5229 Clouds 17 1019 77 8000 2.1 120 07:22 06.04.2020
5230 Clouds 17 1019 77 8000 2.1 120 07:22 06.04.2020
5231 Clouds 16 1019 82 8000 1 0 06:27 06.04.2020
5232 Clouds 16 1019 82 8000 1.5 240 05:51 06.04.2020
5233 Clouds 16 1020 82 10000 2.1 270 03:56 06.04.2020
5234 Clouds 17 1020 72 10000 2.6 260 02:52 06.04.2020
5235 Clouds 17 1021 72 10000 2.1 260 01:55 06.04.2020
5236 Clouds 18 1021 68 10000 2.6 260 00:55 06.04.2020
5237 Clouds 18 1021 68 10000 2.6 250 00:28 06.04.2020
5238 Clouds 18 1021 68 10000 2.6 250 00:28 06.04.2020
5239 Clouds 19 1020 63 10000 2.6 290 23:52 05.04.2020
5240 Clouds 19 1020 63 10000 3.1 300 23:33 05.04.2020
5241 Clouds 20 1020 60 10000 4.1 310 22:58 05.04.2020
5242 Clouds 20 1020 60 10000 4.1 310 22:40 05.04.2020
5243 Clouds 20 1019 60 10000 4.6 300 22:22 05.04.2020
5244 Clouds 21 1019 56 10000 5.7 290 21:59 05.04.2020
5245 Clouds 21 1019 56 10000 5.7 290 21:41 05.04.2020
5246 Clouds 21 1019 56 10000 5.7 290 21:41 05.04.2020
5247 Clouds 22 1018 53 10000 5.7 280 21:22 05.04.2020
5248 Clouds 22 1018 53 10000 5.7 280 21:22 05.04.2020
5249 Clouds 24 1017 47 10000 4.1 290 20:22 05.04.2020
5250 Clouds 25 1017 41 10000 5.1 270 19:43 05.04.2020
5251 Clouds 25 1017 41 10000 3.6 290 19:22 05.04.2020
5252 Clouds 25 1017 41 10000 3.1 300 18:48 05.04.2020
5253 Clouds 26 1017 39 10000 4.6 290 18:18 05.04.2020
5254 Clouds 26 1017 39 10000 3.6 300 17:46 05.04.2020
5255 Clouds 26 1017 39 10000 3.6 300 17:44 05.04.2020
5256 Clouds 26 1017 39 10000 3.6 300 17:44 05.04.2020
5257 Clouds 26 1017 39 10000 3.6 300 17:44 05.04.2020
5258 Clouds 26 1017 39 10000 3.6 300 17:44 05.04.2020
5259 Clouds 25 1017 38 10000 4.6 290 17:21 05.04.2020
5260 Clouds 25 1017 38 10000 4.6 290 17:21 05.04.2020
5261 Clouds 25 1017 38 10000 4.6 290 17:21 05.04.2020
5262 Clouds 26 1017 39 10000 3.6 310 16:47 05.04.2020
5263 Clouds 26 1017 39 10000 3.6 310 16:47 05.04.2020
5264 Clouds 25 1017 38 10000 4.6 300 16:19 05.04.2020
5265 Clouds 25 1017 38 10000 3.6 300 15:45 05.04.2020
5266 Clouds 25 1017 38 10000 3.6 300 15:45 05.04.2020
5267 Clouds 25 1017 41 10000 3.6 270 15:25 05.04.2020
5268 Clouds 25 1017 41 10000 3.6 270 15:25 05.04.2020
5269 Clouds 24 1017 47 10000 2.6 340 14:48 05.04.2020
5270 Clouds 24 1017 47 10000 2.6 340 14:48 05.04.2020
5271 Clouds 24 1017 47 10000 2.6 340 14:48 05.04.2020
5272 Clouds 24 1017 47 10000 2.6 340 14:48 05.04.2020
5273 Clouds 24 1017 47 10000 2.6 340 14:48 05.04.2020
5274 Clouds 23 1018 53 10000 1.5 0 13:59 05.04.2020
5275 Clouds 23 1018 53 10000 1.5 0 13:40 05.04.2020
5276 Clouds 22 1018 56 10000 2.1 0 13:40 05.04.2020
5277 Clouds 20 1019 68 10000 1 0 12:00 05.04.2020
5278 Clouds 20 1019 68 10000 1 0 12:00 05.04.2020
5279 Clouds 20 1019 68 10000 1 0 12:00 05.04.2020
5280 Clouds 19 1018 68 10000 1 0 11:39 05.04.2020
5281 Clouds 19 1018 68 10000 1 0 11:19 05.04.2020
5282 Clouds 18 1018 68 10000 1.5 250 10:47 05.04.2020
5283 Clouds 18 1018 68 10000 1.5 250 10:47 05.04.2020
5284 Clouds 16 1019 77 10000 2.1 250 10:22 05.04.2020
5285 Clouds 16 1019 77 10000 2.1 250 10:22 05.04.2020
5286 Clouds 15 1018 82 10000 1.5 250 09:53 05.04.2020
5287 Clouds 14 1018 82 10000 1.5 260 09:26 05.04.2020
5288 Clouds 14 1018 82 10000 1.5 260 09:26 05.04.2020
5289 Clouds 14 1018 82 10000 1.5 260 09:26 05.04.2020
5290 Clouds 14 1018 82 10000 1.5 260 09:25 05.04.2020
5291 Clouds 14 1018 82 10000 1.5 260 09:25 05.04.2020
5292 Clouds 15 1016 77 10000 1.5 350 08:18 05.04.2020
5293 Clouds 14 1016 82 8000 1.5 240 05:37 05.04.2020
5294 Clouds 14 1016 82 8000 1.5 240 05:37 05.04.2020
5295 Clouds 14 1016 82 8000 1.5 240 05:37 05.04.2020
5296 Clouds 14 1015 82 8000 1.5 240 04:29 05.04.2020
5297 Clouds 14 1015 82 8000 1.5 240 04:29 05.04.2020
5298 Clouds 15 1016 77 8000 1.5 250 03:27 05.04.2020
5299 Clouds 16 1016 72 10000 2.1 240 02:18 05.04.2020
5300 Clouds 16 1015 67 10000 1 0 01:42 05.04.2020
5301 Clouds 18 1015 63 10000 1.5 20 01:18 05.04.2020
5302 Clouds 18 1015 63 10000 1.5 20 01:18 05.04.2020
5303 Clouds 19 1016 59 10000 1 0 00:37 05.04.2020
5304 Clouds 19 1016 59 10000 1 0 00:18 05.04.2020
5305 Clouds 19 1016 55 10000 2.1 20 23:41 04.04.2020
5306 Clouds 20 1016 52 10000 3.1 350 23:21 04.04.2020
5307 Clouds 20 1015 52 10000 3.1 340 22:57 04.04.2020
5308 Clouds 21 1015 49 10000 4.1 320 22:39 04.04.2020
5309 Clouds 21 1015 49 10000 4.1 320 22:19 04.04.2020
5310 Clouds 22 1014 43 10000 3.1 290 21:56 04.04.2020
5311 Clouds 23 1014 31 10000 2.1 320 21:38 04.04.2020
5312 Clouds 23 1014 31 10000 2.1 320 21:18 04.04.2020
5313 Clouds 24 1013 31 10000 1.5 310 20:43 04.04.2020
5314 Clouds 24 1013 29 10000 1.5 300 20:23 04.04.2020
5315 Clouds 24 1013 31 10000 2.1 310 19:59 04.04.2020
5316 Clouds 24 1013 31 10000 2.1 310 19:59 04.04.2020
5317 Clouds 24 1013 31 10000 2.1 310 19:40 04.04.2020
5318 Clouds 25 1012 27 10000 1.5 0 19:20 04.04.2020
5319 Clouds 25 1012 29 10000 2.6 270 18:59 04.04.2020
5320 Clouds 25 1012 29 10000 2.6 270 18:59 04.04.2020
5321 Clouds 25 1012 29 10000 2.1 260 18:39 04.04.2020
5322 Clouds 25 1012 29 10000 2.1 260 18:21 04.04.2020
5323 Clouds 24 1012 31 10000 1 0 17:58 04.04.2020
5324 Clouds 25 1012 31 10000 2.1 180 17:38 04.04.2020
5325 Clouds 25 1012 31 10000 2.1 180 17:19 04.04.2020
5326 Clouds 24 1012 31 10000 1.5 0 16:45 04.04.2020
5327 Clouds 23 1012 35 10000 2.6 310 16:27 04.04.2020
5328 Clouds 23 1013 38 10000 2.1 0 15:59 04.04.2020
5329 Clouds 22 1013 37 10000 3.6 290 15:39 04.04.2020
5330 Clouds 22 1013 37 10000 3.6 290 15:19 04.04.2020
5331 Clouds 22 1013 37 10000 3.6 290 15:19 04.04.2020
5332 Clouds 22 1013 37 10000 4.1 290 14:54 04.04.2020
5333 Clouds 20 1013 40 10000 3.6 330 14:36 04.04.2020
5334 Clouds 20 1013 40 10000 3.6 330 14:18 04.04.2020
5335 Clouds 20 1013 42 10000 3.1 360 13:42 04.04.2020
5336 Clouds 20 1013 42 10000 2.6 360 13:21 04.04.2020
5337 Clouds 20 1013 42 10000 2.6 360 13:21 04.04.2020
5338 Clouds 19 1013 45 10000 2.6 350 12:58 04.04.2020
5339 Clouds 19 1013 48 10000 1 0 12:39 04.04.2020
5340 Clouds 19 1013 48 10000 1 0 12:20 04.04.2020
5341 Clouds 17 1013 55 10000 2.1 260 11:42 04.04.2020
5342 Clouds 17 1013 55 10000 2.1 260 11:23 04.04.2020
5343 Clouds 16 1012 59 10000 2.6 280 10:59 04.04.2020
5344 Clouds 16 1012 59 10000 2.6 280 10:40 04.04.2020
5345 Clouds 15 1012 58 10000 3.1 260 10:22 04.04.2020
5346 Clouds 15 1012 58 10000 2.1 250 09:56 04.04.2020
5347 Clouds 14 1011 62 10000 2.6 240 09:38 04.04.2020
5348 Clouds 14 1011 62 10000 2.6 240 09:20 04.04.2020
5349 Clouds 14 1011 62 10000 3.6 240 08:43 04.04.2020
5350 Clouds 15 1010 58 10000 4.1 230 08:23 04.04.2020
5351 Clouds 15 1010 62 10000 3.6 230 07:57 04.04.2020
5352 Clouds 15 1010 62 10000 3.1 230 07:38 04.04.2020
5353 Clouds 15 1010 62 10000 3.1 230 07:20 04.04.2020
5354 Clouds 16 1009 59 10000 2.1 230 06:29 04.04.2020
5355 Clouds 16 1009 59 10000 2.6 250 05:52 04.04.2020
5356 Clouds 16 1009 59 10000 2.6 260 05:32 04.04.2020
5357 Clouds 17 1009 55 10000 3.1 270 04:34 04.04.2020
5358 Clouds 17 1009 55 10000 3.6 280 03:56 04.04.2020
5359 Clouds 19 1009 48 10000 3.1 300 03:29 04.04.2020
5360 Clouds 19 1009 48 10000 2.1 130 02:45 04.04.2020
5361 Clouds 18 1010 55 10000 1 0 02:25 04.04.2020
5362 Clouds 19 1010 48 10000 2.1 140 01:27 04.04.2020
5363 Clouds 19 1011 48 10000 3.1 210 00:58 04.04.2020
5364 Clouds 19 1011 48 10000 2.1 250 00:31 04.04.2020
5365 Clouds 19 1011 48 10000 3.1 250 23:57 03.04.2020
5366 Clouds 20 1011 40 10000 4.1 250 23:38 03.04.2020
5367 Clouds 20 1011 40 10000 4.1 250 23:19 03.04.2020
5368 Clouds 20 1011 40 10000 4.1 250 23:19 03.04.2020
5369 Clouds 21 1010 35 10000 3.6 270 22:40 03.04.2020
5370 Clouds 22 1010 28 10000 4.1 280 22:19 03.04.2020
5371 Clouds 22 1010 28 10000 4.1 280 22:19 03.04.2020
5372 Clouds 22 1009 26 10000 2.1 250 21:57 03.04.2020
5373 Clouds 23 1009 23 10000 2.1 250 21:38 03.04.2020
5374 Clouds 23 1009 17 10000 2.1 250 21:20 03.04.2020
5375 Clouds 24 1009 17 10000 2.6 230 20:55 03.04.2020
5376 Clouds 25 1009 17 10000 2.6 270 20:36 03.04.2020
5377 Clouds 25 1009 17 10000 2.6 270 20:18 03.04.2020
5378 Clouds 25 1009 15 10000 1 0 19:55 03.04.2020
5379 Clouds 25 1008 14 10000 1 0 19:36 03.04.2020
5380 Clouds 25 1008 14 10000 1 0 19:18 03.04.2020
5381 Clouds 26 1008 14 10000 0.5 0 18:56 03.04.2020
5382 Clouds 26 1008 14 10000 1.5 0 18:38 03.04.2020
5383 Clouds 26 1008 14 10000 1.5 0 18:20 03.04.2020
5384 Clouds 26 1008 15 10000 2.1 0 17:40 03.04.2020
5385 Clouds 26 1009 16 10000 1.5 0 17:19 03.04.2020
5386 Clouds 26 1008 15 10000 2.1 0 17:19 03.04.2020
5387 Clouds 26 1009 16 10000 1.5 0 16:55 03.04.2020
5388 Clouds 24 1009 16 10000 3.1 80 16:36 03.04.2020
5389 Clouds 24 1009 16 10000 3.1 80 16:18 03.04.2020
5390 Clouds 25 1009 20 10000 2.1 0 15:41 03.04.2020
5391 Clouds 24 1010 25 10000 2.1 0 15:22 03.04.2020
5392 Clouds 23 1011 28 10000 3.6 40 14:58 03.04.2020
5393 Clouds 21 1011 21 0 3.86 50 14:40 03.04.2020
5394 Clouds 20 1012 37 10000 2.6 60 14:21 03.04.2020
5395 Clouds 20 1012 37 10000 2.6 60 13:46 03.04.2020
5396 Clouds 20 1012 37 10000 2.6 60 13:27 03.04.2020
5397 Clouds 19 1012 42 10000 4.1 60 12:57 03.04.2020
5398 Clouds 19 1012 42 10000 5.7 80 12:39 03.04.2020
5399 Clouds 19 1012 42 10000 5.7 80 12:18 03.04.2020
5400 Clouds 17 1012 51 10000 3.6 70 11:55 03.04.2020
5401 Clouds 15 1013 58 10000 4.1 70 11:37 03.04.2020
5402 Clouds 14 1013 62 10000 4.1 80 11:18 03.04.2020
5403 Clouds 14 1013 62 10000 4.1 80 10:56 03.04.2020
5404 Clouds 13 1013 66 10000 4.6 80 10:37 03.04.2020
5405 Clouds 13 1013 66 10000 4.6 80 10:37 03.04.2020
5406 Clouds 13 1013 66 10000 4.6 80 10:18 03.04.2020
5407 Clouds 13 1013 66 10000 4.6 80 10:18 03.04.2020
5408 Clouds 12 1012 71 10000 4.6 90 09:54 03.04.2020
5409 Clouds 11 1012 71 10000 3.1 80 09:36 03.04.2020
5410 Clouds 11 1012 71 10000 3.1 80 09:36 03.04.2020
5411 Clouds 11 1012 71 10000 3.1 80 09:18 03.04.2020
5412 Clouds 10 1013 76 10000 3.1 80 08:41 03.04.2020
5413 Clouds 10 1012 76 10000 3.1 100 08:22 03.04.2020
5414 Clouds 10 1012 76 10000 3.6 100 07:50 03.04.2020
5415 Clouds 11 1012 71 10000 4.6 90 07:32 03.04.2020
5416 Clouds 11 1012 71 10000 5.1 90 06:55 03.04.2020
5417 Clouds 11 1012 71 10000 4.1 90 06:25 03.04.2020
5418 Clouds 11 1013 71 10000 3.6 90 05:42 03.04.2020
5419 Clouds 13 1014 62 10000 3.6 80 03:52 03.04.2020
5420 Clouds 13 1015 62 10000 4.1 70 03:31 03.04.2020
5421 Clear 14 1015 58 10000 5.1 60 02:30 03.04.2020
5422 Clear 14 1015 58 10000 6.2 50 01:24 03.04.2020
5423 Clear 15 1016 54 10000 6.7 50 00:43 03.04.2020
5424 Clear 16 1016 51 10000 5.7 30 00:23 03.04.2020
5425 Clouds 16 1016 55 10000 4.1 30 23:43 02.04.2020
5426 Clouds 16 1016 55 10000 4.1 30 23:43 02.04.2020
5427 Clouds 17 1016 48 10000 4.6 20 23:24 02.04.2020
5428 Clouds 18 1016 45 10000 4.6 20 22:59 02.04.2020
5429 Clouds 18 1016 45 10000 4.6 20 22:41 02.04.2020
5430 Clouds 18 1016 45 10000 4.6 20 22:41 02.04.2020
5431 Clouds 18 1015 42 10000 4.6 30 22:20 02.04.2020
5432 Clouds 19 1014 37 10000 3.6 50 21:55 02.04.2020
5433 Clouds 19 1014 37 10000 3.1 60 21:36 02.04.2020
5434 Clouds 19 1014 37 10000 3.1 60 21:18 02.04.2020
5435 Clouds 20 1014 34 10000 2.6 30 20:42 02.04.2020
5436 Clouds 21 1014 32 8000 4.1 70 20:23 02.04.2020
5437 Clouds 21 1014 32 8000 2.6 40 19:55 02.04.2020
5438 Clouds 21 1014 32 8000 3.1 40 19:37 02.04.2020
5439 Clouds 21 1014 32 8000 3.1 40 19:18 02.04.2020
5440 Clouds 21 1015 35 8000 3.1 0 18:41 02.04.2020
5441 Clouds 21 1015 35 8000 3.1 0 18:21 02.04.2020
5442 Clouds 22 1015 35 8000 2.1 0 17:57 02.04.2020
5443 Clouds 21 1015 35 8000 2.6 0 17:39 02.04.2020
5444 Clouds 21 1015 35 8000 2.6 0 17:20 02.04.2020
5445 Clouds 22 1015 35 8000 1.5 0 16:56 02.04.2020
5446 Clouds 20 1016 37 8000 2.1 0 16:38 02.04.2020
5447 Clouds 20 1016 37 8000 2.1 0 16:20 02.04.2020
5448 Clouds 21 1016 37 8000 2.1 0 15:54 02.04.2020
5449 Clouds 20 1016 42 8000 1.5 0 15:36 02.04.2020
5450 Clouds 20 1016 42 8000 1.5 0 15:18 02.04.2020
5451 Clouds 18 1017 45 8000 3.6 340 14:40 02.04.2020
5452 Clouds 18 1017 45 8000 3.6 340 14:21 02.04.2020
5453 Clouds 18 1017 48 8000 3.1 350 13:58 02.04.2020
5454 Clouds 18 1017 48 8000 3.1 350 13:39 02.04.2020
5455 Clouds 17 1017 48 8000 2.6 40 13:21 02.04.2020
5456 Clouds 17 1017 48 8000 1.5 0 12:56 02.04.2020
5457 Clouds 17 1017 51 8000 1.5 290 12:38 02.04.2020
5458 Clouds 17 1017 51 8000 1.5 290 12:19 02.04.2020
5459 Clouds 16 1017 55 8000 1.5 0 11:57 02.04.2020
5460 Clouds 15 1017 62 8000 1.5 0 11:38 02.04.2020
5461 Clouds 15 1017 62 8000 1.5 0 11:38 02.04.2020
5462 Clouds 15 1017 62 8000 1.5 0 11:19 02.04.2020
5463 Clouds 15 1017 62 8000 1.5 0 11:19 02.04.2020
5464 Clouds 14 1017 62 8000 1 0 10:55 02.04.2020
5465 Clouds 14 1017 62 8000 1 0 10:55 02.04.2020
5466 Clouds 13 1017 71 8000 1 0 10:37 02.04.2020
5467 Clouds 13 1017 71 8000 1 0 10:18 02.04.2020
5468 Clouds 13 1017 71 8000 1.5 30 09:43 02.04.2020
5469 Clouds 13 1016 66 8000 1.5 350 09:25 02.04.2020
5470 Clouds 13 1016 71 8000 2.1 350 08:58 02.04.2020
5471 Clouds 13 1016 71 8000 2.1 350 08:40 02.04.2020
5472 Clouds 13 1016 71 8000 1 0 08:22 02.04.2020
5473 Clouds 13 1016 71 8000 2.1 330 07:44 02.04.2020
5474 Clouds 13 1016 71 8000 2.1 330 07:20 02.04.2020
5475 Clouds 13 1016 71 8000 2.6 330 06:58 02.04.2020
5476 Clouds 13 1016 71 8000 2.6 330 06:21 02.04.2020
5477 Clouds 13 1016 71 8000 3.1 300 05:44 02.04.2020
5478 Clouds 13 1016 71 8000 2.6 330 03:57 02.04.2020
5479 Clouds 15 1017 62 10000 3.1 330 01:34 02.04.2020
5480 Clouds 15 1017 62 10000 3.1 340 00:46 02.04.2020
5481 Clouds 15 1017 62 10000 3.1 290 00:26 02.04.2020
5482 Clouds 16 1017 63 10000 3.6 330 23:41 01.04.2020
5483 Clouds 16 1017 63 10000 3.6 330 23:20 01.04.2020
5484 Clouds 16 1017 63 10000 4.1 300 22:59 01.04.2020
5485 Clouds 16 1017 63 10000 4.1 300 22:39 01.04.2020
5486 Clouds 16 1016 63 10000 5.7 290 22:21 01.04.2020
5487 Clouds 17 1016 59 10000 4.6 280 21:42 01.04.2020
5488 Clouds 17 1016 59 10000 5.1 290 21:22 01.04.2020
5489 Clouds 17 1016 59 10000 5.1 290 21:22 01.04.2020
5490 Clouds 17 1016 59 10000 5.1 290 21:21 01.04.2020
5491 Clouds 17 1016 59 10000 5.1 290 21:21 01.04.2020
5492 Clouds 17 1016 59 10000 5.1 290 21:20 01.04.2020
5493 Clouds 18 1016 55 10000 6.2 290 20:57 01.04.2020
5494 Clouds 19 1015 52 10000 5.7 290 20:39 01.04.2020
5495 Clouds 19 1015 52 10000 5.7 290 20:20 01.04.2020
5496 Clouds 19 1015 52 10000 5.7 290 20:20 01.04.2020
5497 Clouds 20 1015 49 10000 6.2 300 19:59 01.04.2020
5498 Clouds 20 1015 49 10000 6.2 300 19:40 01.04.2020
5499 Clouds 21 1015 46 10000 6.7 280 19:20 01.04.2020
5500 Clouds 22 1015 46 10000 6.2 290 18:44 01.04.2020
5501 Clouds 22 1015 43 10000 5.7 290 18:25 01.04.2020
5502 Clouds 22 1015 40 10000 4.6 300 17:58 01.04.2020
5503 Clouds 22 1015 40 10000 5.7 270 17:38 01.04.2020
5504 Clouds 22 1015 40 10000 5.7 270 17:19 01.04.2020
5505 Clouds 22 1015 40 10000 4.6 260 16:58 01.04.2020
5506 Clouds 22 1015 40 10000 4.6 260 16:58 01.04.2020
5507 Clouds 22 1015 40 10000 4.6 260 16:39 01.04.2020
5508 Clouds 21 1015 46 10000 5.1 280 16:21 01.04.2020
5509 Clouds 20 1015 49 10000 4.6 290 15:57 01.04.2020
5510 Clouds 20 1016 49 10000 3.6 270 15:38 01.04.2020
5511 Clouds 20 1016 49 10000 3.6 270 15:19 01.04.2020
5512 Clouds 20 1016 49 10000 1.5 270 14:55 01.04.2020
5513 Clouds 20 1016 49 10000 1.5 270 14:55 01.04.2020
5514 Clouds 19 1016 48 10000 2.6 280 14:37 01.04.2020
5515 Clouds 19 1016 48 10000 2.6 280 14:19 01.04.2020
5516 Clouds 19 1016 52 10000 1 0 13:56 01.04.2020
5517 Clouds 18 1016 55 10000 1 0 13:37 01.04.2020
5518 Clouds 18 1016 55 10000 1 0 13:18 01.04.2020
5519 Clouds 18 1017 55 10000 2.1 330 12:42 01.04.2020
5520 Clouds 18 1017 59 10000 1 0 12:24 01.04.2020
5521 Clouds 17 1017 63 10000 1.5 360 11:59 01.04.2020
5522 Clouds 16 1017 67 10000 1.5 20 11:39 01.04.2020
5523 Clouds 16 1017 67 10000 1.5 20 11:20 01.04.2020
5524 Clouds 15 1017 77 10000 2.1 40 10:56 01.04.2020
5525 Clouds 15 1017 77 10000 1.5 60 10:37 01.04.2020
5526 Clouds 15 1017 77 10000 1.5 60 10:18 01.04.2020
5527 Clouds 13 1017 82 10000 1.5 90 09:40 01.04.2020
5528 Clouds 12 1016 87 10000 2.1 90 09:22 01.04.2020
5529 Clouds 11 1016 87 10000 1.5 90 08:59 01.04.2020
5530 Clouds 11 1016 87 10000 1.5 90 08:40 01.04.2020
5531 Clouds 11 1016 87 8000 1 0 08:18 01.04.2020
5532 Clouds 11 1015 87 8000 1 0 07:42 01.04.2020
5533 Clouds 11 1015 87 8000 1 0 07:42 01.04.2020
5534 Clouds 12 1015 81 8000 0.5 0 07:20 01.04.2020
5535 Clouds 12 1015 81 8000 1.5 300 06:47 01.04.2020
5536 Clouds 12 1015 81 8000 1.5 280 06:22 01.04.2020
5537 Clouds 13 1015 82 8000 1 0 05:53 01.04.2020
5538 Clouds 13 1015 82 8000 0.5 0 04:30 01.04.2020
5539 Clouds 13 1016 82 8000 1.5 250 03:28 01.04.2020
5540 Clouds 14 1016 82 8000 2.1 260 02:49 01.04.2020
5541 Clouds 15 1016 72 8000 4.6 270 01:54 01.04.2020
5542 Clouds 15 1016 72 8000 3.6 270 01:29 01.04.2020
5543 Clouds 15 1016 72 8000 2.6 280 00:58 01.04.2020
5544 Clouds 15 1015 72 8000 3.1 270 00:40 01.04.2020
5545 Clouds 15 1015 72 8000 3.1 270 00:18 01.04.2020
5546 Clouds 15 1015 72 8000 3.1 260 23:41 31.03.2020
5547 Clouds 16 1015 67 8000 4.1 270 23:23 31.03.2020
5548 Clouds 17 1014 59 8000 4.1 270 22:43 31.03.2020
5549 Clouds 17 1014 59 8000 4.1 270 22:23 31.03.2020
5550 Clouds 17 1014 59 8000 4.1 270 22:23 31.03.2020
5551 Clouds 17 1014 59 8000 6.2 270 21:59 31.03.2020
5552 Clouds 17 1014 59 8000 6.2 270 21:59 31.03.2020
5553 Clouds 18 1013 55 8000 6.7 280 21:41 31.03.2020
5554 Clouds 18 1013 55 8000 6.7 280 21:22 31.03.2020
5555 Clouds 18 1013 55 8000 6.7 290 20:58 31.03.2020
5556 Clouds 19 1012 55 8000 5.7 290 20:38 31.03.2020
5557 Clouds 19 1012 55 8000 6.2 300 20:20 31.03.2020
5558 Clouds 19 1012 55 8000 6.2 300 19:59 31.03.2020
5559 Clouds 20 1012 56 8000 8.2 280 19:40 31.03.2020
5560 Clouds 20 1012 56 8000 8.2 280 19:21 31.03.2020
5561 Clouds 20 1012 56 8000 8.2 300 18:55 31.03.2020
5562 Clouds 21 1011 52 8000 6.7 300 18:37 31.03.2020
5563 Clouds 21 1011 52 8000 6.7 300 18:18 31.03.2020
5564 Clouds 22 1010 49 8000 6.7 310 17:54 31.03.2020
5565 Clouds 24 1010 36 8000 6.7 280 17:36 31.03.2020
5566 Clouds 24 1010 36 8000 6.7 280 17:18 31.03.2020
5567 Clouds 23 1011 35 8000 8.2 280 16:38 31.03.2020
5568 Clouds 23 1011 35 8000 8.2 280 16:19 31.03.2020
5569 Clouds 23 1011 40 8000 8.7 280 15:57 31.03.2020
5570 Clouds 23 1011 40 8000 7.7 280 15:37 31.03.2020
5571 Clouds 23 1011 40 8000 7.7 280 15:19 31.03.2020
5572 Clouds 22 1011 46 10000 6.7 280 14:56 31.03.2020
5573 Clouds 22 1011 49 10000 7.2 270 14:38 31.03.2020
5574 Clouds 22 1011 49 10000 7.2 270 14:18 31.03.2020
5575 Clouds 22 1011 46 10000 4.1 250 13:42 31.03.2020
5576 Clouds 22 1011 46 10000 4.1 250 13:19 31.03.2020
5577 Clouds 20 1012 49 10000 5.1 230 12:55 31.03.2020
5578 Clouds 19 1012 55 10000 3.1 270 12:37 31.03.2020
5579 Clouds 19 1012 55 10000 3.1 270 12:18 31.03.2020
5580 Clouds 17 1011 63 10000 2.1 130 11:38 31.03.2020
5581 Clouds 17 1011 63 10000 2.1 130 11:19 31.03.2020
5582 Clouds 16 1011 72 10000 3.1 130 10:57 31.03.2020
5583 Clouds 16 1011 72 10000 3.1 160 10:39 31.03.2020
5584 Clouds 16 1011 72 10000 3.1 160 10:21 31.03.2020
5585 Clouds 16 1011 72 10000 3.1 160 10:21 31.03.2020
5586 Clouds 15 1011 72 10000 2.6 140 09:56 31.03.2020
5587 Clouds 14 1011 76 10000 2.6 160 09:37 31.03.2020
5588 Clouds 14 1011 76 10000 2.6 160 09:37 31.03.2020
5589 Clouds 14 1011 76 10000 2.6 160 09:19 31.03.2020
5590 Clouds 14 1011 82 10000 2.6 250 08:55 31.03.2020
5591 Clouds 14 1011 82 10000 2.1 250 08:37 31.03.2020
5592 Clouds 14 1011 82 10000 2.1 250 08:18 31.03.2020
5593 Clouds 14 1010 82 10000 1.5 220 07:44 31.03.2020
5594 Clear 14 1010 82 10000 1 0 07:25 31.03.2020
5595 Clear 14 1010 82 10000 2.6 280 06:58 31.03.2020
5596 Clear 14 1010 76 10000 2.6 320 06:39 31.03.2020
5597 Clear 14 1010 76 10000 1.5 20 05:42 31.03.2020
5598 Clear 13 1010 82 10000 2.1 120 05:23 31.03.2020
5599 Clear 14 1011 76 10000 1.5 120 02:53 31.03.2020
5600 Clear 14 1011 71 10000 2.6 300 01:47 31.03.2020
5601 Clear 14 1011 76 10000 1.5 300 01:19 31.03.2020
5602 Clear 14 1011 76 10000 2.1 260 00:43 31.03.2020
5603 Clear 15 1011 72 10000 2.6 270 00:20 31.03.2020
5604 Clear 16 1011 63 10000 4.6 280 23:40 30.03.2020
5605 Clouds 16 1011 63 10000 2.6 270 23:20 30.03.2020
5606 Clouds 17 1011 55 10000 3.1 270 22:57 30.03.2020
5607 Clouds 18 1011 52 10000 4.6 280 22:38 30.03.2020
5608 -273 0 0 0 0 0 22:19 30.03.2020
5609 Clouds 19 1011 48 10000 4.6 280 21:57 30.03.2020
5610 Clouds 20 1010 45 10000 5.1 290 21:38 30.03.2020
5611 Clouds 20 1010 45 10000 5.1 290 21:20 30.03.2020
5612 Clouds 21 1010 43 10000 6.2 280 20:57 30.03.2020
5613 Clouds 22 1010 37 10000 5.1 300 20:38 30.03.2020
5614 Clouds 22 1010 37 10000 5.1 300 20:19 30.03.2020
5615 Clouds 22 1010 37 10000 5.1 300 20:19 30.03.2020
5616 Clouds 23 1010 31 10000 5.7 280 19:41 30.03.2020
5617 Clouds 24 1010 23 10000 6.2 270 19:22 30.03.2020
5618 Clouds 24 1010 23 10000 5.1 270 18:59 30.03.2020
5619 Clouds 24 1010 23 10000 5.1 270 18:41 30.03.2020
5620 Clouds 24 1010 27 10000 5.1 280 18:22 30.03.2020
5621 Clouds 23 1011 35 10000 5.1 280 17:57 30.03.2020
5622 Clouds 24 1011 36 10000 5.1 280 17:39 30.03.2020
5623 Clouds 24 1011 36 10000 5.1 280 17:39 30.03.2020
5624 Clouds 24 1011 36 10000 5.1 280 17:19 30.03.2020
5625 Clouds 23 1011 35 10000 5.7 280 16:57 30.03.2020
5626 Clouds 22 1011 37 10000 4.1 270 16:38 30.03.2020
5627 Clouds 22 1011 37 10000 4.1 270 16:20 30.03.2020
5628 Clouds 23 1012 35 10000 4.1 260 15:55 30.03.2020
5629 Clouds 22 1012 40 10000 3.1 290 15:36 30.03.2020
5630 Clouds 22 1012 40 10000 3.1 290 15:18 30.03.2020
5631 Clouds 21 1013 43 10000 3.6 260 14:55 30.03.2020
5632 Clouds 20 1013 49 10000 4.1 300 14:36 30.03.2020
5633 Clouds 20 1013 49 10000 4.1 300 14:18 30.03.2020
5634 Clouds 20 1013 49 10000 3.6 300 13:43 30.03.2020
5635 Clouds 18 1014 55 10000 3.6 300 13:21 30.03.2020
5636 Clouds 18 1014 59 10000 2.6 290 12:58 30.03.2020
5637 Clouds 18 1014 59 10000 2.6 290 12:40 30.03.2020
5638 Clouds 17 1014 67 10000 1.5 0 12:19 30.03.2020
5639 Clouds 16 1014 67 10000 1 0 11:56 30.03.2020
5640 Clouds 16 1014 67 10000 1 0 11:38 30.03.2020
5641 Clouds 16 1014 67 10000 1 0 11:20 30.03.2020
5642 Clouds 16 1014 67 10000 0.5 0 10:40 30.03.2020
5643 Clouds 14 1014 76 10000 1 0 10:22 30.03.2020
5644 Clouds 13 1014 76 10000 2.6 170 09:56 30.03.2020
5645 Clouds 12 1014 81 10000 2.6 180 09:38 30.03.2020
5646 Clouds 12 1014 81 10000 2.6 180 09:19 30.03.2020
5647 Clouds 11 1014 87 10000 1.5 170 08:42 30.03.2020
5648 Clouds 11 1014 87 10000 2.6 180 08:22 30.03.2020
5649 Clouds 11 1014 87 10000 1.5 210 07:49 30.03.2020
5650 Clouds 11 1014 87 10000 2.6 220 07:31 30.03.2020
5651 Clouds 11 1014 87 10000 3.1 220 06:56 30.03.2020
5652 Clouds 11 1015 87 10000 2.6 210 06:32 30.03.2020
5653 Clouds 10 1015 87 10000 1.5 250 05:53 30.03.2020
5654 Clouds 10 1015 87 10000 2.1 250 05:22 30.03.2020
5655 Clouds 11 1015 81 10000 2.6 260 04:23 30.03.2020
5656 Clouds 11 1015 81 10000 2.1 270 03:44 30.03.2020
5657 Clouds 13 1016 76 10000 3.6 230 02:39 30.03.2020
5658 Clouds 14 1017 71 10000 3.6 230 01:44 30.03.2020
5659 Clouds 15 1017 62 10000 2.6 250 00:49 30.03.2020
5660 Clouds 16 1017 59 10000 3.6 20 00:22 30.03.2020
5661 Clouds 17 1017 55 10000 4.6 20 23:42 29.03.2020
5662 Clouds 18 1017 52 10000 3.6 10 23:23 29.03.2020
5663 Clouds 19 1016 48 10000 1.5 190 22:57 29.03.2020
5664 Clouds 19 1016 48 10000 1.5 170 22:38 29.03.2020
5665 Clouds 19 1016 48 10000 1.5 170 22:19 29.03.2020
5666 Clouds 19 1016 42 10000 1.5 240 21:55 29.03.2020
5667 Clouds 20 1016 37 10000 2.1 320 21:36 29.03.2020
5668 Clouds 20 1016 37 10000 2.1 320 21:18 29.03.2020
5669 Clouds 20 1016 40 10000 1.5 340 20:54 29.03.2020
5670 Clouds 21 1016 40 10000 2.1 40 20:36 29.03.2020
5671 Clouds 21 1016 40 10000 2.1 40 20:18 29.03.2020
5672 Clouds 21 1016 43 10000 2.1 60 19:42 29.03.2020
5673 Clouds 21 1016 43 10000 2.1 60 19:24 29.03.2020
5674 Clouds 21 1016 43 10000 2.1 340 18:57 29.03.2020
5675 Clouds 21 1016 43 10000 2.6 10 18:39 29.03.2020
5676 Clouds 21 1016 43 10000 2.6 10 18:20 29.03.2020
5677 Clouds 22 1016 43 10000 2.6 0 17:57 29.03.2020
5678 Clouds 21 1016 46 10000 1.5 0 17:39 29.03.2020
5679 Clouds 21 1016 46 10000 1.5 0 17:20 29.03.2020
5680 Clouds 20 1016 45 10000 1 0 16:57 29.03.2020
5681 Clouds 20 1017 45 10000 1.5 300 16:39 29.03.2020
5682 Clouds 20 1017 45 10000 1.5 300 16:39 29.03.2020
5683 Clouds 20 1017 45 10000 1.5 300 16:20 29.03.2020
5684 Clouds 21 1017 46 10000 1.5 0 15:43 29.03.2020
5685 Clouds 20 1017 52 10000 2.1 0 15:25 29.03.2020
5686 Clouds 18 1018 55 10000 1.5 0 14:59 29.03.2020
5687 Clouds 19 1018 52 10000 1.5 0 14:40 29.03.2020
5688 Clouds 19 1018 52 10000 1.5 0 14:21 29.03.2020
5689 Clouds 18 1018 55 10000 1.5 0 13:59 29.03.2020
5690 Clouds 17 1018 59 10000 1 0 13:41 29.03.2020
5691 Clouds 17 1018 59 10000 1 0 13:21 29.03.2020
5692 Clouds 16 1019 63 10000 1.5 0 12:57 29.03.2020
5693 Clouds 16 1019 63 10000 1 0 12:38 29.03.2020
5694 Clouds 16 1019 63 10000 1 0 12:19 29.03.2020
5695 Clouds 15 1019 72 10000 0.5 0 11:57 29.03.2020
5696 Clouds 15 1019 72 10000 0.5 0 11:57 29.03.2020
5697 Clouds 14 1019 67 10000 0.5 0 11:37 29.03.2020
5698 Clouds 14 1019 67 10000 0.5 0 11:19 29.03.2020
5699 Clouds 12 1018 76 10000 2.6 220 10:39 29.03.2020
5700 Clouds 12 1018 76 10000 2.6 220 10:19 29.03.2020
5701 Clouds 12 1018 76 10000 2.1 220 09:54 29.03.2020
5702 Clouds 11 1018 81 10000 1.5 170 09:36 29.03.2020
5703 Clouds 11 1018 81 10000 1.5 170 09:18 29.03.2020
5704 Clouds 10 1018 87 10000 1 0 08:41 29.03.2020
5705 Clouds 9 1017 87 10000 1 0 08:22 29.03.2020
5706 Clouds 10 1017 81 10000 1 0 07:45 29.03.2020
5707 Clouds 11 1017 81 10000 2.1 210 07:22 29.03.2020
5708 Clouds 11 1017 81 10000 1.5 70 05:59 29.03.2020
5709 Clouds 12 1017 81 10000 1.5 350 04:56 29.03.2020
5710 Clouds 13 1018 76 10000 3.6 90 03:37 29.03.2020
5711 Clouds 13 1018 71 10000 3.1 80 01:57 29.03.2020
5712 Clouds 14 1018 67 10000 2.6 60 01:37 29.03.2020
5713 Clouds 14 1018 67 10000 2.6 60 01:19 29.03.2020
5714 Clouds 15 1018 67 10000 3.6 50 00:34 29.03.2020
5715 Clouds 15 1018 67 10000 2.6 40 23:57 28.03.2020
5716 Clouds 15 1018 72 10000 0.5 0 23:39 28.03.2020
5717 Clouds 15 1018 72 10000 0.5 0 23:39 28.03.2020
5718 Clouds 15 1018 72 10000 0.5 0 23:20 28.03.2020
5719 Clouds 15 1018 72 10000 1.5 280 22:41 28.03.2020
5720 Clouds 16 1017 67 10000 2.6 190 22:22 28.03.2020
5721 Clouds 16 1017 67 10000 2.1 200 21:56 28.03.2020
5722 Clouds 16 1017 63 10000 2.1 180 21:38 28.03.2020
5723 Clouds 16 1017 63 10000 2.1 180 21:19 28.03.2020
5724 Clouds 16 1016 63 10000 2.6 170 20:54 28.03.2020
5725 Clouds 17 1016 59 10000 2.6 170 20:36 28.03.2020
5726 Clouds 17 1016 59 10000 2.6 170 20:36 28.03.2020
5727 Clouds 17 1016 59 10000 2.6 170 20:18 28.03.2020
5728 Clouds 17 1016 59 10000 3.1 180 19:54 28.03.2020
5729 Clouds 17 1015 59 10000 4.1 160 19:36 28.03.2020
5730 Clouds 17 1015 59 10000 4.1 160 19:18 28.03.2020
5731 Clouds 17 1015 63 10000 3.1 180 18:39 28.03.2020
5732 Clouds 17 1015 63 10000 3.1 180 18:20 28.03.2020
5733 Clouds 17 1015 63 10000 3.6 170 17:40 28.03.2020
5734 Clouds 17 1015 63 10000 3.6 170 17:22 28.03.2020
5735 Clouds 17 1014 59 10000 3.1 170 16:59 28.03.2020
5736 Clouds 17 1014 59 10000 3.1 170 16:38 28.03.2020
5737 Clouds 17 1014 59 10000 3.1 170 16:18 28.03.2020
5738 Clouds 16 1015 63 10000 3.6 180 15:40 28.03.2020
5739 Clouds 16 1015 63 10000 3.6 160 15:19 28.03.2020
5740 Clouds 16 1015 63 10000 3.6 160 15:19 28.03.2020
5741 Clouds 16 1015 63 10000 3.1 180 14:57 28.03.2020
5742 Clouds 16 1015 67 10000 3.6 170 14:39 28.03.2020
5743 Clouds 16 1015 67 10000 3.6 170 14:20 28.03.2020
5744 Clouds 16 1015 67 10000 3.6 170 14:20 28.03.2020
5745 Clouds 16 1015 67 10000 3.6 170 14:20 28.03.2020
5746 Clouds 16 1015 63 10000 2.6 170 13:42 28.03.2020
5747 Clouds 16 1016 67 10000 3.1 170 13:23 28.03.2020
5748 Clouds 16 1016 59 10000 1 0 12:41 28.03.2020
5749 Clouds 16 1016 59 10000 1 0 12:22 28.03.2020
5750 Clouds 17 1016 63 10000 1 0 11:43 28.03.2020
5751 Clouds 15 1016 72 8000 1.5 360 11:23 28.03.2020
5752 Clouds 14 1015 76 8000 2.1 50 10:58 28.03.2020
5753 Clouds 13 1015 82 8000 1.5 30 10:38 28.03.2020
5754 Clouds 13 1015 82 8000 1.5 30 10:18 28.03.2020
5755 Clouds 13 1015 82 8000 2.6 360 09:43 28.03.2020
5756 Clouds 13 1014 82 8000 2.6 10 09:23 28.03.2020
5757 Clouds 13 1014 82 8000 1.5 360 08:55 28.03.2020
5758 Clouds 13 1013 76 8000 1.5 350 08:37 28.03.2020
5759 Clouds 13 1013 76 8000 1.5 350 08:18 28.03.2020
5760 Clouds 13 1013 76 8000 2.1 330 07:42 28.03.2020
5761 Clouds 13 1013 82 8000 2.1 340 06:58 28.03.2020
5762 Clouds 13 1013 82 8000 1.5 260 06:35 28.03.2020
5763 Clouds 14 1013 76 6000 1.5 20 05:43 28.03.2020
5764 Clouds 14 1012 76 6000 1.5 40 05:21 28.03.2020
5765 Clouds 13 1013 82 6000 1.5 50 04:41 28.03.2020
5766 Clouds 13 1013 82 6000 1 0 03:42 28.03.2020
5767 Clouds 14 1014 76 6000 3.6 60 01:57 28.03.2020
5768 Clouds 14 1014 76 6000 4.1 50 01:26 28.03.2020
5769 Clouds 15 1014 77 6000 2.6 60 00:59 28.03.2020
5770 Clouds 14 1014 76 6000 2.1 30 00:36 28.03.2020
5771 Clouds 15 1013 72 6000 2.6 30 23:56 27.03.2020
5772 Clouds 14 1013 76 6000 2.6 10 23:38 27.03.2020
5773 Clouds 14 1013 76 6000 2.6 10 23:38 27.03.2020
5774 Clouds 14 1013 76 6000 2.6 10 23:19 27.03.2020
5775 Clouds 15 1013 72 6000 4.1 10 22:56 27.03.2020
5776 Rain 15 1013 77 5000 4.6 40 22:37 27.03.2020
5777 Rain 15 1013 77 5000 4.6 40 22:19 27.03.2020
5778 Rain 15 1012 82 5000 3.1 60 21:43 27.03.2020
5779 Clouds 15 1012 82 5000 3.1 50 21:24 27.03.2020
5780 Rain 16 1011 72 5000 1.5 80 20:59 27.03.2020
5781 Rain 16 1011 72 5000 1.5 80 20:41 27.03.2020
5782 Rain 16 1011 72 6000 3.1 120 20:20 27.03.2020
5783 Rain 17 1011 67 6000 3.1 130 19:57 27.03.2020
5784 Rain 17 1010 67 6000 3.1 160 19:39 27.03.2020
5785 Rain 17 1011 67 6000 3.1 130 19:39 27.03.2020
5786 Rain 17 1010 67 6000 3.1 160 19:20 27.03.2020
5787 Clouds 18 1010 59 8000 1.5 320 18:44 27.03.2020
5788 Clouds 19 1010 52 8000 3.6 310 18:24 27.03.2020
5789 Clouds 19 1010 55 8000 3.6 300 17:58 27.03.2020
5790 Clouds 19 1009 55 8000 3.6 230 17:39 27.03.2020
5791 Clouds 19 1009 55 8000 3.6 230 17:19 27.03.2020
5792 Clouds 20 1009 52 8000 2.6 250 16:44 27.03.2020
5793 Clouds 20 1010 49 8000 2.1 260 16:25 27.03.2020
5794 Clouds 19 1010 55 8000 1 0 15:55 27.03.2020
5795 Clouds 19 1010 59 8000 2.6 330 15:37 27.03.2020
5796 Clouds 19 1010 59 8000 2.6 330 15:19 27.03.2020
5797 Clouds 19 1011 59 8000 2.6 300 14:43 27.03.2020
5798 Clouds 18 1011 63 8000 2.6 320 14:24 27.03.2020
5799 Clouds 18 1011 63 8000 2.6 320 13:55 27.03.2020
5800 Clouds 17 1011 67 8000 2.6 310 13:36 27.03.2020
5801 Clouds 17 1011 67 8000 2.6 310 13:18 27.03.2020
5802 Clouds 17 1011 67 8000 2.6 310 13:18 27.03.2020
5803 Clouds 16 1011 72 8000 3.1 300 12:42 27.03.2020
5804 Clouds 16 1011 77 8000 3.1 290 12:19 27.03.2020
5805 Clouds 16 1012 82 8000 3.1 270 11:55 27.03.2020
5806 Clouds 15 1012 82 6000 3.1 270 11:36 27.03.2020
5807 Clouds 15 1012 82 6000 3.1 270 11:18 27.03.2020
5808 Clouds 14 1011 87 6000 2.6 290 10:42 27.03.2020
5809 Clouds 14 1011 87 6000 2.6 290 10:22 27.03.2020
5810 Clouds 13 1011 93 6000 2.6 250 09:59 27.03.2020
5811 Clouds 13 1011 93 6000 2.6 250 09:40 27.03.2020
5812 Clouds 13 1011 93 6000 3.6 240 09:22 27.03.2020
5813 Clouds 13 1011 93 6000 3.1 240 08:59 27.03.2020
5814 Clouds 12 1011 93 6000 3.6 240 08:40 27.03.2020
5815 Clouds 12 1011 93 6000 3.6 240 08:22 27.03.2020
5816 Clouds 12 1010 93 800 3.6 230 07:57 27.03.2020
5817 Clouds 12 1010 93 800 2.6 240 07:38 27.03.2020
5818 Clouds 12 1010 93 800 2.6 240 07:20 27.03.2020
5819 Clouds 13 1010 87 8000 3.1 230 06:39 27.03.2020
5820 Clouds 13 1010 93 8000 3.1 220 05:45 27.03.2020
5821 Clouds 13 1010 93 7000 1.5 290 03:26 27.03.2020
5822 Clouds 14 1011 87 7000 4.1 230 01:55 27.03.2020
5823 Clouds 15 1012 82 7000 3.1 220 00:58 27.03.2020
5824 Clouds 15 1011 82 7000 3.1 220 00:38 27.03.2020
5825 Clouds 15 1011 82 7000 3.1 220 00:19 27.03.2020
5826 Rain 15 1012 82 6000 2.1 320 23:37 26.03.2020
5827 Rain 15 1012 82 6000 2.1 320 23:18 26.03.2020
5828 Rain 17 1012 72 6000 3.6 230 22:56 26.03.2020
5829 Rain 17 1011 67 6000 4.1 320 22:36 26.03.2020
5830 Rain 17 1011 67 6000 4.1 320 22:18 26.03.2020
5831 Clouds 20 1010 52 10000 4.6 350 21:40 26.03.2020
5832 Clouds 21 1009 46 10000 3.1 40 21:21 26.03.2020
5833 Clouds 21 1009 46 10000 3.1 40 21:21 26.03.2020
5834 Clouds 21 1009 43 10000 2.6 80 20:58 26.03.2020
5835 Clouds 22 1009 43 10000 1.5 70 20:39 26.03.2020
5836 Clouds 22 1009 43 10000 1.5 70 20:21 26.03.2020
5837 Clouds 23 1009 35 10000 1 0 19:57 26.03.2020
5838 Clouds 24 1009 33 10000 0.5 0 19:39 26.03.2020
5839 Clouds 24 1009 33 10000 0.5 0 19:20 26.03.2020
5840 Clouds 23 1009 35 10000 2.1 340 18:58 26.03.2020
5841 Clouds 24 1009 36 10000 1.5 0 18:39 26.03.2020
5842 Clouds 24 1009 36 10000 1.5 0 18:21 26.03.2020
5843 Clouds 23 1009 38 10000 3.6 40 17:44 26.03.2020
5844 Clouds 25 1010 33 10000 1.5 0 17:19 26.03.2020
5845 Clouds 24 1010 38 10000 2.1 0 16:47 26.03.2020
5846 Clouds 24 1010 36 10000 3.1 80 16:28 26.03.2020
5847 Clouds 23 1011 38 10000 2.1 30 15:59 26.03.2020
5848 Clouds 23 1011 38 10000 2.1 30 15:41 26.03.2020
5849 Clouds 23 1011 40 10000 2.6 20 15:22 26.03.2020
5850 Clouds 23 1012 43 10000 2.6 70 14:58 26.03.2020
5851 Clouds 22 1012 46 10000 3.6 50 14:39 26.03.2020
5852 Clouds 22 1012 46 10000 3.6 50 14:19 26.03.2020
5853 Clouds 21 1013 49 10000 4.1 50 13:44 26.03.2020
5854 Clouds 21 1013 49 10000 4.1 50 13:24 26.03.2020
5855 Clouds 20 1013 56 10000 4.6 40 12:58 26.03.2020
5856 Clouds 20 1014 56 10000 2.6 50 12:38 26.03.2020
5857 Clouds 20 1014 56 10000 2.6 50 12:20 26.03.2020
5858 Clouds 19 1014 59 10000 2.6 80 11:45 26.03.2020
5859 Clouds 18 1014 68 8000 1.5 0 11:22 26.03.2020
5860 Clear 17 1014 72 8000 1.5 0 10:56 26.03.2020
5861 Clear 16 1014 77 8000 1.5 100 10:37 26.03.2020
5862 Clear 16 1014 77 8000 1.5 100 10:19 26.03.2020
5863 Clear 16 1014 77 7000 1 0 09:44 26.03.2020
5864 Clear 14 1014 82 7000 1 0 09:20 26.03.2020
5865 Clear 13 1014 87 7000 1 0 08:55 26.03.2020
5866 Clear 11 1014 93 8000 1.5 160 08:37 26.03.2020
5867 Clear 11 1014 93 8000 1.5 160 08:18 26.03.2020
5868 Clear 10 1014 93 8000 0.5 0 07:44 26.03.2020
5869 Clear 10 1013 93 8000 1.5 240 07:21 26.03.2020
5870 Clear 10 1013 93 8000 2.1 260 06:56 26.03.2020
5871 Clear 11 1013 93 8000 3.1 240 05:59 26.03.2020
5872 Clear 13 1013 82 8000 3.1 230 04:33 26.03.2020
5873 Clouds 13 1013 87 8000 2.1 230 03:44 26.03.2020
5874 Clouds 13 1014 82 8000 2.1 80 02:55 26.03.2020
5875 Clouds 14 1014 76 8000 1.5 70 01:50 26.03.2020
5876 Clouds 15 1014 77 8000 1.5 10 00:53 26.03.2020
5877 Clouds 16 1014 72 8000 2.1 350 00:20 26.03.2020
5878 Clouds 17 1014 63 8000 3.6 120 23:40 25.03.2020
5879 Clouds 17 1014 63 8000 3.6 120 23:20 25.03.2020
5880 Clouds 17 1014 63 8000 4.1 80 22:41 25.03.2020
5881 Clouds 17 1014 63 8000 4.1 80 22:21 25.03.2020
5882 Clouds 18 1014 59 8000 3.6 80 21:56 25.03.2020
5883 Clouds 18 1014 55 8000 3.1 80 21:38 25.03.2020
5884 Clouds 18 1014 55 8000 3.1 80 21:19 25.03.2020
5885 Clouds 18 1014 55 8000 2.1 70 20:55 25.03.2020
5886 Clouds 19 1014 48 8000 1.5 50 20:37 25.03.2020
5887 Clouds 19 1014 48 8000 1.5 50 20:18 25.03.2020
5888 Clouds 20 1014 49 10000 2.6 70 19:43 25.03.2020
5889 Clouds 20 1014 45 10000 2.6 60 19:23 25.03.2020
5890 Clouds 20 1014 45 10000 2.1 100 18:57 25.03.2020
5891 Clouds 21 1014 43 10000 3.1 50 18:39 25.03.2020
5892 Clouds 21 1014 43 10000 3.1 50 18:21 25.03.2020
5893 Clouds 21 1013 46 10000 1.5 0 17:55 25.03.2020
5894 Clouds 21 1013 46 10000 2.1 0 17:37 25.03.2020
5895 Clouds 21 1013 46 10000 2.1 0 17:18 25.03.2020
5896 Clouds 21 1013 40 10000 3.1 0 16:43 25.03.2020
5897 Clouds 20 1013 45 10000 2.6 0 16:24 25.03.2020
5898 Clouds 20 1014 45 10000 3.1 10 15:57 25.03.2020
5899 Clouds 19 1014 48 10000 2.6 30 15:38 25.03.2020
5900 Clouds 19 1014 48 10000 2.6 30 15:19 25.03.2020
5901 Clouds 19 1014 48 10000 2.6 30 15:19 25.03.2020
5902 Clouds 19 1014 48 10000 2.6 50 14:42 25.03.2020
5903 Clouds 18 1014 55 10000 2.6 0 14:22 25.03.2020
5904 Clouds 18 1015 55 10000 2.6 0 13:56 25.03.2020
5905 Clouds 17 1015 59 10000 2.6 50 13:38 25.03.2020
5906 Clouds 17 1015 59 10000 2.6 50 13:19 25.03.2020
5907 Clouds 16 1016 63 10000 1.5 0 12:37 25.03.2020
5908 Clouds 16 1016 63 10000 1.5 0 12:19 25.03.2020
5909 Clouds 16 1016 63 10000 2.6 50 11:55 25.03.2020
5910 Clear 15 1015 67 10000 2.1 0 11:36 25.03.2020
5911 Clear 15 1015 67 10000 2.1 0 11:18 25.03.2020
5912 Clear 15 1015 67 10000 1 0 10:55 25.03.2020
5913 Clear 14 1015 71 10000 1.5 90 10:36 25.03.2020
5914 Clear 14 1015 71 10000 1.5 90 10:18 25.03.2020
5915 Clouds 13 1015 76 10000 2.6 110 09:42 25.03.2020
5916 Clouds 11 1015 93 10000 1.5 100 09:22 25.03.2020
5917 Clouds 10 1014 93 10000 1.5 50 08:55 25.03.2020
5918 Clouds 9 1014 93 10000 1 0 08:37 25.03.2020
5919 Clouds 9 1014 93 10000 1 0 08:18 25.03.2020
5920 Clouds 8 1014 93 10000 1.5 150 07:39 25.03.2020
5921 Clouds 8 1014 93 10000 1.5 150 07:20 25.03.2020
5922 Clouds 8 1014 93 10000 1.5 150 07:20 25.03.2020
5923 Clouds 8 1014 100 10000 1 0 06:46 25.03.2020
5924 Clouds 9 1014 93 10000 1 0 06:25 25.03.2020
5925 Clouds 9 1014 93 10000 0.5 0 05:50 25.03.2020
5926 Clouds 9 1014 93 10000 1 0 04:59 25.03.2020
5927 Clouds 10 1014 87 10000 0.5 0 04:39 25.03.2020
5928 Clouds 10 1014 93 10000 1 0 03:35 25.03.2020
5929 Clouds 10 1014 93 10000 0.5 0 01:58 25.03.2020
5930 Clouds 10 1014 93 10000 1.5 320 01:21 25.03.2020
5931 Clouds 10 1014 93 10000 1.5 280 00:48 25.03.2020
5932 Clouds 10 1014 93 10000 2.1 280 00:19 25.03.2020
5933 Clouds 10 1014 87 10000 2.1 270 23:45 24.03.2020
5934 Clouds 11 1013 87 8000 2.1 220 23:25 24.03.2020
5935 Clouds 10 1013 93 8000 1.5 260 22:56 24.03.2020
5936 Clouds 11 1013 87 8000 2.1 230 22:37 24.03.2020
5937 Clouds 11 1013 87 8000 2.1 230 22:19 24.03.2020
5938 Clouds 12 1013 81 8000 2.6 220 21:55 24.03.2020
5939 Clouds 12 1012 81 8000 1.5 220 21:37 24.03.2020
5940 Clouds 12 1012 81 8000 1.5 220 21:18 24.03.2020
5941 Clouds 12 1012 81 8000 1.5 220 21:18 24.03.2020
5942 Clouds 12 1012 81 8000 2.1 220 20:43 24.03.2020
5943 Clouds 11 1012 87 6000 1 0 20:24 24.03.2020
5944 Clouds 12 1011 81 6000 3.1 210 19:59 24.03.2020
5945 Clouds 12 1011 81 6000 3.1 210 19:41 24.03.2020
5946 Rain 11 1011 87 6000 3.1 220 19:19 24.03.2020
5947 Rain 11 1011 87 6000 3.6 230 18:55 24.03.2020
5948 Rain 11 1011 87 6000 1 0 18:36 24.03.2020
5949 Rain 11 1011 87 6000 1 0 18:18 24.03.2020
5950 Rain 11 1010 81 4000 4.6 330 17:42 24.03.2020
5951 Rain 11 1010 81 4000 4.6 330 17:22 24.03.2020
5952 Rain 12 1010 76 6000 5.7 340 16:58 24.03.2020
5953 Clouds 13 1010 71 6000 5.1 330 16:39 24.03.2020
5954 Clouds 13 1010 71 6000 5.1 330 16:21 24.03.2020
5955 Clouds 14 1009 67 8000 4.6 300 15:57 24.03.2020
5956 Clouds 16 1009 55 8000 3.6 260 15:37 24.03.2020
5957 Clouds 16 1009 55 8000 3.6 260 15:19 24.03.2020
5958 Clouds 17 1009 51 8000 3.6 270 14:42 24.03.2020
5959 Clouds 17 1009 51 8000 1.5 0 14:19 24.03.2020
5960 Clouds 16 1010 59 8000 2.6 270 13:43 24.03.2020
5961 Clouds 15 1010 62 8000 3.6 290 13:24 24.03.2020
5962 Clouds 15 1010 62 8000 3.1 300 12:55 24.03.2020
5963 Clouds 15 1010 62 7000 3.1 270 12:37 24.03.2020
5964 Clouds 15 1010 62 7000 3.1 270 12:18 24.03.2020
5965 Clouds 13 1010 82 7000 1 0 11:39 24.03.2020
5966 Clouds 13 1010 82 7000 1 0 11:20 24.03.2020
5967 Clouds 12 1010 87 7000 2.6 220 10:43 24.03.2020
5968 Clouds 11 1010 93 7000 3.6 250 10:20 24.03.2020
5969 Clouds 11 1010 93 7000 4.1 270 09:59 24.03.2020
5970 Clouds 11 1010 93 7000 4.1 270 09:40 24.03.2020
5971 Clouds 11 1009 93 7000 3.1 250 09:22 24.03.2020
5972 Rain 10 1008 93 5000 3.1 250 08:39 24.03.2020
5973 Rain 10 1008 93 5000 3.1 250 08:20 24.03.2020
5974 Rain 10 1008 93 5000 4.1 270 07:48 24.03.2020
5975 Rain 10 1008 93 5000 4.6 270 07:24 24.03.2020
5976 Clouds 10 1008 100 6000 4.6 270 06:53 24.03.2020
5977 Clouds 10 1007 100 6000 4.1 260 06:27 24.03.2020
5978 Rain 10 1007 93 5000 4.1 250 05:22 24.03.2020
5979 Rain 10 1007 87 5000 3.1 240 04:27 24.03.2020
5980 Rain 10 1008 87 5000 3.6 230 03:18 24.03.2020
5981 Rain 11 1008 93 5000 5.1 250 01:47 24.03.2020
5982 Rain 11 1008 87 5000 3.6 230 00:48 24.03.2020
5983 Rain 11 1009 87 4000 3.6 230 00:25 24.03.2020
5984 Rain 11 1009 87 5000 1 0 23:45 23.03.2020
5985 Rain 11 1008 87 5000 1.5 270 23:26 23.03.2020
5986 Rain 11 1008 87 5000 1.5 290 22:56 23.03.2020
5987 Rain 11 1008 87 5000 1.5 290 22:56 23.03.2020
5988 Rain 11 1008 87 5000 1 0 22:37 23.03.2020
5989 Rain 11 1008 87 5000 1 0 22:19 23.03.2020
5990 Rain 11 1007 87 4000 2.1 270 21:44 23.03.2020
5991 Rain 12 1007 81 4000 3.6 170 21:21 23.03.2020
5992 Rain 12 1007 81 4000 5.1 170 20:58 23.03.2020
5993 Rain 12 1007 81 4000 5.1 180 20:40 23.03.2020
5994 Rain 12 1007 81 4000 5.1 180 20:22 23.03.2020
5995 Rain 12 1007 87 4000 3.1 200 19:46 23.03.2020
5996 Rain 13 1006 82 3000 5.7 180 19:28 23.03.2020
5997 Rain 13 1006 76 3000 4.6 170 18:59 23.03.2020
5998 Rain 14 1005 76 6000 4.6 190 18:41 23.03.2020
5999 Rain 14 1005 76 6000 4.6 190 18:22 23.03.2020
6000 Rain 15 1005 67 8000 3.1 250 17:56 23.03.2020
6001 Clouds 18 1005 45 10000 2.1 220 17:37 23.03.2020
6002 Clouds 18 1005 45 10000 2.1 220 17:18 23.03.2020
6003 Clouds 18 1005 48 10000 2.6 200 16:43 23.03.2020
6004 Clouds 18 1005 48 10000 2.6 200 16:24 23.03.2020
6005 Clouds 18 1005 45 10000 1.5 150 15:42 23.03.2020
6006 Clouds 18 1005 45 10000 1.5 150 15:42 23.03.2020
6007 Clouds 18 1006 48 10000 2.1 120 15:20 23.03.2020
6008 Clouds 18 1006 48 10000 1.5 110 14:55 23.03.2020
6009 Clouds 17 1007 51 10000 2.1 60 14:36 23.03.2020
6010 Clouds 17 1007 51 10000 2.1 60 14:18 23.03.2020
6011 Clouds 18 1007 52 10000 2.6 40 13:41 23.03.2020
6012 Clouds 18 1007 52 10000 2.6 350 13:22 23.03.2020
6013 Clouds 18 1008 52 10000 2.1 0 12:55 23.03.2020
6014 Clouds 17 1008 55 10000 2.1 0 12:37 23.03.2020
6015 Clouds 17 1008 55 10000 2.1 0 12:19 23.03.2020
6016 Clouds 15 1008 62 10000 2.1 90 11:42 23.03.2020
6017 Clouds 15 1008 62 10000 2.1 90 11:21 23.03.2020
6018 Clouds 15 1008 67 10000 1 0 10:58 23.03.2020
6019 Clouds 14 1008 71 8000 1 0 10:39 23.03.2020
6020 Clouds 14 1008 71 8000 1 0 10:21 23.03.2020
6021 Clouds 13 1008 71 8000 1.5 140 09:48 23.03.2020
6022 Clouds 12 1008 76 8000 1 0 09:21 23.03.2020
6023 Clouds 12 1008 76 8000 1 0 09:21 23.03.2020
6024 Clouds 11 1008 81 8000 1 0 08:58 23.03.2020
6025 Clouds 11 1008 81 8000 1 0 08:58 23.03.2020
6026 Clouds 9 1008 87 8000 0.5 0 08:37 23.03.2020
6027 Clouds 9 1008 87 8000 0.5 0 08:18 23.03.2020
6028 Clouds 8 1008 87 8000 0.5 0 07:47 23.03.2020
6029 Clouds 9 1008 81 8000 1 0 07:29 23.03.2020
6030 Clouds 9 1008 81 8000 0.5 0 06:52 23.03.2020
6031 Clouds 9 1008 81 8000 0.5 0 06:20 23.03.2020
6032 Clouds 10 1009 81 8000 1 0 05:29 23.03.2020
6033 Clouds 12 1009 71 10000 1.5 20 03:45 23.03.2020
6034 Clouds 12 1010 71 10000 2.6 50 02:37 23.03.2020
6035 Clouds 13 1010 66 10000 4.6 50 01:34 23.03.2020
6036 Clouds 14 1010 62 10000 5.1 50 00:40 23.03.2020
6037 Clouds 14 1011 62 10000 4.6 30 23:53 22.03.2020
6038 Clouds 14 1011 62 10000 5.1 20 23:27 22.03.2020
6039 Clouds 15 1010 58 10000 4.6 10 22:56 22.03.2020
6040 Clouds 16 1010 51 10000 4.1 360 22:36 22.03.2020
6041 Clouds 16 1010 51 10000 4.1 360 22:18 22.03.2020
6042 Clouds 17 1010 48 10000 3.1 330 21:39 22.03.2020
6043 Clouds 17 1010 48 10000 3.1 330 21:20 22.03.2020
6044 Clouds 17 1010 48 10000 2.6 310 20:56 22.03.2020
6045 Clouds 17 1010 45 10000 3.1 280 20:38 22.03.2020
6046 Clouds 17 1010 45 10000 3.1 280 20:20 22.03.2020
6047 Clouds 19 1010 37 10000 1 0 19:55 22.03.2020
6048 Clouds 19 1010 37 10000 1 0 19:37 22.03.2020
6049 Clouds 19 1010 37 10000 1 0 19:18 22.03.2020
6050 Clouds 19 1010 37 10000 1.5 0 18:55 22.03.2020
6051 Clouds 20 1010 34 10000 1.5 0 18:37 22.03.2020
6052 Clouds 20 1010 34 10000 1.5 0 18:18 22.03.2020
6053 Clouds 20 1010 34 10000 1 0 17:55 22.03.2020
6054 Clouds 21 1010 35 10000 1.5 0 17:36 22.03.2020
6055 Clouds 21 1010 35 10000 1.5 0 17:18 22.03.2020
6056 Clouds 20 1010 37 10000 2.1 0 16:41 22.03.2020
6057 Clouds 20 1010 37 10000 1 0 16:22 22.03.2020
6058 Clouds 20 1011 37 10000 2.6 0 15:59 22.03.2020
6059 Clouds 19 1011 37 10000 2.6 0 15:39 22.03.2020
6060 Clouds 18 1011 42 10000 2.6 280 14:47 22.03.2020
6061 Clouds 18 1012 42 10000 2.1 0 14:20 22.03.2020
6062 Clouds 18 1012 45 10000 2.1 0 13:58 22.03.2020
6063 Clouds 17 1013 45 10000 1.5 0 13:40 22.03.2020
6064 Clouds 17 1013 45 10000 1.5 0 13:19 22.03.2020
6065 Clouds 17 1013 51 10000 1 0 12:44 22.03.2020
6066 Clouds 16 1013 51 10000 1.5 0 12:44 22.03.2020
6067 Clouds 16 1013 51 10000 1.5 0 12:22 22.03.2020
6068 Clouds 16 1013 51 10000 1.5 0 12:22 22.03.2020
6069 Clouds 15 1014 58 10000 1.5 0 11:58 22.03.2020
6070 Clouds 14 1014 62 10000 1.5 120 11:39 22.03.2020
6071 Clouds 14 1014 62 10000 1.5 120 11:20 22.03.2020
6072 Clear 13 1014 71 10000 1.5 150 10:43 22.03.2020
6073 Clouds 13 1014 71 10000 1 0 10:24 22.03.2020
6074 Clouds 13 1014 71 10000 0.5 0 09:55 22.03.2020
6075 Clouds 10 1014 81 10000 2.1 150 09:36 22.03.2020
6076 Clouds 10 1014 81 10000 2.1 150 09:18 22.03.2020
6077 Clouds 10 1014 87 10000 0.5 0 08:41 22.03.2020
6078 Clouds 7 1014 93 8000 0.5 0 08:21 22.03.2020
6079 Clear 7 1014 87 8000 1.5 100 07:50 22.03.2020
6080 Clear 7 1014 87 8000 2.1 90 07:19 22.03.2020
6081 Clouds 8 1014 87 8000 0.5 0 05:56 22.03.2020
6082 Clouds 8 1014 87 8000 0.5 0 04:58 22.03.2020
6083 Clouds 10 1016 76 8000 2.6 220 02:50 22.03.2020
6084 Clouds 11 1017 71 8000 2.6 230 01:22 22.03.2020
6085 Clouds 11 1017 71 8000 2.6 230 01:22 22.03.2020
6086 Clouds 10 1017 76 8000 2.6 240 00:39 22.03.2020
6087 Clouds 10 1017 76 8000 2.6 240 00:21 22.03.2020
6088 Clouds 11 1017 66 8000 2.1 290 23:41 21.03.2020
6089 Clouds 11 1017 66 8000 2.1 290 23:41 21.03.2020
6090 Clouds 11 1017 66 8000 2.1 290 23:19 21.03.2020
6091 Clouds 13 1017 62 8000 3.1 300 22:38 21.03.2020
6092 Clouds 13 1017 62 8000 3.1 300 22:20 21.03.2020
6093 Clouds 13 1017 58 8000 3.1 290 21:59 21.03.2020
6094 Clouds 13 1017 58 8000 3.1 290 21:40 21.03.2020
6095 Clouds 14 1017 54 8000 3.6 300 21:22 21.03.2020
6096 Clouds 14 1016 58 8000 2.1 250 20:46 21.03.2020
6097 Clouds 15 1016 54 8000 1.5 280 20:23 21.03.2020
6098 Clouds 16 1016 51 8000 2.1 260 19:57 21.03.2020
6099 Clouds 16 1016 51 8000 3.1 250 19:39 21.03.2020
6100 Clouds 16 1016 51 8000 3.1 250 19:21 21.03.2020
6101 Clouds 16 1016 48 8000 3.1 250 18:54 21.03.2020
6102 Clouds 17 1016 48 8000 3.1 230 18:36 21.03.2020
6103 Clouds 17 1016 48 8000 3.1 230 18:18 21.03.2020
6104 Clouds 17 1016 45 8000 3.1 0 17:43 21.03.2020
6105 Clouds 17 1016 45 8000 3.1 0 17:23 21.03.2020
6106 Clouds 16 1016 51 8000 3.6 260 16:57 21.03.2020
6107 Clouds 16 1016 59 8000 2.6 260 16:38 21.03.2020
6108 Clouds 16 1016 59 8000 2.6 260 16:18 21.03.2020
6109 Clouds 16 1016 59 8000 2.6 260 16:18 21.03.2020
6110 Clouds 16 1017 59 8000 3.1 280 15:42 21.03.2020
6111 Clouds 16 1017 59 8000 2.6 270 15:23 21.03.2020
6112 Clouds 15 1018 62 8000 2.6 0 14:58 21.03.2020
6113 Clouds 15 1018 62 8000 2.6 0 14:40 21.03.2020
6114 Clouds 15 1018 62 8000 1.5 0 14:20 21.03.2020
6115 Clouds 15 1018 67 8000 1 0 13:59 21.03.2020
6116 Clouds 15 1018 67 8000 1 0 13:40 21.03.2020
6117 Clouds 13 1019 76 8000 1 0 13:22 21.03.2020
6118 Clouds 11 1019 87 8000 1.5 310 12:59 21.03.2020
6119 Clouds 13 1019 71 8000 1 0 12:38 21.03.2020
6120 Clouds 13 1019 71 8000 1 0 12:19 21.03.2020
6121 Clouds 12 1019 76 8000 2.1 0 11:56 21.03.2020
6122 Clouds 13 1019 66 8000 2.1 340 11:38 21.03.2020
6123 Clouds 13 1019 66 8000 2.1 340 11:19 21.03.2020
6124 Clouds 12 1019 76 6000 2.1 0 10:57 21.03.2020
6125 Clouds 11 1018 87 6000 1 0 10:38 21.03.2020
6126 Clouds 11 1018 87 6000 1 0 10:19 21.03.2020
6127 Clouds 11 1018 87 6000 1 0 09:56 21.03.2020
6128 Drizzle 10 1018 93 5000 1 0 09:37 21.03.2020
6129 Drizzle 10 1018 93 5000 1 0 09:19 21.03.2020
6130 Drizzle 10 1018 87 5000 1 0 08:43 21.03.2020
6131 Drizzle 9 1018 93 5000 2.1 250 08:24 21.03.2020
6132 Clouds 11 1017 81 8000 2.6 360 07:45 21.03.2020
6133 Clouds 11 1017 81 8000 2.6 360 07:27 21.03.2020
6134 Clouds 11 1017 81 8000 2.6 280 06:48 21.03.2020
6135 Clouds 12 1017 81 8000 1.5 330 06:28 21.03.2020
6136 Clouds 12 1017 81 8000 1.5 340 05:46 21.03.2020
6137 Clouds 12 1017 81 8000 2.1 290 04:47 21.03.2020
6138 Clouds 12 1018 87 8000 2.6 330 02:55 21.03.2020
6139 Clouds 12 1018 87 8000 3.1 330 02:33 21.03.2020
6140 Clouds 12 1019 87 8000 3.6 330 01:33 21.03.2020
6141 Clouds 13 1019 82 8000 3.1 330 00:56 21.03.2020
6142 Clouds 13 1019 87 8000 2.6 330 00:37 21.03.2020
6143 Clouds 13 1019 87 8000 4.1 340 23:53 20.03.2020
6144 Clouds 14 1019 82 8000 2.6 320 23:28 20.03.2020
6145 Clouds 14 1018 82 8000 3.6 330 22:59 20.03.2020
6146 Clouds 14 1018 82 8000 3.6 330 22:59 20.03.2020
6147 Clouds 14 1018 82 8000 3.1 340 22:40 20.03.2020
6148 Clouds 14 1018 82 8000 3.1 340 22:21 20.03.2020
6149 Clouds 14 1018 82 8000 4.1 320 21:56 20.03.2020
6150 Clouds 15 1017 82 8000 4.1 330 21:38 20.03.2020
6151 Clouds 15 1017 82 8000 4.1 330 21:18 20.03.2020
6152 Clouds 15 1016 82 5000 4.6 320 20:56 20.03.2020
6153 Rain 15 1016 82 5000 4.6 320 20:38 20.03.2020
6154 Rain 15 1016 82 5000 4.6 320 20:18 20.03.2020
6155 Rain 15 1014 71 0 5.92 302 19:44 20.03.2020
6156 Clouds 18 1015 63 8000 4.6 320 19:19 20.03.2020
6157 Clouds 18 1015 63 8000 4.6 320 18:55 20.03.2020
6158 Clouds 18 1015 63 8000 4.6 320 18:37 20.03.2020
6159 Clouds 18 1015 63 8000 4.6 320 18:19 20.03.2020
6160 Clouds 18 1014 63 8000 4.6 310 17:39 20.03.2020
6161 Clouds 18 1014 63 8000 4.6 310 17:21 20.03.2020
6162 Clouds 18 1014 63 8000 4.6 310 17:21 20.03.2020
6163 Clouds 19 1014 59 8000 4.1 290 16:58 20.03.2020
6164 Clouds 19 1014 63 8000 4.6 300 16:39 20.03.2020
6165 Clouds 19 1014 63 8000 4.6 300 16:18 20.03.2020
6166 Clouds 19 1015 59 8000 4.6 300 15:42 20.03.2020
6167 Clouds 19 1015 59 8000 3.6 0 15:22 20.03.2020
6168 Clouds 20 1015 60 8000 2.1 300 14:56 20.03.2020
6169 -273 0 0 0 0 0 14:37 20.03.2020
6170 Clouds 19 1015 63 8000 1.5 0 14:18 20.03.2020
6171 Clouds 18 1015 63 8000 1.5 0 13:43 20.03.2020
6172 Clouds 18 1015 63 8000 2.6 190 13:19 20.03.2020
6173 Clouds 16 1016 77 8000 2.6 180 12:41 20.03.2020
6174 Clouds 16 1016 77 8000 2.6 180 12:23 20.03.2020
6175 Clouds 15 1016 77 8000 2.6 210 11:58 20.03.2020
6176 Clouds 14 1016 82 8000 2.1 220 11:38 20.03.2020
6177 Clouds 14 1016 82 8000 2.1 220 11:19 20.03.2020
6178 Clouds 14 1016 76 8000 2.6 220 10:42 20.03.2020
6179 Clouds 13 1016 82 8000 2.1 200 10:21 20.03.2020
6180 Clouds 13 1015 82 8000 2.6 210 09:59 20.03.2020
6181 Clouds 13 1015 82 8000 2.6 210 09:59 20.03.2020
6182 Clouds 13 1015 82 8000 2.6 210 09:41 20.03.2020
6183 Clouds 12 1015 81 8000 3.1 210 09:19 20.03.2020
6184 Clouds 12 1014 81 8000 3.1 200 08:43 20.03.2020
6185 Clouds 11 1014 87 8000 3.6 220 08:22 20.03.2020
6186 Clouds 11 1014 87 8000 3.6 220 08:22 20.03.2020
6187 Clouds 10 1014 87 8000 3.6 230 07:55 20.03.2020
6188 Clouds 10 1014 87 8000 3.1 220 07:37 20.03.2020
6189 Clouds 10 1014 87 8000 3.1 220 07:18 20.03.2020
6190 Clouds 9 1013 93 8000 2.1 250 06:41 20.03.2020
6191 Clouds 10 1012 87 8000 3.6 250 04:52 20.03.2020
6192 Clouds 11 1012 87 8000 2.1 240 03:40 20.03.2020
6193 Clouds 12 1013 81 8000 1.5 150 02:20 20.03.2020
6194 Clouds 12 1014 81 8000 2.1 110 00:59 20.03.2020
6195 Clouds 12 1014 87 7000 2.1 90 00:31 20.03.2020
6196 Clouds 12 1014 81 7000 2.1 90 23:49 19.03.2020
6197 Clouds 12 1014 81 7000 1.5 30 23:30 19.03.2020
6198 Clouds 12 1013 81 7000 1.5 40 22:57 19.03.2020
6199 Clouds 12 1013 81 7000 3.6 80 22:38 19.03.2020
6200 Clouds 12 1013 81 7000 3.6 80 22:20 19.03.2020
6201 Clouds 12 1013 81 7000 3.1 60 21:42 19.03.2020
6202 Clouds 12 1012 81 7000 4.6 110 21:20 19.03.2020
6203 Clouds 12 1012 81 6000 2.1 70 20:59 19.03.2020
6204 Clouds 12 1012 81 6000 2.1 70 20:41 19.03.2020
6205 Rain 13 1011 76 6000 6.7 140 20:23 19.03.2020
6206 Rain 12 1012 81 6000 5.1 90 19:55 19.03.2020
6207 Clouds 15 1012 62 8000 3.6 90 19:37 19.03.2020
6208 Clouds 15 1012 62 8000 3.6 90 19:19 19.03.2020
6209 Clouds 15 1012 67 8000 3.1 60 18:55 19.03.2020
6210 Clouds 16 1012 67 8000 2.1 30 18:37 19.03.2020
6211 Clouds 16 1012 67 8000 2.1 30 18:37 19.03.2020
6212 Clouds 16 1012 67 8000 2.1 30 18:19 19.03.2020
6213 Clouds 15 1011 72 8000 2.6 350 17:41 19.03.2020
6214 Clouds 15 1011 72 8000 2.6 350 17:19 19.03.2020
6215 Clouds 15 1010 72 8000 5.7 200 16:44 19.03.2020
6216 Clouds 15 1010 72 8000 5.7 200 16:24 19.03.2020
6217 Rain 15 1011 72 6000 2.6 140 15:46 19.03.2020
6218 Rain 13 1012 82 6000 1.5 0 15:28 19.03.2020
6219 Rain 13 1012 82 6000 3.6 180 14:59 19.03.2020
6220 Rain 13 1012 82 6000 3.6 180 14:40 19.03.2020
6221 Rain 13 1012 76 8000 1 0 14:20 19.03.2020
6222 Rain 13 1012 71 8000 2.1 90 13:41 19.03.2020
6223 Clouds 12 1012 71 8000 2.6 40 13:19 19.03.2020
6224 Clouds 14 1012 62 8000 1.5 0 12:56 19.03.2020
6225 Clouds 14 1012 62 8000 1.5 0 12:38 19.03.2020
6226 Clouds 14 1012 62 8000 1.5 0 12:19 19.03.2020
6227 Clouds 13 1011 66 8000 0.5 0 11:42 19.03.2020
6228 Clouds 13 1011 66 8000 0.5 0 11:23 19.03.2020
6229 Clouds 12 1011 66 8000 1 0 10:57 19.03.2020
6230 Drizzle 12 1011 66 8000 1.5 0 10:37 19.03.2020
6231 Drizzle 12 1011 66 8000 1.5 0 10:18 19.03.2020
6232 Clouds 11 1011 71 8000 1.5 230 09:44 19.03.2020
6233 Clouds 11 1011 71 8000 1.5 240 09:26 19.03.2020
6234 Clouds 10 1010 76 8000 1.5 250 08:57 19.03.2020
6235 Clouds 9 1010 81 8000 1.5 290 08:38 19.03.2020
6236 Clouds 9 1010 81 8000 1.5 290 08:18 19.03.2020
6237 Clouds 10 1010 76 8000 2.6 250 07:43 19.03.2020
6238 Clouds 9 1010 76 8000 1.5 260 07:22 19.03.2020
6239 Clouds 10 1011 71 8000 3.1 230 06:29 19.03.2020
6240 Clouds 11 1011 71 8000 3.6 230 05:25 19.03.2020
6241 Clouds 11 1011 66 8000 3.6 240 04:51 19.03.2020
6242 Clouds 11 1011 66 8000 4.1 240 04:22 19.03.2020
6243 Clouds 14 1012 58 8000 1 0 02:33 19.03.2020
6244 Clouds 14 1012 62 8000 3.1 50 00:55 19.03.2020
6245 Clouds 14 1012 62 8000 4.1 30 00:20 19.03.2020
6246 Clouds 14 1012 58 8000 2.1 20 23:45 18.03.2020
6247 Clouds 14 1012 54 8000 3.1 30 23:26 18.03.2020
6248 Clouds 15 1012 51 8000 4.6 40 22:43 18.03.2020
6249 Clouds 15 1012 47 8000 2.1 70 22:24 18.03.2020
6250 Clouds 15 1012 47 8000 2.6 80 21:59 18.03.2020
6251 Clouds 15 1012 47 8000 2.6 80 21:40 18.03.2020
6252 Clouds 16 1012 44 9000 3.1 80 21:21 18.03.2020
6253 Clouds 16 1012 44 9000 3.1 80 21:21 18.03.2020
6254 Clouds 17 1012 42 9000 4.6 70 20:56 18.03.2020
6255 Clouds 17 1011 42 9000 4.1 70 20:38 18.03.2020
6256 Clouds 17 1011 42 9000 4.1 70 20:19 18.03.2020
6257 Clouds 18 1011 39 9000 4.6 70 19:42 18.03.2020
6258 Clouds 18 1011 39 9000 5.1 80 19:21 18.03.2020
6259 Clouds 18 1011 42 9000 4.1 80 18:59 18.03.2020
6260 Clouds 18 1011 42 9000 3.1 350 18:40 18.03.2020
6261 Clouds 18 1011 42 9000 3.1 350 18:19 18.03.2020
6262 Clouds 18 1011 42 9000 1.5 360 17:57 18.03.2020
6263 Clouds 18 1011 42 9000 3.1 340 17:39 18.03.2020
6264 Clouds 18 1011 42 9000 3.1 340 17:19 18.03.2020
6265 Clouds 18 1011 42 9000 4.1 350 16:43 18.03.2020
6266 Clouds 18 1011 42 10000 2.6 330 16:21 18.03.2020
6267 Clouds 19 1011 39 10000 2.6 0 15:59 18.03.2020
6268 Clouds 18 1011 45 10000 2.6 360 15:39 18.03.2020
6269 Clouds 18 1011 45 10000 2.6 360 15:20 18.03.2020
6270 Clouds 17 1011 45 10000 3.6 330 14:44 18.03.2020
6271 Clouds 18 1012 45 10000 3.6 330 14:21 18.03.2020
6272 Clouds 17 1012 45 10000 3.6 300 13:42 18.03.2020
6273 Clouds 18 1012 45 10000 1 0 13:20 18.03.2020
6274 Clouds 17 1013 51 10000 1.5 0 12:58 18.03.2020
6275 Clouds 17 1013 48 10000 1.5 0 12:39 18.03.2020
6276 Clouds 17 1013 48 10000 1.5 0 12:19 18.03.2020
6277 Clouds 13 1014 62 10000 2.1 20 11:39 18.03.2020
6278 Clouds 13 1014 62 10000 2.1 20 11:19 18.03.2020
6279 Clouds 14 1013 62 10000 1 0 10:58 18.03.2020
6280 Clouds 14 1013 62 10000 1 0 10:38 18.03.2020
6281 Clouds 14 1013 62 10000 1 0 10:19 18.03.2020
6282 Clouds 14 1013 67 10000 1 0 09:43 18.03.2020
6283 Clouds 12 1013 71 10000 2.1 100 09:24 18.03.2020
6284 Clouds 11 1013 76 10000 1 0 08:55 18.03.2020
6285 Rain 11 1013 71 0 1.5 30 08:37 18.03.2020
6286 Clouds 11 1013 71 0 1.5 30 08:19 18.03.2020
6287 Clouds 8 1012 86 0 1.12 90 07:43 18.03.2020
6288 Clouds 11 1013 71 0 2.1 60 07:25 18.03.2020
6289 Clouds 11 1013 71 10000 1.12 90 06:44 18.03.2020
6290 Clouds 12 1013 66 10000 2.6 160 05:56 18.03.2020
6291 Clouds 12 1013 71 10000 3.1 160 05:34 18.03.2020
6292 Clouds 11 1013 76 10000 0.5 0 04:24 18.03.2020
6293 Clouds 12 1014 76 10000 3.1 270 02:42 18.03.2020
6294 Clouds 12 1014 71 10000 3.1 280 01:47 18.03.2020
6295 Clouds 12 1014 71 10000 3.1 290 01:21 18.03.2020
6296 Clouds 12 1015 66 10000 4.6 290 00:23 18.03.2020
6297 Clouds 13 1015 62 10000 5.1 280 23:47 17.03.2020
6298 Clouds 13 1015 62 10000 4.1 300 23:26 17.03.2020
6299 Clouds 14 1015 54 10000 4.1 320 22:48 17.03.2020
6300 Clouds 14 1015 54 10000 4.1 320 22:29 17.03.2020
6301 Clouds 14 1014 54 10000 4.6 320 21:59 17.03.2020
6302 Clouds 15 1014 51 10000 5.1 340 21:39 17.03.2020
6303 Clouds 15 1014 51 10000 5.1 340 21:20 17.03.2020
6304 Clouds 17 1013 36 10000 2.6 260 20:39 17.03.2020
6305 Clouds 17 1013 36 10000 2.6 260 20:39 17.03.2020
6306 Clouds 17 1013 36 10000 2.6 260 20:21 17.03.2020
6307 Clouds 17 1013 36 10000 3.6 270 19:56 17.03.2020
6308 Clouds 18 1013 34 10000 3.1 280 19:38 17.03.2020
6309 Clouds 18 1013 34 10000 3.1 280 19:18 17.03.2020
6310 Clouds 18 1013 34 10000 3.6 270 18:55 17.03.2020
6311 Clouds 18 1013 34 10000 2.6 330 18:37 17.03.2020
6312 Clouds 18 1013 34 10000 2.6 330 18:19 17.03.2020
6313 Clouds 19 1013 34 10000 2.1 0 17:40 17.03.2020
6314 Clouds 19 1013 34 10000 2.1 0 17:21 17.03.2020
6315 Clouds 18 1013 36 10000 2.1 0 16:45 17.03.2020
6316 Clouds 19 1014 37 10000 2.6 0 16:20 17.03.2020
6317 Clouds 18 1014 36 10000 2.1 0 15:58 17.03.2020
6318 Clouds 18 1014 36 10000 1.5 0 15:39 17.03.2020
6319 Clouds 18 1014 36 10000 1.5 0 15:18 17.03.2020
6320 Clouds 17 1015 39 10000 2.1 0 14:41 17.03.2020
6321 Clouds 17 1015 39 10000 2.1 0 14:21 17.03.2020
6322 Clouds 16 1016 41 10000 1.5 0 13:43 17.03.2020
6323 Clouds 16 1016 41 10000 2.1 0 13:25 17.03.2020
6324 Clouds 15 1017 44 10000 2.1 0 12:54 17.03.2020
6325 Clouds 15 1017 44 10000 2.1 30 12:36 17.03.2020
6326 Clouds 15 1017 44 10000 2.1 30 12:18 17.03.2020
6327 Clouds 14 1018 47 10000 3.1 80 11:42 17.03.2020
6328 Clouds 13 1018 54 10000 2.6 80 11:24 17.03.2020
6329 Clouds 12 1018 58 10000 2.6 70 10:57 17.03.2020
6330 Clouds 12 1018 58 10000 2.6 70 10:57 17.03.2020
6331 Clouds 12 1018 58 10000 2.6 110 10:37 17.03.2020
6332 Clouds 12 1018 58 10000 2.6 110 10:18 17.03.2020
6333 Clouds 12 1018 58 10000 3.1 110 09:55 17.03.2020
6334 Clouds 11 1018 57 10000 3.1 50 09:36 17.03.2020
6335 Clouds 11 1018 57 10000 3.1 50 09:18 17.03.2020
6336 Clouds 11 1018 57 10000 3.1 60 08:42 17.03.2020
6337 Clouds 11 1018 62 10000 3.1 70 08:21 17.03.2020
6338 Clouds 11 1018 62 10000 3.6 40 07:49 17.03.2020
6339 Clouds 11 1018 62 10000 4.1 50 07:24 17.03.2020
6340 Clouds 11 1017 62 10000 4.1 40 06:53 17.03.2020
6341 Clouds 11 1017 57 10000 3.6 30 06:27 17.03.2020
6342 Clouds 11 1017 57 10000 3.6 40 05:38 17.03.2020
6343 Clouds 11 1018 62 10000 3.6 30 03:36 17.03.2020
6344 Clouds 11 1019 66 10000 3.6 30 02:38 17.03.2020
6345 Clouds 12 1019 62 10000 4.1 40 01:41 17.03.2020
6346 Clouds 12 1019 62 10000 4.6 30 01:18 17.03.2020
6347 Clouds 12 1019 62 10000 5.1 40 00:19 17.03.2020
6348 Clouds 13 1019 58 10000 5.1 50 23:44 16.03.2020
6349 Clouds 13 1019 58 10000 6.7 40 23:23 16.03.2020
6350 Clouds 13 1019 58 10000 6.2 40 22:39 16.03.2020
6351 Clouds 13 1019 58 10000 6.2 40 22:20 16.03.2020
6352 Clouds 14 1019 58 10000 4.6 40 21:55 16.03.2020
6353 Clouds 14 1018 58 10000 5.7 20 21:36 16.03.2020
6354 Clouds 14 1018 58 10000 5.7 20 21:18 16.03.2020
6355 Clouds 14 1018 62 10000 5.7 20 20:42 16.03.2020
6356 Clouds 15 1017 58 10000 6.2 20 20:24 16.03.2020
6357 Clouds 17 1016 51 10000 5.1 360 19:47 16.03.2020
6358 Clouds 18 1016 48 10000 4.6 360 19:25 16.03.2020
6359 Clouds 18 1016 52 10000 3.6 350 19:00 16.03.2020
6360 Clouds 19 1016 48 10000 3.1 340 18:40 16.03.2020
6361 Clouds 19 1016 52 10000 2.6 350 18:20 16.03.2020
6362 Clouds 19 1016 52 10000 2.6 350 17:46 16.03.2020
6363 Clouds 20 1016 49 10000 4.1 10 17:26 16.03.2020
6364 Clouds 20 1016 52 10000 2.6 10 16:58 16.03.2020
6365 Clouds 20 1016 49 10000 2.1 0 16:40 16.03.2020
6366 Clouds 20 1016 49 10000 2.1 0 16:40 16.03.2020
6367 Clouds 20 1016 49 10000 2.1 0 16:21 16.03.2020
6368 Clouds 19 1017 52 10000 3.1 10 15:43 16.03.2020
6369 Clouds 18 1017 55 10000 3.6 10 15:24 16.03.2020
6370 Clouds 18 1017 59 10000 3.6 30 14:48 16.03.2020
6371 Clouds 17 1018 59 10000 2.6 40 14:24 16.03.2020
6372 Clouds 17 1018 59 10000 3.1 50 13:53 16.03.2020
6373 Clouds 16 1019 67 8000 3.6 30 13:29 16.03.2020
6374 Clouds 16 1019 67 8000 3.6 30 12:58 16.03.2020
6375 Clouds 16 1019 67 8000 3.6 40 12:39 16.03.2020
6376 Clouds 16 1019 67 8000 3.6 40 12:20 16.03.2020
6377 Clouds 16 1019 67 8000 3.6 40 12:20 16.03.2020
6378 Clouds 15 1019 72 8000 2.6 20 11:44 16.03.2020
6379 Clouds 15 1019 72 8000 2.6 360 11:26 16.03.2020
6380 Clouds 15 1019 67 8000 2.1 50 10:45 16.03.2020
6381 Clouds 15 1019 67 8000 2.1 50 10:25 16.03.2020
6382 Clouds 15 1018 72 8000 1 0 09:59 16.03.2020
6383 Clouds 14 1018 76 8000 1.5 80 09:38 16.03.2020
6384 Clouds 14 1018 76 8000 1.5 80 09:19 16.03.2020
6385 Clouds 14 1018 76 8000 2.1 80 08:43 16.03.2020
6386 Clouds 14 1017 76 8000 2.1 80 08:23 16.03.2020
6387 Clouds 14 1017 76 8000 2.6 90 07:44 16.03.2020
6388 Clouds 14 1017 76 8000 2.6 70 07:21 16.03.2020
6389 Clouds 15 1016 67 8000 2.6 60 06:46 16.03.2020
6390 Clouds 14 1016 71 8000 3.1 70 06:22 16.03.2020
6391 Clouds 14 1016 76 8000 3.1 50 04:26 16.03.2020
6392 Clouds 14 1016 67 8000 1 0 01:49 16.03.2020
6393 Clouds 14 1016 71 8000 1 0 00:48 16.03.2020
6394 Clouds 14 1016 71 8000 1.5 100 00:28 16.03.2020
6395 Clouds 15 1017 67 8000 1.5 100 23:41 15.03.2020
6396 Clouds 15 1017 67 8000 1.5 100 23:19 15.03.2020
6397 Clouds 16 1017 63 8000 1.5 130 22:42 15.03.2020
6398 Clouds 16 1017 63 8000 1.5 130 22:42 15.03.2020
6399 Clouds 16 1017 63 8000 2.1 150 22:22 15.03.2020
6400 Clouds 16 1017 63 8000 2.1 160 21:40 15.03.2020
6401 Clouds 16 1016 63 8000 2.6 170 21:22 15.03.2020
6402 Clouds 16 1016 63 8000 1.5 160 20:58 15.03.2020
6403 Clouds 16 1016 63 8000 1.5 160 20:58 15.03.2020
6404 Clouds 16 1016 63 8000 1.5 160 20:40 15.03.2020
6405 Clouds 17 1016 59 8000 2.1 220 20:20 15.03.2020
6406 Clouds 17 1016 59 8000 1.5 190 19:56 15.03.2020
6407 Clouds 17 1016 63 8000 1 0 19:38 15.03.2020
6408 Clouds 17 1016 63 8000 1 0 19:19 15.03.2020
6409 Clouds 17 1015 63 8000 1 0 18:55 15.03.2020
6410 Clouds 17 1015 63 8000 1 0 18:36 15.03.2020
6411 Clouds 17 1015 63 8000 1 0 18:18 15.03.2020
6412 Clouds 17 1015 63 8000 1 0 17:40 15.03.2020
6413 Clouds 17 1015 63 8000 1 0 17:20 15.03.2020
6414 Clouds 17 1016 63 8000 1.5 340 16:56 15.03.2020
6415 Clouds 16 1016 67 8000 1.5 350 16:37 15.03.2020
6416 Clouds 16 1016 67 8000 1.5 350 16:18 15.03.2020
6417 Clouds 15 1017 72 6000 2.6 270 15:43 15.03.2020
6418 Clouds 15 1017 72 6000 2.6 270 15:25 15.03.2020
6419 Clouds 15 1017 77 6000 2.6 250 14:47 15.03.2020
6420 Clouds 15 1017 77 8000 2.1 230 14:28 15.03.2020
6421 Clouds 14 1017 82 8000 2.1 250 13:59 15.03.2020
6422 Clouds 14 1017 82 5000 2.6 270 13:40 15.03.2020
6423 Clouds 14 1017 82 5000 2.6 270 13:21 15.03.2020
6424 Clouds 13 1018 87 5000 2.6 310 12:58 15.03.2020
6425 Clouds 13 1018 87 5000 2.6 300 12:38 15.03.2020
6426 Clouds 13 1018 87 5000 2.6 300 12:20 15.03.2020
6427 Clouds 13 1018 87 5000 2.6 280 11:42 15.03.2020
6428 Clouds 12 1018 93 5000 3.1 260 11:22 15.03.2020
6429 Clouds 12 1018 87 5000 3.6 260 10:57 15.03.2020
6430 Clouds 12 1017 87 5000 3.6 240 10:38 15.03.2020
6431 Clouds 12 1017 87 5000 3.6 240 10:20 15.03.2020
6432 Mist 12 1017 87 4500 4.6 270 09:41 15.03.2020
6433 Clouds 12 1017 87 4500 4.6 260 09:22 15.03.2020
6434 Clouds 12 1016 87 6000 4.1 240 08:55 15.03.2020
6435 Clouds 11 1016 93 6000 4.6 250 08:36 15.03.2020
6436 Clouds 11 1016 93 6000 4.6 250 08:18 15.03.2020
6437 Clouds 12 1016 81 8000 4.6 240 07:44 15.03.2020
6438 Clouds 12 1015 81 8000 4.6 240 06:55 15.03.2020
6439 Clouds 12 1015 81 8000 4.1 240 06:34 15.03.2020
6440 Clouds 12 1015 81 8000 3.1 240 05:43 15.03.2020
6441 Clouds 13 1014 76 8000 2.6 250 04:47 15.03.2020
6442 Clouds 13 1015 76 8000 3.1 260 04:28 15.03.2020
6443 Clouds 13 1015 76 8000 3.6 260 03:54 15.03.2020
6444 Clouds 14 1015 76 8000 4.6 240 02:47 15.03.2020
6445 Clouds 15 1016 72 8000 4.1 250 01:40 15.03.2020
6446 Clouds 17 1016 59 8000 3.1 260 00:47 15.03.2020
6447 Clouds 20 1016 40 8000 2.1 60 00:27 15.03.2020
6448 Clouds 21 1016 37 8000 4.1 130 23:56 14.03.2020
6449 Clouds 21 1017 40 8000 4.1 160 23:37 14.03.2020
6450 Clouds 21 1017 40 8000 4.1 160 23:18 14.03.2020
6451 Clouds 22 1017 35 8000 7.2 110 22:44 14.03.2020
6452 Clouds 21 1016 37 8000 5.7 100 22:26 14.03.2020
6453 Clouds 21 1016 40 8000 4.6 80 21:57 14.03.2020
6454 Clouds 20 1016 56 8000 2.1 30 21:36 14.03.2020
6455 Clouds 20 1016 56 8000 2.1 30 21:18 14.03.2020
6456 Clouds 20 1016 56 8000 0.5 0 20:59 14.03.2020
6457 Clouds 20 1016 56 8000 0.5 0 20:40 14.03.2020
6458 Clouds 20 1016 56 8000 3.1 260 20:19 14.03.2020
6459 Clouds 21 1016 52 8000 1 0 19:44 14.03.2020
6460 Clouds 21 1016 52 8000 3.1 240 19:25 14.03.2020
6461 Clouds 21 1016 49 8000 3.1 240 18:56 14.03.2020
6462 Clouds 21 1016 49 8000 2.6 180 18:37 14.03.2020
6463 Clouds 21 1016 49 8000 2.6 180 18:19 14.03.2020
6464 Clouds 21 1016 52 8000 3.1 260 17:39 14.03.2020
6465 Clouds 21 1016 52 8000 3.1 260 17:20 14.03.2020
6466 Clouds 22 1016 49 8000 4.1 220 16:41 14.03.2020
6467 Clouds 22 1016 49 8000 4.1 220 16:23 14.03.2020
6468 Clouds 22 1016 49 8000 2.6 260 15:58 14.03.2020
6469 Clouds 22 1016 49 8000 3.1 280 15:27 14.03.2020
6470 Clouds 21 1016 52 8000 2.1 350 14:58 14.03.2020
6471 Clouds 20 1017 60 8000 2.6 0 14:37 14.03.2020
6472 Clouds 20 1017 60 8000 2.6 0 14:18 14.03.2020
6473 Clouds 20 1017 56 8000 2.6 0 13:42 14.03.2020
6474 Clouds 20 1018 60 8000 2.1 270 13:23 14.03.2020
6475 Clouds 18 1018 63 8000 2.6 290 12:55 14.03.2020
6476 Clouds 18 1018 68 8000 2.1 0 12:37 14.03.2020
6477 Clouds 18 1018 68 8000 2.1 0 12:19 14.03.2020
6478 Clouds 16 1019 72 7000 2.1 0 11:40 14.03.2020
6479 Clouds 16 1019 72 7000 2.1 0 11:20 14.03.2020
6480 Clouds 14 1019 82 7000 2.6 220 10:46 14.03.2020
6481 Clouds 14 1019 82 7000 2.6 230 10:27 14.03.2020
6482 Clouds 13 1019 82 7000 2.6 230 09:58 14.03.2020
6483 Clouds 12 1019 87 7000 3.1 250 09:39 14.03.2020
6484 Clouds 12 1019 87 7000 3.1 250 09:20 14.03.2020
6485 Clouds 11 1019 93 10000 2.6 260 08:45 14.03.2020
6486 Clouds 11 1018 87 10000 2.6 260 08:45 14.03.2020
6487 Clouds 11 1018 87 10000 2.6 260 08:23 14.03.2020
6488 Clouds 11 1018 87 10000 2.1 250 07:39 14.03.2020
6489 Clouds 11 1018 87 10000 2.1 250 07:20 14.03.2020
6490 Clouds 11 1017 87 10000 1 0 06:41 14.03.2020
6491 Clouds 12 1017 87 0 3.1 230 05:56 14.03.2020
6492 Clouds 11 1017 87 10000 2.1 260 04:51 14.03.2020
6493 Clouds 13 1018 82 10000 3.1 250 03:25 14.03.2020
6494 Clouds 14 1018 76 10000 2.1 240 02:28 14.03.2020
6495 Clouds 14 1019 76 10000 3.6 240 01:27 14.03.2020
6496 Clouds 15 1019 72 10000 3.1 250 00:20 14.03.2020
6497 Clouds 18 1019 59 10000 1.5 30 23:32 13.03.2020
6498 Clouds 18 1019 59 10000 1.5 40 22:57 13.03.2020
6499 Clouds 19 1019 55 10000 3.6 350 22:38 13.03.2020
6500 Clouds 19 1019 55 10000 3.6 350 22:19 13.03.2020
6501 Clouds 21 1018 49 10000 4.1 340 21:39 13.03.2020
6502 Clouds 21 1018 49 10000 4.1 340 21:18 13.03.2020
6503 Clouds 23 1017 40 10000 4.6 340 20:41 13.03.2020
6504 Clouds 24 1017 36 10000 4.6 330 20:22 13.03.2020
6505 Clouds 24 1016 33 10000 4.1 330 19:49 13.03.2020
6506 Clouds 26 1016 27 10000 4.1 340 19:31 13.03.2020
6507 Clouds 26 1016 27 10000 4.1 320 18:59 13.03.2020
6508 Clouds 28 1016 23 10000 2.1 0 18:39 13.03.2020
6509 Clouds 28 1016 23 10000 2.1 0 18:21 13.03.2020
6510 Clouds 27 1016 26 10000 2.6 330 17:42 13.03.2020
6511 Clouds 27 1016 26 10000 2.6 330 17:21 13.03.2020
6512 Clouds 28 1016 26 10000 2.6 0 16:56 13.03.2020
6513 Clouds 27 1016 28 10000 3.1 0 16:37 13.03.2020
6514 Clouds 27 1016 28 10000 3.1 0 16:19 13.03.2020
6515 Clouds 26 1016 27 10000 3.1 320 15:41 13.03.2020
6516 Clouds 26 1017 29 10000 2.6 330 15:21 13.03.2020
6517 Clouds 26 1017 31 10000 2.1 0 14:44 13.03.2020
6518 Clouds 24 1018 36 10000 3.1 310 14:23 13.03.2020
6519 Clouds 24 1019 38 10000 3.1 290 13:59 13.03.2020
6520 Clouds 24 1019 38 10000 3.1 290 13:40 13.03.2020
6521 -273 0 0 0 0 0 13:21 13.03.2020
6522 Clouds 22 1019 40 10000 3.1 300 12:56 13.03.2020
6523 Clouds 21 1019 46 10000 2.6 300 12:38 13.03.2020
6524 Clouds 21 1019 46 10000 2.6 300 12:19 13.03.2020
6525 Clouds 20 1020 52 10000 2.6 300 11:45 13.03.2020
6526 Clouds 19 1020 52 10000 2.1 280 11:26 13.03.2020
6527 Clouds 17 1019 63 10000 2.1 280 10:58 13.03.2020
6528 Clouds 16 1019 67 10000 2.6 290 10:39 13.03.2020
6529 Clouds 16 1019 67 10000 2.6 290 10:21 13.03.2020
6530 Clouds 14 1019 71 10000 2.6 250 09:44 13.03.2020
6531 Clouds 14 1019 71 10000 2.6 250 09:25 13.03.2020
6532 Clouds 14 1019 62 10000 2.1 260 08:48 13.03.2020
6533 Clouds 13 1019 58 10000 1.5 270 08:24 13.03.2020
6534 Clouds 12 1019 62 10000 2.1 250 07:59 13.03.2020
6535 Clouds 14 1018 54 10000 0.5 0 07:38 13.03.2020
6536 Clouds 14 1018 54 10000 0.5 0 07:20 13.03.2020
6537 Clouds 14 1018 54 10000 1.5 270 06:45 13.03.2020
6538 Clouds 13 1018 58 10000 2.1 270 06:18 13.03.2020
6539 Clouds 16 1018 51 10000 0.5 0 05:43 13.03.2020
6540 Clouds 16 1018 55 10000 1.5 270 04:39 13.03.2020
6541 Clouds 17 1019 51 10000 2.6 300 03:50 13.03.2020
6542 Clouds 19 1019 45 10000 4.6 230 01:48 13.03.2020
6543 Clouds 18 1020 48 10000 3.6 240 01:19 13.03.2020
6544 Clouds 19 1020 48 10000 3.6 250 00:56 13.03.2020
6545 Clouds 20 1020 45 10000 3.1 230 00:37 13.03.2020
6546 Clouds 20 1020 45 10000 3.1 230 00:18 13.03.2020
6547 Clouds 22 1020 46 10000 2.6 20 23:29 12.03.2020
6548 Clouds 23 1020 43 10000 2.1 20 22:58 12.03.2020
6549 Clouds 23 1020 35 10000 2.1 280 22:40 12.03.2020
6550 Clouds 23 1020 35 10000 2.1 280 22:22 12.03.2020
6551 Clouds 24 1020 27 10000 2.6 20 21:46 12.03.2020
6552 Clouds 24 1019 25 10000 3.1 200 21:28 12.03.2020
6553 Clouds 24 1018 27 10000 5.1 170 20:59 12.03.2020
6554 Clouds 24 1018 27 10000 5.1 170 20:40 12.03.2020
6555 Clouds 25 1018 23 10000 4.6 160 20:19 12.03.2020
6556 Clouds 26 1018 21 10000 0.5 0 19:42 12.03.2020
6557 Clouds 27 1018 19 10000 4.6 220 19:21 12.03.2020
6558 Clouds 28 1018 25 10000 4.6 180 18:45 12.03.2020
6559 Clouds 29 1017 12 10000 2.1 0 18:25 12.03.2020
6560 Clouds 29 1017 11 10000 2.1 0 17:57 12.03.2020
6561 Clouds 29 1017 11 10000 1.5 0 17:39 12.03.2020
6562 Clouds 29 1017 11 10000 1.5 0 17:20 12.03.2020
6563 Clouds 29 1017 11 10000 2.6 0 16:56 12.03.2020
6564 Clouds 29 1017 12 10000 1.5 340 16:38 12.03.2020
6565 Clouds 29 1017 12 10000 1.5 340 16:19 12.03.2020
6566 Clouds 30 1017 13 10000 2.6 0 15:45 12.03.2020
6567 Clouds 30 1018 15 10000 3.6 340 15:27 12.03.2020
6568 Clouds 30 1018 16 10000 3.1 350 14:42 12.03.2020
6569 Clouds 29 1019 17 10000 2.6 350 14:24 12.03.2020
6570 Clouds 29 1020 17 10000 2.6 0 13:57 12.03.2020
6571 Clouds 27 1020 19 10000 2.6 330 13:37 12.03.2020
6572 Clouds 27 1020 19 10000 2.6 330 13:19 12.03.2020
6573 Clouds 27 1021 19 8000 2.1 350 12:41 12.03.2020
6574 Clouds 26 1021 19 8000 1.5 350 12:22 12.03.2020
6575 Clouds 25 1021 22 6000 1.5 340 11:57 12.03.2020
6576 Clouds 24 1021 23 6000 1.5 0 11:38 12.03.2020
6577 Clouds 24 1021 23 6000 1.5 0 11:20 12.03.2020
6578 Clouds 22 1021 28 6000 1.5 20 10:59 12.03.2020
6579 Clouds 22 1021 24 10000 0.5 0 10:40 12.03.2020
6580 Clouds 22 1021 24 10000 0.5 0 10:22 12.03.2020
6581 Clouds 21 1021 19 10000 0.5 0 09:46 12.03.2020
6582 Clouds 19 1021 29 10000 0.5 0 09:27 12.03.2020
6583 Clouds 15 1020 19 10000 0.43 187 08:45 12.03.2020
6584 Clouds 14 1020 35 10000 1 0 08:20 12.03.2020
6585 Clouds 14 1020 33 10000 0.5 0 07:59 12.03.2020
6586 Clouds 14 1020 33 10000 0.5 0 07:40 12.03.2020
6587 -273 0 0 0 0 0 07:21 12.03.2020
6588 Clear 15 1019 33 10000 0.5 0 05:55 12.03.2020
6589 Clouds 17 1019 33 10000 1.5 20 05:26 12.03.2020
6590 Clouds 18 1021 29 10000 1 0 02:43 12.03.2020
6591 Clouds 19 1022 28 10000 0.5 0 01:36 12.03.2020
6592 Clouds 19 1022 28 10000 0.5 0 01:18 12.03.2020
6593 Clouds 19 1022 29 10000 0.5 0 00:40 12.03.2020
6594 Clouds 20 1022 24 10000 1 0 23:51 11.03.2020
6595 Clouds 21 1022 22 10000 2.1 240 23:26 11.03.2020
6596 Clouds 23 1022 24 10000 2.6 210 22:55 11.03.2020
6597 Clouds 23 1022 24 10000 1.5 260 22:37 11.03.2020
6598 Clouds 23 1022 24 10000 1.5 260 22:37 11.03.2020
6599 Clouds 23 1022 24 10000 1.5 260 22:18 11.03.2020
6600 Clouds 24 1021 19 10000 2.6 300 21:41 11.03.2020
6601 Clouds 25 1021 17 10000 3.1 310 21:23 11.03.2020
6602 Clouds 26 1020 15 10000 3.1 310 20:59 11.03.2020
6603 Clouds 27 1020 14 10000 3.6 330 20:40 11.03.2020
6604 Clouds 27 1020 14 10000 3.6 330 20:20 11.03.2020
6605 Clouds 28 1019 13 10000 3.6 330 19:57 11.03.2020
6606 Clouds 30 1019 12 10000 3.1 290 19:38 11.03.2020
6607 Clouds 30 1019 12 10000 3.1 290 19:38 11.03.2020
6608 Clouds 30 1019 12 10000 3.1 290 19:20 11.03.2020
6609 Clouds 31 1019 11 10000 2.1 310 18:43 11.03.2020
6610 Clouds 31 1019 11 10000 2.6 330 18:24 11.03.2020
6611 Clouds 31 1019 10 10000 1.5 0 17:59 11.03.2020
6612 Clouds 32 1019 11 10000 2.1 0 17:39 11.03.2020
6613 Clouds 32 1019 11 10000 2.1 0 17:21 11.03.2020
6614 Clouds 31 1019 12 10000 3.1 300 16:47 11.03.2020
6615 Clouds 31 1019 11 10000 2.6 350 16:24 11.03.2020
6616 Clouds 31 1019 11 10000 3.6 330 15:59 11.03.2020
6617 Clouds 31 1019 11 10000 3.6 330 15:59 11.03.2020
6618 Clouds 31 1019 11 10000 3.6 330 15:41 11.03.2020
6619 Clouds 31 1019 11 10000 4.1 310 15:22 11.03.2020
6620 Clouds 31 1020 11 10000 3.6 310 14:44 11.03.2020
6621 Clear 31 1020 12 10000 2.1 0 14:23 11.03.2020
6622 Clear 29 1021 10 0 3.35 5 13:57 11.03.2020
6623 Clear 29 1021 10 0 3.35 5 13:38 11.03.2020
6624 Clear 29 1021 10 0 3.35 5 13:20 11.03.2020
6625 Clear 29 1021 10 0 3.26 3 12:40 11.03.2020
6626 Clear 25 1021 22 10000 2.1 90 12:20 11.03.2020
6627 Clear 25 1021 22 10000 2.1 90 11:56 11.03.2020
6628 Clear 25 1021 22 10000 2.1 90 11:37 11.03.2020
6629 Clear 25 1021 22 10000 2.1 90 11:19 11.03.2020
6630 Clear 23 1021 27 10000 1.5 70 10:42 11.03.2020
6631 Clear 21 1021 30 10000 1.5 80 10:19 11.03.2020
6632 Clear 19 1021 32 10000 2.1 90 09:43 11.03.2020
6633 Clear 17 1021 33 10000 2.1 100 09:25 11.03.2020
6634 Clear 14 1021 41 10000 2.6 90 08:58 11.03.2020
6635 Clear 13 1021 14 10000 3.1 100 08:40 11.03.2020
6636 Clear 13 1021 33 10000 3.1 100 08:19 11.03.2020
6637 Clear 12 1021 33 10000 2.6 90 07:43 11.03.2020
6638 Clear 15 1020 33 10000 1 0 07:19 11.03.2020
6639 Clear 15 1020 33 10000 1 0 06:44 11.03.2020
6640 Clear 15 1020 33 10000 1 0 05:36 11.03.2020
6641 Clear 15 1020 38 10000 1 0 04:31 11.03.2020
6642 Clear 17 1021 42 10000 1.5 250 02:24 11.03.2020
6643 Clear 16 1021 44 10000 2.6 250 01:30 11.03.2020
6644 Clear 19 1021 39 10000 1.5 230 00:47 11.03.2020
6645 Clear 20 1021 37 10000 3.1 220 00:18 11.03.2020
6646 Clear 21 1021 37 10000 0.5 0 23:40 10.03.2020
6647 Clear 21 1021 37 10000 0.5 0 23:21 10.03.2020
6648 Clear 22 1020 35 10000 3.6 40 22:39 10.03.2020
6649 Clear 22 1020 35 10000 3.6 40 22:20 10.03.2020
6650 Clear 23 1020 33 10000 2.6 360 21:57 10.03.2020
6651 Clear 24 1020 31 10000 4.6 360 21:39 10.03.2020
6652 Clear 24 1020 31 10000 4.6 360 21:20 10.03.2020
6653 Clear 25 1019 16 0 1 0 20:59 10.03.2020
6654 Clear 27 1019 12 10000 1.5 330 20:41 10.03.2020
6655 Clear 27 1019 12 10000 1.5 330 20:18 10.03.2020
6656 Clear 29 1019 12 10000 1 0 19:57 10.03.2020
6657 Clear 29 1019 12 10000 1 0 19:57 10.03.2020
6658 Clear 30 1019 11 10000 1 0 19:37 10.03.2020
6659 Clear 30 1019 11 10000 1 0 19:19 10.03.2020
6660 Clear 30 1019 10 10000 2.6 20 18:44 10.03.2020
6661 Clear 30 1019 11 10000 2.6 20 18:26 10.03.2020
6662 Clear 31 1019 10 10000 2.1 0 17:57 10.03.2020
6663 Clear 31 1019 11 10000 2.6 60 17:39 10.03.2020
6664 Clear 31 1019 11 10000 2.6 60 17:21 10.03.2020
6665 Clear 30 1019 13 10000 3.1 340 16:39 10.03.2020
6666 Clear 30 1019 13 10000 3.1 340 16:19 10.03.2020
6667 Clear 31 1019 11 10000 2.1 0 15:56 10.03.2020
6668 Clear 29 1020 13 10000 3.1 50 15:37 10.03.2020
6669 Clear 29 1020 13 10000 3.1 50 15:19 10.03.2020
6670 Clear 28 1021 15 10000 3.1 30 14:41 10.03.2020
6671 Clear 28 1021 15 10000 3.1 30 14:20 10.03.2020
6672 Clear 27 1021 14 10000 2.1 70 13:58 10.03.2020
6673 Clear 26 1022 14 10000 2.6 50 13:38 10.03.2020
6674 Clear 26 1022 14 10000 2.6 50 13:20 10.03.2020
6675 Clear 25 1022 14 10000 3.1 40 12:42 10.03.2020
6676 Clear 23 1023 14 10000 2.1 70 12:19 10.03.2020
6677 Clear 23 1023 14 10000 2.1 70 11:58 10.03.2020
6678 Clear 23 1023 14 10000 2.1 70 11:58 10.03.2020
6679 Clear 21 1023 22 10000 2.6 100 11:40 10.03.2020
6680 Clear 21 1023 22 10000 2.6 100 11:40 10.03.2020
6681 Clear 21 1023 22 10000 2.6 100 11:22 10.03.2020
6682 Clear 17 1023 29 10000 3.6 100 10:43 10.03.2020
6683 Clear 17 1023 29 10000 3.6 100 10:23 10.03.2020
6684 Clear 16 1023 31 10000 3.6 80 09:57 10.03.2020
6685 Clear 16 1022 22 10000 3.1 60 09:39 10.03.2020
6686 Clear 16 1022 22 10000 3.1 60 09:19 10.03.2020
6687 Clear 12 1022 22 10000 2.1 70 08:51 10.03.2020
6688 Clear 11 1022 22 10000 3.1 90 08:32 10.03.2020
6689 Clear 11 1022 43 10000 2.6 80 07:50 10.03.2020
6690 Clear 11 1022 37 10000 3.6 110 07:31 10.03.2020
6691 Clear 11 1022 37 10000 2.6 90 06:45 10.03.2020
6692 Clear 11 1022 37 10000 2.1 80 06:27 10.03.2020
6693 Clear 11 1022 37 10000 1.5 70 05:41 10.03.2020
6694 Clear 13 1022 45 10000 0.5 0 04:40 10.03.2020
6695 Clear 14 1023 45 10000 1.5 70 03:41 10.03.2020
6696 Clear 14 1023 41 10000 2.1 90 02:26 10.03.2020
6697 Clear 17